<?xml version="1.0" encoding="UTF-8" standalone="no" ?>
<gpx xmlns="http://www.topografix.com/GPX/1/1" xmlns:xsi="http://www.w3.org/2001/XMLSchema-instance" xsi:schemaLocation="http://www.topografix.com/GPX/1/1 http://www.topografix.com/GPX/1/1/gpx.xsd" version="1.1" creator="VisuGPX - https://www.visugpx.com">
  <metadata>
    <name>Boucle 25 km autour de Nailly </name>
    <desc><![CDATA[Balade effectuée avec un âne - Très beaux paysages en cette saison]]></desc>
  </metadata>
  <trk>
    <name><![CDATA[SityTrail - Boucle 25 km autour de Nailly ]]></name>
    <desc><![CDATA[Balade effectuée avec un âne - Très beaux paysages en cette saison]]></desc>
    <trkseg>
      <trkpt lat="48.22091" lon="3.1907">
        <ele>122</ele>
        <time>2024-05-23T06:44:32.144Z</time>
      </trkpt>
      <trkpt lat="48.22091" lon="3.1907">
        <ele>122</ele>
        <time>2024-05-23T06:44:32.144Z</time>
      </trkpt>
      <trkpt lat="48.22091" lon="3.19069">
        <ele>124</ele>
        <time>2024-05-23T06:46:44.145Z</time>
      </trkpt>
      <trkpt lat="48.22092" lon="3.1907">
        <ele>122</ele>
        <time>2024-05-23T06:46:48.145Z</time>
      </trkpt>
      <trkpt lat="48.22092" lon="3.19072">
        <ele>122</ele>
        <time>2024-05-23T06:46:52.656Z</time>
      </trkpt>
      <trkpt lat="48.22097" lon="3.19082">
        <ele>122</ele>
        <time>2024-05-23T06:46:57.145Z</time>
      </trkpt>
      <trkpt lat="48.22096" lon="3.19089">
        <ele>122</ele>
        <time>2024-05-23T06:47:01.146Z</time>
      </trkpt>
      <trkpt lat="48.22098" lon="3.19093">
        <ele>123</ele>
        <time>2024-05-23T06:47:56.146Z</time>
      </trkpt>
      <trkpt lat="48.22096" lon="3.19084">
        <ele>122</ele>
        <time>2024-05-23T06:48:00.317Z</time>
      </trkpt>
      <trkpt lat="48.22096" lon="3.19077">
        <ele>122</ele>
        <time>2024-05-23T06:48:04.336Z</time>
      </trkpt>
      <trkpt lat="48.22098" lon="3.19069">
        <ele>125</ele>
        <time>2024-05-23T06:48:08.755Z</time>
      </trkpt>
      <trkpt lat="48.22098" lon="3.19063">
        <ele>125</ele>
        <time>2024-05-23T06:48:12.900Z</time>
      </trkpt>
      <trkpt lat="48.2209" lon="3.19066">
        <ele>124</ele>
        <time>2024-05-23T06:49:10.146Z</time>
      </trkpt>
      <trkpt lat="48.2209" lon="3.19067">
        <ele>124</ele>
        <time>2024-05-23T06:49:14.145Z</time>
      </trkpt>
      <trkpt lat="48.2209" lon="3.19067">
        <ele>124</ele>
        <time>2024-05-23T06:49:19.145Z</time>
      </trkpt>
      <trkpt lat="48.2209" lon="3.19067">
        <ele>124</ele>
        <time>2024-05-23T06:49:23.146Z</time>
      </trkpt>
      <trkpt lat="48.22089" lon="3.19067">
        <ele>124</ele>
        <time>2024-05-23T06:49:28.146Z</time>
      </trkpt>
      <trkpt lat="48.22088" lon="3.19058">
        <ele>124</ele>
        <time>2024-05-23T06:56:44.144Z</time>
      </trkpt>
      <trkpt lat="48.22088" lon="3.19058">
        <ele>124</ele>
        <time>2024-05-23T06:56:48.356Z</time>
      </trkpt>
      <trkpt lat="48.22086" lon="3.19058">
        <ele>124</ele>
        <time>2024-05-23T06:56:53.144Z</time>
      </trkpt>
      <trkpt lat="48.22084" lon="3.1906">
        <ele>124</ele>
        <time>2024-05-23T06:56:57.145Z</time>
      </trkpt>
      <trkpt lat="48.22081" lon="3.19062">
        <ele>124</ele>
        <time>2024-05-23T06:57:01.741Z</time>
      </trkpt>
      <trkpt lat="48.22076" lon="3.19066">
        <ele>124</ele>
        <time>2024-05-23T06:57:06.536Z</time>
      </trkpt>
      <trkpt lat="48.22073" lon="3.19068">
        <ele>124</ele>
        <time>2024-05-23T06:57:10.891Z</time>
      </trkpt>
      <trkpt lat="48.2207" lon="3.19073">
        <ele>122</ele>
        <time>2024-05-23T06:57:15.620Z</time>
      </trkpt>
      <trkpt lat="48.22071" lon="3.19078">
        <ele>122</ele>
        <time>2024-05-23T06:57:19.696Z</time>
      </trkpt>
      <trkpt lat="48.22072" lon="3.19084">
        <ele>122</ele>
        <time>2024-05-23T06:57:24.057Z</time>
      </trkpt>
      <trkpt lat="48.22075" lon="3.19087">
        <ele>122</ele>
        <time>2024-05-23T06:57:48.145Z</time>
      </trkpt>
      <trkpt lat="48.22075" lon="3.19087">
        <ele>122</ele>
        <time>2024-05-23T06:57:53.144Z</time>
      </trkpt>
      <trkpt lat="48.22077" lon="3.1909">
        <ele>122</ele>
        <time>2024-05-23T06:57:57.821Z</time>
      </trkpt>
      <trkpt lat="48.22079" lon="3.19094">
        <ele>122</ele>
        <time>2024-05-23T06:58:02.144Z</time>
      </trkpt>
      <trkpt lat="48.22081" lon="3.191">
        <ele>121</ele>
        <time>2024-05-23T06:58:07.060Z</time>
      </trkpt>
      <trkpt lat="48.22083" lon="3.19104">
        <ele>121</ele>
        <time>2024-05-23T06:58:11.145Z</time>
      </trkpt>
      <trkpt lat="48.22081" lon="3.1911">
        <ele>121</ele>
        <time>2024-05-23T06:58:15.582Z</time>
      </trkpt>
      <trkpt lat="48.22083" lon="3.19115">
        <ele>121</ele>
        <time>2024-05-23T06:58:20.144Z</time>
      </trkpt>
      <trkpt lat="48.22085" lon="3.1912">
        <ele>121</ele>
        <time>2024-05-23T06:58:24.701Z</time>
      </trkpt>
      <trkpt lat="48.22088" lon="3.19125">
        <ele>120</ele>
        <time>2024-05-23T06:58:28.857Z</time>
      </trkpt>
      <trkpt lat="48.22086" lon="3.19133">
        <ele>120</ele>
        <time>2024-05-23T06:58:33.144Z</time>
      </trkpt>
      <trkpt lat="48.22089" lon="3.19139">
        <ele>120</ele>
        <time>2024-05-23T06:58:37.761Z</time>
      </trkpt>
      <trkpt lat="48.22089" lon="3.1914">
        <ele>120</ele>
        <time>2024-05-23T06:58:38.948Z</time>
      </trkpt>
      <trkpt lat="48.22091" lon="3.19154">
        <ele>117</ele>
        <time>2024-05-23T06:58:48.144Z</time>
      </trkpt>
      <trkpt lat="48.22092" lon="3.19161">
        <ele>117</ele>
        <time>2024-05-23T06:58:52.345Z</time>
      </trkpt>
      <trkpt lat="48.22097" lon="3.1917">
        <ele>117</ele>
        <time>2024-05-23T06:58:56.704Z</time>
      </trkpt>
      <trkpt lat="48.22101" lon="3.19176">
        <ele>119</ele>
        <time>2024-05-23T06:59:01.140Z</time>
      </trkpt>
      <trkpt lat="48.22104" lon="3.19183">
        <ele>117</ele>
        <time>2024-05-23T06:59:05.439Z</time>
      </trkpt>
      <trkpt lat="48.22106" lon="3.19189">
        <ele>117</ele>
        <time>2024-05-23T06:59:09.586Z</time>
      </trkpt>
      <trkpt lat="48.22107" lon="3.19195">
        <ele>117</ele>
        <time>2024-05-23T06:59:13.828Z</time>
      </trkpt>
      <trkpt lat="48.2211" lon="3.19202">
        <ele>117</ele>
        <time>2024-05-23T06:59:18.146Z</time>
      </trkpt>
      <trkpt lat="48.22111" lon="3.19208">
        <ele>117</ele>
        <time>2024-05-23T06:59:22.666Z</time>
      </trkpt>
      <trkpt lat="48.22113" lon="3.19215">
        <ele>117</ele>
        <time>2024-05-23T06:59:27.146Z</time>
      </trkpt>
      <trkpt lat="48.22113" lon="3.19222">
        <ele>117</ele>
        <time>2024-05-23T06:59:31Z</time>
      </trkpt>
      <trkpt lat="48.22118" lon="3.19234">
        <ele>117</ele>
        <time>2024-05-23T06:59:39.131Z</time>
      </trkpt>
      <trkpt lat="48.2212" lon="3.19239">
        <ele>116</ele>
        <time>2024-05-23T06:59:43.146Z</time>
      </trkpt>
      <trkpt lat="48.22121" lon="3.19245">
        <ele>116</ele>
        <time>2024-05-23T06:59:47.438Z</time>
      </trkpt>
      <trkpt lat="48.22123" lon="3.19251">
        <ele>116</ele>
        <time>2024-05-23T06:59:51.767Z</time>
      </trkpt>
      <trkpt lat="48.22124" lon="3.19258">
        <ele>116</ele>
        <time>2024-05-23T06:59:55.842Z</time>
      </trkpt>
      <trkpt lat="48.22126" lon="3.19263">
        <ele>115</ele>
        <time>2024-05-23T07:00:00.146Z</time>
      </trkpt>
      <trkpt lat="48.22128" lon="3.19268">
        <ele>113</ele>
        <time>2024-05-23T07:00:05.146Z</time>
      </trkpt>
      <trkpt lat="48.22128" lon="3.19268">
        <ele>113</ele>
        <time>2024-05-23T07:00:09.305Z</time>
      </trkpt>
      <trkpt lat="48.22131" lon="3.19278">
        <ele>113</ele>
        <time>2024-05-23T07:00:13.741Z</time>
      </trkpt>
      <trkpt lat="48.22134" lon="3.19282">
        <ele>113</ele>
        <time>2024-05-23T07:00:18.146Z</time>
      </trkpt>
      <trkpt lat="48.22136" lon="3.1929">
        <ele>113</ele>
        <time>2024-05-23T07:00:23.146Z</time>
      </trkpt>
      <trkpt lat="48.22135" lon="3.19297">
        <ele>112</ele>
        <time>2024-05-23T07:00:27.621Z</time>
      </trkpt>
      <trkpt lat="48.22139" lon="3.19303">
        <ele>112</ele>
        <time>2024-05-23T07:00:31.946Z</time>
      </trkpt>
      <trkpt lat="48.2214" lon="3.1931">
        <ele>112</ele>
        <time>2024-05-23T07:00:36.146Z</time>
      </trkpt>
      <trkpt lat="48.22141" lon="3.19318">
        <ele>112</ele>
        <time>2024-05-23T07:00:40.503Z</time>
      </trkpt>
      <trkpt lat="48.22142" lon="3.19327">
        <ele>112</ele>
        <time>2024-05-23T07:00:44.879Z</time>
      </trkpt>
      <trkpt lat="48.22145" lon="3.19333">
        <ele>112</ele>
        <time>2024-05-23T07:00:49.146Z</time>
      </trkpt>
      <trkpt lat="48.22147" lon="3.19341">
        <ele>112</ele>
        <time>2024-05-23T07:00:53.563Z</time>
      </trkpt>
      <trkpt lat="48.22149" lon="3.1935">
        <ele>112</ele>
        <time>2024-05-23T07:00:58.003Z</time>
      </trkpt>
      <trkpt lat="48.2215" lon="3.19356">
        <ele>112</ele>
        <time>2024-05-23T07:01:02.385Z</time>
      </trkpt>
      <trkpt lat="48.22151" lon="3.19365">
        <ele>112</ele>
        <time>2024-05-23T07:01:06.641Z</time>
      </trkpt>
      <trkpt lat="48.22152" lon="3.19375">
        <ele>112</ele>
        <time>2024-05-23T07:01:10.984Z</time>
      </trkpt>
      <trkpt lat="48.22153" lon="3.19382">
        <ele>112</ele>
        <time>2024-05-23T07:01:15.505Z</time>
      </trkpt>
      <trkpt lat="48.22154" lon="3.1939">
        <ele>114</ele>
        <time>2024-05-23T07:01:20.026Z</time>
      </trkpt>
      <trkpt lat="48.22156" lon="3.19396">
        <ele>114</ele>
        <time>2024-05-23T07:01:24.394Z</time>
      </trkpt>
      <trkpt lat="48.22157" lon="3.19405">
        <ele>115</ele>
        <time>2024-05-23T07:01:28.907Z</time>
      </trkpt>
      <trkpt lat="48.22157" lon="3.19411">
        <ele>115</ele>
        <time>2024-05-23T07:01:33.146Z</time>
      </trkpt>
      <trkpt lat="48.2216" lon="3.1942">
        <ele>115</ele>
        <time>2024-05-23T07:01:37.762Z</time>
      </trkpt>
      <trkpt lat="48.22161" lon="3.19427">
        <ele>115</ele>
        <time>2024-05-23T07:01:42.146Z</time>
      </trkpt>
      <trkpt lat="48.22164" lon="3.19435">
        <ele>114</ele>
        <time>2024-05-23T07:01:46.821Z</time>
      </trkpt>
      <trkpt lat="48.22166" lon="3.19442">
        <ele>114</ele>
        <time>2024-05-23T07:01:51.385Z</time>
      </trkpt>
      <trkpt lat="48.22167" lon="3.1945">
        <ele>114</ele>
        <time>2024-05-23T07:01:55.924Z</time>
      </trkpt>
      <trkpt lat="48.22169" lon="3.19457">
        <ele>114</ele>
        <time>2024-05-23T07:02:00.641Z</time>
      </trkpt>
      <trkpt lat="48.22172" lon="3.19465">
        <ele>113</ele>
        <time>2024-05-23T07:02:05.146Z</time>
      </trkpt>
      <trkpt lat="48.22174" lon="3.19473">
        <ele>113</ele>
        <time>2024-05-23T07:02:09.708Z</time>
      </trkpt>
      <trkpt lat="48.22175" lon="3.1948">
        <ele>113</ele>
        <time>2024-05-23T07:02:14.146Z</time>
      </trkpt>
      <trkpt lat="48.22177" lon="3.19486">
        <ele>112</ele>
        <time>2024-05-23T07:02:18.660Z</time>
      </trkpt>
      <trkpt lat="48.2218" lon="3.19492">
        <ele>112</ele>
        <time>2024-05-23T07:02:22.820Z</time>
      </trkpt>
      <trkpt lat="48.22183" lon="3.19499">
        <ele>113</ele>
        <time>2024-05-23T07:02:27.146Z</time>
      </trkpt>
      <trkpt lat="48.22185" lon="3.19507">
        <ele>113</ele>
        <time>2024-05-23T07:02:32.084Z</time>
      </trkpt>
      <trkpt lat="48.22187" lon="3.19512">
        <ele>113</ele>
        <time>2024-05-23T07:02:36.146Z</time>
      </trkpt>
      <trkpt lat="48.22189" lon="3.1952">
        <ele>112</ele>
        <time>2024-05-23T07:02:40.820Z</time>
      </trkpt>
      <trkpt lat="48.22191" lon="3.19527">
        <ele>112</ele>
        <time>2024-05-23T07:02:45.119Z</time>
      </trkpt>
      <trkpt lat="48.22195" lon="3.19535">
        <ele>112</ele>
        <time>2024-05-23T07:02:50.146Z</time>
      </trkpt>
      <trkpt lat="48.22196" lon="3.19542">
        <ele>112</ele>
        <time>2024-05-23T07:02:54.621Z</time>
      </trkpt>
      <trkpt lat="48.22199" lon="3.19548">
        <ele>112</ele>
        <time>2024-05-23T07:02:58.801Z</time>
      </trkpt>
      <trkpt lat="48.222" lon="3.19554">
        <ele>112</ele>
        <time>2024-05-23T07:03:03.146Z</time>
      </trkpt>
      <trkpt lat="48.22199" lon="3.19559">
        <ele>112</ele>
        <time>2024-05-23T07:03:07.712Z</time>
      </trkpt>
      <trkpt lat="48.22195" lon="3.19561">
        <ele>112</ele>
        <time>2024-05-23T07:03:12.146Z</time>
      </trkpt>
      <trkpt lat="48.22194" lon="3.1956">
        <ele>112</ele>
        <time>2024-05-23T07:03:17.146Z</time>
      </trkpt>
      <trkpt lat="48.22194" lon="3.19559">
        <ele>112</ele>
        <time>2024-05-23T07:03:22.146Z</time>
      </trkpt>
      <trkpt lat="48.22194" lon="3.19559">
        <ele>112</ele>
        <time>2024-05-23T07:03:27.146Z</time>
      </trkpt>
      <trkpt lat="48.22194" lon="3.19559">
        <ele>112</ele>
        <time>2024-05-23T07:03:32.147Z</time>
      </trkpt>
      <trkpt lat="48.22185" lon="3.19556">
        <ele>112</ele>
        <time>2024-05-23T07:03:37.146Z</time>
      </trkpt>
      <trkpt lat="48.22179" lon="3.19553">
        <ele>112</ele>
        <time>2024-05-23T07:03:46.146Z</time>
      </trkpt>
      <trkpt lat="48.22179" lon="3.19554">
        <ele>112</ele>
        <time>2024-05-23T07:03:51.146Z</time>
      </trkpt>
      <trkpt lat="48.22178" lon="3.19553">
        <ele>112</ele>
        <time>2024-05-23T07:03:56.146Z</time>
      </trkpt>
      <trkpt lat="48.22176" lon="3.19553">
        <ele>112</ele>
        <time>2024-05-23T07:04:00.382Z</time>
      </trkpt>
      <trkpt lat="48.2217" lon="3.19552">
        <ele>112</ele>
        <time>2024-05-23T07:04:04.784Z</time>
      </trkpt>
      <trkpt lat="48.22166" lon="3.19551">
        <ele>112</ele>
        <time>2024-05-23T07:04:09.323Z</time>
      </trkpt>
      <trkpt lat="48.22163" lon="3.1955">
        <ele>112</ele>
        <time>2024-05-23T07:04:13.861Z</time>
      </trkpt>
      <trkpt lat="48.22159" lon="3.1955">
        <ele>112</ele>
        <time>2024-05-23T07:04:18.127Z</time>
      </trkpt>
      <trkpt lat="48.22157" lon="3.1955">
        <ele>112</ele>
        <time>2024-05-23T07:04:22.146Z</time>
      </trkpt>
      <trkpt lat="48.22157" lon="3.1955">
        <ele>112</ele>
        <time>2024-05-23T07:04:26.623Z</time>
      </trkpt>
      <trkpt lat="48.22153" lon="3.19548">
        <ele>111</ele>
        <time>2024-05-23T07:04:31.146Z</time>
      </trkpt>
      <trkpt lat="48.22148" lon="3.19548">
        <ele>111</ele>
        <time>2024-05-23T07:04:35.564Z</time>
      </trkpt>
      <trkpt lat="48.22143" lon="3.19548">
        <ele>111</ele>
        <time>2024-05-23T07:04:39.744Z</time>
      </trkpt>
      <trkpt lat="48.22138" lon="3.19548">
        <ele>111</ele>
        <time>2024-05-23T07:04:44.026Z</time>
      </trkpt>
      <trkpt lat="48.22134" lon="3.19547">
        <ele>111</ele>
        <time>2024-05-23T07:04:48.326Z</time>
      </trkpt>
      <trkpt lat="48.2213" lon="3.19548">
        <ele>111</ele>
        <time>2024-05-23T07:04:52.463Z</time>
      </trkpt>
      <trkpt lat="48.22125" lon="3.19546">
        <ele>111</ele>
        <time>2024-05-23T07:04:56.663Z</time>
      </trkpt>
      <trkpt lat="48.22121" lon="3.19544">
        <ele>111</ele>
        <time>2024-05-23T07:05:01.146Z</time>
      </trkpt>
      <trkpt lat="48.22118" lon="3.19543">
        <ele>111</ele>
        <time>2024-05-23T07:05:05.625Z</time>
      </trkpt>
      <trkpt lat="48.22112" lon="3.19538">
        <ele>112</ele>
        <time>2024-05-23T07:05:10.146Z</time>
      </trkpt>
      <trkpt lat="48.22109" lon="3.1954">
        <ele>112</ele>
        <time>2024-05-23T07:05:14.642Z</time>
      </trkpt>
      <trkpt lat="48.22106" lon="3.19541">
        <ele>112</ele>
        <time>2024-05-23T07:05:18.983Z</time>
      </trkpt>
      <trkpt lat="48.22101" lon="3.19541">
        <ele>112</ele>
        <time>2024-05-23T07:05:24Z</time>
      </trkpt>
      <trkpt lat="48.22097" lon="3.19539">
        <ele>111</ele>
        <time>2024-05-23T07:05:28.240Z</time>
      </trkpt>
      <trkpt lat="48.2209" lon="3.19537">
        <ele>111</ele>
        <time>2024-05-23T07:05:33.144Z</time>
      </trkpt>
      <trkpt lat="48.22085" lon="3.19536">
        <ele>111</ele>
        <time>2024-05-23T07:05:37.743Z</time>
      </trkpt>
      <trkpt lat="48.2208" lon="3.19535">
        <ele>111</ele>
        <time>2024-05-23T07:05:41.999Z</time>
      </trkpt>
      <trkpt lat="48.22075" lon="3.19533">
        <ele>111</ele>
        <time>2024-05-23T07:05:46.547Z</time>
      </trkpt>
      <trkpt lat="48.22069" lon="3.19533">
        <ele>110</ele>
        <time>2024-05-23T07:05:51.104Z</time>
      </trkpt>
      <trkpt lat="48.22064" lon="3.19532">
        <ele>110</ele>
        <time>2024-05-23T07:05:55.146Z</time>
      </trkpt>
      <trkpt lat="48.2206" lon="3.19531">
        <ele>110</ele>
        <time>2024-05-23T07:05:59.565Z</time>
      </trkpt>
      <trkpt lat="48.22055" lon="3.1953">
        <ele>110</ele>
        <time>2024-05-23T07:06:03.822Z</time>
      </trkpt>
      <trkpt lat="48.2205" lon="3.1953">
        <ele>110</ele>
        <time>2024-05-23T07:06:08.146Z</time>
      </trkpt>
      <trkpt lat="48.2205" lon="3.1953">
        <ele>110</ele>
        <time>2024-05-23T07:06:27.146Z</time>
      </trkpt>
      <trkpt lat="48.22049" lon="3.19529">
        <ele>110</ele>
        <time>2024-05-23T07:06:32.025Z</time>
      </trkpt>
      <trkpt lat="48.22043" lon="3.19529">
        <ele>110</ele>
        <time>2024-05-23T07:06:36.240Z</time>
      </trkpt>
      <trkpt lat="48.22039" lon="3.19528">
        <ele>110</ele>
        <time>2024-05-23T07:06:40.480Z</time>
      </trkpt>
      <trkpt lat="48.22034" lon="3.19527">
        <ele>110</ele>
        <time>2024-05-23T07:06:45.163Z</time>
      </trkpt>
      <trkpt lat="48.2203" lon="3.19524">
        <ele>110</ele>
        <time>2024-05-23T07:06:49.403Z</time>
      </trkpt>
      <trkpt lat="48.22026" lon="3.19527">
        <ele>110</ele>
        <time>2024-05-23T07:06:53.804Z</time>
      </trkpt>
      <trkpt lat="48.22022" lon="3.19528">
        <ele>110</ele>
        <time>2024-05-23T07:06:58.020Z</time>
      </trkpt>
      <trkpt lat="48.22018" lon="3.19527">
        <ele>110</ele>
        <time>2024-05-23T07:07:02.303Z</time>
      </trkpt>
      <trkpt lat="48.22014" lon="3.19526">
        <ele>110</ele>
        <time>2024-05-23T07:07:06.585Z</time>
      </trkpt>
      <trkpt lat="48.2201" lon="3.19525">
        <ele>110</ele>
        <time>2024-05-23T07:07:10.602Z</time>
      </trkpt>
      <trkpt lat="48.22007" lon="3.19526">
        <ele>110</ele>
        <time>2024-05-23T07:07:15.146Z</time>
      </trkpt>
      <trkpt lat="48.22003" lon="3.19526">
        <ele>110</ele>
        <time>2024-05-23T07:07:19.741Z</time>
      </trkpt>
      <trkpt lat="48.21999" lon="3.19525">
        <ele>110</ele>
        <time>2024-05-23T07:07:24.146Z</time>
      </trkpt>
      <trkpt lat="48.21993" lon="3.19524">
        <ele>110</ele>
        <time>2024-05-23T07:07:28.861Z</time>
      </trkpt>
      <trkpt lat="48.21989" lon="3.19523">
        <ele>110</ele>
        <time>2024-05-23T07:07:33.255Z</time>
      </trkpt>
      <trkpt lat="48.21983" lon="3.19522">
        <ele>112</ele>
        <time>2024-05-23T07:07:37.921Z</time>
      </trkpt>
      <trkpt lat="48.21979" lon="3.19519">
        <ele>112</ele>
        <time>2024-05-23T07:07:42.024Z</time>
      </trkpt>
      <trkpt lat="48.21975" lon="3.19518">
        <ele>112</ele>
        <time>2024-05-23T07:07:46.086Z</time>
      </trkpt>
      <trkpt lat="48.21971" lon="3.19518">
        <ele>112</ele>
        <time>2024-05-23T07:07:50.146Z</time>
      </trkpt>
      <trkpt lat="48.21967" lon="3.19515">
        <ele>112</ele>
        <time>2024-05-23T07:07:54.523Z</time>
      </trkpt>
      <trkpt lat="48.21963" lon="3.19514">
        <ele>112</ele>
        <time>2024-05-23T07:07:58.900Z</time>
      </trkpt>
      <trkpt lat="48.21958" lon="3.1951">
        <ele>117</ele>
        <time>2024-05-23T07:08:03.123Z</time>
      </trkpt>
      <trkpt lat="48.21954" lon="3.19505">
        <ele>117</ele>
        <time>2024-05-23T07:08:07.559Z</time>
      </trkpt>
      <trkpt lat="48.21949" lon="3.19502">
        <ele>117</ele>
        <time>2024-05-23T07:08:12.146Z</time>
      </trkpt>
      <trkpt lat="48.21944" lon="3.19501">
        <ele>117</ele>
        <time>2024-05-23T07:08:16.740Z</time>
      </trkpt>
      <trkpt lat="48.2194" lon="3.19498">
        <ele>117</ele>
        <time>2024-05-23T07:08:21.146Z</time>
      </trkpt>
      <trkpt lat="48.21936" lon="3.19494">
        <ele>117</ele>
        <time>2024-05-23T07:08:25.664Z</time>
      </trkpt>
      <trkpt lat="48.21932" lon="3.19491">
        <ele>117</ele>
        <time>2024-05-23T07:08:29.844Z</time>
      </trkpt>
      <trkpt lat="48.21934" lon="3.19491">
        <ele>117</ele>
        <time>2024-05-23T07:08:58.765Z</time>
      </trkpt>
      <trkpt lat="48.21927" lon="3.19487">
        <ele>119</ele>
        <time>2024-05-23T07:09:03.146Z</time>
      </trkpt>
      <trkpt lat="48.21923" lon="3.19481">
        <ele>120</ele>
        <time>2024-05-23T07:09:07.782Z</time>
      </trkpt>
      <trkpt lat="48.2192" lon="3.19486">
        <ele>120</ele>
        <time>2024-05-23T07:09:11.827Z</time>
      </trkpt>
      <trkpt lat="48.21915" lon="3.19481">
        <ele>120</ele>
        <time>2024-05-23T07:09:16.126Z</time>
      </trkpt>
      <trkpt lat="48.2191" lon="3.19479">
        <ele>120</ele>
        <time>2024-05-23T07:09:20.503Z</time>
      </trkpt>
      <trkpt lat="48.21904" lon="3.19474">
        <ele>120</ele>
        <time>2024-05-23T07:09:25.083Z</time>
      </trkpt>
      <trkpt lat="48.21898" lon="3.19471">
        <ele>122</ele>
        <time>2024-05-23T07:09:29.520Z</time>
      </trkpt>
      <trkpt lat="48.21893" lon="3.19469">
        <ele>122</ele>
        <time>2024-05-23T07:09:33.760Z</time>
      </trkpt>
      <trkpt lat="48.21889" lon="3.19466">
        <ele>122</ele>
        <time>2024-05-23T07:09:51.821Z</time>
      </trkpt>
      <trkpt lat="48.2189" lon="3.19476">
        <ele>122</ele>
        <time>2024-05-23T07:09:56.146Z</time>
      </trkpt>
      <trkpt lat="48.21889" lon="3.19485">
        <ele>122</ele>
        <time>2024-05-23T07:10:00.462Z</time>
      </trkpt>
      <trkpt lat="48.21888" lon="3.19492">
        <ele>121</ele>
        <time>2024-05-23T07:10:04.642Z</time>
      </trkpt>
      <trkpt lat="48.21888" lon="3.19499">
        <ele>121</ele>
        <time>2024-05-23T07:10:08.762Z</time>
      </trkpt>
      <trkpt lat="48.21889" lon="3.19512">
        <ele>121</ele>
        <time>2024-05-23T07:10:36.146Z</time>
      </trkpt>
      <trkpt lat="48.2189" lon="3.19515">
        <ele>120</ele>
        <time>2024-05-23T07:10:40.805Z</time>
      </trkpt>
      <trkpt lat="48.21889" lon="3.19522">
        <ele>120</ele>
        <time>2024-05-23T07:10:44.866Z</time>
      </trkpt>
      <trkpt lat="48.21887" lon="3.19531">
        <ele>120</ele>
        <time>2024-05-23T07:10:49.258Z</time>
      </trkpt>
      <trkpt lat="48.21885" lon="3.19539">
        <ele>120</ele>
        <time>2024-05-23T07:10:53.626Z</time>
      </trkpt>
      <trkpt lat="48.21882" lon="3.19547">
        <ele>121</ele>
        <time>2024-05-23T07:10:57.823Z</time>
      </trkpt>
      <trkpt lat="48.21881" lon="3.19554">
        <ele>121</ele>
        <time>2024-05-23T07:11:02.047Z</time>
      </trkpt>
      <trkpt lat="48.21879" lon="3.19563">
        <ele>121</ele>
        <time>2024-05-23T07:11:06.713Z</time>
      </trkpt>
      <trkpt lat="48.21879" lon="3.19571">
        <ele>121</ele>
        <time>2024-05-23T07:11:11.004Z</time>
      </trkpt>
      <trkpt lat="48.21877" lon="3.19574">
        <ele>121</ele>
        <time>2024-05-23T07:11:13.146Z</time>
      </trkpt>
      <trkpt lat="48.21872" lon="3.19585">
        <ele>123</ele>
        <time>2024-05-23T07:11:21.923Z</time>
      </trkpt>
      <trkpt lat="48.2187" lon="3.19595">
        <ele>123</ele>
        <time>2024-05-23T07:11:26.146Z</time>
      </trkpt>
      <trkpt lat="48.21868" lon="3.19602">
        <ele>124</ele>
        <time>2024-05-23T07:11:30.201Z</time>
      </trkpt>
      <trkpt lat="48.21868" lon="3.1961">
        <ele>124</ele>
        <time>2024-05-23T07:11:34.904Z</time>
      </trkpt>
      <trkpt lat="48.21865" lon="3.19618">
        <ele>124</ele>
        <time>2024-05-23T07:11:39.408Z</time>
      </trkpt>
      <trkpt lat="48.21865" lon="3.19629">
        <ele>123</ele>
        <time>2024-05-23T07:11:43.928Z</time>
      </trkpt>
      <trkpt lat="48.21866" lon="3.19638">
        <ele>123</ele>
        <time>2024-05-23T07:11:48.386Z</time>
      </trkpt>
      <trkpt lat="48.21866" lon="3.19646">
        <ele>123</ele>
        <time>2024-05-23T07:11:52.743Z</time>
      </trkpt>
      <trkpt lat="48.21864" lon="3.19654">
        <ele>122</ele>
        <time>2024-05-23T07:11:57.146Z</time>
      </trkpt>
      <trkpt lat="48.21863" lon="3.19662">
        <ele>122</ele>
        <time>2024-05-23T07:12:01.239Z</time>
      </trkpt>
      <trkpt lat="48.21863" lon="3.1967">
        <ele>122</ele>
        <time>2024-05-23T07:12:05.524Z</time>
      </trkpt>
      <trkpt lat="48.21863" lon="3.1968">
        <ele>122</ele>
        <time>2024-05-23T07:12:09.704Z</time>
      </trkpt>
      <trkpt lat="48.21862" lon="3.19688">
        <ele>121</ele>
        <time>2024-05-23T07:12:14.140Z</time>
      </trkpt>
      <trkpt lat="48.21862" lon="3.19698">
        <ele>121</ele>
        <time>2024-05-23T07:12:18.900Z</time>
      </trkpt>
      <trkpt lat="48.21862" lon="3.19705">
        <ele>121</ele>
        <time>2024-05-23T07:12:23.081Z</time>
      </trkpt>
      <trkpt lat="48.21862" lon="3.19712">
        <ele>120</ele>
        <time>2024-05-23T07:12:27.586Z</time>
      </trkpt>
      <trkpt lat="48.21863" lon="3.19719">
        <ele>120</ele>
        <time>2024-05-23T07:12:32.146Z</time>
      </trkpt>
      <trkpt lat="48.21863" lon="3.19727">
        <ele>120</ele>
        <time>2024-05-23T07:12:36.885Z</time>
      </trkpt>
      <trkpt lat="48.21862" lon="3.19734">
        <ele>120</ele>
        <time>2024-05-23T07:12:41.146Z</time>
      </trkpt>
      <trkpt lat="48.21862" lon="3.19742">
        <ele>120</ele>
        <time>2024-05-23T07:12:46.146Z</time>
      </trkpt>
      <trkpt lat="48.21861" lon="3.19748">
        <ele>120</ele>
        <time>2024-05-23T07:12:50.527Z</time>
      </trkpt>
      <trkpt lat="48.21861" lon="3.19756">
        <ele>120</ele>
        <time>2024-05-23T07:12:55.022Z</time>
      </trkpt>
      <trkpt lat="48.2186" lon="3.19761">
        <ele>120</ele>
        <time>2024-05-23T07:12:59.339Z</time>
      </trkpt>
      <trkpt lat="48.21859" lon="3.19768">
        <ele>118</ele>
        <time>2024-05-23T07:13:04.006Z</time>
      </trkpt>
      <trkpt lat="48.21859" lon="3.19774">
        <ele>118</ele>
        <time>2024-05-23T07:13:08.146Z</time>
      </trkpt>
      <trkpt lat="48.21858" lon="3.19781">
        <ele>118</ele>
        <time>2024-05-23T07:13:12.580Z</time>
      </trkpt>
      <trkpt lat="48.21858" lon="3.19789">
        <ele>118</ele>
        <time>2024-05-23T07:13:17.146Z</time>
      </trkpt>
      <trkpt lat="48.21858" lon="3.19795">
        <ele>117</ele>
        <time>2024-05-23T07:13:21.341Z</time>
      </trkpt>
      <trkpt lat="48.21858" lon="3.19802">
        <ele>117</ele>
        <time>2024-05-23T07:13:25.786Z</time>
      </trkpt>
      <trkpt lat="48.21858" lon="3.1981">
        <ele>117</ele>
        <time>2024-05-23T07:13:30.146Z</time>
      </trkpt>
      <trkpt lat="48.21856" lon="3.19816">
        <ele>117</ele>
        <time>2024-05-23T07:13:35.146Z</time>
      </trkpt>
      <trkpt lat="48.21857" lon="3.19823">
        <ele>118</ele>
        <time>2024-05-23T07:13:39.965Z</time>
      </trkpt>
      <trkpt lat="48.21857" lon="3.1983">
        <ele>118</ele>
        <time>2024-05-23T07:13:44.146Z</time>
      </trkpt>
      <trkpt lat="48.21857" lon="3.19838">
        <ele>118</ele>
        <time>2024-05-23T07:13:48.864Z</time>
      </trkpt>
      <trkpt lat="48.21857" lon="3.19846">
        <ele>118</ele>
        <time>2024-05-23T07:13:53.045Z</time>
      </trkpt>
      <trkpt lat="48.21856" lon="3.19852">
        <ele>119</ele>
        <time>2024-05-23T07:13:57.506Z</time>
      </trkpt>
      <trkpt lat="48.21856" lon="3.19858">
        <ele>119</ele>
        <time>2024-05-23T07:14:02.146Z</time>
      </trkpt>
      <trkpt lat="48.21856" lon="3.19859">
        <ele>119</ele>
        <time>2024-05-23T07:14:06.864Z</time>
      </trkpt>
      <trkpt lat="48.21857" lon="3.19863">
        <ele>119</ele>
        <time>2024-05-23T07:14:11.121Z</time>
      </trkpt>
      <trkpt lat="48.21857" lon="3.19872">
        <ele>119</ele>
        <time>2024-05-23T07:14:15.540Z</time>
      </trkpt>
      <trkpt lat="48.21858" lon="3.19879">
        <ele>119</ele>
        <time>2024-05-23T07:14:19.704Z</time>
      </trkpt>
      <trkpt lat="48.21858" lon="3.19887">
        <ele>119</ele>
        <time>2024-05-23T07:14:24.345Z</time>
      </trkpt>
      <trkpt lat="48.21859" lon="3.19894">
        <ele>119</ele>
        <time>2024-05-23T07:14:28.406Z</time>
      </trkpt>
      <trkpt lat="48.2186" lon="3.19901">
        <ele>119</ele>
        <time>2024-05-23T07:14:33.004Z</time>
      </trkpt>
      <trkpt lat="48.2186" lon="3.19909">
        <ele>118</ele>
        <time>2024-05-23T07:14:37.619Z</time>
      </trkpt>
      <trkpt lat="48.2186" lon="3.19917">
        <ele>118</ele>
        <time>2024-05-23T07:14:41.945Z</time>
      </trkpt>
      <trkpt lat="48.2186" lon="3.19926">
        <ele>118</ele>
        <time>2024-05-23T07:14:46.346Z</time>
      </trkpt>
      <trkpt lat="48.2186" lon="3.19934">
        <ele>118</ele>
        <time>2024-05-23T07:14:50.842Z</time>
      </trkpt>
      <trkpt lat="48.2186" lon="3.19941">
        <ele>118</ele>
        <time>2024-05-23T07:14:54.918Z</time>
      </trkpt>
      <trkpt lat="48.2186" lon="3.19949">
        <ele>118</ele>
        <time>2024-05-23T07:14:59.146Z</time>
      </trkpt>
      <trkpt lat="48.21861" lon="3.19957">
        <ele>118</ele>
        <time>2024-05-23T07:15:03.246Z</time>
      </trkpt>
      <trkpt lat="48.2186" lon="3.19964">
        <ele>120</ele>
        <time>2024-05-23T07:15:07.323Z</time>
      </trkpt>
      <trkpt lat="48.21861" lon="3.19973">
        <ele>120</ele>
        <time>2024-05-23T07:15:11.743Z</time>
      </trkpt>
      <trkpt lat="48.2186" lon="3.19981">
        <ele>120</ele>
        <time>2024-05-23T07:15:16.162Z</time>
      </trkpt>
      <trkpt lat="48.2186" lon="3.19989">
        <ele>120</ele>
        <time>2024-05-23T07:15:20.546Z</time>
      </trkpt>
      <trkpt lat="48.2186" lon="3.19996">
        <ele>120</ele>
        <time>2024-05-23T07:15:24.642Z</time>
      </trkpt>
      <trkpt lat="48.2186" lon="3.20005">
        <ele>120</ele>
        <time>2024-05-23T07:15:29.103Z</time>
      </trkpt>
      <trkpt lat="48.2186" lon="3.20012">
        <ele>120</ele>
        <time>2024-05-23T07:15:33.385Z</time>
      </trkpt>
      <trkpt lat="48.21861" lon="3.2002">
        <ele>118</ele>
        <time>2024-05-23T07:15:37.744Z</time>
      </trkpt>
      <trkpt lat="48.21861" lon="3.20028">
        <ele>118</ele>
        <time>2024-05-23T07:15:41.805Z</time>
      </trkpt>
      <trkpt lat="48.21861" lon="3.20036">
        <ele>118</ele>
        <time>2024-05-23T07:15:46.046Z</time>
      </trkpt>
      <trkpt lat="48.21861" lon="3.20044">
        <ele>116</ele>
        <time>2024-05-23T07:15:50.422Z</time>
      </trkpt>
      <trkpt lat="48.21862" lon="3.20051">
        <ele>116</ele>
        <time>2024-05-23T07:15:54.482Z</time>
      </trkpt>
      <trkpt lat="48.21862" lon="3.2006">
        <ele>116</ele>
        <time>2024-05-23T07:15:58.901Z</time>
      </trkpt>
      <trkpt lat="48.21862" lon="3.20068">
        <ele>116</ele>
        <time>2024-05-23T07:16:03.146Z</time>
      </trkpt>
      <trkpt lat="48.21861" lon="3.20076">
        <ele>116</ele>
        <time>2024-05-23T07:16:07.765Z</time>
      </trkpt>
      <trkpt lat="48.21862" lon="3.20085">
        <ele>116</ele>
        <time>2024-05-23T07:16:12.141Z</time>
      </trkpt>
      <trkpt lat="48.21861" lon="3.20093">
        <ele>116</ele>
        <time>2024-05-23T07:16:16.501Z</time>
      </trkpt>
      <trkpt lat="48.21862" lon="3.20101">
        <ele>116</ele>
        <time>2024-05-23T07:16:20.920Z</time>
      </trkpt>
      <trkpt lat="48.21862" lon="3.2011">
        <ele>116</ele>
        <time>2024-05-23T07:16:25.261Z</time>
      </trkpt>
      <trkpt lat="48.21862" lon="3.20118">
        <ele>116</ele>
        <time>2024-05-23T07:16:29.739Z</time>
      </trkpt>
      <trkpt lat="48.21863" lon="3.20128">
        <ele>115</ele>
        <time>2024-05-23T07:16:34.884Z</time>
      </trkpt>
      <trkpt lat="48.21863" lon="3.20135">
        <ele>115</ele>
        <time>2024-05-23T07:16:39.807Z</time>
      </trkpt>
      <trkpt lat="48.21863" lon="3.20142">
        <ele>115</ele>
        <time>2024-05-23T07:16:44.146Z</time>
      </trkpt>
      <trkpt lat="48.21863" lon="3.2015">
        <ele>115</ele>
        <time>2024-05-23T07:16:48.584Z</time>
      </trkpt>
      <trkpt lat="48.21863" lon="3.20156">
        <ele>114</ele>
        <time>2024-05-23T07:16:52.764Z</time>
      </trkpt>
      <trkpt lat="48.21864" lon="3.20162">
        <ele>114</ele>
        <time>2024-05-23T07:16:57.422Z</time>
      </trkpt>
      <trkpt lat="48.21864" lon="3.20168">
        <ele>114</ele>
        <time>2024-05-23T07:17:01.543Z</time>
      </trkpt>
      <trkpt lat="48.21864" lon="3.20176">
        <ele>114</ele>
        <time>2024-05-23T07:17:05.945Z</time>
      </trkpt>
      <trkpt lat="48.21865" lon="3.20182">
        <ele>115</ele>
        <time>2024-05-23T07:17:10.405Z</time>
      </trkpt>
      <trkpt lat="48.21866" lon="3.20186">
        <ele>115</ele>
        <time>2024-05-23T07:17:14.603Z</time>
      </trkpt>
      <trkpt lat="48.21867" lon="3.20192">
        <ele>115</ele>
        <time>2024-05-23T07:17:19.022Z</time>
      </trkpt>
      <trkpt lat="48.21868" lon="3.20199">
        <ele>115</ele>
        <time>2024-05-23T07:17:23.304Z</time>
      </trkpt>
      <trkpt lat="48.2187" lon="3.20205">
        <ele>115</ele>
        <time>2024-05-23T07:17:27.484Z</time>
      </trkpt>
      <trkpt lat="48.2187" lon="3.20212">
        <ele>115</ele>
        <time>2024-05-23T07:17:31.660Z</time>
      </trkpt>
      <trkpt lat="48.21872" lon="3.2022">
        <ele>115</ele>
        <time>2024-05-23T07:17:36.067Z</time>
      </trkpt>
      <trkpt lat="48.21873" lon="3.20227">
        <ele>115</ele>
        <time>2024-05-23T07:17:40.128Z</time>
      </trkpt>
      <trkpt lat="48.21874" lon="3.20236">
        <ele>115</ele>
        <time>2024-05-23T07:17:45.146Z</time>
      </trkpt>
      <trkpt lat="48.21875" lon="3.20244">
        <ele>114</ele>
        <time>2024-05-23T07:17:49.422Z</time>
      </trkpt>
      <trkpt lat="48.21875" lon="3.20252">
        <ele>112</ele>
        <time>2024-05-23T07:17:54.105Z</time>
      </trkpt>
      <trkpt lat="48.21876" lon="3.2026">
        <ele>112</ele>
        <time>2024-05-23T07:17:59.146Z</time>
      </trkpt>
      <trkpt lat="48.21877" lon="3.20267">
        <ele>112</ele>
        <time>2024-05-23T07:18:03.566Z</time>
      </trkpt>
      <trkpt lat="48.21879" lon="3.20274">
        <ele>112</ele>
        <time>2024-05-23T07:18:07.711Z</time>
      </trkpt>
      <trkpt lat="48.2188" lon="3.2028">
        <ele>112</ele>
        <time>2024-05-23T07:18:11.875Z</time>
      </trkpt>
      <trkpt lat="48.21881" lon="3.20287">
        <ele>112</ele>
        <time>2024-05-23T07:18:16.584Z</time>
      </trkpt>
      <trkpt lat="48.21881" lon="3.20294">
        <ele>112</ele>
        <time>2024-05-23T07:18:21.146Z</time>
      </trkpt>
      <trkpt lat="48.21882" lon="3.20301">
        <ele>112</ele>
        <time>2024-05-23T07:18:25.284Z</time>
      </trkpt>
      <trkpt lat="48.21883" lon="3.20308">
        <ele>112</ele>
        <time>2024-05-23T07:18:29.585Z</time>
      </trkpt>
      <trkpt lat="48.21885" lon="3.20314">
        <ele>112</ele>
        <time>2024-05-23T07:18:33.901Z</time>
      </trkpt>
      <trkpt lat="48.21886" lon="3.20321">
        <ele>113</ele>
        <time>2024-05-23T07:18:38.146Z</time>
      </trkpt>
      <trkpt lat="48.21887" lon="3.20328">
        <ele>113</ele>
        <time>2024-05-23T07:18:42.585Z</time>
      </trkpt>
      <trkpt lat="48.21888" lon="3.20334">
        <ele>113</ele>
        <time>2024-05-23T07:18:46.801Z</time>
      </trkpt>
      <trkpt lat="48.21889" lon="3.20341">
        <ele>113</ele>
        <time>2024-05-23T07:18:50.945Z</time>
      </trkpt>
      <trkpt lat="48.21891" lon="3.2035">
        <ele>113</ele>
        <time>2024-05-23T07:18:56.080Z</time>
      </trkpt>
      <trkpt lat="48.21892" lon="3.20358">
        <ele>113</ele>
        <time>2024-05-23T07:19:00.146Z</time>
      </trkpt>
      <trkpt lat="48.21893" lon="3.20365">
        <ele>113</ele>
        <time>2024-05-23T07:19:04.602Z</time>
      </trkpt>
      <trkpt lat="48.21894" lon="3.20372">
        <ele>113</ele>
        <time>2024-05-23T07:19:08.663Z</time>
      </trkpt>
      <trkpt lat="48.21895" lon="3.20379">
        <ele>112</ele>
        <time>2024-05-23T07:19:12.945Z</time>
      </trkpt>
      <trkpt lat="48.21897" lon="3.20388">
        <ele>112</ele>
        <time>2024-05-23T07:19:17.944Z</time>
      </trkpt>
      <trkpt lat="48.21897" lon="3.20396">
        <ele>112</ele>
        <time>2024-05-23T07:19:22.323Z</time>
      </trkpt>
      <trkpt lat="48.21899" lon="3.20402">
        <ele>112</ele>
        <time>2024-05-23T07:19:26.466Z</time>
      </trkpt>
      <trkpt lat="48.21904" lon="3.20405">
        <ele>112</ele>
        <time>2024-05-23T07:19:30.620Z</time>
      </trkpt>
      <trkpt lat="48.21909" lon="3.20405">
        <ele>112</ele>
        <time>2024-05-23T07:19:35.082Z</time>
      </trkpt>
      <trkpt lat="48.21914" lon="3.20403">
        <ele>112</ele>
        <time>2024-05-23T07:19:39.146Z</time>
      </trkpt>
      <trkpt lat="48.21918" lon="3.20401">
        <ele>112</ele>
        <time>2024-05-23T07:19:43.443Z</time>
      </trkpt>
      <trkpt lat="48.21923" lon="3.20399">
        <ele>112</ele>
        <time>2024-05-23T07:19:47.664Z</time>
      </trkpt>
      <trkpt lat="48.21927" lon="3.20397">
        <ele>112</ele>
        <time>2024-05-23T07:19:51.802Z</time>
      </trkpt>
      <trkpt lat="48.21932" lon="3.20397">
        <ele>110</ele>
        <time>2024-05-23T07:19:55.905Z</time>
      </trkpt>
      <trkpt lat="48.21937" lon="3.20396">
        <ele>110</ele>
        <time>2024-05-23T07:20:00.146Z</time>
      </trkpt>
      <trkpt lat="48.21942" lon="3.20395">
        <ele>110</ele>
        <time>2024-05-23T07:20:05.002Z</time>
      </trkpt>
      <trkpt lat="48.21948" lon="3.20394">
        <ele>110</ele>
        <time>2024-05-23T07:20:09.643Z</time>
      </trkpt>
      <trkpt lat="48.21953" lon="3.20392">
        <ele>110</ele>
        <time>2024-05-23T07:20:14.146Z</time>
      </trkpt>
      <trkpt lat="48.21958" lon="3.20391">
        <ele>110</ele>
        <time>2024-05-23T07:20:18.464Z</time>
      </trkpt>
      <trkpt lat="48.21963" lon="3.2039">
        <ele>107</ele>
        <time>2024-05-23T07:20:22.644Z</time>
      </trkpt>
      <trkpt lat="48.21966" lon="3.20388">
        <ele>107</ele>
        <time>2024-05-23T07:20:27.140Z</time>
      </trkpt>
      <trkpt lat="48.21972" lon="3.20387">
        <ele>107</ele>
        <time>2024-05-23T07:20:31.781Z</time>
      </trkpt>
      <trkpt lat="48.21977" lon="3.2039">
        <ele>107</ele>
        <time>2024-05-23T07:20:36.167Z</time>
      </trkpt>
      <trkpt lat="48.21982" lon="3.20391">
        <ele>107</ele>
        <time>2024-05-23T07:20:40.886Z</time>
      </trkpt>
      <trkpt lat="48.21986" lon="3.20394">
        <ele>105</ele>
        <time>2024-05-23T07:20:44.964Z</time>
      </trkpt>
      <trkpt lat="48.2199" lon="3.20396">
        <ele>105</ele>
        <time>2024-05-23T07:20:49.549Z</time>
      </trkpt>
      <trkpt lat="48.21995" lon="3.20399">
        <ele>105</ele>
        <time>2024-05-23T07:20:54.023Z</time>
      </trkpt>
      <trkpt lat="48.21998" lon="3.20401">
        <ele>105</ele>
        <time>2024-05-23T07:20:58.146Z</time>
      </trkpt>
      <trkpt lat="48.22003" lon="3.20404">
        <ele>107</ele>
        <time>2024-05-23T07:21:02.383Z</time>
      </trkpt>
      <trkpt lat="48.22008" lon="3.20407">
        <ele>107</ele>
        <time>2024-05-23T07:21:06.965Z</time>
      </trkpt>
      <trkpt lat="48.22012" lon="3.2041">
        <ele>107</ele>
        <time>2024-05-23T07:21:11.146Z</time>
      </trkpt>
      <trkpt lat="48.22017" lon="3.20414">
        <ele>106</ele>
        <time>2024-05-23T07:21:15.759Z</time>
      </trkpt>
      <trkpt lat="48.22022" lon="3.20417">
        <ele>106</ele>
        <time>2024-05-23T07:21:19.982Z</time>
      </trkpt>
      <trkpt lat="48.22027" lon="3.2042">
        <ele>106</ele>
        <time>2024-05-23T07:21:24.025Z</time>
      </trkpt>
      <trkpt lat="48.22033" lon="3.20425">
        <ele>106</ele>
        <time>2024-05-23T07:21:28.742Z</time>
      </trkpt>
      <trkpt lat="48.22038" lon="3.20427">
        <ele>106</ele>
        <time>2024-05-23T07:21:32.851Z</time>
      </trkpt>
      <trkpt lat="48.22042" lon="3.20429">
        <ele>105</ele>
        <time>2024-05-23T07:21:37.146Z</time>
      </trkpt>
      <trkpt lat="48.22047" lon="3.20429">
        <ele>105</ele>
        <time>2024-05-23T07:21:41.427Z</time>
      </trkpt>
      <trkpt lat="48.22052" lon="3.20428">
        <ele>105</ele>
        <time>2024-05-23T07:21:45.760Z</time>
      </trkpt>
      <trkpt lat="48.22057" lon="3.20428">
        <ele>105</ele>
        <time>2024-05-23T07:21:49.924Z</time>
      </trkpt>
      <trkpt lat="48.22062" lon="3.20428">
        <ele>105</ele>
        <time>2024-05-23T07:21:54.146Z</time>
      </trkpt>
      <trkpt lat="48.22068" lon="3.20427">
        <ele>105</ele>
        <time>2024-05-23T07:21:58.846Z</time>
      </trkpt>
      <trkpt lat="48.22073" lon="3.20426">
        <ele>104</ele>
        <time>2024-05-23T07:22:02.983Z</time>
      </trkpt>
      <trkpt lat="48.22078" lon="3.20426">
        <ele>104</ele>
        <time>2024-05-23T07:22:07.505Z</time>
      </trkpt>
      <trkpt lat="48.22083" lon="3.20423">
        <ele>104</ele>
        <time>2024-05-23T07:22:11.686Z</time>
      </trkpt>
      <trkpt lat="48.22089" lon="3.20421">
        <ele>104</ele>
        <time>2024-05-23T07:22:15.881Z</time>
      </trkpt>
      <trkpt lat="48.22093" lon="3.20421">
        <ele>104</ele>
        <time>2024-05-23T07:22:20.146Z</time>
      </trkpt>
      <trkpt lat="48.22097" lon="3.20419">
        <ele>104</ele>
        <time>2024-05-23T07:22:24.684Z</time>
      </trkpt>
      <trkpt lat="48.22097" lon="3.20418">
        <ele>104</ele>
        <time>2024-05-23T07:22:42.462Z</time>
      </trkpt>
      <trkpt lat="48.22102" lon="3.20422">
        <ele>105</ele>
        <time>2024-05-23T07:22:46.541Z</time>
      </trkpt>
      <trkpt lat="48.22106" lon="3.20422">
        <ele>105</ele>
        <time>2024-05-23T07:22:50.865Z</time>
      </trkpt>
      <trkpt lat="48.2211" lon="3.20421">
        <ele>105</ele>
        <time>2024-05-23T07:22:54.882Z</time>
      </trkpt>
      <trkpt lat="48.22114" lon="3.2042">
        <ele>105</ele>
        <time>2024-05-23T07:22:58.986Z</time>
      </trkpt>
      <trkpt lat="48.22117" lon="3.20419">
        <ele>105</ele>
        <time>2024-05-23T07:23:03.002Z</time>
      </trkpt>
      <trkpt lat="48.22121" lon="3.20419">
        <ele>105</ele>
        <time>2024-05-23T07:23:07.601Z</time>
      </trkpt>
      <trkpt lat="48.22125" lon="3.20417">
        <ele>105</ele>
        <time>2024-05-23T07:23:12.146Z</time>
      </trkpt>
      <trkpt lat="48.2213" lon="3.20415">
        <ele>105</ele>
        <time>2024-05-23T07:23:16.319Z</time>
      </trkpt>
      <trkpt lat="48.22135" lon="3.20413">
        <ele>105</ele>
        <time>2024-05-23T07:23:20.627Z</time>
      </trkpt>
      <trkpt lat="48.2214" lon="3.20414">
        <ele>105</ele>
        <time>2024-05-23T07:23:25.146Z</time>
      </trkpt>
      <trkpt lat="48.22145" lon="3.20414">
        <ele>105</ele>
        <time>2024-05-23T07:23:29.404Z</time>
      </trkpt>
      <trkpt lat="48.2215" lon="3.20414">
        <ele>105</ele>
        <time>2024-05-23T07:23:33.584Z</time>
      </trkpt>
      <trkpt lat="48.22155" lon="3.20415">
        <ele>107</ele>
        <time>2024-05-23T07:23:37.711Z</time>
      </trkpt>
      <trkpt lat="48.2216" lon="3.20414">
        <ele>107</ele>
        <time>2024-05-23T07:23:41.803Z</time>
      </trkpt>
      <trkpt lat="48.22166" lon="3.20413">
        <ele>107</ele>
        <time>2024-05-23T07:23:46.146Z</time>
      </trkpt>
      <trkpt lat="48.2217" lon="3.20413">
        <ele>107</ele>
        <time>2024-05-23T07:23:50.445Z</time>
      </trkpt>
      <trkpt lat="48.22177" lon="3.20409">
        <ele>107</ele>
        <time>2024-05-23T07:24:42.146Z</time>
      </trkpt>
      <trkpt lat="48.22177" lon="3.20409">
        <ele>107</ele>
        <time>2024-05-23T07:24:47.146Z</time>
      </trkpt>
      <trkpt lat="48.22181" lon="3.20408">
        <ele>111</ele>
        <time>2024-05-23T07:24:51.146Z</time>
      </trkpt>
      <trkpt lat="48.22184" lon="3.20403">
        <ele>111</ele>
        <time>2024-05-23T07:24:56.146Z</time>
      </trkpt>
      <trkpt lat="48.22185" lon="3.20397">
        <ele>111</ele>
        <time>2024-05-23T07:25:00.623Z</time>
      </trkpt>
      <trkpt lat="48.22185" lon="3.2039">
        <ele>111</ele>
        <time>2024-05-23T07:25:04.650Z</time>
      </trkpt>
      <trkpt lat="48.22186" lon="3.20383">
        <ele>111</ele>
        <time>2024-05-23T07:25:09.145Z</time>
      </trkpt>
      <trkpt lat="48.22187" lon="3.20375">
        <ele>111</ele>
        <time>2024-05-23T07:25:13.530Z</time>
      </trkpt>
      <trkpt lat="48.22186" lon="3.20367">
        <ele>111</ele>
        <time>2024-05-23T07:25:17.931Z</time>
      </trkpt>
      <trkpt lat="48.22188" lon="3.20359">
        <ele>111</ele>
        <time>2024-05-23T07:25:22.082Z</time>
      </trkpt>
      <trkpt lat="48.22188" lon="3.2035">
        <ele>111</ele>
        <time>2024-05-23T07:25:26.926Z</time>
      </trkpt>
      <trkpt lat="48.22188" lon="3.20343">
        <ele>111</ele>
        <time>2024-05-23T07:25:31.004Z</time>
      </trkpt>
      <trkpt lat="48.22188" lon="3.20335">
        <ele>111</ele>
        <time>2024-05-23T07:25:35.482Z</time>
      </trkpt>
      <trkpt lat="48.22189" lon="3.20327">
        <ele>111</ele>
        <time>2024-05-23T07:25:40.146Z</time>
      </trkpt>
      <trkpt lat="48.22191" lon="3.2032">
        <ele>111</ele>
        <time>2024-05-23T07:25:44.584Z</time>
      </trkpt>
      <trkpt lat="48.22193" lon="3.2031">
        <ele>111</ele>
        <time>2024-05-23T07:25:48.900Z</time>
      </trkpt>
      <trkpt lat="48.22193" lon="3.20303">
        <ele>111</ele>
        <time>2024-05-23T07:25:53.146Z</time>
      </trkpt>
      <trkpt lat="48.22194" lon="3.20292">
        <ele>111</ele>
        <time>2024-05-23T07:25:57.648Z</time>
      </trkpt>
      <trkpt lat="48.22194" lon="3.20285">
        <ele>112</ele>
        <time>2024-05-23T07:26:01.728Z</time>
      </trkpt>
      <trkpt lat="48.22199" lon="3.2028">
        <ele>112</ele>
        <time>2024-05-23T07:26:05.889Z</time>
      </trkpt>
      <trkpt lat="48.22202" lon="3.20281">
        <ele>112</ele>
        <time>2024-05-23T07:26:10.070Z</time>
      </trkpt>
      <trkpt lat="48.22207" lon="3.20281">
        <ele>112</ele>
        <time>2024-05-23T07:26:14.369Z</time>
      </trkpt>
      <trkpt lat="48.22212" lon="3.20282">
        <ele>116</ele>
        <time>2024-05-23T07:26:18.606Z</time>
      </trkpt>
      <trkpt lat="48.22216" lon="3.20282">
        <ele>116</ele>
        <time>2024-05-23T07:26:23.008Z</time>
      </trkpt>
      <trkpt lat="48.2222" lon="3.20281">
        <ele>116</ele>
        <time>2024-05-23T07:26:27.409Z</time>
      </trkpt>
      <trkpt lat="48.22231" lon="3.20277">
        <ele>116</ele>
        <time>2024-05-23T07:28:35.146Z</time>
      </trkpt>
      <trkpt lat="48.22231" lon="3.20277">
        <ele>116</ele>
        <time>2024-05-23T07:28:39.146Z</time>
      </trkpt>
      <trkpt lat="48.22231" lon="3.20277">
        <ele>116</ele>
        <time>2024-05-23T07:28:44.146Z</time>
      </trkpt>
      <trkpt lat="48.22231" lon="3.20278">
        <ele>116</ele>
        <time>2024-05-23T07:28:49.146Z</time>
      </trkpt>
      <trkpt lat="48.22233" lon="3.20279">
        <ele>116</ele>
        <time>2024-05-23T07:28:54.139Z</time>
      </trkpt>
      <trkpt lat="48.22239" lon="3.20278">
        <ele>120</ele>
        <time>2024-05-23T07:28:58.446Z</time>
      </trkpt>
      <trkpt lat="48.22243" lon="3.20278">
        <ele>120</ele>
        <time>2024-05-23T07:29:02.564Z</time>
      </trkpt>
      <trkpt lat="48.22247" lon="3.20278">
        <ele>120</ele>
        <time>2024-05-23T07:29:06.861Z</time>
      </trkpt>
      <trkpt lat="48.22251" lon="3.20277">
        <ele>120</ele>
        <time>2024-05-23T07:29:10.999Z</time>
      </trkpt>
      <trkpt lat="48.22259" lon="3.20274">
        <ele>120</ele>
        <time>2024-05-23T07:30:08.959Z</time>
      </trkpt>
      <trkpt lat="48.22263" lon="3.20273">
        <ele>120</ele>
        <time>2024-05-23T07:30:13.481Z</time>
      </trkpt>
      <trkpt lat="48.22266" lon="3.20269">
        <ele>122</ele>
        <time>2024-05-23T07:30:17.922Z</time>
      </trkpt>
      <trkpt lat="48.2227" lon="3.20269">
        <ele>122</ele>
        <time>2024-05-23T07:30:22.146Z</time>
      </trkpt>
      <trkpt lat="48.22275" lon="3.20265">
        <ele>122</ele>
        <time>2024-05-23T07:30:26.281Z</time>
      </trkpt>
      <trkpt lat="48.22279" lon="3.20262">
        <ele>122</ele>
        <time>2024-05-23T07:30:30.487Z</time>
      </trkpt>
      <trkpt lat="48.22286" lon="3.20261">
        <ele>122</ele>
        <time>2024-05-23T07:30:35.146Z</time>
      </trkpt>
      <trkpt lat="48.22295" lon="3.20267">
        <ele>125</ele>
        <time>2024-05-23T07:30:39.146Z</time>
      </trkpt>
      <trkpt lat="48.223" lon="3.20269">
        <ele>125</ele>
        <time>2024-05-23T07:30:43.419Z</time>
      </trkpt>
      <trkpt lat="48.22305" lon="3.20268">
        <ele>125</ele>
        <time>2024-05-23T07:30:47.479Z</time>
      </trkpt>
      <trkpt lat="48.2231" lon="3.20268">
        <ele>125</ele>
        <time>2024-05-23T07:30:51.725Z</time>
      </trkpt>
      <trkpt lat="48.22316" lon="3.20267">
        <ele>125</ele>
        <time>2024-05-23T07:30:56.146Z</time>
      </trkpt>
      <trkpt lat="48.22321" lon="3.20266">
        <ele>129</ele>
        <time>2024-05-23T07:31:00.468Z</time>
      </trkpt>
      <trkpt lat="48.22325" lon="3.20266">
        <ele>129</ele>
        <time>2024-05-23T07:31:04.498Z</time>
      </trkpt>
      <trkpt lat="48.22331" lon="3.20265">
        <ele>129</ele>
        <time>2024-05-23T07:31:08.625Z</time>
      </trkpt>
      <trkpt lat="48.22336" lon="3.20264">
        <ele>129</ele>
        <time>2024-05-23T07:31:13.146Z</time>
      </trkpt>
      <trkpt lat="48.22342" lon="3.20262">
        <ele>129</ele>
        <time>2024-05-23T07:31:18.165Z</time>
      </trkpt>
      <trkpt lat="48.22347" lon="3.20262">
        <ele>131</ele>
        <time>2024-05-23T07:31:22.404Z</time>
      </trkpt>
      <trkpt lat="48.22352" lon="3.20261">
        <ele>131</ele>
        <time>2024-05-23T07:31:26.511Z</time>
      </trkpt>
      <trkpt lat="48.22358" lon="3.20261">
        <ele>131</ele>
        <time>2024-05-23T07:31:30.916Z</time>
      </trkpt>
      <trkpt lat="48.22363" lon="3.2026">
        <ele>131</ele>
        <time>2024-05-23T07:31:35.146Z</time>
      </trkpt>
      <trkpt lat="48.22369" lon="3.20261">
        <ele>131</ele>
        <time>2024-05-23T07:36:32.146Z</time>
      </trkpt>
      <trkpt lat="48.2237" lon="3.20264">
        <ele>131</ele>
        <time>2024-05-23T07:36:37.146Z</time>
      </trkpt>
      <trkpt lat="48.22371" lon="3.20269">
        <ele>131</ele>
        <time>2024-05-23T07:36:41.660Z</time>
      </trkpt>
      <trkpt lat="48.22372" lon="3.20275">
        <ele>131</ele>
        <time>2024-05-23T07:36:45.664Z</time>
      </trkpt>
      <trkpt lat="48.22373" lon="3.20283">
        <ele>131</ele>
        <time>2024-05-23T07:36:50.146Z</time>
      </trkpt>
      <trkpt lat="48.22374" lon="3.2029">
        <ele>131</ele>
        <time>2024-05-23T07:36:54.467Z</time>
      </trkpt>
      <trkpt lat="48.22374" lon="3.20297">
        <ele>130</ele>
        <time>2024-05-23T07:36:58.660Z</time>
      </trkpt>
      <trkpt lat="48.22375" lon="3.20304">
        <ele>130</ele>
        <time>2024-05-23T07:37:03.146Z</time>
      </trkpt>
      <trkpt lat="48.22376" lon="3.20311">
        <ele>131</ele>
        <time>2024-05-23T07:37:07.866Z</time>
      </trkpt>
      <trkpt lat="48.22376" lon="3.20318">
        <ele>131</ele>
        <time>2024-05-23T07:37:12.357Z</time>
      </trkpt>
      <trkpt lat="48.22377" lon="3.20325">
        <ele>130</ele>
        <time>2024-05-23T07:37:16.699Z</time>
      </trkpt>
      <trkpt lat="48.22378" lon="3.20334">
        <ele>130</ele>
        <time>2024-05-23T07:37:20.923Z</time>
      </trkpt>
      <trkpt lat="48.22379" lon="3.20339">
        <ele>130</ele>
        <time>2024-05-23T07:37:25.064Z</time>
      </trkpt>
      <trkpt lat="48.2238" lon="3.20347">
        <ele>130</ele>
        <time>2024-05-23T07:37:29.146Z</time>
      </trkpt>
      <trkpt lat="48.22382" lon="3.20356">
        <ele>129</ele>
        <time>2024-05-23T07:37:34.099Z</time>
      </trkpt>
      <trkpt lat="48.22383" lon="3.20363">
        <ele>129</ele>
        <time>2024-05-23T07:37:38.559Z</time>
      </trkpt>
      <trkpt lat="48.22383" lon="3.2037">
        <ele>129</ele>
        <time>2024-05-23T07:37:43.079Z</time>
      </trkpt>
      <trkpt lat="48.22384" lon="3.20377">
        <ele>128</ele>
        <time>2024-05-23T07:38:05.503Z</time>
      </trkpt>
      <trkpt lat="48.2238" lon="3.20383">
        <ele>128</ele>
        <time>2024-05-23T07:38:09.865Z</time>
      </trkpt>
      <trkpt lat="48.22385" lon="3.20387">
        <ele>128</ele>
        <time>2024-05-23T07:38:14.146Z</time>
      </trkpt>
      <trkpt lat="48.22386" lon="3.20394">
        <ele>128</ele>
        <time>2024-05-23T07:38:18.780Z</time>
      </trkpt>
      <trkpt lat="48.22386" lon="3.204">
        <ele>128</ele>
        <time>2024-05-23T07:38:23.146Z</time>
      </trkpt>
      <trkpt lat="48.22386" lon="3.20406">
        <ele>127</ele>
        <time>2024-05-23T07:38:27.146Z</time>
      </trkpt>
      <trkpt lat="48.22387" lon="3.20414">
        <ele>127</ele>
        <time>2024-05-23T07:38:31.604Z</time>
      </trkpt>
      <trkpt lat="48.22388" lon="3.20421">
        <ele>127</ele>
        <time>2024-05-23T07:38:35.838Z</time>
      </trkpt>
      <trkpt lat="48.22389" lon="3.20428">
        <ele>127</ele>
        <time>2024-05-23T07:38:40.146Z</time>
      </trkpt>
      <trkpt lat="48.2239" lon="3.20434">
        <ele>126</ele>
        <time>2024-05-23T07:38:44.146Z</time>
      </trkpt>
      <trkpt lat="48.2239" lon="3.20443">
        <ele>126</ele>
        <time>2024-05-23T07:38:48.607Z</time>
      </trkpt>
      <trkpt lat="48.22391" lon="3.2045">
        <ele>126</ele>
        <time>2024-05-23T07:38:53.146Z</time>
      </trkpt>
      <trkpt lat="48.22394" lon="3.20458">
        <ele>125</ele>
        <time>2024-05-23T07:38:58.146Z</time>
      </trkpt>
      <trkpt lat="48.22394" lon="3.20465">
        <ele>125</ele>
        <time>2024-05-23T07:39:02.268Z</time>
      </trkpt>
      <trkpt lat="48.22395" lon="3.20471">
        <ele>125</ele>
        <time>2024-05-23T07:39:06.706Z</time>
      </trkpt>
      <trkpt lat="48.22395" lon="3.20478">
        <ele>125</ele>
        <time>2024-05-23T07:39:10.947Z</time>
      </trkpt>
      <trkpt lat="48.22396" lon="3.20486">
        <ele>123</ele>
        <time>2024-05-23T07:39:15.146Z</time>
      </trkpt>
      <trkpt lat="48.22397" lon="3.20495">
        <ele>123</ele>
        <time>2024-05-23T07:39:20.146Z</time>
      </trkpt>
      <trkpt lat="48.22398" lon="3.20502">
        <ele>123</ele>
        <time>2024-05-23T07:39:24.544Z</time>
      </trkpt>
      <trkpt lat="48.22399" lon="3.20509">
        <ele>123</ele>
        <time>2024-05-23T07:39:28.719Z</time>
      </trkpt>
      <trkpt lat="48.224" lon="3.20515">
        <ele>122</ele>
        <time>2024-05-23T07:39:32.841Z</time>
      </trkpt>
      <trkpt lat="48.22401" lon="3.20523">
        <ele>122</ele>
        <time>2024-05-23T07:39:37.026Z</time>
      </trkpt>
      <trkpt lat="48.22402" lon="3.2053">
        <ele>122</ele>
        <time>2024-05-23T07:39:41.146Z</time>
      </trkpt>
      <trkpt lat="48.22402" lon="3.20536">
        <ele>122</ele>
        <time>2024-05-23T07:39:45.561Z</time>
      </trkpt>
      <trkpt lat="48.22403" lon="3.20543">
        <ele>124</ele>
        <time>2024-05-23T07:39:50.107Z</time>
      </trkpt>
      <trkpt lat="48.22403" lon="3.20551">
        <ele>124</ele>
        <time>2024-05-23T07:39:54.798Z</time>
      </trkpt>
      <trkpt lat="48.22403" lon="3.20558">
        <ele>124</ele>
        <time>2024-05-23T07:39:59.146Z</time>
      </trkpt>
      <trkpt lat="48.22405" lon="3.20563">
        <ele>124</ele>
        <time>2024-05-23T07:40:03.607Z</time>
      </trkpt>
      <trkpt lat="48.22409" lon="3.20571">
        <ele>123</ele>
        <time>2024-05-23T07:40:08.146Z</time>
      </trkpt>
      <trkpt lat="48.22409" lon="3.20579">
        <ele>123</ele>
        <time>2024-05-23T07:40:12.426Z</time>
      </trkpt>
      <trkpt lat="48.22411" lon="3.20585">
        <ele>123</ele>
        <time>2024-05-23T07:40:16.782Z</time>
      </trkpt>
      <trkpt lat="48.22413" lon="3.20592">
        <ele>123</ele>
        <time>2024-05-23T07:40:20.998Z</time>
      </trkpt>
      <trkpt lat="48.22414" lon="3.20598">
        <ele>123</ele>
        <time>2024-05-23T07:40:25.037Z</time>
      </trkpt>
      <trkpt lat="48.22414" lon="3.20607">
        <ele>123</ele>
        <time>2024-05-23T07:40:29.141Z</time>
      </trkpt>
      <trkpt lat="48.22415" lon="3.20615">
        <ele>123</ele>
        <time>2024-05-23T07:40:33.638Z</time>
      </trkpt>
      <trkpt lat="48.22416" lon="3.20623">
        <ele>123</ele>
        <time>2024-05-23T07:40:37.820Z</time>
      </trkpt>
      <trkpt lat="48.22415" lon="3.20629">
        <ele>123</ele>
        <time>2024-05-23T07:40:42.120Z</time>
      </trkpt>
      <trkpt lat="48.22413" lon="3.20636">
        <ele>123</ele>
        <time>2024-05-23T07:40:46.146Z</time>
      </trkpt>
      <trkpt lat="48.22414" lon="3.20645">
        <ele>123</ele>
        <time>2024-05-23T07:40:50.756Z</time>
      </trkpt>
      <trkpt lat="48.22418" lon="3.20651">
        <ele>123</ele>
        <time>2024-05-23T07:40:55.146Z</time>
      </trkpt>
      <trkpt lat="48.22423" lon="3.20656">
        <ele>123</ele>
        <time>2024-05-23T07:41:00.097Z</time>
      </trkpt>
      <trkpt lat="48.22425" lon="3.20653">
        <ele>123</ele>
        <time>2024-05-23T07:41:04.843Z</time>
      </trkpt>
      <trkpt lat="48.22426" lon="3.20652">
        <ele>123</ele>
        <time>2024-05-23T07:41:07.146Z</time>
      </trkpt>
      <trkpt lat="48.22431" lon="3.20653">
        <ele>125</ele>
        <time>2024-05-23T07:41:15.941Z</time>
      </trkpt>
      <trkpt lat="48.22435" lon="3.20653">
        <ele>125</ele>
        <time>2024-05-23T07:41:20.146Z</time>
      </trkpt>
      <trkpt lat="48.22441" lon="3.20651">
        <ele>125</ele>
        <time>2024-05-23T07:41:24.702Z</time>
      </trkpt>
      <trkpt lat="48.22444" lon="3.2065">
        <ele>125</ele>
        <time>2024-05-23T07:41:29.077Z</time>
      </trkpt>
      <trkpt lat="48.22449" lon="3.20648">
        <ele>125</ele>
        <time>2024-05-23T07:41:33.559Z</time>
      </trkpt>
      <trkpt lat="48.22455" lon="3.20648">
        <ele>125</ele>
        <time>2024-05-23T07:41:38.096Z</time>
      </trkpt>
      <trkpt lat="48.22459" lon="3.20648">
        <ele>127</ele>
        <time>2024-05-23T07:41:49.146Z</time>
      </trkpt>
      <trkpt lat="48.22468" lon="3.20646">
        <ele>127</ele>
        <time>2024-05-23T07:41:58.146Z</time>
      </trkpt>
      <trkpt lat="48.22472" lon="3.20647">
        <ele>127</ele>
        <time>2024-05-23T07:42:02.577Z</time>
      </trkpt>
      <trkpt lat="48.22476" lon="3.20646">
        <ele>127</ele>
        <time>2024-05-23T07:42:06.938Z</time>
      </trkpt>
      <trkpt lat="48.2248" lon="3.20644">
        <ele>127</ele>
        <time>2024-05-23T07:42:11.241Z</time>
      </trkpt>
      <trkpt lat="48.22485" lon="3.20644">
        <ele>127</ele>
        <time>2024-05-23T07:42:15.700Z</time>
      </trkpt>
      <trkpt lat="48.22489" lon="3.20644">
        <ele>129</ele>
        <time>2024-05-23T07:42:20.262Z</time>
      </trkpt>
      <trkpt lat="48.22495" lon="3.20643">
        <ele>129</ele>
        <time>2024-05-23T07:42:24.789Z</time>
      </trkpt>
      <trkpt lat="48.225" lon="3.20642">
        <ele>129</ele>
        <time>2024-05-23T07:42:29.146Z</time>
      </trkpt>
      <trkpt lat="48.22505" lon="3.20642">
        <ele>129</ele>
        <time>2024-05-23T07:42:33.599Z</time>
      </trkpt>
      <trkpt lat="48.22509" lon="3.20643">
        <ele>129</ele>
        <time>2024-05-23T07:42:37.986Z</time>
      </trkpt>
      <trkpt lat="48.22513" lon="3.20642">
        <ele>129</ele>
        <time>2024-05-23T07:42:43.010Z</time>
      </trkpt>
      <trkpt lat="48.22519" lon="3.20641">
        <ele>132</ele>
        <time>2024-05-23T07:42:47.146Z</time>
      </trkpt>
      <trkpt lat="48.22521" lon="3.2064">
        <ele>132</ele>
        <time>2024-05-23T07:42:48.855Z</time>
      </trkpt>
      <trkpt lat="48.22526" lon="3.20638">
        <ele>132</ele>
        <time>2024-05-23T07:42:58.085Z</time>
      </trkpt>
      <trkpt lat="48.2253" lon="3.20636">
        <ele>132</ele>
        <time>2024-05-23T07:43:02.642Z</time>
      </trkpt>
      <trkpt lat="48.22535" lon="3.20636">
        <ele>132</ele>
        <time>2024-05-23T07:43:07.146Z</time>
      </trkpt>
      <trkpt lat="48.22539" lon="3.20635">
        <ele>132</ele>
        <time>2024-05-23T07:43:11.558Z</time>
      </trkpt>
      <trkpt lat="48.22544" lon="3.20635">
        <ele>135</ele>
        <time>2024-05-23T07:43:15.712Z</time>
      </trkpt>
      <trkpt lat="48.22548" lon="3.20635">
        <ele>135</ele>
        <time>2024-05-23T07:43:20.058Z</time>
      </trkpt>
      <trkpt lat="48.22553" lon="3.20635">
        <ele>135</ele>
        <time>2024-05-23T07:43:24.392Z</time>
      </trkpt>
      <trkpt lat="48.22557" lon="3.20634">
        <ele>135</ele>
        <time>2024-05-23T07:43:27.999Z</time>
      </trkpt>
      <trkpt lat="48.22566" lon="3.20632">
        <ele>135</ele>
        <time>2024-05-23T07:43:36.393Z</time>
      </trkpt>
      <trkpt lat="48.22571" lon="3.20632">
        <ele>139</ele>
        <time>2024-05-23T07:43:40.576Z</time>
      </trkpt>
      <trkpt lat="48.22577" lon="3.20632">
        <ele>139</ele>
        <time>2024-05-23T07:43:45.146Z</time>
      </trkpt>
      <trkpt lat="48.22581" lon="3.20632">
        <ele>139</ele>
        <time>2024-05-23T07:43:49.620Z</time>
      </trkpt>
      <trkpt lat="48.22586" lon="3.20632">
        <ele>139</ele>
        <time>2024-05-23T07:43:53.715Z</time>
      </trkpt>
      <trkpt lat="48.2259" lon="3.2063">
        <ele>139</ele>
        <time>2024-05-23T07:43:58.146Z</time>
      </trkpt>
      <trkpt lat="48.22593" lon="3.2063">
        <ele>139</ele>
        <time>2024-05-23T07:44:02.479Z</time>
      </trkpt>
      <trkpt lat="48.22597" lon="3.2063">
        <ele>139</ele>
        <time>2024-05-23T07:44:07.078Z</time>
      </trkpt>
      <trkpt lat="48.22601" lon="3.20629">
        <ele>139</ele>
        <time>2024-05-23T07:44:11.439Z</time>
      </trkpt>
      <trkpt lat="48.22605" lon="3.20629">
        <ele>139</ele>
        <time>2024-05-23T07:44:15.586Z</time>
      </trkpt>
      <trkpt lat="48.2261" lon="3.20628">
        <ele>139</ele>
        <time>2024-05-23T07:44:19.758Z</time>
      </trkpt>
      <trkpt lat="48.22613" lon="3.20628">
        <ele>139</ele>
        <time>2024-05-23T07:44:23.853Z</time>
      </trkpt>
      <trkpt lat="48.22618" lon="3.20627">
        <ele>139</ele>
        <time>2024-05-23T07:44:28Z</time>
      </trkpt>
      <trkpt lat="48.22622" lon="3.20626">
        <ele>139</ele>
        <time>2024-05-23T07:44:32.139Z</time>
      </trkpt>
      <trkpt lat="48.22627" lon="3.20625">
        <ele>142</ele>
        <time>2024-05-23T07:44:36.499Z</time>
      </trkpt>
      <trkpt lat="48.2263" lon="3.20627">
        <ele>140</ele>
        <time>2024-05-23T07:44:40.636Z</time>
      </trkpt>
      <trkpt lat="48.22635" lon="3.20623">
        <ele>142</ele>
        <time>2024-05-23T07:44:45.146Z</time>
      </trkpt>
      <trkpt lat="48.2264" lon="3.20622">
        <ele>142</ele>
        <time>2024-05-23T07:44:49.733Z</time>
      </trkpt>
      <trkpt lat="48.22644" lon="3.20622">
        <ele>142</ele>
        <time>2024-05-23T07:44:54.058Z</time>
      </trkpt>
      <trkpt lat="48.22648" lon="3.20622">
        <ele>142</ele>
        <time>2024-05-23T07:44:58.358Z</time>
      </trkpt>
      <trkpt lat="48.22652" lon="3.20622">
        <ele>142</ele>
        <time>2024-05-23T07:45:02.598Z</time>
      </trkpt>
      <trkpt lat="48.22657" lon="3.20621">
        <ele>144</ele>
        <time>2024-05-23T07:45:06.710Z</time>
      </trkpt>
      <trkpt lat="48.22661" lon="3.20621">
        <ele>144</ele>
        <time>2024-05-23T07:45:10.773Z</time>
      </trkpt>
      <trkpt lat="48.22666" lon="3.20621">
        <ele>144</ele>
        <time>2024-05-23T07:45:15.013Z</time>
      </trkpt>
      <trkpt lat="48.2267" lon="3.2062">
        <ele>144</ele>
        <time>2024-05-23T07:45:19.118Z</time>
      </trkpt>
      <trkpt lat="48.22674" lon="3.20619">
        <ele>144</ele>
        <time>2024-05-23T07:45:23.435Z</time>
      </trkpt>
      <trkpt lat="48.22679" lon="3.20618">
        <ele>144</ele>
        <time>2024-05-23T07:45:27.513Z</time>
      </trkpt>
      <trkpt lat="48.22684" lon="3.20618">
        <ele>147</ele>
        <time>2024-05-23T07:45:32.146Z</time>
      </trkpt>
      <trkpt lat="48.22689" lon="3.20618">
        <ele>147</ele>
        <time>2024-05-23T07:45:37.146Z</time>
      </trkpt>
      <trkpt lat="48.22694" lon="3.20615">
        <ele>147</ele>
        <time>2024-05-23T07:45:41.616Z</time>
      </trkpt>
      <trkpt lat="48.22699" lon="3.20614">
        <ele>147</ele>
        <time>2024-05-23T07:45:46.146Z</time>
      </trkpt>
      <trkpt lat="48.22705" lon="3.20613">
        <ele>147</ele>
        <time>2024-05-23T07:45:50.481Z</time>
      </trkpt>
      <trkpt lat="48.22709" lon="3.20614">
        <ele>150</ele>
        <time>2024-05-23T07:45:54.705Z</time>
      </trkpt>
      <trkpt lat="48.22713" lon="3.20612">
        <ele>150</ele>
        <time>2024-05-23T07:45:59.146Z</time>
      </trkpt>
      <trkpt lat="48.22719" lon="3.20612">
        <ele>150</ele>
        <time>2024-05-23T07:46:03.372Z</time>
      </trkpt>
      <trkpt lat="48.22724" lon="3.20611">
        <ele>150</ele>
        <time>2024-05-23T07:46:07.598Z</time>
      </trkpt>
      <trkpt lat="48.22728" lon="3.2061">
        <ele>150</ele>
        <time>2024-05-23T07:46:12.040Z</time>
      </trkpt>
      <trkpt lat="48.22733" lon="3.20609">
        <ele>150</ele>
        <time>2024-05-23T07:46:16.060Z</time>
      </trkpt>
      <trkpt lat="48.22737" lon="3.20608">
        <ele>154</ele>
        <time>2024-05-23T07:46:20.078Z</time>
      </trkpt>
      <trkpt lat="48.22741" lon="3.20608">
        <ele>154</ele>
        <time>2024-05-23T07:46:24.146Z</time>
      </trkpt>
      <trkpt lat="48.22745" lon="3.20607">
        <ele>154</ele>
        <time>2024-05-23T07:46:28.379Z</time>
      </trkpt>
      <trkpt lat="48.2275" lon="3.20606">
        <ele>154</ele>
        <time>2024-05-23T07:46:32.936Z</time>
      </trkpt>
      <trkpt lat="48.22755" lon="3.20607">
        <ele>154</ele>
        <time>2024-05-23T07:46:37.160Z</time>
      </trkpt>
      <trkpt lat="48.22759" lon="3.20605">
        <ele>154</ele>
        <time>2024-05-23T07:46:41.518Z</time>
      </trkpt>
      <trkpt lat="48.22764" lon="3.20604">
        <ele>154</ele>
        <time>2024-05-23T07:46:45.681Z</time>
      </trkpt>
      <trkpt lat="48.22768" lon="3.20604">
        <ele>157</ele>
        <time>2024-05-23T07:46:49.998Z</time>
      </trkpt>
      <trkpt lat="48.22772" lon="3.20602">
        <ele>157</ele>
        <time>2024-05-23T07:46:54.146Z</time>
      </trkpt>
      <trkpt lat="48.22778" lon="3.20602">
        <ele>157</ele>
        <time>2024-05-23T07:46:58.998Z</time>
      </trkpt>
      <trkpt lat="48.22783" lon="3.20602">
        <ele>157</ele>
        <time>2024-05-23T07:47:03.146Z</time>
      </trkpt>
      <trkpt lat="48.22788" lon="3.20602">
        <ele>157</ele>
        <time>2024-05-23T07:47:07.837Z</time>
      </trkpt>
      <trkpt lat="48.22793" lon="3.20602">
        <ele>159</ele>
        <time>2024-05-23T07:47:12.119Z</time>
      </trkpt>
      <trkpt lat="48.22797" lon="3.20601">
        <ele>159</ele>
        <time>2024-05-23T07:47:16.276Z</time>
      </trkpt>
      <trkpt lat="48.22802" lon="3.20599">
        <ele>159</ele>
        <time>2024-05-23T07:47:20.634Z</time>
      </trkpt>
      <trkpt lat="48.22807" lon="3.20599">
        <ele>159</ele>
        <time>2024-05-23T07:47:24.721Z</time>
      </trkpt>
      <trkpt lat="48.22812" lon="3.20599">
        <ele>159</ele>
        <time>2024-05-23T07:47:28.755Z</time>
      </trkpt>
      <trkpt lat="48.22817" lon="3.20598">
        <ele>159</ele>
        <time>2024-05-23T07:47:32.937Z</time>
      </trkpt>
      <trkpt lat="48.22821" lon="3.20597">
        <ele>163</ele>
        <time>2024-05-23T07:47:37.146Z</time>
      </trkpt>
      <trkpt lat="48.22827" lon="3.20596">
        <ele>163</ele>
        <time>2024-05-23T07:47:41.860Z</time>
      </trkpt>
      <trkpt lat="48.22828" lon="3.20601">
        <ele>161</ele>
        <time>2024-05-23T07:47:45.033Z</time>
      </trkpt>
      <trkpt lat="48.22831" lon="3.20598">
        <ele>161</ele>
        <time>2024-05-23T07:47:59.146Z</time>
      </trkpt>
      <trkpt lat="48.22831" lon="3.20598">
        <ele>161</ele>
        <time>2024-05-23T07:48:04.146Z</time>
      </trkpt>
      <trkpt lat="48.22831" lon="3.20598">
        <ele>161</ele>
        <time>2024-05-23T07:48:09.019Z</time>
      </trkpt>
      <trkpt lat="48.22838" lon="3.20596">
        <ele>163</ele>
        <time>2024-05-23T07:48:13.119Z</time>
      </trkpt>
      <trkpt lat="48.22841" lon="3.20597">
        <ele>163</ele>
        <time>2024-05-23T07:48:17.715Z</time>
      </trkpt>
      <trkpt lat="48.22845" lon="3.20596">
        <ele>163</ele>
        <time>2024-05-23T07:48:22.137Z</time>
      </trkpt>
      <trkpt lat="48.2285" lon="3.20595">
        <ele>167</ele>
        <time>2024-05-23T07:48:27.119Z</time>
      </trkpt>
      <trkpt lat="48.22853" lon="3.20595">
        <ele>167</ele>
        <time>2024-05-23T07:48:31.462Z</time>
      </trkpt>
      <trkpt lat="48.22858" lon="3.20595">
        <ele>167</ele>
        <time>2024-05-23T07:48:35.739Z</time>
      </trkpt>
      <trkpt lat="48.22862" lon="3.20594">
        <ele>167</ele>
        <time>2024-05-23T07:48:40.061Z</time>
      </trkpt>
      <trkpt lat="48.22867" lon="3.20593">
        <ele>167</ele>
        <time>2024-05-23T07:48:44.401Z</time>
      </trkpt>
      <trkpt lat="48.22872" lon="3.20593">
        <ele>167</ele>
        <time>2024-05-23T07:48:48.818Z</time>
      </trkpt>
      <trkpt lat="48.22876" lon="3.20591">
        <ele>170</ele>
        <time>2024-05-23T07:48:53.159Z</time>
      </trkpt>
      <trkpt lat="48.22881" lon="3.2059">
        <ele>170</ele>
        <time>2024-05-23T07:48:57.570Z</time>
      </trkpt>
      <trkpt lat="48.22886" lon="3.20591">
        <ele>170</ele>
        <time>2024-05-23T07:49:01.821Z</time>
      </trkpt>
      <trkpt lat="48.2289" lon="3.20591">
        <ele>170</ele>
        <time>2024-05-23T07:49:05.958Z</time>
      </trkpt>
      <trkpt lat="48.22895" lon="3.20591">
        <ele>170</ele>
        <time>2024-05-23T07:49:10.138Z</time>
      </trkpt>
      <trkpt lat="48.229" lon="3.20589">
        <ele>170</ele>
        <time>2024-05-23T07:49:14.978Z</time>
      </trkpt>
      <trkpt lat="48.22904" lon="3.20588">
        <ele>174</ele>
        <time>2024-05-23T07:49:19.146Z</time>
      </trkpt>
      <trkpt lat="48.22909" lon="3.20588">
        <ele>174</ele>
        <time>2024-05-23T07:49:23.537Z</time>
      </trkpt>
      <trkpt lat="48.22914" lon="3.20589">
        <ele>174</ele>
        <time>2024-05-23T07:49:27.640Z</time>
      </trkpt>
      <trkpt lat="48.22919" lon="3.20588">
        <ele>174</ele>
        <time>2024-05-23T07:49:32.119Z</time>
      </trkpt>
      <trkpt lat="48.22923" lon="3.20588">
        <ele>174</ele>
        <time>2024-05-23T07:49:36.146Z</time>
      </trkpt>
      <trkpt lat="48.22928" lon="3.20586">
        <ele>174</ele>
        <time>2024-05-23T07:49:40.662Z</time>
      </trkpt>
      <trkpt lat="48.22933" lon="3.20584">
        <ele>175</ele>
        <time>2024-05-23T07:49:45.146Z</time>
      </trkpt>
      <trkpt lat="48.22939" lon="3.20583">
        <ele>175</ele>
        <time>2024-05-23T07:49:49.717Z</time>
      </trkpt>
      <trkpt lat="48.22944" lon="3.20582">
        <ele>175</ele>
        <time>2024-05-23T07:49:54.146Z</time>
      </trkpt>
      <trkpt lat="48.22949" lon="3.20581">
        <ele>175</ele>
        <time>2024-05-23T07:49:58.217Z</time>
      </trkpt>
      <trkpt lat="48.22953" lon="3.2058">
        <ele>175</ele>
        <time>2024-05-23T07:50:02.278Z</time>
      </trkpt>
      <trkpt lat="48.22958" lon="3.20578">
        <ele>175</ele>
        <time>2024-05-23T07:50:06.792Z</time>
      </trkpt>
      <trkpt lat="48.22962" lon="3.20577">
        <ele>176</ele>
        <time>2024-05-23T07:50:11.146Z</time>
      </trkpt>
      <trkpt lat="48.22967" lon="3.20578">
        <ele>176</ele>
        <time>2024-05-23T07:50:15.796Z</time>
      </trkpt>
      <trkpt lat="48.22972" lon="3.20577">
        <ele>176</ele>
        <time>2024-05-23T07:50:19.873Z</time>
      </trkpt>
      <trkpt lat="48.22976" lon="3.20574">
        <ele>176</ele>
        <time>2024-05-23T07:50:24.097Z</time>
      </trkpt>
      <trkpt lat="48.22981" lon="3.20571">
        <ele>176</ele>
        <time>2024-05-23T07:50:28.960Z</time>
      </trkpt>
      <trkpt lat="48.22985" lon="3.20568">
        <ele>177</ele>
        <time>2024-05-23T07:50:33.380Z</time>
      </trkpt>
      <trkpt lat="48.22985" lon="3.20565">
        <ele>177</ele>
        <time>2024-05-23T07:50:37.988Z</time>
      </trkpt>
      <trkpt lat="48.22985" lon="3.20565">
        <ele>177</ele>
        <time>2024-05-23T07:51:15.937Z</time>
      </trkpt>
      <trkpt lat="48.22988" lon="3.20564">
        <ele>178</ele>
        <time>2024-05-23T07:51:20.125Z</time>
      </trkpt>
      <trkpt lat="48.22994" lon="3.20564">
        <ele>178</ele>
        <time>2024-05-23T07:51:24.536Z</time>
      </trkpt>
      <trkpt lat="48.22998" lon="3.2057">
        <ele>177</ele>
        <time>2024-05-23T07:51:28.793Z</time>
      </trkpt>
      <trkpt lat="48.22999" lon="3.20577">
        <ele>177</ele>
        <time>2024-05-23T07:51:32.862Z</time>
      </trkpt>
      <trkpt lat="48.22999" lon="3.20584">
        <ele>177</ele>
        <time>2024-05-23T07:51:37.356Z</time>
      </trkpt>
      <trkpt lat="48.23001" lon="3.20591">
        <ele>177</ele>
        <time>2024-05-23T07:51:41.965Z</time>
      </trkpt>
      <trkpt lat="48.23003" lon="3.20597">
        <ele>177</ele>
        <time>2024-05-23T07:51:46.484Z</time>
      </trkpt>
      <trkpt lat="48.23004" lon="3.20604">
        <ele>176</ele>
        <time>2024-05-23T07:51:51.019Z</time>
      </trkpt>
      <trkpt lat="48.23003" lon="3.20611">
        <ele>176</ele>
        <time>2024-05-23T07:51:56.083Z</time>
      </trkpt>
      <trkpt lat="48.23003" lon="3.20618">
        <ele>176</ele>
        <time>2024-05-23T07:52:00.601Z</time>
      </trkpt>
      <trkpt lat="48.23002" lon="3.20624">
        <ele>176</ele>
        <time>2024-05-23T07:52:04.687Z</time>
      </trkpt>
      <trkpt lat="48.23002" lon="3.20632">
        <ele>175</ele>
        <time>2024-05-23T07:52:08.806Z</time>
      </trkpt>
      <trkpt lat="48.23001" lon="3.20638">
        <ele>175</ele>
        <time>2024-05-23T07:52:13.432Z</time>
      </trkpt>
      <trkpt lat="48.23001" lon="3.20645">
        <ele>175</ele>
        <time>2024-05-23T07:52:17.902Z</time>
      </trkpt>
      <trkpt lat="48.23001" lon="3.20655">
        <ele>175</ele>
        <time>2024-05-23T07:52:22.137Z</time>
      </trkpt>
      <trkpt lat="48.23004" lon="3.20661">
        <ele>175</ele>
        <time>2024-05-23T07:52:27.146Z</time>
      </trkpt>
      <trkpt lat="48.23009" lon="3.20662">
        <ele>175</ele>
        <time>2024-05-23T07:52:31.379Z</time>
      </trkpt>
      <trkpt lat="48.23012" lon="3.20665">
        <ele>175</ele>
        <time>2024-05-23T07:52:36.146Z</time>
      </trkpt>
      <trkpt lat="48.23013" lon="3.2067">
        <ele>175</ele>
        <time>2024-05-23T07:52:40.877Z</time>
      </trkpt>
      <trkpt lat="48.23015" lon="3.20672">
        <ele>178</ele>
        <time>2024-05-23T07:52:45.146Z</time>
      </trkpt>
      <trkpt lat="48.23016" lon="3.20673">
        <ele>178</ele>
        <time>2024-05-23T07:52:49.736Z</time>
      </trkpt>
      <trkpt lat="48.23016" lon="3.20676">
        <ele>178</ele>
        <time>2024-05-23T07:52:54.146Z</time>
      </trkpt>
      <trkpt lat="48.23017" lon="3.2068">
        <ele>178</ele>
        <time>2024-05-23T07:52:58.380Z</time>
      </trkpt>
      <trkpt lat="48.23017" lon="3.20685">
        <ele>178</ele>
        <time>2024-05-23T07:53:03.146Z</time>
      </trkpt>
      <trkpt lat="48.23018" lon="3.20688">
        <ele>178</ele>
        <time>2024-05-23T07:53:07.704Z</time>
      </trkpt>
      <trkpt lat="48.23023" lon="3.20696">
        <ele>178</ele>
        <time>2024-05-23T07:53:16.528Z</time>
      </trkpt>
      <trkpt lat="48.23026" lon="3.20697">
        <ele>178</ele>
        <time>2024-05-23T07:53:20.657Z</time>
      </trkpt>
      <trkpt lat="48.23027" lon="3.20698">
        <ele>178</ele>
        <time>2024-05-23T07:53:25.146Z</time>
      </trkpt>
      <trkpt lat="48.23028" lon="3.20697">
        <ele>178</ele>
        <time>2024-05-23T07:53:30.146Z</time>
      </trkpt>
      <trkpt lat="48.23029" lon="3.20696">
        <ele>178</ele>
        <time>2024-05-23T07:53:35.018Z</time>
      </trkpt>
      <trkpt lat="48.23032" lon="3.20693">
        <ele>178</ele>
        <time>2024-05-23T07:53:39.037Z</time>
      </trkpt>
      <trkpt lat="48.23037" lon="3.20689">
        <ele>178</ele>
        <time>2024-05-23T07:53:43.440Z</time>
      </trkpt>
      <trkpt lat="48.2304" lon="3.20685">
        <ele>178</ele>
        <time>2024-05-23T07:53:47.999Z</time>
      </trkpt>
      <trkpt lat="48.23044" lon="3.20682">
        <ele>180</ele>
        <time>2024-05-23T07:53:52.146Z</time>
      </trkpt>
      <trkpt lat="48.23047" lon="3.20679">
        <ele>180</ele>
        <time>2024-05-23T07:53:56.494Z</time>
      </trkpt>
      <trkpt lat="48.23049" lon="3.20677">
        <ele>180</ele>
        <time>2024-05-23T07:54:00.779Z</time>
      </trkpt>
      <trkpt lat="48.23052" lon="3.20674">
        <ele>180</ele>
        <time>2024-05-23T07:54:05.120Z</time>
      </trkpt>
      <trkpt lat="48.23055" lon="3.20671">
        <ele>180</ele>
        <time>2024-05-23T07:54:09.146Z</time>
      </trkpt>
      <trkpt lat="48.23057" lon="3.20667">
        <ele>180</ele>
        <time>2024-05-23T07:54:13.592Z</time>
      </trkpt>
      <trkpt lat="48.2306" lon="3.20664">
        <ele>180</ele>
        <time>2024-05-23T07:54:18.038Z</time>
      </trkpt>
      <trkpt lat="48.23063" lon="3.2066">
        <ele>180</ele>
        <time>2024-05-23T07:54:22.146Z</time>
      </trkpt>
      <trkpt lat="48.23066" lon="3.20658">
        <ele>180</ele>
        <time>2024-05-23T07:54:26.869Z</time>
      </trkpt>
      <trkpt lat="48.23069" lon="3.20655">
        <ele>180</ele>
        <time>2024-05-23T07:54:31.279Z</time>
      </trkpt>
      <trkpt lat="48.23073" lon="3.20652">
        <ele>182</ele>
        <time>2024-05-23T07:54:35.461Z</time>
      </trkpt>
      <trkpt lat="48.23077" lon="3.20648">
        <ele>182</ele>
        <time>2024-05-23T07:54:40.034Z</time>
      </trkpt>
      <trkpt lat="48.2308" lon="3.20645">
        <ele>182</ele>
        <time>2024-05-23T07:54:44.572Z</time>
      </trkpt>
      <trkpt lat="48.23084" lon="3.20641">
        <ele>182</ele>
        <time>2024-05-23T07:54:48.714Z</time>
      </trkpt>
      <trkpt lat="48.23087" lon="3.20639">
        <ele>182</ele>
        <time>2024-05-23T07:54:52.816Z</time>
      </trkpt>
      <trkpt lat="48.23091" lon="3.20639">
        <ele>182</ele>
        <time>2024-05-23T07:54:56.996Z</time>
      </trkpt>
      <trkpt lat="48.23095" lon="3.20638">
        <ele>182</ele>
        <time>2024-05-23T07:55:01.146Z</time>
      </trkpt>
      <trkpt lat="48.23099" lon="3.20637">
        <ele>183</ele>
        <time>2024-05-23T07:55:05.373Z</time>
      </trkpt>
      <trkpt lat="48.23104" lon="3.20636">
        <ele>183</ele>
        <time>2024-05-23T07:55:09.776Z</time>
      </trkpt>
      <trkpt lat="48.23108" lon="3.20635">
        <ele>183</ele>
        <time>2024-05-23T07:55:13.956Z</time>
      </trkpt>
      <trkpt lat="48.23113" lon="3.20636">
        <ele>183</ele>
        <time>2024-05-23T07:55:18.077Z</time>
      </trkpt>
      <trkpt lat="48.23117" lon="3.20636">
        <ele>183</ele>
        <time>2024-05-23T07:55:22.480Z</time>
      </trkpt>
      <trkpt lat="48.23122" lon="3.20636">
        <ele>183</ele>
        <time>2024-05-23T07:55:27.098Z</time>
      </trkpt>
      <trkpt lat="48.23127" lon="3.20637">
        <ele>183</ele>
        <time>2024-05-23T07:55:31.814Z</time>
      </trkpt>
      <trkpt lat="48.23131" lon="3.20637">
        <ele>183</ele>
        <time>2024-05-23T07:55:36.396Z</time>
      </trkpt>
      <trkpt lat="48.23136" lon="3.20637">
        <ele>183</ele>
        <time>2024-05-23T07:55:40.797Z</time>
      </trkpt>
      <trkpt lat="48.23141" lon="3.20638">
        <ele>183</ele>
        <time>2024-05-23T07:55:45.116Z</time>
      </trkpt>
      <trkpt lat="48.23146" lon="3.20638">
        <ele>183</ele>
        <time>2024-05-23T07:55:49.799Z</time>
      </trkpt>
      <trkpt lat="48.2315" lon="3.2064">
        <ele>183</ele>
        <time>2024-05-23T07:55:53.860Z</time>
      </trkpt>
      <trkpt lat="48.23153" lon="3.20642">
        <ele>183</ele>
        <time>2024-05-23T07:56:03.146Z</time>
      </trkpt>
      <trkpt lat="48.23153" lon="3.20643">
        <ele>183</ele>
        <time>2024-05-23T07:56:08.146Z</time>
      </trkpt>
      <trkpt lat="48.23153" lon="3.20643">
        <ele>183</ele>
        <time>2024-05-23T07:56:12.433Z</time>
      </trkpt>
      <trkpt lat="48.23157" lon="3.20645">
        <ele>183</ele>
        <time>2024-05-23T07:56:16.539Z</time>
      </trkpt>
      <trkpt lat="48.23158" lon="3.20653">
        <ele>183</ele>
        <time>2024-05-23T07:56:20.973Z</time>
      </trkpt>
      <trkpt lat="48.23159" lon="3.2066">
        <ele>183</ele>
        <time>2024-05-23T07:56:25.358Z</time>
      </trkpt>
      <trkpt lat="48.23159" lon="3.2067">
        <ele>183</ele>
        <time>2024-05-23T07:56:30.078Z</time>
      </trkpt>
      <trkpt lat="48.23159" lon="3.20677">
        <ele>183</ele>
        <time>2024-05-23T07:56:34.146Z</time>
      </trkpt>
      <trkpt lat="48.2316" lon="3.20684">
        <ele>182</ele>
        <time>2024-05-23T07:56:38.659Z</time>
      </trkpt>
      <trkpt lat="48.23161" lon="3.20691">
        <ele>182</ele>
        <time>2024-05-23T07:56:42.917Z</time>
      </trkpt>
      <trkpt lat="48.23163" lon="3.20698">
        <ele>182</ele>
        <time>2024-05-23T07:56:47.617Z</time>
      </trkpt>
      <trkpt lat="48.23164" lon="3.20705">
        <ele>182</ele>
        <time>2024-05-23T07:56:52.146Z</time>
      </trkpt>
      <trkpt lat="48.23165" lon="3.20712">
        <ele>182</ele>
        <time>2024-05-23T07:56:56.934Z</time>
      </trkpt>
      <trkpt lat="48.23167" lon="3.20719">
        <ele>182</ele>
        <time>2024-05-23T07:57:01.146Z</time>
      </trkpt>
      <trkpt lat="48.23168" lon="3.20727">
        <ele>182</ele>
        <time>2024-05-23T07:57:06.146Z</time>
      </trkpt>
      <trkpt lat="48.23169" lon="3.20735">
        <ele>182</ele>
        <time>2024-05-23T07:57:10.800Z</time>
      </trkpt>
      <trkpt lat="48.2317" lon="3.20743">
        <ele>182</ele>
        <time>2024-05-23T07:57:15.146Z</time>
      </trkpt>
      <trkpt lat="48.23171" lon="3.2075">
        <ele>182</ele>
        <time>2024-05-23T07:57:19.660Z</time>
      </trkpt>
      <trkpt lat="48.23173" lon="3.20758">
        <ele>182</ele>
        <time>2024-05-23T07:57:23.837Z</time>
      </trkpt>
      <trkpt lat="48.23174" lon="3.20765">
        <ele>183</ele>
        <time>2024-05-23T07:57:27.854Z</time>
      </trkpt>
      <trkpt lat="48.23175" lon="3.20773">
        <ele>183</ele>
        <time>2024-05-23T07:57:32.146Z</time>
      </trkpt>
      <trkpt lat="48.23177" lon="3.20782">
        <ele>183</ele>
        <time>2024-05-23T07:57:36.881Z</time>
      </trkpt>
      <trkpt lat="48.23178" lon="3.20789">
        <ele>183</ele>
        <time>2024-05-23T07:57:41.146Z</time>
      </trkpt>
      <trkpt lat="48.23179" lon="3.20798">
        <ele>183</ele>
        <time>2024-05-23T07:57:45.872Z</time>
      </trkpt>
      <trkpt lat="48.2318" lon="3.20807">
        <ele>183</ele>
        <time>2024-05-23T07:57:50.557Z</time>
      </trkpt>
      <trkpt lat="48.23181" lon="3.20813">
        <ele>181</ele>
        <time>2024-05-23T07:57:54.807Z</time>
      </trkpt>
      <trkpt lat="48.23181" lon="3.20821">
        <ele>180</ele>
        <time>2024-05-23T07:57:59.199Z</time>
      </trkpt>
      <trkpt lat="48.23181" lon="3.20829">
        <ele>180</ele>
        <time>2024-05-23T07:58:03.817Z</time>
      </trkpt>
      <trkpt lat="48.23181" lon="3.20836">
        <ele>180</ele>
        <time>2024-05-23T07:58:07.953Z</time>
      </trkpt>
      <trkpt lat="48.23183" lon="3.20844">
        <ele>180</ele>
        <time>2024-05-23T07:58:12.459Z</time>
      </trkpt>
      <trkpt lat="48.23182" lon="3.20851">
        <ele>179</ele>
        <time>2024-05-23T07:58:16.922Z</time>
      </trkpt>
      <trkpt lat="48.23183" lon="3.2086">
        <ele>179</ele>
        <time>2024-05-23T07:58:21.417Z</time>
      </trkpt>
      <trkpt lat="48.23183" lon="3.20868">
        <ele>179</ele>
        <time>2024-05-23T07:58:25.957Z</time>
      </trkpt>
      <trkpt lat="48.23184" lon="3.20876">
        <ele>177</ele>
        <time>2024-05-23T07:58:30.539Z</time>
      </trkpt>
      <trkpt lat="48.23184" lon="3.20884">
        <ele>177</ele>
        <time>2024-05-23T07:58:35.060Z</time>
      </trkpt>
      <trkpt lat="48.23184" lon="3.20892">
        <ele>177</ele>
        <time>2024-05-23T07:58:39.539Z</time>
      </trkpt>
      <trkpt lat="48.23184" lon="3.209">
        <ele>177</ele>
        <time>2024-05-23T07:58:44.158Z</time>
      </trkpt>
      <trkpt lat="48.23184" lon="3.20907">
        <ele>176</ele>
        <time>2024-05-23T07:58:48.633Z</time>
      </trkpt>
      <trkpt lat="48.23184" lon="3.20916">
        <ele>176</ele>
        <time>2024-05-23T07:58:53.146Z</time>
      </trkpt>
      <trkpt lat="48.23184" lon="3.20925">
        <ele>176</ele>
        <time>2024-05-23T07:58:57.709Z</time>
      </trkpt>
      <trkpt lat="48.23184" lon="3.20933">
        <ele>176</ele>
        <time>2024-05-23T07:59:02.146Z</time>
      </trkpt>
      <trkpt lat="48.23184" lon="3.20941">
        <ele>176</ele>
        <time>2024-05-23T07:59:06.801Z</time>
      </trkpt>
      <trkpt lat="48.23184" lon="3.20948">
        <ele>176</ele>
        <time>2024-05-23T07:59:11.146Z</time>
      </trkpt>
      <trkpt lat="48.23185" lon="3.20957">
        <ele>176</ele>
        <time>2024-05-23T07:59:15.919Z</time>
      </trkpt>
      <trkpt lat="48.23185" lon="3.20965">
        <ele>176</ele>
        <time>2024-05-23T07:59:20.146Z</time>
      </trkpt>
      <trkpt lat="48.23185" lon="3.20974">
        <ele>176</ele>
        <time>2024-05-23T07:59:24.938Z</time>
      </trkpt>
      <trkpt lat="48.23185" lon="3.20981">
        <ele>176</ele>
        <time>2024-05-23T07:59:29.146Z</time>
      </trkpt>
      <trkpt lat="48.23187" lon="3.20989">
        <ele>176</ele>
        <time>2024-05-23T07:59:33.437Z</time>
      </trkpt>
      <trkpt lat="48.23191" lon="3.20995">
        <ele>176</ele>
        <time>2024-05-23T07:59:37.573Z</time>
      </trkpt>
      <trkpt lat="48.23195" lon="3.21">
        <ele>176</ele>
        <time>2024-05-23T07:59:41.992Z</time>
      </trkpt>
      <trkpt lat="48.232" lon="3.21005">
        <ele>176</ele>
        <time>2024-05-23T07:59:46.146Z</time>
      </trkpt>
      <trkpt lat="48.23205" lon="3.21011">
        <ele>176</ele>
        <time>2024-05-23T07:59:51.020Z</time>
      </trkpt>
      <trkpt lat="48.23209" lon="3.21015">
        <ele>175</ele>
        <time>2024-05-23T07:59:55.533Z</time>
      </trkpt>
      <trkpt lat="48.23214" lon="3.21021">
        <ele>175</ele>
        <time>2024-05-23T08:00:00.057Z</time>
      </trkpt>
      <trkpt lat="48.23218" lon="3.21024">
        <ele>175</ele>
        <time>2024-05-23T08:00:04.560Z</time>
      </trkpt>
      <trkpt lat="48.23222" lon="3.21029">
        <ele>175</ele>
        <time>2024-05-23T08:00:09.146Z</time>
      </trkpt>
      <trkpt lat="48.23227" lon="3.21035">
        <ele>175</ele>
        <time>2024-05-23T08:00:13.757Z</time>
      </trkpt>
      <trkpt lat="48.2323" lon="3.2104">
        <ele>175</ele>
        <time>2024-05-23T08:00:18.146Z</time>
      </trkpt>
      <trkpt lat="48.23234" lon="3.21045">
        <ele>175</ele>
        <time>2024-05-23T08:00:22.546Z</time>
      </trkpt>
      <trkpt lat="48.23238" lon="3.2105">
        <ele>173</ele>
        <time>2024-05-23T08:00:27.095Z</time>
      </trkpt>
      <trkpt lat="48.23242" lon="3.21054">
        <ele>173</ele>
        <time>2024-05-23T08:00:31.576Z</time>
      </trkpt>
      <trkpt lat="48.23245" lon="3.21059">
        <ele>173</ele>
        <time>2024-05-23T08:00:35.659Z</time>
      </trkpt>
      <trkpt lat="48.23249" lon="3.21063">
        <ele>173</ele>
        <time>2024-05-23T08:00:40.079Z</time>
      </trkpt>
      <trkpt lat="48.23254" lon="3.21068">
        <ele>173</ele>
        <time>2024-05-23T08:00:45.097Z</time>
      </trkpt>
      <trkpt lat="48.23258" lon="3.21072">
        <ele>173</ele>
        <time>2024-05-23T08:00:49.146Z</time>
      </trkpt>
      <trkpt lat="48.23262" lon="3.21079">
        <ele>173</ele>
        <time>2024-05-23T08:00:53.696Z</time>
      </trkpt>
      <trkpt lat="48.23265" lon="3.21083">
        <ele>171</ele>
        <time>2024-05-23T08:00:58.146Z</time>
      </trkpt>
      <trkpt lat="48.2327" lon="3.21088">
        <ele>171</ele>
        <time>2024-05-23T08:01:02.893Z</time>
      </trkpt>
      <trkpt lat="48.23273" lon="3.21092">
        <ele>171</ele>
        <time>2024-05-23T08:01:07.146Z</time>
      </trkpt>
      <trkpt lat="48.23276" lon="3.21097">
        <ele>173</ele>
        <time>2024-05-23T08:01:11.640Z</time>
      </trkpt>
      <trkpt lat="48.2328" lon="3.21103">
        <ele>173</ele>
        <time>2024-05-23T08:01:15.975Z</time>
      </trkpt>
      <trkpt lat="48.23284" lon="3.21108">
        <ele>173</ele>
        <time>2024-05-23T08:01:20.393Z</time>
      </trkpt>
      <trkpt lat="48.23288" lon="3.21112">
        <ele>173</ele>
        <time>2024-05-23T08:01:24.421Z</time>
      </trkpt>
      <trkpt lat="48.23296" lon="3.21116">
        <ele>172</ele>
        <time>2024-05-23T08:01:53.146Z</time>
      </trkpt>
      <trkpt lat="48.23296" lon="3.21116">
        <ele>172</ele>
        <time>2024-05-23T08:01:58.146Z</time>
      </trkpt>
      <trkpt lat="48.23296" lon="3.21116">
        <ele>172</ele>
        <time>2024-05-23T08:02:03.146Z</time>
      </trkpt>
      <trkpt lat="48.23297" lon="3.21118">
        <ele>172</ele>
        <time>2024-05-23T08:02:07.713Z</time>
      </trkpt>
      <trkpt lat="48.233" lon="3.21126">
        <ele>173</ele>
        <time>2024-05-23T08:02:12.146Z</time>
      </trkpt>
      <trkpt lat="48.23303" lon="3.21131">
        <ele>173</ele>
        <time>2024-05-23T08:02:16.356Z</time>
      </trkpt>
      <trkpt lat="48.23306" lon="3.21136">
        <ele>173</ele>
        <time>2024-05-23T08:02:20.656Z</time>
      </trkpt>
      <trkpt lat="48.23309" lon="3.21142">
        <ele>173</ele>
        <time>2024-05-23T08:02:25.146Z</time>
      </trkpt>
      <trkpt lat="48.23311" lon="3.21147">
        <ele>173</ele>
        <time>2024-05-23T08:02:29.146Z</time>
      </trkpt>
      <trkpt lat="48.23314" lon="3.21151">
        <ele>173</ele>
        <time>2024-05-23T08:02:33.890Z</time>
      </trkpt>
      <trkpt lat="48.23317" lon="3.21156">
        <ele>174</ele>
        <time>2024-05-23T08:02:38.139Z</time>
      </trkpt>
      <trkpt lat="48.23322" lon="3.2116">
        <ele>171</ele>
        <time>2024-05-23T08:02:42.993Z</time>
      </trkpt>
      <trkpt lat="48.23326" lon="3.21162">
        <ele>171</ele>
        <time>2024-05-23T08:02:47.146Z</time>
      </trkpt>
      <trkpt lat="48.23329" lon="3.21166">
        <ele>171</ele>
        <time>2024-05-23T08:02:51.918Z</time>
      </trkpt>
      <trkpt lat="48.23332" lon="3.2117">
        <ele>171</ele>
        <time>2024-05-23T08:02:56.982Z</time>
      </trkpt>
      <trkpt lat="48.23335" lon="3.21175">
        <ele>171</ele>
        <time>2024-05-23T08:03:01.146Z</time>
      </trkpt>
      <trkpt lat="48.23337" lon="3.2118">
        <ele>171</ele>
        <time>2024-05-23T08:03:05.315Z</time>
      </trkpt>
      <trkpt lat="48.23339" lon="3.2118">
        <ele>171</ele>
        <time>2024-05-23T08:03:10.146Z</time>
      </trkpt>
      <trkpt lat="48.23341" lon="3.21185">
        <ele>170</ele>
        <time>2024-05-23T08:03:15.137Z</time>
      </trkpt>
      <trkpt lat="48.23343" lon="3.2119">
        <ele>170</ele>
        <time>2024-05-23T08:03:19.557Z</time>
      </trkpt>
      <trkpt lat="48.23345" lon="3.21194">
        <ele>170</ele>
        <time>2024-05-23T08:03:24.146Z</time>
      </trkpt>
      <trkpt lat="48.23348" lon="3.21198">
        <ele>170</ele>
        <time>2024-05-23T08:03:28.701Z</time>
      </trkpt>
      <trkpt lat="48.23351" lon="3.21203">
        <ele>170</ele>
        <time>2024-05-23T08:03:32.860Z</time>
      </trkpt>
      <trkpt lat="48.23354" lon="3.21208">
        <ele>170</ele>
        <time>2024-05-23T08:03:37.499Z</time>
      </trkpt>
      <trkpt lat="48.23357" lon="3.21214">
        <ele>169</ele>
        <time>2024-05-23T08:03:42.146Z</time>
      </trkpt>
      <trkpt lat="48.23359" lon="3.2122">
        <ele>169</ele>
        <time>2024-05-23T08:03:47.146Z</time>
      </trkpt>
      <trkpt lat="48.23363" lon="3.21222">
        <ele>169</ele>
        <time>2024-05-23T08:03:51.535Z</time>
      </trkpt>
      <trkpt lat="48.23366" lon="3.21226">
        <ele>169</ele>
        <time>2024-05-23T08:03:56.146Z</time>
      </trkpt>
      <trkpt lat="48.23367" lon="3.21234">
        <ele>169</ele>
        <time>2024-05-23T08:04:01.146Z</time>
      </trkpt>
      <trkpt lat="48.2337" lon="3.2124">
        <ele>168</ele>
        <time>2024-05-23T08:04:05.433Z</time>
      </trkpt>
      <trkpt lat="48.2337" lon="3.21244">
        <ele>168</ele>
        <time>2024-05-23T08:04:09.418Z</time>
      </trkpt>
      <trkpt lat="48.23373" lon="3.2125">
        <ele>168</ele>
        <time>2024-05-23T08:04:13.820Z</time>
      </trkpt>
      <trkpt lat="48.23375" lon="3.21256">
        <ele>169</ele>
        <time>2024-05-23T08:04:17.958Z</time>
      </trkpt>
      <trkpt lat="48.23378" lon="3.2126">
        <ele>169</ele>
        <time>2024-05-23T08:04:22.544Z</time>
      </trkpt>
      <trkpt lat="48.23381" lon="3.21264">
        <ele>169</ele>
        <time>2024-05-23T08:04:27.146Z</time>
      </trkpt>
      <trkpt lat="48.23383" lon="3.21268">
        <ele>167</ele>
        <time>2024-05-23T08:04:31.773Z</time>
      </trkpt>
      <trkpt lat="48.23384" lon="3.21272">
        <ele>167</ele>
        <time>2024-05-23T08:04:35.817Z</time>
      </trkpt>
      <trkpt lat="48.23384" lon="3.21276">
        <ele>167</ele>
        <time>2024-05-23T08:04:48.598Z</time>
      </trkpt>
      <trkpt lat="48.23385" lon="3.21277">
        <ele>167</ele>
        <time>2024-05-23T08:04:52.900Z</time>
      </trkpt>
      <trkpt lat="48.23386" lon="3.21282">
        <ele>167</ele>
        <time>2024-05-23T08:04:57.146Z</time>
      </trkpt>
      <trkpt lat="48.23387" lon="3.21285">
        <ele>167</ele>
        <time>2024-05-23T08:05:02.146Z</time>
      </trkpt>
      <trkpt lat="48.2339" lon="3.21287">
        <ele>167</ele>
        <time>2024-05-23T08:05:06.619Z</time>
      </trkpt>
      <trkpt lat="48.23401" lon="3.21295">
        <ele>165</ele>
        <time>2024-05-23T08:05:51.146Z</time>
      </trkpt>
      <trkpt lat="48.23402" lon="3.21296">
        <ele>165</ele>
        <time>2024-05-23T08:05:56.146Z</time>
      </trkpt>
      <trkpt lat="48.23402" lon="3.21296">
        <ele>165</ele>
        <time>2024-05-23T08:06:01.146Z</time>
      </trkpt>
      <trkpt lat="48.23403" lon="3.21297">
        <ele>165</ele>
        <time>2024-05-23T08:06:06.146Z</time>
      </trkpt>
      <trkpt lat="48.23403" lon="3.21297">
        <ele>165</ele>
        <time>2024-05-23T08:06:11.146Z</time>
      </trkpt>
      <trkpt lat="48.23403" lon="3.21295">
        <ele>164</ele>
        <time>2024-05-23T08:06:45.146Z</time>
      </trkpt>
      <trkpt lat="48.23403" lon="3.21295">
        <ele>164</ele>
        <time>2024-05-23T08:06:50.146Z</time>
      </trkpt>
      <trkpt lat="48.23406" lon="3.21292">
        <ele>166</ele>
        <time>2024-05-23T08:06:54.775Z</time>
      </trkpt>
      <trkpt lat="48.23407" lon="3.21287">
        <ele>166</ele>
        <time>2024-05-23T08:06:59.146Z</time>
      </trkpt>
      <trkpt lat="48.23408" lon="3.21282">
        <ele>166</ele>
        <time>2024-05-23T08:07:03.878Z</time>
      </trkpt>
      <trkpt lat="48.23411" lon="3.21279">
        <ele>166</ele>
        <time>2024-05-23T08:07:08.597Z</time>
      </trkpt>
      <trkpt lat="48.23414" lon="3.21277">
        <ele>166</ele>
        <time>2024-05-23T08:07:13Z</time>
      </trkpt>
      <trkpt lat="48.23416" lon="3.21276">
        <ele>166</ele>
        <time>2024-05-23T08:07:17.146Z</time>
      </trkpt>
      <trkpt lat="48.23418" lon="3.21274">
        <ele>166</ele>
        <time>2024-05-23T08:07:21.813Z</time>
      </trkpt>
      <trkpt lat="48.2342" lon="3.21273">
        <ele>166</ele>
        <time>2024-05-23T08:07:26.146Z</time>
      </trkpt>
      <trkpt lat="48.23424" lon="3.21269">
        <ele>166</ele>
        <time>2024-05-23T08:07:40.146Z</time>
      </trkpt>
      <trkpt lat="48.23424" lon="3.21269">
        <ele>166</ele>
        <time>2024-05-23T08:07:44.680Z</time>
      </trkpt>
      <trkpt lat="48.23427" lon="3.21269">
        <ele>166</ele>
        <time>2024-05-23T08:07:48.716Z</time>
      </trkpt>
      <trkpt lat="48.23431" lon="3.21267">
        <ele>166</ele>
        <time>2024-05-23T08:07:53.146Z</time>
      </trkpt>
      <trkpt lat="48.23431" lon="3.21265">
        <ele>166</ele>
        <time>2024-05-23T08:07:58.146Z</time>
      </trkpt>
      <trkpt lat="48.23438" lon="3.21264">
        <ele>166</ele>
        <time>2024-05-23T08:08:16.113Z</time>
      </trkpt>
      <trkpt lat="48.2344" lon="3.21266">
        <ele>166</ele>
        <time>2024-05-23T08:08:20.146Z</time>
      </trkpt>
      <trkpt lat="48.23441" lon="3.21266">
        <ele>166</ele>
        <time>2024-05-23T08:08:24.281Z</time>
      </trkpt>
      <trkpt lat="48.23441" lon="3.21268">
        <ele>166</ele>
        <time>2024-05-23T08:08:28.418Z</time>
      </trkpt>
      <trkpt lat="48.23442" lon="3.2127">
        <ele>166</ele>
        <time>2024-05-23T08:08:33.146Z</time>
      </trkpt>
      <trkpt lat="48.23443" lon="3.21271">
        <ele>166</ele>
        <time>2024-05-23T08:08:37.617Z</time>
      </trkpt>
      <trkpt lat="48.23448" lon="3.21273">
        <ele>166</ele>
        <time>2024-05-23T08:08:42.146Z</time>
      </trkpt>
      <trkpt lat="48.2345" lon="3.21276">
        <ele>166</ele>
        <time>2024-05-23T08:08:47.146Z</time>
      </trkpt>
      <trkpt lat="48.23451" lon="3.21277">
        <ele>166</ele>
        <time>2024-05-23T08:08:51.754Z</time>
      </trkpt>
      <trkpt lat="48.23452" lon="3.21278">
        <ele>166</ele>
        <time>2024-05-23T08:08:55.850Z</time>
      </trkpt>
      <trkpt lat="48.23453" lon="3.21278">
        <ele>166</ele>
        <time>2024-05-23T08:09:00.146Z</time>
      </trkpt>
      <trkpt lat="48.23457" lon="3.21275">
        <ele>166</ele>
        <time>2024-05-23T08:09:04.817Z</time>
      </trkpt>
      <trkpt lat="48.23461" lon="3.21277">
        <ele>166</ele>
        <time>2024-05-23T08:09:09.146Z</time>
      </trkpt>
      <trkpt lat="48.23462" lon="3.21278">
        <ele>166</ele>
        <time>2024-05-23T08:09:13.704Z</time>
      </trkpt>
      <trkpt lat="48.23464" lon="3.21278">
        <ele>166</ele>
        <time>2024-05-23T08:09:18.146Z</time>
      </trkpt>
      <trkpt lat="48.23466" lon="3.21291">
        <ele>166</ele>
        <time>2024-05-23T08:10:04.146Z</time>
      </trkpt>
      <trkpt lat="48.23467" lon="3.21291">
        <ele>166</ele>
        <time>2024-05-23T08:10:08.913Z</time>
      </trkpt>
      <trkpt lat="48.23467" lon="3.21295">
        <ele>163</ele>
        <time>2024-05-23T08:10:13.146Z</time>
      </trkpt>
      <trkpt lat="48.23469" lon="3.21299">
        <ele>163</ele>
        <time>2024-05-23T08:10:17.146Z</time>
      </trkpt>
      <trkpt lat="48.23469" lon="3.21301">
        <ele>163</ele>
        <time>2024-05-23T08:10:21.146Z</time>
      </trkpt>
      <trkpt lat="48.2347" lon="3.21304">
        <ele>163</ele>
        <time>2024-05-23T08:10:25.713Z</time>
      </trkpt>
      <trkpt lat="48.23472" lon="3.21308">
        <ele>163</ele>
        <time>2024-05-23T08:10:30.146Z</time>
      </trkpt>
      <trkpt lat="48.23476" lon="3.21315">
        <ele>163</ele>
        <time>2024-05-23T08:10:35.117Z</time>
      </trkpt>
      <trkpt lat="48.23476" lon="3.2132">
        <ele>161</ele>
        <time>2024-05-23T08:10:39.146Z</time>
      </trkpt>
      <trkpt lat="48.23476" lon="3.21325">
        <ele>161</ele>
        <time>2024-05-23T08:10:43.640Z</time>
      </trkpt>
      <trkpt lat="48.23477" lon="3.21329">
        <ele>161</ele>
        <time>2024-05-23T08:10:48.146Z</time>
      </trkpt>
      <trkpt lat="48.23479" lon="3.21333">
        <ele>161</ele>
        <time>2024-05-23T08:10:53.119Z</time>
      </trkpt>
      <trkpt lat="48.23478" lon="3.21337">
        <ele>161</ele>
        <time>2024-05-23T08:10:58.146Z</time>
      </trkpt>
      <trkpt lat="48.2348" lon="3.2134">
        <ele>161</ele>
        <time>2024-05-23T08:11:03.060Z</time>
      </trkpt>
      <trkpt lat="48.23481" lon="3.21344">
        <ele>161</ele>
        <time>2024-05-23T08:12:59.146Z</time>
      </trkpt>
      <trkpt lat="48.23479" lon="3.21345">
        <ele>161</ele>
        <time>2024-05-23T08:13:04.146Z</time>
      </trkpt>
      <trkpt lat="48.23477" lon="3.21346">
        <ele>161</ele>
        <time>2024-05-23T08:13:08.146Z</time>
      </trkpt>
      <trkpt lat="48.23474" lon="3.21348">
        <ele>159</ele>
        <time>2024-05-23T08:13:13.146Z</time>
      </trkpt>
      <trkpt lat="48.23472" lon="3.2135">
        <ele>159</ele>
        <time>2024-05-23T08:13:18.146Z</time>
      </trkpt>
      <trkpt lat="48.23464" lon="3.21359">
        <ele>159</ele>
        <time>2024-05-23T08:13:50.018Z</time>
      </trkpt>
      <trkpt lat="48.23464" lon="3.21359">
        <ele>159</ele>
        <time>2024-05-23T08:13:54.146Z</time>
      </trkpt>
      <trkpt lat="48.23464" lon="3.2136">
        <ele>159</ele>
        <time>2024-05-23T08:13:58.534Z</time>
      </trkpt>
      <trkpt lat="48.23464" lon="3.2136">
        <ele>159</ele>
        <time>2024-05-23T08:14:02.146Z</time>
      </trkpt>
      <trkpt lat="48.23463" lon="3.21367">
        <ele>159</ele>
        <time>2024-05-23T08:14:11.146Z</time>
      </trkpt>
      <trkpt lat="48.23466" lon="3.21372">
        <ele>159</ele>
        <time>2024-05-23T08:14:45.146Z</time>
      </trkpt>
      <trkpt lat="48.23466" lon="3.21374">
        <ele>159</ele>
        <time>2024-05-23T08:14:49.146Z</time>
      </trkpt>
      <trkpt lat="48.23465" lon="3.21377">
        <ele>157</ele>
        <time>2024-05-23T08:14:53.743Z</time>
      </trkpt>
      <trkpt lat="48.23464" lon="3.21379">
        <ele>157</ele>
        <time>2024-05-23T08:14:57.893Z</time>
      </trkpt>
      <trkpt lat="48.23463" lon="3.21385">
        <ele>157</ele>
        <time>2024-05-23T08:15:02.146Z</time>
      </trkpt>
      <trkpt lat="48.23469" lon="3.21391">
        <ele>157</ele>
        <time>2024-05-23T08:16:23.146Z</time>
      </trkpt>
      <trkpt lat="48.23469" lon="3.21392">
        <ele>157</ele>
        <time>2024-05-23T08:16:27.620Z</time>
      </trkpt>
      <trkpt lat="48.23468" lon="3.21394">
        <ele>157</ele>
        <time>2024-05-23T08:16:31.645Z</time>
      </trkpt>
      <trkpt lat="48.23469" lon="3.214">
        <ele>157</ele>
        <time>2024-05-23T08:16:36.146Z</time>
      </trkpt>
      <trkpt lat="48.23468" lon="3.21409">
        <ele>155</ele>
        <time>2024-05-23T08:16:41.146Z</time>
      </trkpt>
      <trkpt lat="48.23464" lon="3.21421">
        <ele>155</ele>
        <time>2024-05-23T08:17:23.146Z</time>
      </trkpt>
      <trkpt lat="48.23466" lon="3.21422">
        <ele>155</ele>
        <time>2024-05-23T08:17:27.796Z</time>
      </trkpt>
      <trkpt lat="48.23468" lon="3.21423">
        <ele>155</ele>
        <time>2024-05-23T08:17:32.899Z</time>
      </trkpt>
      <trkpt lat="48.23467" lon="3.21424">
        <ele>155</ele>
        <time>2024-05-23T08:17:37.276Z</time>
      </trkpt>
      <trkpt lat="48.23467" lon="3.21426">
        <ele>155</ele>
        <time>2024-05-23T08:17:41.799Z</time>
      </trkpt>
      <trkpt lat="48.23467" lon="3.21429">
        <ele>155</ele>
        <time>2024-05-23T08:17:45.980Z</time>
      </trkpt>
      <trkpt lat="48.23466" lon="3.2143">
        <ele>155</ele>
        <time>2024-05-23T08:17:50.146Z</time>
      </trkpt>
      <trkpt lat="48.23462" lon="3.21431">
        <ele>154</ele>
        <time>2024-05-23T08:17:54.598Z</time>
      </trkpt>
      <trkpt lat="48.23459" lon="3.21434">
        <ele>154</ele>
        <time>2024-05-23T08:17:59.146Z</time>
      </trkpt>
      <trkpt lat="48.23456" lon="3.21439">
        <ele>156</ele>
        <time>2024-05-23T08:18:03.720Z</time>
      </trkpt>
      <trkpt lat="48.23453" lon="3.21441">
        <ele>156</ele>
        <time>2024-05-23T08:18:07.937Z</time>
      </trkpt>
      <trkpt lat="48.23449" lon="3.21435">
        <ele>156</ele>
        <time>2024-05-23T08:18:11.954Z</time>
      </trkpt>
      <trkpt lat="48.23446" lon="3.21435">
        <ele>156</ele>
        <time>2024-05-23T08:18:16.146Z</time>
      </trkpt>
      <trkpt lat="48.23444" lon="3.21441">
        <ele>156</ele>
        <time>2024-05-23T08:18:20.956Z</time>
      </trkpt>
      <trkpt lat="48.23445" lon="3.21448">
        <ele>156</ele>
        <time>2024-05-23T08:18:25.146Z</time>
      </trkpt>
      <trkpt lat="48.23445" lon="3.21454">
        <ele>156</ele>
        <time>2024-05-23T08:18:29.916Z</time>
      </trkpt>
      <trkpt lat="48.23445" lon="3.21465">
        <ele>154</ele>
        <time>2024-05-23T08:18:34.146Z</time>
      </trkpt>
      <trkpt lat="48.23444" lon="3.21474">
        <ele>154</ele>
        <time>2024-05-23T08:18:38.939Z</time>
      </trkpt>
      <trkpt lat="48.23443" lon="3.21485">
        <ele>154</ele>
        <time>2024-05-23T08:18:43.146Z</time>
      </trkpt>
      <trkpt lat="48.23444" lon="3.21485">
        <ele>154</ele>
        <time>2024-05-23T08:18:48.146Z</time>
      </trkpt>
      <trkpt lat="48.23445" lon="3.21482">
        <ele>154</ele>
        <time>2024-05-23T08:18:52.146Z</time>
      </trkpt>
      <trkpt lat="48.23448" lon="3.21484">
        <ele>154</ele>
        <time>2024-05-23T08:18:57.146Z</time>
      </trkpt>
      <trkpt lat="48.23453" lon="3.21488">
        <ele>153</ele>
        <time>2024-05-23T08:19:02.059Z</time>
      </trkpt>
      <trkpt lat="48.23455" lon="3.21488">
        <ele>153</ele>
        <time>2024-05-23T08:19:04.548Z</time>
      </trkpt>
      <trkpt lat="48.23461" lon="3.21494">
        <ele>150</ele>
        <time>2024-05-23T08:19:13.859Z</time>
      </trkpt>
      <trkpt lat="48.23464" lon="3.21498">
        <ele>150</ele>
        <time>2024-05-23T08:19:18.146Z</time>
      </trkpt>
      <trkpt lat="48.23468" lon="3.21503">
        <ele>150</ele>
        <time>2024-05-23T08:19:22.699Z</time>
      </trkpt>
      <trkpt lat="48.23471" lon="3.21507">
        <ele>150</ele>
        <time>2024-05-23T08:19:27.153Z</time>
      </trkpt>
      <trkpt lat="48.23477" lon="3.21514">
        <ele>150</ele>
        <time>2024-05-23T08:20:08.146Z</time>
      </trkpt>
      <trkpt lat="48.23477" lon="3.21514">
        <ele>150</ele>
        <time>2024-05-23T08:20:12.146Z</time>
      </trkpt>
      <trkpt lat="48.23477" lon="3.21514">
        <ele>150</ele>
        <time>2024-05-23T08:20:16.146Z</time>
      </trkpt>
      <trkpt lat="48.23479" lon="3.21516">
        <ele>149</ele>
        <time>2024-05-23T08:20:21.146Z</time>
      </trkpt>
      <trkpt lat="48.23484" lon="3.2152">
        <ele>149</ele>
        <time>2024-05-23T08:20:26.146Z</time>
      </trkpt>
      <trkpt lat="48.23489" lon="3.2152">
        <ele>148</ele>
        <time>2024-05-23T08:20:30.146Z</time>
      </trkpt>
      <trkpt lat="48.23493" lon="3.21522">
        <ele>148</ele>
        <time>2024-05-23T08:20:34.636Z</time>
      </trkpt>
      <trkpt lat="48.23497" lon="3.21523">
        <ele>148</ele>
        <time>2024-05-23T08:20:38.773Z</time>
      </trkpt>
      <trkpt lat="48.23502" lon="3.21529">
        <ele>148</ele>
        <time>2024-05-23T08:20:43.373Z</time>
      </trkpt>
      <trkpt lat="48.23506" lon="3.21531">
        <ele>148</ele>
        <time>2024-05-23T08:20:47.983Z</time>
      </trkpt>
      <trkpt lat="48.23513" lon="3.21531">
        <ele>148</ele>
        <time>2024-05-23T08:20:52.419Z</time>
      </trkpt>
      <trkpt lat="48.23517" lon="3.21534">
        <ele>148</ele>
        <time>2024-05-23T08:20:56.437Z</time>
      </trkpt>
      <trkpt lat="48.23521" lon="3.21536">
        <ele>148</ele>
        <time>2024-05-23T08:21:00.720Z</time>
      </trkpt>
      <trkpt lat="48.23526" lon="3.2154">
        <ele>148</ele>
        <time>2024-05-23T08:21:05.146Z</time>
      </trkpt>
      <trkpt lat="48.23529" lon="3.21545">
        <ele>148</ele>
        <time>2024-05-23T08:21:09.638Z</time>
      </trkpt>
      <trkpt lat="48.23532" lon="3.2155">
        <ele>148</ele>
        <time>2024-05-23T08:21:14.005Z</time>
      </trkpt>
      <trkpt lat="48.23536" lon="3.21555">
        <ele>148</ele>
        <time>2024-05-23T08:21:18.460Z</time>
      </trkpt>
      <trkpt lat="48.2354" lon="3.2156">
        <ele>148</ele>
        <time>2024-05-23T08:21:23.146Z</time>
      </trkpt>
      <trkpt lat="48.23546" lon="3.21564">
        <ele>147</ele>
        <time>2024-05-23T08:21:28.146Z</time>
      </trkpt>
      <trkpt lat="48.23549" lon="3.2157">
        <ele>146</ele>
        <time>2024-05-23T08:21:32.358Z</time>
      </trkpt>
      <trkpt lat="48.23553" lon="3.21575">
        <ele>146</ele>
        <time>2024-05-23T08:21:36.796Z</time>
      </trkpt>
      <trkpt lat="48.23558" lon="3.2158">
        <ele>146</ele>
        <time>2024-05-23T08:21:41.146Z</time>
      </trkpt>
      <trkpt lat="48.23562" lon="3.21585">
        <ele>146</ele>
        <time>2024-05-23T08:21:45.439Z</time>
      </trkpt>
      <trkpt lat="48.23565" lon="3.2159">
        <ele>146</ele>
        <time>2024-05-23T08:21:49.620Z</time>
      </trkpt>
      <trkpt lat="48.23568" lon="3.21595">
        <ele>146</ele>
        <time>2024-05-23T08:21:53.920Z</time>
      </trkpt>
      <trkpt lat="48.23571" lon="3.21601">
        <ele>143</ele>
        <time>2024-05-23T08:21:58.537Z</time>
      </trkpt>
      <trkpt lat="48.23575" lon="3.21607">
        <ele>143</ele>
        <time>2024-05-23T08:22:03.016Z</time>
      </trkpt>
      <trkpt lat="48.23578" lon="3.21614">
        <ele>143</ele>
        <time>2024-05-23T08:22:07.640Z</time>
      </trkpt>
      <trkpt lat="48.23583" lon="3.21618">
        <ele>143</ele>
        <time>2024-05-23T08:22:11.752Z</time>
      </trkpt>
      <trkpt lat="48.23586" lon="3.21625">
        <ele>143</ele>
        <time>2024-05-23T08:22:16.078Z</time>
      </trkpt>
      <trkpt lat="48.2359" lon="3.21631">
        <ele>143</ele>
        <time>2024-05-23T08:22:20.146Z</time>
      </trkpt>
      <trkpt lat="48.23593" lon="3.21638">
        <ele>143</ele>
        <time>2024-05-23T08:22:24.620Z</time>
      </trkpt>
      <trkpt lat="48.23595" lon="3.21645">
        <ele>143</ele>
        <time>2024-05-23T08:22:29.146Z</time>
      </trkpt>
      <trkpt lat="48.23598" lon="3.21646">
        <ele>137</ele>
        <time>2024-05-23T08:22:32.146Z</time>
      </trkpt>
      <trkpt lat="48.23598" lon="3.21646">
        <ele>137</ele>
        <time>2024-05-23T08:22:41.145Z</time>
      </trkpt>
      <trkpt lat="48.236" lon="3.21652">
        <ele>137</ele>
        <time>2024-05-23T08:22:45.457Z</time>
      </trkpt>
      <trkpt lat="48.236" lon="3.21659">
        <ele>138</ele>
        <time>2024-05-23T08:22:49.959Z</time>
      </trkpt>
      <trkpt lat="48.23605" lon="3.21665">
        <ele>138</ele>
        <time>2024-05-23T08:22:54.781Z</time>
      </trkpt>
      <trkpt lat="48.23609" lon="3.2167">
        <ele>138</ele>
        <time>2024-05-23T08:22:59.876Z</time>
      </trkpt>
      <trkpt lat="48.23615" lon="3.21674">
        <ele>138</ele>
        <time>2024-05-23T08:23:04.313Z</time>
      </trkpt>
      <trkpt lat="48.2362" lon="3.2168">
        <ele>138</ele>
        <time>2024-05-23T08:23:08.938Z</time>
      </trkpt>
      <trkpt lat="48.23626" lon="3.21685">
        <ele>135</ele>
        <time>2024-05-23T08:23:13.376Z</time>
      </trkpt>
      <trkpt lat="48.2363" lon="3.21689">
        <ele>135</ele>
        <time>2024-05-23T08:23:17.778Z</time>
      </trkpt>
      <trkpt lat="48.23635" lon="3.21694">
        <ele>135</ele>
        <time>2024-05-23T08:23:22.146Z</time>
      </trkpt>
      <trkpt lat="48.2364" lon="3.21699">
        <ele>135</ele>
        <time>2024-05-23T08:23:26.780Z</time>
      </trkpt>
      <trkpt lat="48.23644" lon="3.21705">
        <ele>135</ele>
        <time>2024-05-23T08:23:31.146Z</time>
      </trkpt>
      <trkpt lat="48.23649" lon="3.2171">
        <ele>140</ele>
        <time>2024-05-23T08:23:36.146Z</time>
      </trkpt>
      <trkpt lat="48.23653" lon="3.21714">
        <ele>137</ele>
        <time>2024-05-23T08:23:40.918Z</time>
      </trkpt>
      <trkpt lat="48.23655" lon="3.2172">
        <ele>137</ele>
        <time>2024-05-23T08:23:44.956Z</time>
      </trkpt>
      <trkpt lat="48.23659" lon="3.21724">
        <ele>137</ele>
        <time>2024-05-23T08:23:49.033Z</time>
      </trkpt>
      <trkpt lat="48.23664" lon="3.21725">
        <ele>137</ele>
        <time>2024-05-23T08:23:53.156Z</time>
      </trkpt>
      <trkpt lat="48.23668" lon="3.21727">
        <ele>137</ele>
        <time>2024-05-23T08:23:57.318Z</time>
      </trkpt>
      <trkpt lat="48.23672" lon="3.21731">
        <ele>137</ele>
        <time>2024-05-23T08:24:02.146Z</time>
      </trkpt>
      <trkpt lat="48.23676" lon="3.21737">
        <ele>140</ele>
        <time>2024-05-23T08:24:06.705Z</time>
      </trkpt>
      <trkpt lat="48.23679" lon="3.21742">
        <ele>140</ele>
        <time>2024-05-23T08:24:11.146Z</time>
      </trkpt>
      <trkpt lat="48.23683" lon="3.21745">
        <ele>135</ele>
        <time>2024-05-23T08:24:15.613Z</time>
      </trkpt>
      <trkpt lat="48.23686" lon="3.21747">
        <ele>135</ele>
        <time>2024-05-23T08:24:20.146Z</time>
      </trkpt>
      <trkpt lat="48.23687" lon="3.2175">
        <ele>135</ele>
        <time>2024-05-23T08:24:25.146Z</time>
      </trkpt>
      <trkpt lat="48.23691" lon="3.21754">
        <ele>135</ele>
        <time>2024-05-23T08:24:29.639Z</time>
      </trkpt>
      <trkpt lat="48.23695" lon="3.21761">
        <ele>135</ele>
        <time>2024-05-23T08:24:33.872Z</time>
      </trkpt>
      <trkpt lat="48.23697" lon="3.2176">
        <ele>135</ele>
        <time>2024-05-23T08:24:39.146Z</time>
      </trkpt>
      <trkpt lat="48.23698" lon="3.21762">
        <ele>135</ele>
        <time>2024-05-23T08:24:43.916Z</time>
      </trkpt>
      <trkpt lat="48.23704" lon="3.21768">
        <ele>138</ele>
        <time>2024-05-23T08:24:49.146Z</time>
      </trkpt>
      <trkpt lat="48.23708" lon="3.21774">
        <ele>138</ele>
        <time>2024-05-23T08:24:53.659Z</time>
      </trkpt>
      <trkpt lat="48.23713" lon="3.21777">
        <ele>133</ele>
        <time>2024-05-23T08:24:57.960Z</time>
      </trkpt>
      <trkpt lat="48.23718" lon="3.21779">
        <ele>133</ele>
        <time>2024-05-23T08:25:02.057Z</time>
      </trkpt>
      <trkpt lat="48.23722" lon="3.21783">
        <ele>133</ele>
        <time>2024-05-23T08:25:06.134Z</time>
      </trkpt>
      <trkpt lat="48.23726" lon="3.21787">
        <ele>133</ele>
        <time>2024-05-23T08:25:10.146Z</time>
      </trkpt>
      <trkpt lat="48.23731" lon="3.21793">
        <ele>135</ele>
        <time>2024-05-23T08:25:15.138Z</time>
      </trkpt>
      <trkpt lat="48.23736" lon="3.21797">
        <ele>131</ele>
        <time>2024-05-23T08:25:19.640Z</time>
      </trkpt>
      <trkpt lat="48.23743" lon="3.21799">
        <ele>131</ele>
        <time>2024-05-23T08:25:24.146Z</time>
      </trkpt>
      <trkpt lat="48.23749" lon="3.21806">
        <ele>131</ele>
        <time>2024-05-23T08:25:28.599Z</time>
      </trkpt>
      <trkpt lat="48.23754" lon="3.21811">
        <ele>131</ele>
        <time>2024-05-23T08:25:32.719Z</time>
      </trkpt>
      <trkpt lat="48.2376" lon="3.21815">
        <ele>131</ele>
        <time>2024-05-23T08:25:36.858Z</time>
      </trkpt>
      <trkpt lat="48.23767" lon="3.21821">
        <ele>129</ele>
        <time>2024-05-23T08:25:41.100Z</time>
      </trkpt>
      <trkpt lat="48.23772" lon="3.21823">
        <ele>129</ele>
        <time>2024-05-23T08:25:45.339Z</time>
      </trkpt>
      <trkpt lat="48.23778" lon="3.21827">
        <ele>129</ele>
        <time>2024-05-23T08:25:49.597Z</time>
      </trkpt>
      <trkpt lat="48.23783" lon="3.21831">
        <ele>129</ele>
        <time>2024-05-23T08:25:54.154Z</time>
      </trkpt>
      <trkpt lat="48.23788" lon="3.21835">
        <ele>129</ele>
        <time>2024-05-23T08:25:58.598Z</time>
      </trkpt>
      <trkpt lat="48.23792" lon="3.21837">
        <ele>125</ele>
        <time>2024-05-23T08:26:02.752Z</time>
      </trkpt>
      <trkpt lat="48.23797" lon="3.21839">
        <ele>125</ele>
        <time>2024-05-23T08:26:07.080Z</time>
      </trkpt>
      <trkpt lat="48.23801" lon="3.21842">
        <ele>125</ele>
        <time>2024-05-23T08:26:11.146Z</time>
      </trkpt>
      <trkpt lat="48.23805" lon="3.21846">
        <ele>125</ele>
        <time>2024-05-23T08:26:15.560Z</time>
      </trkpt>
      <trkpt lat="48.23808" lon="3.21849">
        <ele>128</ele>
        <time>2024-05-23T08:26:20.146Z</time>
      </trkpt>
      <trkpt lat="48.23812" lon="3.21851">
        <ele>128</ele>
        <time>2024-05-23T08:26:24.459Z</time>
      </trkpt>
      <trkpt lat="48.23818" lon="3.21852">
        <ele>128</ele>
        <time>2024-05-23T08:26:28.897Z</time>
      </trkpt>
      <trkpt lat="48.23822" lon="3.21854">
        <ele>125</ele>
        <time>2024-05-23T08:26:33.553Z</time>
      </trkpt>
      <trkpt lat="48.23826" lon="3.21857">
        <ele>125</ele>
        <time>2024-05-23T08:26:37.759Z</time>
      </trkpt>
      <trkpt lat="48.2383" lon="3.2186">
        <ele>125</ele>
        <time>2024-05-23T08:26:42.060Z</time>
      </trkpt>
      <trkpt lat="48.23833" lon="3.21863">
        <ele>125</ele>
        <time>2024-05-23T08:26:46.420Z</time>
      </trkpt>
      <trkpt lat="48.23836" lon="3.21866">
        <ele>125</ele>
        <time>2024-05-23T08:26:50.813Z</time>
      </trkpt>
      <trkpt lat="48.2384" lon="3.21869">
        <ele>125</ele>
        <time>2024-05-23T08:26:55.438Z</time>
      </trkpt>
      <trkpt lat="48.23844" lon="3.21873">
        <ele>125</ele>
        <time>2024-05-23T08:26:59.701Z</time>
      </trkpt>
      <trkpt lat="48.23848" lon="3.21876">
        <ele>125</ele>
        <time>2024-05-23T08:27:03.918Z</time>
      </trkpt>
      <trkpt lat="48.23851" lon="3.2188">
        <ele>125</ele>
        <time>2024-05-23T08:27:08.146Z</time>
      </trkpt>
      <trkpt lat="48.23856" lon="3.21882">
        <ele>125</ele>
        <time>2024-05-23T08:27:12.493Z</time>
      </trkpt>
      <trkpt lat="48.23859" lon="3.21885">
        <ele>125</ele>
        <time>2024-05-23T08:27:17.146Z</time>
      </trkpt>
      <trkpt lat="48.23858" lon="3.21888">
        <ele>125</ele>
        <time>2024-05-23T08:27:22.160Z</time>
      </trkpt>
      <trkpt lat="48.23863" lon="3.21893">
        <ele>125</ele>
        <time>2024-05-23T08:27:26.494Z</time>
      </trkpt>
      <trkpt lat="48.23868" lon="3.21897">
        <ele>125</ele>
        <time>2024-05-23T08:27:30.941Z</time>
      </trkpt>
      <trkpt lat="48.23874" lon="3.219">
        <ele>125</ele>
        <time>2024-05-23T08:27:35.146Z</time>
      </trkpt>
      <trkpt lat="48.23879" lon="3.21903">
        <ele>126</ele>
        <time>2024-05-23T08:27:39.723Z</time>
      </trkpt>
      <trkpt lat="48.23884" lon="3.21906">
        <ele>126</ele>
        <time>2024-05-23T08:27:44.146Z</time>
      </trkpt>
      <trkpt lat="48.23888" lon="3.21909">
        <ele>126</ele>
        <time>2024-05-23T08:27:48.660Z</time>
      </trkpt>
      <trkpt lat="48.23893" lon="3.2191">
        <ele>126</ele>
        <time>2024-05-23T08:27:52.935Z</time>
      </trkpt>
      <trkpt lat="48.23898" lon="3.21914">
        <ele>126</ele>
        <time>2024-05-23T08:27:56.580Z</time>
      </trkpt>
      <trkpt lat="48.23908" lon="3.21923">
        <ele>121</ele>
        <time>2024-05-23T08:28:05.658Z</time>
      </trkpt>
      <trkpt lat="48.23913" lon="3.21927">
        <ele>121</ele>
        <time>2024-05-23T08:28:10.146Z</time>
      </trkpt>
      <trkpt lat="48.23918" lon="3.21931">
        <ele>125</ele>
        <time>2024-05-23T08:28:14.776Z</time>
      </trkpt>
      <trkpt lat="48.23923" lon="3.21935">
        <ele>125</ele>
        <time>2024-05-23T08:28:19.580Z</time>
      </trkpt>
      <trkpt lat="48.23928" lon="3.21937">
        <ele>125</ele>
        <time>2024-05-23T08:28:24.146Z</time>
      </trkpt>
      <trkpt lat="48.23933" lon="3.2194">
        <ele>120</ele>
        <time>2024-05-23T08:28:28.636Z</time>
      </trkpt>
      <trkpt lat="48.23937" lon="3.21944">
        <ele>120</ele>
        <time>2024-05-23T08:28:32.763Z</time>
      </trkpt>
      <trkpt lat="48.23941" lon="3.21947">
        <ele>120</ele>
        <time>2024-05-23T08:28:37.146Z</time>
      </trkpt>
      <trkpt lat="48.23944" lon="3.2195">
        <ele>120</ele>
        <time>2024-05-23T08:28:42.146Z</time>
      </trkpt>
      <trkpt lat="48.23948" lon="3.21953">
        <ele>120</ele>
        <time>2024-05-23T08:28:47.100Z</time>
      </trkpt>
      <trkpt lat="48.23951" lon="3.21956">
        <ele>120</ele>
        <time>2024-05-23T08:28:51.435Z</time>
      </trkpt>
      <trkpt lat="48.23955" lon="3.21961">
        <ele>124</ele>
        <time>2024-05-23T08:28:55.881Z</time>
      </trkpt>
      <trkpt lat="48.23958" lon="3.21965">
        <ele>124</ele>
        <time>2024-05-23T08:29:00.146Z</time>
      </trkpt>
      <trkpt lat="48.23962" lon="3.21968">
        <ele>123</ele>
        <time>2024-05-23T08:29:04.516Z</time>
      </trkpt>
      <trkpt lat="48.23966" lon="3.21972">
        <ele>123</ele>
        <time>2024-05-23T08:29:08.712Z</time>
      </trkpt>
      <trkpt lat="48.2397" lon="3.21975">
        <ele>123</ele>
        <time>2024-05-23T08:29:13.146Z</time>
      </trkpt>
      <trkpt lat="48.23975" lon="3.21973">
        <ele>123</ele>
        <time>2024-05-23T08:29:18.146Z</time>
      </trkpt>
      <trkpt lat="48.23978" lon="3.21971">
        <ele>123</ele>
        <time>2024-05-23T08:29:21.146Z</time>
      </trkpt>
      <trkpt lat="48.23979" lon="3.2197">
        <ele>123</ele>
        <time>2024-05-23T08:29:30.146Z</time>
      </trkpt>
      <trkpt lat="48.23979" lon="3.21973">
        <ele>123</ele>
        <time>2024-05-23T08:30:36.146Z</time>
      </trkpt>
      <trkpt lat="48.23982" lon="3.2197">
        <ele>123</ele>
        <time>2024-05-23T08:30:40.146Z</time>
      </trkpt>
      <trkpt lat="48.23986" lon="3.21965">
        <ele>123</ele>
        <time>2024-05-23T08:30:44.777Z</time>
      </trkpt>
      <trkpt lat="48.23989" lon="3.21959">
        <ele>123</ele>
        <time>2024-05-23T08:30:49.122Z</time>
      </trkpt>
      <trkpt lat="48.23993" lon="3.21956">
        <ele>118</ele>
        <time>2024-05-23T08:30:53.146Z</time>
      </trkpt>
      <trkpt lat="48.23996" lon="3.21953">
        <ele>118</ele>
        <time>2024-05-23T08:30:57.403Z</time>
      </trkpt>
      <trkpt lat="48.24001" lon="3.2195">
        <ele>118</ele>
        <time>2024-05-23T08:31:02.058Z</time>
      </trkpt>
      <trkpt lat="48.24004" lon="3.21947">
        <ele>118</ele>
        <time>2024-05-23T08:31:06.146Z</time>
      </trkpt>
      <trkpt lat="48.24009" lon="3.21945">
        <ele>118</ele>
        <time>2024-05-23T08:31:10.657Z</time>
      </trkpt>
      <trkpt lat="48.24013" lon="3.21944">
        <ele>118</ele>
        <time>2024-05-23T08:31:14.678Z</time>
      </trkpt>
      <trkpt lat="48.24018" lon="3.21945">
        <ele>119</ele>
        <time>2024-05-23T08:31:18.822Z</time>
      </trkpt>
      <trkpt lat="48.24022" lon="3.21945">
        <ele>119</ele>
        <time>2024-05-23T08:31:22.883Z</time>
      </trkpt>
      <trkpt lat="48.24026" lon="3.21946">
        <ele>119</ele>
        <time>2024-05-23T08:31:27.145Z</time>
      </trkpt>
      <trkpt lat="48.24031" lon="3.21947">
        <ele>119</ele>
        <time>2024-05-23T08:31:32.146Z</time>
      </trkpt>
      <trkpt lat="48.24036" lon="3.21947">
        <ele>119</ele>
        <time>2024-05-23T08:31:37.146Z</time>
      </trkpt>
      <trkpt lat="48.24041" lon="3.21948">
        <ele>119</ele>
        <time>2024-05-23T08:31:41.558Z</time>
      </trkpt>
      <trkpt lat="48.24045" lon="3.2195">
        <ele>118</ele>
        <time>2024-05-23T08:31:45.693Z</time>
      </trkpt>
      <trkpt lat="48.24049" lon="3.21953">
        <ele>118</ele>
        <time>2024-05-23T08:31:49.998Z</time>
      </trkpt>
      <trkpt lat="48.24053" lon="3.21956">
        <ele>118</ele>
        <time>2024-05-23T08:31:54.146Z</time>
      </trkpt>
      <trkpt lat="48.24058" lon="3.21959">
        <ele>121</ele>
        <time>2024-05-23T08:31:59.146Z</time>
      </trkpt>
      <trkpt lat="48.24063" lon="3.21962">
        <ele>121</ele>
        <time>2024-05-23T08:32:03.659Z</time>
      </trkpt>
      <trkpt lat="48.24069" lon="3.21965">
        <ele>121</ele>
        <time>2024-05-23T08:32:08.079Z</time>
      </trkpt>
      <trkpt lat="48.24073" lon="3.21966">
        <ele>116</ele>
        <time>2024-05-23T08:32:12.757Z</time>
      </trkpt>
      <trkpt lat="48.24077" lon="3.21967">
        <ele>116</ele>
        <time>2024-05-23T08:32:17.146Z</time>
      </trkpt>
      <trkpt lat="48.24082" lon="3.21969">
        <ele>116</ele>
        <time>2024-05-23T08:32:21.860Z</time>
      </trkpt>
      <trkpt lat="48.24087" lon="3.21971">
        <ele>116</ele>
        <time>2024-05-23T08:32:26.017Z</time>
      </trkpt>
      <trkpt lat="48.24091" lon="3.21972">
        <ele>116</ele>
        <time>2024-05-23T08:32:30.123Z</time>
      </trkpt>
      <trkpt lat="48.24096" lon="3.21973">
        <ele>116</ele>
        <time>2024-05-23T08:32:34.146Z</time>
      </trkpt>
      <trkpt lat="48.24101" lon="3.21974">
        <ele>114</ele>
        <time>2024-05-23T08:32:38.354Z</time>
      </trkpt>
      <trkpt lat="48.24105" lon="3.21977">
        <ele>114</ele>
        <time>2024-05-23T08:32:42.953Z</time>
      </trkpt>
      <trkpt lat="48.2411" lon="3.21979">
        <ele>114</ele>
        <time>2024-05-23T08:32:47.146Z</time>
      </trkpt>
      <trkpt lat="48.24115" lon="3.21981">
        <ele>114</ele>
        <time>2024-05-23T08:32:51.579Z</time>
      </trkpt>
      <trkpt lat="48.24119" lon="3.2198">
        <ele>114</ele>
        <time>2024-05-23T08:32:55.632Z</time>
      </trkpt>
      <trkpt lat="48.24124" lon="3.21979">
        <ele>114</ele>
        <time>2024-05-23T08:32:59.899Z</time>
      </trkpt>
      <trkpt lat="48.24127" lon="3.21972">
        <ele>113</ele>
        <time>2024-05-23T08:33:04.541Z</time>
      </trkpt>
      <trkpt lat="48.2413" lon="3.21966">
        <ele>113</ele>
        <time>2024-05-23T08:33:08.678Z</time>
      </trkpt>
      <trkpt lat="48.24134" lon="3.21963">
        <ele>113</ele>
        <time>2024-05-23T08:33:13.005Z</time>
      </trkpt>
      <trkpt lat="48.24139" lon="3.21963">
        <ele>113</ele>
        <time>2024-05-23T08:33:17.459Z</time>
      </trkpt>
      <trkpt lat="48.24143" lon="3.21963">
        <ele>113</ele>
        <time>2024-05-23T08:33:21.639Z</time>
      </trkpt>
      <trkpt lat="48.24146" lon="3.21965">
        <ele>113</ele>
        <time>2024-05-23T08:33:25.957Z</time>
      </trkpt>
      <trkpt lat="48.24151" lon="3.21964">
        <ele>113</ele>
        <time>2024-05-23T08:33:30.158Z</time>
      </trkpt>
      <trkpt lat="48.24156" lon="3.21966">
        <ele>112</ele>
        <time>2024-05-23T08:33:35.146Z</time>
      </trkpt>
      <trkpt lat="48.2416" lon="3.2197">
        <ele>112</ele>
        <time>2024-05-23T08:33:39.599Z</time>
      </trkpt>
      <trkpt lat="48.24165" lon="3.21972">
        <ele>112</ele>
        <time>2024-05-23T08:33:43.899Z</time>
      </trkpt>
      <trkpt lat="48.24169" lon="3.21974">
        <ele>112</ele>
        <time>2024-05-23T08:33:48.146Z</time>
      </trkpt>
      <trkpt lat="48.24181" lon="3.2198">
        <ele>112</ele>
        <time>2024-05-23T08:34:06.146Z</time>
      </trkpt>
      <trkpt lat="48.24181" lon="3.21979">
        <ele>112</ele>
        <time>2024-05-23T08:34:10.860Z</time>
      </trkpt>
      <trkpt lat="48.24184" lon="3.21981">
        <ele>112</ele>
        <time>2024-05-23T08:34:15.146Z</time>
      </trkpt>
      <trkpt lat="48.24191" lon="3.21983">
        <ele>112</ele>
        <time>2024-05-23T08:34:19.896Z</time>
      </trkpt>
      <trkpt lat="48.24196" lon="3.21982">
        <ele>112</ele>
        <time>2024-05-23T08:34:23.974Z</time>
      </trkpt>
      <trkpt lat="48.242" lon="3.21982">
        <ele>112</ele>
        <time>2024-05-23T08:34:28.037Z</time>
      </trkpt>
      <trkpt lat="48.24205" lon="3.21981">
        <ele>112</ele>
        <time>2024-05-23T08:34:32.146Z</time>
      </trkpt>
      <trkpt lat="48.2421" lon="3.21982">
        <ele>112</ele>
        <time>2024-05-23T08:34:36.353Z</time>
      </trkpt>
      <trkpt lat="48.24215" lon="3.21982">
        <ele>112</ele>
        <time>2024-05-23T08:34:40.654Z</time>
      </trkpt>
      <trkpt lat="48.2422" lon="3.21983">
        <ele>112</ele>
        <time>2024-05-23T08:34:44.721Z</time>
      </trkpt>
      <trkpt lat="48.24225" lon="3.21983">
        <ele>112</ele>
        <time>2024-05-23T08:34:48.939Z</time>
      </trkpt>
      <trkpt lat="48.2423" lon="3.21981">
        <ele>112</ele>
        <time>2024-05-23T08:34:53.154Z</time>
      </trkpt>
      <trkpt lat="48.24234" lon="3.2198">
        <ele>112</ele>
        <time>2024-05-23T08:34:57.231Z</time>
      </trkpt>
      <trkpt lat="48.24239" lon="3.21979">
        <ele>110</ele>
        <time>2024-05-23T08:35:01.859Z</time>
      </trkpt>
      <trkpt lat="48.24244" lon="3.21979">
        <ele>110</ele>
        <time>2024-05-23T08:35:06.146Z</time>
      </trkpt>
      <trkpt lat="48.24249" lon="3.21979">
        <ele>110</ele>
        <time>2024-05-23T08:35:10.412Z</time>
      </trkpt>
      <trkpt lat="48.24253" lon="3.21977">
        <ele>110</ele>
        <time>2024-05-23T08:35:14.738Z</time>
      </trkpt>
      <trkpt lat="48.24258" lon="3.21977">
        <ele>110</ele>
        <time>2024-05-23T08:35:18.955Z</time>
      </trkpt>
      <trkpt lat="48.24262" lon="3.21976">
        <ele>110</ele>
        <time>2024-05-23T08:35:23.146Z</time>
      </trkpt>
      <trkpt lat="48.24266" lon="3.21976">
        <ele>110</ele>
        <time>2024-05-23T08:35:27.434Z</time>
      </trkpt>
      <trkpt lat="48.24271" lon="3.21975">
        <ele>110</ele>
        <time>2024-05-23T08:35:31.819Z</time>
      </trkpt>
      <trkpt lat="48.24276" lon="3.21975">
        <ele>110</ele>
        <time>2024-05-23T08:35:36.146Z</time>
      </trkpt>
      <trkpt lat="48.24281" lon="3.21976">
        <ele>110</ele>
        <time>2024-05-23T08:35:40.437Z</time>
      </trkpt>
      <trkpt lat="48.24286" lon="3.21976">
        <ele>110</ele>
        <time>2024-05-23T08:35:44.453Z</time>
      </trkpt>
      <trkpt lat="48.24291" lon="3.21976">
        <ele>110</ele>
        <time>2024-05-23T08:35:48.576Z</time>
      </trkpt>
      <trkpt lat="48.24296" lon="3.21975">
        <ele>109</ele>
        <time>2024-05-23T08:35:52.842Z</time>
      </trkpt>
      <trkpt lat="48.24302" lon="3.21975">
        <ele>109</ele>
        <time>2024-05-23T08:35:57.857Z</time>
      </trkpt>
      <trkpt lat="48.24307" lon="3.21975">
        <ele>109</ele>
        <time>2024-05-23T08:36:01.917Z</time>
      </trkpt>
      <trkpt lat="48.24312" lon="3.21974">
        <ele>109</ele>
        <time>2024-05-23T08:36:05.937Z</time>
      </trkpt>
      <trkpt lat="48.24324" lon="3.21976">
        <ele>109</ele>
        <time>2024-05-23T08:37:00.146Z</time>
      </trkpt>
      <trkpt lat="48.24326" lon="3.21977">
        <ele>109</ele>
        <time>2024-05-23T08:37:04.146Z</time>
      </trkpt>
      <trkpt lat="48.24326" lon="3.21978">
        <ele>109</ele>
        <time>2024-05-23T08:37:08.722Z</time>
      </trkpt>
      <trkpt lat="48.24324" lon="3.21982">
        <ele>109</ele>
        <time>2024-05-23T08:37:13.157Z</time>
      </trkpt>
      <trkpt lat="48.24326" lon="3.21983">
        <ele>109</ele>
        <time>2024-05-23T08:37:18.146Z</time>
      </trkpt>
      <trkpt lat="48.24329" lon="3.21985">
        <ele>109</ele>
        <time>2024-05-23T08:37:31.146Z</time>
      </trkpt>
      <trkpt lat="48.24327" lon="3.21976">
        <ele>109</ele>
        <time>2024-05-23T08:37:35.722Z</time>
      </trkpt>
      <trkpt lat="48.2433" lon="3.21969">
        <ele>109</ele>
        <time>2024-05-23T08:37:39.780Z</time>
      </trkpt>
      <trkpt lat="48.24335" lon="3.21967">
        <ele>109</ele>
        <time>2024-05-23T08:37:44.379Z</time>
      </trkpt>
      <trkpt lat="48.2434" lon="3.21965">
        <ele>109</ele>
        <time>2024-05-23T08:37:48.933Z</time>
      </trkpt>
      <trkpt lat="48.24346" lon="3.21963">
        <ele>109</ele>
        <time>2024-05-23T08:37:52.959Z</time>
      </trkpt>
      <trkpt lat="48.24353" lon="3.21959">
        <ele>109</ele>
        <time>2024-05-23T08:37:57.146Z</time>
      </trkpt>
      <trkpt lat="48.2436" lon="3.21956">
        <ele>103</ele>
        <time>2024-05-23T08:38:02.098Z</time>
      </trkpt>
      <trkpt lat="48.24365" lon="3.21953">
        <ele>103</ele>
        <time>2024-05-23T08:38:06.176Z</time>
      </trkpt>
      <trkpt lat="48.2437" lon="3.2195">
        <ele>103</ele>
        <time>2024-05-23T08:38:10.702Z</time>
      </trkpt>
      <trkpt lat="48.24375" lon="3.21948">
        <ele>105</ele>
        <time>2024-05-23T08:38:14.920Z</time>
      </trkpt>
      <trkpt lat="48.2438" lon="3.21945">
        <ele>105</ele>
        <time>2024-05-23T08:38:18.939Z</time>
      </trkpt>
      <trkpt lat="48.24387" lon="3.21949">
        <ele>105</ele>
        <time>2024-05-23T08:38:23.453Z</time>
      </trkpt>
      <trkpt lat="48.24394" lon="3.21952">
        <ele>105</ele>
        <time>2024-05-23T08:38:27.795Z</time>
      </trkpt>
      <trkpt lat="48.244" lon="3.21952">
        <ele>105</ele>
        <time>2024-05-23T08:38:32.146Z</time>
      </trkpt>
      <trkpt lat="48.24407" lon="3.2195">
        <ele>104</ele>
        <time>2024-05-23T08:38:36.812Z</time>
      </trkpt>
      <trkpt lat="48.24414" lon="3.21948">
        <ele>104</ele>
        <time>2024-05-23T08:38:40.840Z</time>
      </trkpt>
      <trkpt lat="48.24421" lon="3.21947">
        <ele>104</ele>
        <time>2024-05-23T08:38:45.516Z</time>
      </trkpt>
      <trkpt lat="48.24428" lon="3.21947">
        <ele>104</ele>
        <time>2024-05-23T08:38:49.892Z</time>
      </trkpt>
      <trkpt lat="48.24435" lon="3.21948">
        <ele>101</ele>
        <time>2024-05-23T08:38:54.146Z</time>
      </trkpt>
      <trkpt lat="48.24441" lon="3.2195">
        <ele>101</ele>
        <time>2024-05-23T08:38:58.236Z</time>
      </trkpt>
      <trkpt lat="48.24447" lon="3.21952">
        <ele>101</ele>
        <time>2024-05-23T08:39:02.517Z</time>
      </trkpt>
      <trkpt lat="48.24451" lon="3.21955">
        <ele>101</ele>
        <time>2024-05-23T08:39:05.921Z</time>
      </trkpt>
      <trkpt lat="48.24455" lon="3.21958">
        <ele>101</ele>
        <time>2024-05-23T08:39:15.019Z</time>
      </trkpt>
      <trkpt lat="48.24456" lon="3.21967">
        <ele>104</ele>
        <time>2024-05-23T08:39:19.656Z</time>
      </trkpt>
      <trkpt lat="48.24457" lon="3.2197">
        <ele>104</ele>
        <time>2024-05-23T08:39:23.773Z</time>
      </trkpt>
      <trkpt lat="48.24456" lon="3.21974">
        <ele>104</ele>
        <time>2024-05-23T08:39:28.146Z</time>
      </trkpt>
      <trkpt lat="48.24457" lon="3.21978">
        <ele>104</ele>
        <time>2024-05-23T08:39:33.099Z</time>
      </trkpt>
      <trkpt lat="48.24457" lon="3.21981">
        <ele>104</ele>
        <time>2024-05-23T08:39:37.146Z</time>
      </trkpt>
      <trkpt lat="48.24458" lon="3.21987">
        <ele>101</ele>
        <time>2024-05-23T08:39:41.653Z</time>
      </trkpt>
      <trkpt lat="48.24461" lon="3.21992">
        <ele>101</ele>
        <time>2024-05-23T08:39:46.146Z</time>
      </trkpt>
      <trkpt lat="48.24463" lon="3.21998">
        <ele>101</ele>
        <time>2024-05-23T08:39:50.657Z</time>
      </trkpt>
      <trkpt lat="48.24464" lon="3.22005">
        <ele>101</ele>
        <time>2024-05-23T08:39:54.958Z</time>
      </trkpt>
      <trkpt lat="48.24465" lon="3.22012">
        <ele>101</ele>
        <time>2024-05-23T08:39:59.460Z</time>
      </trkpt>
      <trkpt lat="48.24466" lon="3.22018">
        <ele>103</ele>
        <time>2024-05-23T08:40:03.756Z</time>
      </trkpt>
      <trkpt lat="48.24467" lon="3.22025">
        <ele>103</ele>
        <time>2024-05-23T08:40:08.146Z</time>
      </trkpt>
      <trkpt lat="48.24468" lon="3.2203">
        <ele>103</ele>
        <time>2024-05-23T08:40:12.582Z</time>
      </trkpt>
      <trkpt lat="48.24469" lon="3.22036">
        <ele>103</ele>
        <time>2024-05-23T08:40:16.868Z</time>
      </trkpt>
      <trkpt lat="48.2447" lon="3.22042">
        <ele>104</ele>
        <time>2024-05-23T08:40:20.984Z</time>
      </trkpt>
      <trkpt lat="48.24471" lon="3.22048">
        <ele>104</ele>
        <time>2024-05-23T08:40:25.442Z</time>
      </trkpt>
      <trkpt lat="48.24472" lon="3.22056">
        <ele>104</ele>
        <time>2024-05-23T08:40:30.103Z</time>
      </trkpt>
      <trkpt lat="48.24473" lon="3.22064">
        <ele>104</ele>
        <time>2024-05-23T08:40:34.484Z</time>
      </trkpt>
      <trkpt lat="48.24475" lon="3.22074">
        <ele>107</ele>
        <time>2024-05-23T08:41:19.598Z</time>
      </trkpt>
      <trkpt lat="48.24475" lon="3.22075">
        <ele>107</ele>
        <time>2024-05-23T08:41:24.112Z</time>
      </trkpt>
      <trkpt lat="48.24475" lon="3.22079">
        <ele>107</ele>
        <time>2024-05-23T08:41:28.146Z</time>
      </trkpt>
      <trkpt lat="48.24476" lon="3.22085">
        <ele>107</ele>
        <time>2024-05-23T08:41:32.697Z</time>
      </trkpt>
      <trkpt lat="48.24476" lon="3.22089">
        <ele>107</ele>
        <time>2024-05-23T08:41:36.956Z</time>
      </trkpt>
      <trkpt lat="48.24478" lon="3.22101">
        <ele>110</ele>
        <time>2024-05-23T08:42:07.146Z</time>
      </trkpt>
      <trkpt lat="48.24477" lon="3.22101">
        <ele>110</ele>
        <time>2024-05-23T08:42:16.140Z</time>
      </trkpt>
      <trkpt lat="48.24478" lon="3.22107">
        <ele>110</ele>
        <time>2024-05-23T08:42:20.596Z</time>
      </trkpt>
      <trkpt lat="48.2448" lon="3.22116">
        <ele>110</ele>
        <time>2024-05-23T08:42:25.146Z</time>
      </trkpt>
      <trkpt lat="48.24482" lon="3.22123">
        <ele>110</ele>
        <time>2024-05-23T08:42:29.920Z</time>
      </trkpt>
      <trkpt lat="48.24483" lon="3.22131">
        <ele>114</ele>
        <time>2024-05-23T08:42:34.522Z</time>
      </trkpt>
      <trkpt lat="48.24484" lon="3.22138">
        <ele>114</ele>
        <time>2024-05-23T08:42:38.782Z</time>
      </trkpt>
      <trkpt lat="48.24484" lon="3.22146">
        <ele>114</ele>
        <time>2024-05-23T08:42:42.994Z</time>
      </trkpt>
      <trkpt lat="48.24484" lon="3.22153">
        <ele>116</ele>
        <time>2024-05-23T08:42:47.146Z</time>
      </trkpt>
      <trkpt lat="48.24485" lon="3.22159">
        <ele>116</ele>
        <time>2024-05-23T08:42:52.144Z</time>
      </trkpt>
      <trkpt lat="48.24485" lon="3.22167">
        <ele>116</ele>
        <time>2024-05-23T08:42:56.437Z</time>
      </trkpt>
      <trkpt lat="48.24488" lon="3.22173">
        <ele>106</ele>
        <time>2024-05-23T08:43:00.499Z</time>
      </trkpt>
      <trkpt lat="48.24491" lon="3.22178">
        <ele>106</ele>
        <time>2024-05-23T08:43:04.966Z</time>
      </trkpt>
      <trkpt lat="48.24491" lon="3.22184">
        <ele>108</ele>
        <time>2024-05-23T08:43:09.146Z</time>
      </trkpt>
      <trkpt lat="48.24489" lon="3.22193">
        <ele>108</ele>
        <time>2024-05-23T08:43:13.636Z</time>
      </trkpt>
      <trkpt lat="48.24487" lon="3.222">
        <ele>108</ele>
        <time>2024-05-23T08:43:18.062Z</time>
      </trkpt>
      <trkpt lat="48.24488" lon="3.22207">
        <ele>108</ele>
        <time>2024-05-23T08:43:22.485Z</time>
      </trkpt>
      <trkpt lat="48.24486" lon="3.22222">
        <ele>107</ele>
        <time>2024-05-23T08:43:45.940Z</time>
      </trkpt>
      <trkpt lat="48.24485" lon="3.22222">
        <ele>115</ele>
        <time>2024-05-23T08:43:50.146Z</time>
      </trkpt>
      <trkpt lat="48.24483" lon="3.22222">
        <ele>115</ele>
        <time>2024-05-23T08:43:55.064Z</time>
      </trkpt>
      <trkpt lat="48.24482" lon="3.22224">
        <ele>115</ele>
        <time>2024-05-23T08:43:59.146Z</time>
      </trkpt>
      <trkpt lat="48.24482" lon="3.22226">
        <ele>115</ele>
        <time>2024-05-23T08:44:03.623Z</time>
      </trkpt>
      <trkpt lat="48.24483" lon="3.22226">
        <ele>115</ele>
        <time>2024-05-23T08:44:07.863Z</time>
      </trkpt>
      <trkpt lat="48.24482" lon="3.22248">
        <ele>114</ele>
        <time>2024-05-23T08:44:12.140Z</time>
      </trkpt>
      <trkpt lat="48.24482" lon="3.22257">
        <ele>114</ele>
        <time>2024-05-23T08:44:16.542Z</time>
      </trkpt>
      <trkpt lat="48.24483" lon="3.22264">
        <ele>114</ele>
        <time>2024-05-23T08:44:20.603Z</time>
      </trkpt>
      <trkpt lat="48.24483" lon="3.22272">
        <ele>115</ele>
        <time>2024-05-23T08:44:24.878Z</time>
      </trkpt>
      <trkpt lat="48.24483" lon="3.2228">
        <ele>115</ele>
        <time>2024-05-23T08:44:29.325Z</time>
      </trkpt>
      <trkpt lat="48.24484" lon="3.22287">
        <ele>115</ele>
        <time>2024-05-23T08:44:33.821Z</time>
      </trkpt>
      <trkpt lat="48.24486" lon="3.22292">
        <ele>115</ele>
        <time>2024-05-23T08:44:38.146Z</time>
      </trkpt>
      <trkpt lat="48.2449" lon="3.22299">
        <ele>107</ele>
        <time>2024-05-23T08:44:42.721Z</time>
      </trkpt>
      <trkpt lat="48.24491" lon="3.22304">
        <ele>107</ele>
        <time>2024-05-23T08:44:46.858Z</time>
      </trkpt>
      <trkpt lat="48.24492" lon="3.22307">
        <ele>107</ele>
        <time>2024-05-23T08:44:51.146Z</time>
      </trkpt>
      <trkpt lat="48.24492" lon="3.22313">
        <ele>107</ele>
        <time>2024-05-23T08:44:55.741Z</time>
      </trkpt>
      <trkpt lat="48.24493" lon="3.22319">
        <ele>107</ele>
        <time>2024-05-23T08:45:00.297Z</time>
      </trkpt>
      <trkpt lat="48.24495" lon="3.22326">
        <ele>109</ele>
        <time>2024-05-23T08:45:04.582Z</time>
      </trkpt>
      <trkpt lat="48.24498" lon="3.22332">
        <ele>109</ele>
        <time>2024-05-23T08:45:08.924Z</time>
      </trkpt>
      <trkpt lat="48.24499" lon="3.22339">
        <ele>109</ele>
        <time>2024-05-23T08:45:13.838Z</time>
      </trkpt>
      <trkpt lat="48.24502" lon="3.22344">
        <ele>109</ele>
        <time>2024-05-23T08:45:18.020Z</time>
      </trkpt>
      <trkpt lat="48.24503" lon="3.22351">
        <ele>111</ele>
        <time>2024-05-23T08:45:22.183Z</time>
      </trkpt>
      <trkpt lat="48.24504" lon="3.22358">
        <ele>111</ele>
        <time>2024-05-23T08:45:26.322Z</time>
      </trkpt>
      <trkpt lat="48.24505" lon="3.22365">
        <ele>111</ele>
        <time>2024-05-23T08:45:30.537Z</time>
      </trkpt>
      <trkpt lat="48.24507" lon="3.22372">
        <ele>111</ele>
        <time>2024-05-23T08:45:34.743Z</time>
      </trkpt>
      <trkpt lat="48.2451" lon="3.22377">
        <ele>112</ele>
        <time>2024-05-23T08:45:39.103Z</time>
      </trkpt>
      <trkpt lat="48.2451" lon="3.22385">
        <ele>112</ele>
        <time>2024-05-23T08:45:43.146Z</time>
      </trkpt>
      <trkpt lat="48.24513" lon="3.22393">
        <ele>112</ele>
        <time>2024-05-23T08:45:47.764Z</time>
      </trkpt>
      <trkpt lat="48.24513" lon="3.22401">
        <ele>112</ele>
        <time>2024-05-23T08:45:52.080Z</time>
      </trkpt>
      <trkpt lat="48.24514" lon="3.2241">
        <ele>103</ele>
        <time>2024-05-23T08:45:56.859Z</time>
      </trkpt>
      <trkpt lat="48.24518" lon="3.22416">
        <ele>103</ele>
        <time>2024-05-23T08:46:01.620Z</time>
      </trkpt>
      <trkpt lat="48.24521" lon="3.22422">
        <ele>103</ele>
        <time>2024-05-23T08:46:05.937Z</time>
      </trkpt>
      <trkpt lat="48.24522" lon="3.2243">
        <ele>103</ele>
        <time>2024-05-23T08:46:10.146Z</time>
      </trkpt>
      <trkpt lat="48.24523" lon="3.22436">
        <ele>104</ele>
        <time>2024-05-23T08:46:14.326Z</time>
      </trkpt>
      <trkpt lat="48.24524" lon="3.22443">
        <ele>104</ele>
        <time>2024-05-23T08:46:18.660Z</time>
      </trkpt>
      <trkpt lat="48.24527" lon="3.22449">
        <ele>104</ele>
        <time>2024-05-23T08:46:22.942Z</time>
      </trkpt>
      <trkpt lat="48.24529" lon="3.22455">
        <ele>104</ele>
        <time>2024-05-23T08:46:27.097Z</time>
      </trkpt>
      <trkpt lat="48.24531" lon="3.22461">
        <ele>104</ele>
        <time>2024-05-23T08:46:31.146Z</time>
      </trkpt>
      <trkpt lat="48.24534" lon="3.22468">
        <ele>104</ele>
        <time>2024-05-23T08:46:35.637Z</time>
      </trkpt>
      <trkpt lat="48.24538" lon="3.22473">
        <ele>104</ele>
        <time>2024-05-23T08:46:39.844Z</time>
      </trkpt>
      <trkpt lat="48.24541" lon="3.22478">
        <ele>104</ele>
        <time>2024-05-23T08:46:45.146Z</time>
      </trkpt>
      <trkpt lat="48.24544" lon="3.22483">
        <ele>98</ele>
        <time>2024-05-23T08:46:49.442Z</time>
      </trkpt>
      <trkpt lat="48.24546" lon="3.2249">
        <ele>98</ele>
        <time>2024-05-23T08:46:53.563Z</time>
      </trkpt>
      <trkpt lat="48.24546" lon="3.22498">
        <ele>98</ele>
        <time>2024-05-23T08:46:57.863Z</time>
      </trkpt>
      <trkpt lat="48.24543" lon="3.22504">
        <ele>98</ele>
        <time>2024-05-23T08:47:02.343Z</time>
      </trkpt>
      <trkpt lat="48.24541" lon="3.2251">
        <ele>103</ele>
        <time>2024-05-23T08:47:06.439Z</time>
      </trkpt>
      <trkpt lat="48.24536" lon="3.22513">
        <ele>103</ele>
        <time>2024-05-23T08:47:10.781Z</time>
      </trkpt>
      <trkpt lat="48.24531" lon="3.22514">
        <ele>101</ele>
        <time>2024-05-23T08:47:14.804Z</time>
      </trkpt>
      <trkpt lat="48.24527" lon="3.22514">
        <ele>101</ele>
        <time>2024-05-23T08:47:18.844Z</time>
      </trkpt>
      <trkpt lat="48.24524" lon="3.22514">
        <ele>101</ele>
        <time>2024-05-23T08:47:23.146Z</time>
      </trkpt>
      <trkpt lat="48.24519" lon="3.22514">
        <ele>101</ele>
        <time>2024-05-23T08:47:27.879Z</time>
      </trkpt>
      <trkpt lat="48.24515" lon="3.22514">
        <ele>101</ele>
        <time>2024-05-23T08:47:32.563Z</time>
      </trkpt>
      <trkpt lat="48.2451" lon="3.22514">
        <ele>103</ele>
        <time>2024-05-23T08:47:37.017Z</time>
      </trkpt>
      <trkpt lat="48.24506" lon="3.22513">
        <ele>106</ele>
        <time>2024-05-23T08:47:41.061Z</time>
      </trkpt>
      <trkpt lat="48.24501" lon="3.22513">
        <ele>106</ele>
        <time>2024-05-23T08:47:45.146Z</time>
      </trkpt>
      <trkpt lat="48.24496" lon="3.22516">
        <ele>103</ele>
        <time>2024-05-23T08:47:49.584Z</time>
      </trkpt>
      <trkpt lat="48.24487" lon="3.2252">
        <ele>103</ele>
        <time>2024-05-23T08:48:17.021Z</time>
      </trkpt>
      <trkpt lat="48.24487" lon="3.2252">
        <ele>103</ele>
        <time>2024-05-23T08:48:21.146Z</time>
      </trkpt>
      <trkpt lat="48.24486" lon="3.2252">
        <ele>103</ele>
        <time>2024-05-23T08:48:25.324Z</time>
      </trkpt>
      <trkpt lat="48.24482" lon="3.22527">
        <ele>105</ele>
        <time>2024-05-23T08:48:29.725Z</time>
      </trkpt>
      <trkpt lat="48.24478" lon="3.22524">
        <ele>105</ele>
        <time>2024-05-23T08:48:33.760Z</time>
      </trkpt>
      <trkpt lat="48.24473" lon="3.22522">
        <ele>105</ele>
        <time>2024-05-23T08:48:38.146Z</time>
      </trkpt>
      <trkpt lat="48.24468" lon="3.22519">
        <ele>105</ele>
        <time>2024-05-23T08:48:42.838Z</time>
      </trkpt>
      <trkpt lat="48.24464" lon="3.2252">
        <ele>105</ele>
        <time>2024-05-23T08:48:47.146Z</time>
      </trkpt>
      <trkpt lat="48.2446" lon="3.22521">
        <ele>105</ele>
        <time>2024-05-23T08:48:51.533Z</time>
      </trkpt>
      <trkpt lat="48.24455" lon="3.22521">
        <ele>107</ele>
        <time>2024-05-23T08:48:56.079Z</time>
      </trkpt>
      <trkpt lat="48.24451" lon="3.2252">
        <ele>107</ele>
        <time>2024-05-23T08:49:00.768Z</time>
      </trkpt>
      <trkpt lat="48.24447" lon="3.2252">
        <ele>107</ele>
        <time>2024-05-23T08:49:05.200Z</time>
      </trkpt>
      <trkpt lat="48.24442" lon="3.22521">
        <ele>107</ele>
        <time>2024-05-23T08:49:10.146Z</time>
      </trkpt>
      <trkpt lat="48.24439" lon="3.22524">
        <ele>107</ele>
        <time>2024-05-23T08:49:14.602Z</time>
      </trkpt>
      <trkpt lat="48.24435" lon="3.22524">
        <ele>107</ele>
        <time>2024-05-23T08:49:18.979Z</time>
      </trkpt>
      <trkpt lat="48.2443" lon="3.22524">
        <ele>111</ele>
        <time>2024-05-23T08:49:23.146Z</time>
      </trkpt>
      <trkpt lat="48.24425" lon="3.22524">
        <ele>111</ele>
        <time>2024-05-23T08:49:28.040Z</time>
      </trkpt>
      <trkpt lat="48.24421" lon="3.22524">
        <ele>111</ele>
        <time>2024-05-23T08:49:32.146Z</time>
      </trkpt>
      <trkpt lat="48.24416" lon="3.22525">
        <ele>111</ele>
        <time>2024-05-23T08:49:36.622Z</time>
      </trkpt>
      <trkpt lat="48.24412" lon="3.22524">
        <ele>111</ele>
        <time>2024-05-23T08:49:41.146Z</time>
      </trkpt>
      <trkpt lat="48.24408" lon="3.22523">
        <ele>111</ele>
        <time>2024-05-23T08:49:45.777Z</time>
      </trkpt>
      <trkpt lat="48.24403" lon="3.22522">
        <ele>117</ele>
        <time>2024-05-23T08:49:50.146Z</time>
      </trkpt>
      <trkpt lat="48.24398" lon="3.22521">
        <ele>117</ele>
        <time>2024-05-23T08:49:54.694Z</time>
      </trkpt>
      <trkpt lat="48.24396" lon="3.22524">
        <ele>117</ele>
        <time>2024-05-23T08:49:59.146Z</time>
      </trkpt>
      <trkpt lat="48.24394" lon="3.22531">
        <ele>117</ele>
        <time>2024-05-23T08:50:03.598Z</time>
      </trkpt>
      <trkpt lat="48.24394" lon="3.22535">
        <ele>117</ele>
        <time>2024-05-23T08:50:08.146Z</time>
      </trkpt>
      <trkpt lat="48.24393" lon="3.22544">
        <ele>116</ele>
        <time>2024-05-23T08:50:12.958Z</time>
      </trkpt>
      <trkpt lat="48.24394" lon="3.22549">
        <ele>116</ele>
        <time>2024-05-23T08:50:17.146Z</time>
      </trkpt>
      <trkpt lat="48.24395" lon="3.22555">
        <ele>116</ele>
        <time>2024-05-23T08:50:21.541Z</time>
      </trkpt>
      <trkpt lat="48.24394" lon="3.22561">
        <ele>116</ele>
        <time>2024-05-23T08:50:25.858Z</time>
      </trkpt>
      <trkpt lat="48.24394" lon="3.22567">
        <ele>116</ele>
        <time>2024-05-23T08:50:29.961Z</time>
      </trkpt>
      <trkpt lat="48.24394" lon="3.22574">
        <ele>114</ele>
        <time>2024-05-23T08:50:34.146Z</time>
      </trkpt>
      <trkpt lat="48.24395" lon="3.22581">
        <ele>114</ele>
        <time>2024-05-23T08:50:38.701Z</time>
      </trkpt>
      <trkpt lat="48.24396" lon="3.22586">
        <ele>114</ele>
        <time>2024-05-23T08:50:43.146Z</time>
      </trkpt>
      <trkpt lat="48.24397" lon="3.22592">
        <ele>114</ele>
        <time>2024-05-23T08:50:47.979Z</time>
      </trkpt>
      <trkpt lat="48.24397" lon="3.226">
        <ele>113</ele>
        <time>2024-05-23T08:50:53.005Z</time>
      </trkpt>
      <trkpt lat="48.24397" lon="3.22604">
        <ele>113</ele>
        <time>2024-05-23T08:50:57.143Z</time>
      </trkpt>
      <trkpt lat="48.24401" lon="3.22609">
        <ele>113</ele>
        <time>2024-05-23T09:11:04.146Z</time>
      </trkpt>
      <trkpt lat="48.24402" lon="3.22608">
        <ele>113</ele>
        <time>2024-05-23T09:11:08.809Z</time>
      </trkpt>
      <trkpt lat="48.24401" lon="3.22616">
        <ele>113</ele>
        <time>2024-05-23T09:11:13.136Z</time>
      </trkpt>
      <trkpt lat="48.24399" lon="3.22626">
        <ele>112</ele>
        <time>2024-05-23T09:11:17.657Z</time>
      </trkpt>
      <trkpt lat="48.24399" lon="3.22632">
        <ele>112</ele>
        <time>2024-05-23T09:11:22.146Z</time>
      </trkpt>
      <trkpt lat="48.24401" lon="3.22637">
        <ele>112</ele>
        <time>2024-05-23T09:11:26.894Z</time>
      </trkpt>
      <trkpt lat="48.24402" lon="3.22643">
        <ele>112</ele>
        <time>2024-05-23T09:11:30.928Z</time>
      </trkpt>
      <trkpt lat="48.24404" lon="3.2265">
        <ele>107</ele>
        <time>2024-05-23T09:11:35.146Z</time>
      </trkpt>
      <trkpt lat="48.24405" lon="3.22658">
        <ele>106</ele>
        <time>2024-05-23T09:11:39.648Z</time>
      </trkpt>
      <trkpt lat="48.24405" lon="3.22659">
        <ele>106</ele>
        <time>2024-05-23T09:11:40.991Z</time>
      </trkpt>
      <trkpt lat="48.24406" lon="3.22676">
        <ele>106</ele>
        <time>2024-05-23T09:11:49.577Z</time>
      </trkpt>
      <trkpt lat="48.24405" lon="3.22684">
        <ele>106</ele>
        <time>2024-05-23T09:11:53.869Z</time>
      </trkpt>
      <trkpt lat="48.24406" lon="3.22684">
        <ele>106</ele>
        <time>2024-05-23T09:11:58.146Z</time>
      </trkpt>
      <trkpt lat="48.24406" lon="3.22692">
        <ele>106</ele>
        <time>2024-05-23T09:12:02.351Z</time>
      </trkpt>
      <trkpt lat="48.24408" lon="3.22701">
        <ele>106</ele>
        <time>2024-05-23T09:12:06.501Z</time>
      </trkpt>
      <trkpt lat="48.24411" lon="3.22707">
        <ele>106</ele>
        <time>2024-05-23T09:12:11.146Z</time>
      </trkpt>
      <trkpt lat="48.2441" lon="3.2271">
        <ele>106</ele>
        <time>2024-05-23T09:12:16.146Z</time>
      </trkpt>
      <trkpt lat="48.24409" lon="3.22718">
        <ele>106</ele>
        <time>2024-05-23T09:12:20.961Z</time>
      </trkpt>
      <trkpt lat="48.2441" lon="3.22725">
        <ele>106</ele>
        <time>2024-05-23T09:12:25.146Z</time>
      </trkpt>
      <trkpt lat="48.24411" lon="3.22728">
        <ele>106</ele>
        <time>2024-05-23T09:12:30.141Z</time>
      </trkpt>
      <trkpt lat="48.24411" lon="3.22735">
        <ele>106</ele>
        <time>2024-05-23T09:12:34.378Z</time>
      </trkpt>
      <trkpt lat="48.24408" lon="3.2275">
        <ele>107</ele>
        <time>2024-05-23T09:13:00.516Z</time>
      </trkpt>
      <trkpt lat="48.24406" lon="3.22752">
        <ele>107</ele>
        <time>2024-05-23T09:13:05.146Z</time>
      </trkpt>
      <trkpt lat="48.24404" lon="3.22753">
        <ele>107</ele>
        <time>2024-05-23T09:13:10.143Z</time>
      </trkpt>
      <trkpt lat="48.24396" lon="3.22754">
        <ele>112</ele>
        <time>2024-05-23T09:13:15.146Z</time>
      </trkpt>
      <trkpt lat="48.2439" lon="3.22754">
        <ele>112</ele>
        <time>2024-05-23T09:13:19.240Z</time>
      </trkpt>
      <trkpt lat="48.24385" lon="3.22756">
        <ele>112</ele>
        <time>2024-05-23T09:13:24.023Z</time>
      </trkpt>
      <trkpt lat="48.24378" lon="3.22757">
        <ele>112</ele>
        <time>2024-05-23T09:13:29.084Z</time>
      </trkpt>
      <trkpt lat="48.24374" lon="3.22759">
        <ele>116</ele>
        <time>2024-05-23T09:13:33.146Z</time>
      </trkpt>
      <trkpt lat="48.24368" lon="3.22761">
        <ele>116</ele>
        <time>2024-05-23T09:13:38.146Z</time>
      </trkpt>
      <trkpt lat="48.24363" lon="3.22764">
        <ele>115</ele>
        <time>2024-05-23T09:13:42.874Z</time>
      </trkpt>
      <trkpt lat="48.24359" lon="3.22766">
        <ele>115</ele>
        <time>2024-05-23T09:13:47.399Z</time>
      </trkpt>
      <trkpt lat="48.24358" lon="3.2277">
        <ele>115</ele>
        <time>2024-05-23T09:13:51.590Z</time>
      </trkpt>
      <trkpt lat="48.24357" lon="3.22776">
        <ele>115</ele>
        <time>2024-05-23T09:13:56.146Z</time>
      </trkpt>
      <trkpt lat="48.2436" lon="3.22782">
        <ele>115</ele>
        <time>2024-05-23T09:14:01.146Z</time>
      </trkpt>
      <trkpt lat="48.24362" lon="3.22788">
        <ele>115</ele>
        <time>2024-05-23T09:14:06.146Z</time>
      </trkpt>
      <trkpt lat="48.24365" lon="3.22793">
        <ele>111</ele>
        <time>2024-05-23T09:14:10.697Z</time>
      </trkpt>
      <trkpt lat="48.24364" lon="3.22797">
        <ele>111</ele>
        <time>2024-05-23T09:14:15.140Z</time>
      </trkpt>
      <trkpt lat="48.24365" lon="3.22796">
        <ele>111</ele>
        <time>2024-05-23T09:14:20.146Z</time>
      </trkpt>
      <trkpt lat="48.24369" lon="3.22797">
        <ele>111</ele>
        <time>2024-05-23T09:14:25.146Z</time>
      </trkpt>
      <trkpt lat="48.24375" lon="3.22803">
        <ele>111</ele>
        <time>2024-05-23T09:14:29.537Z</time>
      </trkpt>
      <trkpt lat="48.24379" lon="3.22808">
        <ele>109</ele>
        <time>2024-05-23T09:14:34.144Z</time>
      </trkpt>
      <trkpt lat="48.24382" lon="3.22809">
        <ele>109</ele>
        <time>2024-05-23T09:14:38.146Z</time>
      </trkpt>
      <trkpt lat="48.24386" lon="3.22818">
        <ele>109</ele>
        <time>2024-05-23T09:14:42.674Z</time>
      </trkpt>
      <trkpt lat="48.24391" lon="3.22823">
        <ele>107</ele>
        <time>2024-05-23T09:14:47.146Z</time>
      </trkpt>
      <trkpt lat="48.24396" lon="3.2283">
        <ele>107</ele>
        <time>2024-05-23T09:14:51.860Z</time>
      </trkpt>
      <trkpt lat="48.24401" lon="3.22835">
        <ele>107</ele>
        <time>2024-05-23T09:14:55.968Z</time>
      </trkpt>
      <trkpt lat="48.24404" lon="3.2284">
        <ele>107</ele>
        <time>2024-05-23T09:15:00.146Z</time>
      </trkpt>
      <trkpt lat="48.24408" lon="3.22847">
        <ele>107</ele>
        <time>2024-05-23T09:15:05.146Z</time>
      </trkpt>
      <trkpt lat="48.24411" lon="3.22851">
        <ele>107</ele>
        <time>2024-05-23T09:15:09.590Z</time>
      </trkpt>
      <trkpt lat="48.24415" lon="3.22855">
        <ele>107</ele>
        <time>2024-05-23T09:15:13.996Z</time>
      </trkpt>
      <trkpt lat="48.24419" lon="3.22859">
        <ele>107</ele>
        <time>2024-05-23T09:15:18.431Z</time>
      </trkpt>
      <trkpt lat="48.24421" lon="3.22862">
        <ele>107</ele>
        <time>2024-05-23T09:15:22.048Z</time>
      </trkpt>
      <trkpt lat="48.24427" lon="3.22871">
        <ele>107</ele>
        <time>2024-05-23T09:15:31.145Z</time>
      </trkpt>
      <trkpt lat="48.24433" lon="3.22874">
        <ele>106</ele>
        <time>2024-05-23T09:15:35.601Z</time>
      </trkpt>
      <trkpt lat="48.24434" lon="3.22881">
        <ele>104</ele>
        <time>2024-05-23T09:15:40.090Z</time>
      </trkpt>
      <trkpt lat="48.24436" lon="3.22886">
        <ele>104</ele>
        <time>2024-05-23T09:15:44.144Z</time>
      </trkpt>
      <trkpt lat="48.24441" lon="3.22891">
        <ele>104</ele>
        <time>2024-05-23T09:15:48.334Z</time>
      </trkpt>
      <trkpt lat="48.24446" lon="3.22896">
        <ele>104</ele>
        <time>2024-05-23T09:15:52.669Z</time>
      </trkpt>
      <trkpt lat="48.2445" lon="3.22901">
        <ele>104</ele>
        <time>2024-05-23T09:15:56.774Z</time>
      </trkpt>
      <trkpt lat="48.24454" lon="3.22906">
        <ele>102</ele>
        <time>2024-05-23T09:16:01.145Z</time>
      </trkpt>
      <trkpt lat="48.24457" lon="3.22911">
        <ele>102</ele>
        <time>2024-05-23T09:16:05.606Z</time>
      </trkpt>
      <trkpt lat="48.24466" lon="3.22923">
        <ele>100</ele>
        <time>2024-05-23T09:16:22.145Z</time>
      </trkpt>
      <trkpt lat="48.24466" lon="3.22923">
        <ele>100</ele>
        <time>2024-05-23T09:16:26.889Z</time>
      </trkpt>
      <trkpt lat="48.2447" lon="3.22928">
        <ele>100</ele>
        <time>2024-05-23T09:16:31.514Z</time>
      </trkpt>
      <trkpt lat="48.24473" lon="3.22931">
        <ele>99</ele>
        <time>2024-05-23T09:16:35.814Z</time>
      </trkpt>
      <trkpt lat="48.24476" lon="3.22937">
        <ele>99</ele>
        <time>2024-05-23T09:16:40.269Z</time>
      </trkpt>
      <trkpt lat="48.2448" lon="3.22942">
        <ele>99</ele>
        <time>2024-05-23T09:16:45.146Z</time>
      </trkpt>
      <trkpt lat="48.24483" lon="3.22946">
        <ele>99</ele>
        <time>2024-05-23T09:16:49.453Z</time>
      </trkpt>
      <trkpt lat="48.24487" lon="3.22951">
        <ele>98</ele>
        <time>2024-05-23T09:16:53.469Z</time>
      </trkpt>
      <trkpt lat="48.2449" lon="3.22955">
        <ele>98</ele>
        <time>2024-05-23T09:16:57.754Z</time>
      </trkpt>
      <trkpt lat="48.24493" lon="3.22959">
        <ele>98</ele>
        <time>2024-05-23T09:17:02.146Z</time>
      </trkpt>
      <trkpt lat="48.24497" lon="3.22963">
        <ele>98</ele>
        <time>2024-05-23T09:17:06.669Z</time>
      </trkpt>
      <trkpt lat="48.24499" lon="3.22968">
        <ele>98</ele>
        <time>2024-05-23T09:17:10.713Z</time>
      </trkpt>
      <trkpt lat="48.245" lon="3.22971">
        <ele>98</ele>
        <time>2024-05-23T09:17:15.074Z</time>
      </trkpt>
      <trkpt lat="48.24503" lon="3.22975">
        <ele>98</ele>
        <time>2024-05-23T09:17:19.146Z</time>
      </trkpt>
      <trkpt lat="48.24506" lon="3.22979">
        <ele>98</ele>
        <time>2024-05-23T09:17:23.829Z</time>
      </trkpt>
      <trkpt lat="48.24507" lon="3.22983">
        <ele>98</ele>
        <time>2024-05-23T09:17:27.851Z</time>
      </trkpt>
      <trkpt lat="48.24511" lon="3.22986">
        <ele>98</ele>
        <time>2024-05-23T09:17:32.146Z</time>
      </trkpt>
      <trkpt lat="48.24514" lon="3.2299">
        <ele>95</ele>
        <time>2024-05-23T09:17:37.146Z</time>
      </trkpt>
      <trkpt lat="48.24517" lon="3.22994">
        <ele>95</ele>
        <time>2024-05-23T09:17:41.674Z</time>
      </trkpt>
      <trkpt lat="48.24519" lon="3.22999">
        <ele>95</ele>
        <time>2024-05-23T09:17:45.648Z</time>
      </trkpt>
      <trkpt lat="48.24522" lon="3.23002">
        <ele>95</ele>
        <time>2024-05-23T09:17:50.017Z</time>
      </trkpt>
      <trkpt lat="48.24525" lon="3.23005">
        <ele>95</ele>
        <time>2024-05-23T09:17:54.146Z</time>
      </trkpt>
      <trkpt lat="48.2453" lon="3.2301">
        <ele>95</ele>
        <time>2024-05-23T09:17:59.146Z</time>
      </trkpt>
      <trkpt lat="48.24532" lon="3.23015">
        <ele>94</ele>
        <time>2024-05-23T09:18:03.892Z</time>
      </trkpt>
      <trkpt lat="48.24536" lon="3.23019">
        <ele>94</ele>
        <time>2024-05-23T09:18:08.146Z</time>
      </trkpt>
      <trkpt lat="48.24539" lon="3.23023">
        <ele>94</ele>
        <time>2024-05-23T09:18:13.146Z</time>
      </trkpt>
      <trkpt lat="48.24543" lon="3.2303">
        <ele>92</ele>
        <time>2024-05-23T09:18:18.146Z</time>
      </trkpt>
      <trkpt lat="48.24545" lon="3.23035">
        <ele>92</ele>
        <time>2024-05-23T09:18:22.234Z</time>
      </trkpt>
      <trkpt lat="48.2455" lon="3.2304">
        <ele>92</ele>
        <time>2024-05-23T09:18:26.834Z</time>
      </trkpt>
      <trkpt lat="48.24554" lon="3.23046">
        <ele>92</ele>
        <time>2024-05-23T09:18:31.092Z</time>
      </trkpt>
      <trkpt lat="48.24556" lon="3.23048">
        <ele>92</ele>
        <time>2024-05-23T09:18:35.146Z</time>
      </trkpt>
      <trkpt lat="48.2456" lon="3.23052">
        <ele>92</ele>
        <time>2024-05-23T09:18:39.575Z</time>
      </trkpt>
      <trkpt lat="48.24564" lon="3.23054">
        <ele>92</ele>
        <time>2024-05-23T09:18:43.890Z</time>
      </trkpt>
      <trkpt lat="48.24567" lon="3.23061">
        <ele>92</ele>
        <time>2024-05-23T09:18:48.454Z</time>
      </trkpt>
      <trkpt lat="48.24569" lon="3.23067">
        <ele>92</ele>
        <time>2024-05-23T09:18:52.936Z</time>
      </trkpt>
      <trkpt lat="48.24573" lon="3.23072">
        <ele>89</ele>
        <time>2024-05-23T09:18:56.954Z</time>
      </trkpt>
      <trkpt lat="48.24577" lon="3.23076">
        <ele>89</ele>
        <time>2024-05-23T09:19:01.091Z</time>
      </trkpt>
      <trkpt lat="48.2458" lon="3.23081">
        <ele>89</ele>
        <time>2024-05-23T09:19:05.145Z</time>
      </trkpt>
      <trkpt lat="48.24584" lon="3.23087">
        <ele>89</ele>
        <time>2024-05-23T09:19:09.633Z</time>
      </trkpt>
      <trkpt lat="48.24587" lon="3.23092">
        <ele>89</ele>
        <time>2024-05-23T09:19:13.676Z</time>
      </trkpt>
      <trkpt lat="48.24592" lon="3.23096">
        <ele>89</ele>
        <time>2024-05-23T09:19:18.140Z</time>
      </trkpt>
      <trkpt lat="48.24593" lon="3.23097">
        <ele>90</ele>
        <time>2024-05-23T09:19:20.141Z</time>
      </trkpt>
      <trkpt lat="48.24599" lon="3.23106">
        <ele>88</ele>
        <time>2024-05-23T09:19:29.146Z</time>
      </trkpt>
      <trkpt lat="48.24603" lon="3.23114">
        <ele>88</ele>
        <time>2024-05-23T09:19:34.146Z</time>
      </trkpt>
      <trkpt lat="48.24607" lon="3.23116">
        <ele>88</ele>
        <time>2024-05-23T09:19:38.352Z</time>
      </trkpt>
      <trkpt lat="48.24609" lon="3.2312">
        <ele>88</ele>
        <time>2024-05-23T09:19:43.146Z</time>
      </trkpt>
      <trkpt lat="48.24612" lon="3.23124">
        <ele>88</ele>
        <time>2024-05-23T09:19:48.146Z</time>
      </trkpt>
      <trkpt lat="48.24617" lon="3.2313">
        <ele>88</ele>
        <time>2024-05-23T09:19:52.858Z</time>
      </trkpt>
      <trkpt lat="48.24622" lon="3.23134">
        <ele>88</ele>
        <time>2024-05-23T09:19:57.146Z</time>
      </trkpt>
      <trkpt lat="48.24625" lon="3.23141">
        <ele>86</ele>
        <time>2024-05-23T09:20:01.395Z</time>
      </trkpt>
      <trkpt lat="48.24628" lon="3.23146">
        <ele>86</ele>
        <time>2024-05-23T09:20:05.490Z</time>
      </trkpt>
      <trkpt lat="48.24632" lon="3.23151">
        <ele>86</ele>
        <time>2024-05-23T09:20:09.833Z</time>
      </trkpt>
      <trkpt lat="48.24635" lon="3.23156">
        <ele>85</ele>
        <time>2024-05-23T09:20:14.516Z</time>
      </trkpt>
      <trkpt lat="48.24638" lon="3.23159">
        <ele>85</ele>
        <time>2024-05-23T09:20:19.146Z</time>
      </trkpt>
      <trkpt lat="48.24641" lon="3.23164">
        <ele>85</ele>
        <time>2024-05-23T09:20:23.477Z</time>
      </trkpt>
      <trkpt lat="48.24644" lon="3.23169">
        <ele>85</ele>
        <time>2024-05-23T09:20:27.734Z</time>
      </trkpt>
      <trkpt lat="48.24645" lon="3.23174">
        <ele>85</ele>
        <time>2024-05-23T09:20:31.979Z</time>
      </trkpt>
      <trkpt lat="48.24654" lon="3.2318">
        <ele>82</ele>
        <time>2024-05-23T09:20:45.520Z</time>
      </trkpt>
      <trkpt lat="48.24655" lon="3.23182">
        <ele>81</ele>
        <time>2024-05-23T09:20:50.145Z</time>
      </trkpt>
      <trkpt lat="48.24654" lon="3.23185">
        <ele>81</ele>
        <time>2024-05-23T09:20:55.143Z</time>
      </trkpt>
      <trkpt lat="48.24654" lon="3.23186">
        <ele>81</ele>
        <time>2024-05-23T09:20:59.146Z</time>
      </trkpt>
      <trkpt lat="48.24657" lon="3.23191">
        <ele>81</ele>
        <time>2024-05-23T09:21:03.352Z</time>
      </trkpt>
      <trkpt lat="48.24659" lon="3.23198">
        <ele>81</ele>
        <time>2024-05-23T09:21:07.711Z</time>
      </trkpt>
      <trkpt lat="48.24663" lon="3.23198">
        <ele>81</ele>
        <time>2024-05-23T09:21:11.849Z</time>
      </trkpt>
      <trkpt lat="48.24666" lon="3.23202">
        <ele>81</ele>
        <time>2024-05-23T09:21:15.977Z</time>
      </trkpt>
      <trkpt lat="48.24669" lon="3.23207">
        <ele>81</ele>
        <time>2024-05-23T09:21:20.146Z</time>
      </trkpt>
      <trkpt lat="48.24674" lon="3.23211">
        <ele>81</ele>
        <time>2024-05-23T09:21:24.835Z</time>
      </trkpt>
      <trkpt lat="48.24677" lon="3.23215">
        <ele>81</ele>
        <time>2024-05-23T09:21:28.860Z</time>
      </trkpt>
      <trkpt lat="48.2468" lon="3.23219">
        <ele>81</ele>
        <time>2024-05-23T09:21:33.143Z</time>
      </trkpt>
      <trkpt lat="48.24684" lon="3.23223">
        <ele>79</ele>
        <time>2024-05-23T09:21:37.352Z</time>
      </trkpt>
      <trkpt lat="48.24687" lon="3.23229">
        <ele>79</ele>
        <time>2024-05-23T09:21:41.894Z</time>
      </trkpt>
      <trkpt lat="48.24691" lon="3.23234">
        <ele>79</ele>
        <time>2024-05-23T09:21:46.356Z</time>
      </trkpt>
      <trkpt lat="48.24695" lon="3.23239">
        <ele>78</ele>
        <time>2024-05-23T09:21:50.750Z</time>
      </trkpt>
      <trkpt lat="48.24699" lon="3.23244">
        <ele>78</ele>
        <time>2024-05-23T09:21:54.913Z</time>
      </trkpt>
      <trkpt lat="48.24703" lon="3.23247">
        <ele>78</ele>
        <time>2024-05-23T09:21:59.377Z</time>
      </trkpt>
      <trkpt lat="48.24707" lon="3.23252">
        <ele>78</ele>
        <time>2024-05-23T09:22:04.146Z</time>
      </trkpt>
      <trkpt lat="48.24711" lon="3.23257">
        <ele>76</ele>
        <time>2024-05-23T09:22:08.314Z</time>
      </trkpt>
      <trkpt lat="48.24716" lon="3.23264">
        <ele>75</ele>
        <time>2024-05-23T09:22:13.146Z</time>
      </trkpt>
      <trkpt lat="48.24719" lon="3.23269">
        <ele>75</ele>
        <time>2024-05-23T09:22:17.733Z</time>
      </trkpt>
      <trkpt lat="48.24722" lon="3.23274">
        <ele>75</ele>
        <time>2024-05-23T09:22:22.146Z</time>
      </trkpt>
      <trkpt lat="48.24727" lon="3.2328">
        <ele>75</ele>
        <time>2024-05-23T09:22:26.291Z</time>
      </trkpt>
      <trkpt lat="48.2473" lon="3.23284">
        <ele>75</ele>
        <time>2024-05-23T09:22:30.814Z</time>
      </trkpt>
      <trkpt lat="48.24735" lon="3.23287">
        <ele>75</ele>
        <time>2024-05-23T09:22:34.910Z</time>
      </trkpt>
      <trkpt lat="48.2474" lon="3.23289">
        <ele>73</ele>
        <time>2024-05-23T09:22:39.499Z</time>
      </trkpt>
      <trkpt lat="48.24746" lon="3.23294">
        <ele>74</ele>
        <time>2024-05-23T09:22:44.139Z</time>
      </trkpt>
      <trkpt lat="48.2475" lon="3.23296">
        <ele>74</ele>
        <time>2024-05-23T09:22:48.146Z</time>
      </trkpt>
      <trkpt lat="48.24756" lon="3.23298">
        <ele>74</ele>
        <time>2024-05-23T09:22:53.049Z</time>
      </trkpt>
      <trkpt lat="48.24763" lon="3.23297">
        <ele>74</ele>
        <time>2024-05-23T09:22:57.496Z</time>
      </trkpt>
      <trkpt lat="48.2476" lon="3.2331">
        <ele>74</ele>
        <time>2024-05-23T09:23:02.146Z</time>
      </trkpt>
      <trkpt lat="48.24756" lon="3.23317">
        <ele>74</ele>
        <time>2024-05-23T09:23:07.146Z</time>
      </trkpt>
      <trkpt lat="48.24751" lon="3.23322">
        <ele>76</ele>
        <time>2024-05-23T09:23:11.595Z</time>
      </trkpt>
      <trkpt lat="48.24747" lon="3.23329">
        <ele>76</ele>
        <time>2024-05-23T09:23:16.075Z</time>
      </trkpt>
      <trkpt lat="48.24742" lon="3.23335">
        <ele>76</ele>
        <time>2024-05-23T09:23:20.429Z</time>
      </trkpt>
      <trkpt lat="48.24739" lon="3.23336">
        <ele>76</ele>
        <time>2024-05-23T09:23:24.815Z</time>
      </trkpt>
      <trkpt lat="48.24737" lon="3.23343">
        <ele>76</ele>
        <time>2024-05-23T09:23:29.033Z</time>
      </trkpt>
      <trkpt lat="48.24732" lon="3.23348">
        <ele>77</ele>
        <time>2024-05-23T09:23:34.135Z</time>
      </trkpt>
      <trkpt lat="48.24731" lon="3.23351">
        <ele>77</ele>
        <time>2024-05-23T09:23:35.969Z</time>
      </trkpt>
      <trkpt lat="48.24721" lon="3.23353">
        <ele>77</ele>
        <time>2024-05-23T09:23:44.902Z</time>
      </trkpt>
      <trkpt lat="48.24717" lon="3.23359">
        <ele>77</ele>
        <time>2024-05-23T09:23:48.974Z</time>
      </trkpt>
      <trkpt lat="48.24711" lon="3.23362">
        <ele>77</ele>
        <time>2024-05-23T09:23:53.365Z</time>
      </trkpt>
      <trkpt lat="48.24707" lon="3.23366">
        <ele>77</ele>
        <time>2024-05-23T09:23:57.958Z</time>
      </trkpt>
      <trkpt lat="48.24702" lon="3.2337">
        <ele>77</ele>
        <time>2024-05-23T09:24:02.414Z</time>
      </trkpt>
      <trkpt lat="48.24696" lon="3.23375">
        <ele>78</ele>
        <time>2024-05-23T09:24:07.114Z</time>
      </trkpt>
      <trkpt lat="48.24692" lon="3.23377">
        <ele>78</ele>
        <time>2024-05-23T09:24:11.146Z</time>
      </trkpt>
      <trkpt lat="48.24688" lon="3.23381">
        <ele>78</ele>
        <time>2024-05-23T09:24:15.918Z</time>
      </trkpt>
      <trkpt lat="48.24685" lon="3.23388">
        <ele>78</ele>
        <time>2024-05-23T09:24:21.146Z</time>
      </trkpt>
      <trkpt lat="48.24678" lon="3.23392">
        <ele>78</ele>
        <time>2024-05-23T09:24:25.751Z</time>
      </trkpt>
      <trkpt lat="48.24674" lon="3.23396">
        <ele>78</ele>
        <time>2024-05-23T09:24:29.890Z</time>
      </trkpt>
      <trkpt lat="48.2467" lon="3.23401">
        <ele>78</ele>
        <time>2024-05-23T09:24:34.935Z</time>
      </trkpt>
      <trkpt lat="48.24665" lon="3.23404">
        <ele>81</ele>
        <time>2024-05-23T09:24:39.014Z</time>
      </trkpt>
      <trkpt lat="48.24661" lon="3.23408">
        <ele>81</ele>
        <time>2024-05-23T09:24:43.520Z</time>
      </trkpt>
      <trkpt lat="48.24656" lon="3.23411">
        <ele>81</ele>
        <time>2024-05-23T09:24:48.136Z</time>
      </trkpt>
      <trkpt lat="48.24652" lon="3.23413">
        <ele>79</ele>
        <time>2024-05-23T09:24:52.378Z</time>
      </trkpt>
      <trkpt lat="48.24647" lon="3.23416">
        <ele>79</ele>
        <time>2024-05-23T09:24:56.815Z</time>
      </trkpt>
      <trkpt lat="48.24643" lon="3.23419">
        <ele>79</ele>
        <time>2024-05-23T09:25:01.146Z</time>
      </trkpt>
      <trkpt lat="48.24638" lon="3.23424">
        <ele>79</ele>
        <time>2024-05-23T09:25:05.693Z</time>
      </trkpt>
      <trkpt lat="48.24634" lon="3.23428">
        <ele>79</ele>
        <time>2024-05-23T09:25:10.146Z</time>
      </trkpt>
      <trkpt lat="48.24629" lon="3.23433">
        <ele>82</ele>
        <time>2024-05-23T09:25:14.899Z</time>
      </trkpt>
      <trkpt lat="48.24625" lon="3.23438">
        <ele>80</ele>
        <time>2024-05-23T09:25:19.558Z</time>
      </trkpt>
      <trkpt lat="48.2462" lon="3.23443">
        <ele>80</ele>
        <time>2024-05-23T09:25:24.146Z</time>
      </trkpt>
      <trkpt lat="48.24616" lon="3.23448">
        <ele>80</ele>
        <time>2024-05-23T09:25:28.794Z</time>
      </trkpt>
      <trkpt lat="48.24611" lon="3.23452">
        <ele>80</ele>
        <time>2024-05-23T09:25:33.146Z</time>
      </trkpt>
      <trkpt lat="48.24606" lon="3.23456">
        <ele>80</ele>
        <time>2024-05-23T09:25:38.018Z</time>
      </trkpt>
      <trkpt lat="48.24602" lon="3.23459">
        <ele>82</ele>
        <time>2024-05-23T09:25:42.146Z</time>
      </trkpt>
      <trkpt lat="48.24597" lon="3.23463">
        <ele>81</ele>
        <time>2024-05-23T09:25:46.697Z</time>
      </trkpt>
      <trkpt lat="48.24592" lon="3.23466">
        <ele>81</ele>
        <time>2024-05-23T09:25:51.058Z</time>
      </trkpt>
      <trkpt lat="48.24589" lon="3.2347">
        <ele>81</ele>
        <time>2024-05-23T09:25:55.094Z</time>
      </trkpt>
      <trkpt lat="48.24585" lon="3.23474">
        <ele>81</ele>
        <time>2024-05-23T09:25:59.146Z</time>
      </trkpt>
      <trkpt lat="48.24581" lon="3.23478">
        <ele>81</ele>
        <time>2024-05-23T09:26:03.367Z</time>
      </trkpt>
      <trkpt lat="48.24577" lon="3.23481">
        <ele>81</ele>
        <time>2024-05-23T09:26:07.853Z</time>
      </trkpt>
      <trkpt lat="48.24572" lon="3.23485">
        <ele>81</ele>
        <time>2024-05-23T09:26:12.143Z</time>
      </trkpt>
      <trkpt lat="48.24568" lon="3.23488">
        <ele>83</ele>
        <time>2024-05-23T09:26:16.145Z</time>
      </trkpt>
      <trkpt lat="48.24563" lon="3.23492">
        <ele>83</ele>
        <time>2024-05-23T09:26:20.637Z</time>
      </trkpt>
      <trkpt lat="48.24559" lon="3.23496">
        <ele>83</ele>
        <time>2024-05-23T09:26:24.939Z</time>
      </trkpt>
      <trkpt lat="48.24556" lon="3.23498">
        <ele>83</ele>
        <time>2024-05-23T09:26:29.146Z</time>
      </trkpt>
      <trkpt lat="48.24551" lon="3.23504">
        <ele>83</ele>
        <time>2024-05-23T09:26:33.718Z</time>
      </trkpt>
      <trkpt lat="48.24546" lon="3.23508">
        <ele>83</ele>
        <time>2024-05-23T09:26:38.474Z</time>
      </trkpt>
      <trkpt lat="48.24542" lon="3.23511">
        <ele>83</ele>
        <time>2024-05-23T09:26:42.978Z</time>
      </trkpt>
      <trkpt lat="48.24538" lon="3.23514">
        <ele>85</ele>
        <time>2024-05-23T09:26:47.434Z</time>
      </trkpt>
      <trkpt lat="48.24534" lon="3.23519">
        <ele>85</ele>
        <time>2024-05-23T09:26:52.145Z</time>
      </trkpt>
      <trkpt lat="48.24529" lon="3.23523">
        <ele>85</ele>
        <time>2024-05-23T09:26:57.146Z</time>
      </trkpt>
      <trkpt lat="48.24524" lon="3.23527">
        <ele>85</ele>
        <time>2024-05-23T09:27:01.675Z</time>
      </trkpt>
      <trkpt lat="48.2452" lon="3.23531">
        <ele>85</ele>
        <time>2024-05-23T09:27:05.958Z</time>
      </trkpt>
      <trkpt lat="48.24516" lon="3.23535">
        <ele>85</ele>
        <time>2024-05-23T09:27:11.097Z</time>
      </trkpt>
      <trkpt lat="48.24512" lon="3.23538">
        <ele>87</ele>
        <time>2024-05-23T09:27:15.146Z</time>
      </trkpt>
      <trkpt lat="48.24507" lon="3.23541">
        <ele>87</ele>
        <time>2024-05-23T09:27:19.596Z</time>
      </trkpt>
      <trkpt lat="48.24503" lon="3.23544">
        <ele>87</ele>
        <time>2024-05-23T09:27:24.146Z</time>
      </trkpt>
      <trkpt lat="48.24499" lon="3.23548">
        <ele>87</ele>
        <time>2024-05-23T09:27:28.660Z</time>
      </trkpt>
      <trkpt lat="48.24495" lon="3.23551">
        <ele>87</ele>
        <time>2024-05-23T09:27:33.146Z</time>
      </trkpt>
      <trkpt lat="48.24491" lon="3.23555">
        <ele>87</ele>
        <time>2024-05-23T09:27:37.492Z</time>
      </trkpt>
      <trkpt lat="48.24487" lon="3.23559">
        <ele>87</ele>
        <time>2024-05-23T09:27:42.074Z</time>
      </trkpt>
      <trkpt lat="48.24485" lon="3.23563">
        <ele>88</ele>
        <time>2024-05-23T09:27:46.146Z</time>
      </trkpt>
      <trkpt lat="48.24484" lon="3.23569">
        <ele>88</ele>
        <time>2024-05-23T09:27:50.795Z</time>
      </trkpt>
      <trkpt lat="48.24484" lon="3.23575">
        <ele>89</ele>
        <time>2024-05-23T09:27:55.055Z</time>
      </trkpt>
      <trkpt lat="48.24487" lon="3.2358">
        <ele>88</ele>
        <time>2024-05-23T09:28:00.143Z</time>
      </trkpt>
      <trkpt lat="48.24487" lon="3.23582">
        <ele>88</ele>
        <time>2024-05-23T09:28:00.991Z</time>
      </trkpt>
      <trkpt lat="48.24492" lon="3.23588">
        <ele>88</ele>
        <time>2024-05-23T09:28:09.896Z</time>
      </trkpt>
      <trkpt lat="48.24497" lon="3.23595">
        <ele>88</ele>
        <time>2024-05-23T09:28:14.483Z</time>
      </trkpt>
      <trkpt lat="48.24501" lon="3.23601">
        <ele>90</ele>
        <time>2024-05-23T09:28:19.055Z</time>
      </trkpt>
      <trkpt lat="48.24504" lon="3.23605">
        <ele>90</ele>
        <time>2024-05-23T09:28:23.476Z</time>
      </trkpt>
      <trkpt lat="48.24506" lon="3.2361">
        <ele>90</ele>
        <time>2024-05-23T09:28:28.135Z</time>
      </trkpt>
      <trkpt lat="48.2451" lon="3.23614">
        <ele>90</ele>
        <time>2024-05-23T09:28:32.838Z</time>
      </trkpt>
      <trkpt lat="48.24512" lon="3.23617">
        <ele>90</ele>
        <time>2024-05-23T09:28:37.141Z</time>
      </trkpt>
      <trkpt lat="48.24515" lon="3.23622">
        <ele>91</ele>
        <time>2024-05-23T09:28:41.896Z</time>
      </trkpt>
      <trkpt lat="48.24518" lon="3.23626">
        <ele>94</ele>
        <time>2024-05-23T09:28:46.057Z</time>
      </trkpt>
      <trkpt lat="48.24522" lon="3.23629">
        <ele>94</ele>
        <time>2024-05-23T09:28:50.146Z</time>
      </trkpt>
      <trkpt lat="48.24525" lon="3.23634">
        <ele>94</ele>
        <time>2024-05-23T09:28:54.617Z</time>
      </trkpt>
      <trkpt lat="48.24529" lon="3.23639">
        <ele>94</ele>
        <time>2024-05-23T09:28:59.146Z</time>
      </trkpt>
      <trkpt lat="48.24531" lon="3.23643">
        <ele>94</ele>
        <time>2024-05-23T09:29:03.518Z</time>
      </trkpt>
      <trkpt lat="48.24533" lon="3.23647">
        <ele>94</ele>
        <time>2024-05-23T09:29:08.146Z</time>
      </trkpt>
      <trkpt lat="48.24536" lon="3.2365">
        <ele>94</ele>
        <time>2024-05-23T09:29:12.600Z</time>
      </trkpt>
      <trkpt lat="48.24539" lon="3.23653">
        <ele>96</ele>
        <time>2024-05-23T09:29:16.651Z</time>
      </trkpt>
      <trkpt lat="48.24542" lon="3.23657">
        <ele>96</ele>
        <time>2024-05-23T09:29:20.714Z</time>
      </trkpt>
      <trkpt lat="48.24543" lon="3.23662">
        <ele>96</ele>
        <time>2024-05-23T09:29:24.837Z</time>
      </trkpt>
      <trkpt lat="48.24546" lon="3.23666">
        <ele>96</ele>
        <time>2024-05-23T09:29:28.915Z</time>
      </trkpt>
      <trkpt lat="48.24546" lon="3.2367">
        <ele>96</ele>
        <time>2024-05-23T09:29:33.591Z</time>
      </trkpt>
      <trkpt lat="48.24553" lon="3.23671">
        <ele>96</ele>
        <time>2024-05-23T09:29:38.146Z</time>
      </trkpt>
      <trkpt lat="48.24558" lon="3.23675">
        <ele>96</ele>
        <time>2024-05-23T09:29:42.936Z</time>
      </trkpt>
      <trkpt lat="48.24561" lon="3.2368">
        <ele>96</ele>
        <time>2024-05-23T09:29:47.146Z</time>
      </trkpt>
      <trkpt lat="48.24564" lon="3.23687">
        <ele>97</ele>
        <time>2024-05-23T09:29:51.717Z</time>
      </trkpt>
      <trkpt lat="48.24566" lon="3.23692">
        <ele>97</ele>
        <time>2024-05-23T09:29:56.144Z</time>
      </trkpt>
      <trkpt lat="48.24568" lon="3.23696">
        <ele>97</ele>
        <time>2024-05-23T09:30:00.146Z</time>
      </trkpt>
      <trkpt lat="48.24567" lon="3.237">
        <ele>97</ele>
        <time>2024-05-23T09:30:04.757Z</time>
      </trkpt>
      <trkpt lat="48.24566" lon="3.23703">
        <ele>97</ele>
        <time>2024-05-23T09:30:09.597Z</time>
      </trkpt>
      <trkpt lat="48.24565" lon="3.23705">
        <ele>97</ele>
        <time>2024-05-23T09:30:13.879Z</time>
      </trkpt>
      <trkpt lat="48.24562" lon="3.23707">
        <ele>97</ele>
        <time>2024-05-23T09:30:18.146Z</time>
      </trkpt>
      <trkpt lat="48.24558" lon="3.23709">
        <ele>97</ele>
        <time>2024-05-23T09:30:22.754Z</time>
      </trkpt>
      <trkpt lat="48.24555" lon="3.23709">
        <ele>97</ele>
        <time>2024-05-23T09:30:26.858Z</time>
      </trkpt>
      <trkpt lat="48.24553" lon="3.23711">
        <ele>97</ele>
        <time>2024-05-23T09:30:31.146Z</time>
      </trkpt>
      <trkpt lat="48.24548" lon="3.23714">
        <ele>97</ele>
        <time>2024-05-23T09:30:36.139Z</time>
      </trkpt>
      <trkpt lat="48.24544" lon="3.23717">
        <ele>97</ele>
        <time>2024-05-23T09:30:40.597Z</time>
      </trkpt>
      <trkpt lat="48.24541" lon="3.23719">
        <ele>99</ele>
        <time>2024-05-23T09:30:44.915Z</time>
      </trkpt>
      <trkpt lat="48.24536" lon="3.23722">
        <ele>99</ele>
        <time>2024-05-23T09:30:49.557Z</time>
      </trkpt>
      <trkpt lat="48.24532" lon="3.23725">
        <ele>99</ele>
        <time>2024-05-23T09:30:54.146Z</time>
      </trkpt>
      <trkpt lat="48.24527" lon="3.23726">
        <ele>99</ele>
        <time>2024-05-23T09:30:58.296Z</time>
      </trkpt>
      <trkpt lat="48.24522" lon="3.23729">
        <ele>99</ele>
        <time>2024-05-23T09:31:02.356Z</time>
      </trkpt>
      <trkpt lat="48.24518" lon="3.23732">
        <ele>99</ele>
        <time>2024-05-23T09:31:06.814Z</time>
      </trkpt>
      <trkpt lat="48.24514" lon="3.23735">
        <ele>99</ele>
        <time>2024-05-23T09:31:10.976Z</time>
      </trkpt>
      <trkpt lat="48.2451" lon="3.23738">
        <ele>101</ele>
        <time>2024-05-23T09:31:15.146Z</time>
      </trkpt>
      <trkpt lat="48.24507" lon="3.23742">
        <ele>101</ele>
        <time>2024-05-23T09:31:19.146Z</time>
      </trkpt>
      <trkpt lat="48.24502" lon="3.23746">
        <ele>101</ele>
        <time>2024-05-23T09:31:23.674Z</time>
      </trkpt>
      <trkpt lat="48.245" lon="3.23749">
        <ele>101</ele>
        <time>2024-05-23T09:31:28.145Z</time>
      </trkpt>
      <trkpt lat="48.24497" lon="3.23753">
        <ele>101</ele>
        <time>2024-05-23T09:31:32.658Z</time>
      </trkpt>
      <trkpt lat="48.24491" lon="3.23753">
        <ele>101</ele>
        <time>2024-05-23T09:31:37.146Z</time>
      </trkpt>
      <trkpt lat="48.24487" lon="3.23757">
        <ele>101</ele>
        <time>2024-05-23T09:31:41.414Z</time>
      </trkpt>
      <trkpt lat="48.24483" lon="3.2376">
        <ele>100</ele>
        <time>2024-05-23T09:31:46.055Z</time>
      </trkpt>
      <trkpt lat="48.24481" lon="3.23763">
        <ele>100</ele>
        <time>2024-05-23T09:31:50.146Z</time>
      </trkpt>
      <trkpt lat="48.24478" lon="3.23764">
        <ele>102</ele>
        <time>2024-05-23T09:31:54.675Z</time>
      </trkpt>
      <trkpt lat="48.24474" lon="3.23767">
        <ele>102</ele>
        <time>2024-05-23T09:31:59.094Z</time>
      </trkpt>
      <trkpt lat="48.2447" lon="3.23769">
        <ele>102</ele>
        <time>2024-05-23T09:32:03.146Z</time>
      </trkpt>
      <trkpt lat="48.24467" lon="3.23772">
        <ele>102</ele>
        <time>2024-05-23T09:32:07.438Z</time>
      </trkpt>
      <trkpt lat="48.24456" lon="3.23782">
        <ele>103</ele>
        <time>2024-05-23T09:32:26.019Z</time>
      </trkpt>
      <trkpt lat="48.24449" lon="3.2378">
        <ele>103</ele>
        <time>2024-05-23T09:32:30.038Z</time>
      </trkpt>
      <trkpt lat="48.24447" lon="3.23782">
        <ele>103</ele>
        <time>2024-05-23T09:32:34.146Z</time>
      </trkpt>
      <trkpt lat="48.24441" lon="3.23784">
        <ele>103</ele>
        <time>2024-05-23T09:32:38.637Z</time>
      </trkpt>
      <trkpt lat="48.24437" lon="3.23786">
        <ele>103</ele>
        <time>2024-05-23T09:32:43.001Z</time>
      </trkpt>
      <trkpt lat="48.24433" lon="3.2379">
        <ele>103</ele>
        <time>2024-05-23T09:32:47.146Z</time>
      </trkpt>
      <trkpt lat="48.24428" lon="3.23793">
        <ele>107</ele>
        <time>2024-05-23T09:32:51.753Z</time>
      </trkpt>
      <trkpt lat="48.24423" lon="3.23795">
        <ele>107</ele>
        <time>2024-05-23T09:32:56.146Z</time>
      </trkpt>
      <trkpt lat="48.24418" lon="3.23796">
        <ele>107</ele>
        <time>2024-05-23T09:33:00.985Z</time>
      </trkpt>
      <trkpt lat="48.24413" lon="3.23799">
        <ele>107</ele>
        <time>2024-05-23T09:33:05.796Z</time>
      </trkpt>
      <trkpt lat="48.24409" lon="3.23801">
        <ele>107</ele>
        <time>2024-05-23T09:33:09.979Z</time>
      </trkpt>
      <trkpt lat="48.24404" lon="3.23802">
        <ele>107</ele>
        <time>2024-05-23T09:33:14.143Z</time>
      </trkpt>
      <trkpt lat="48.244" lon="3.23805">
        <ele>108</ele>
        <time>2024-05-23T09:33:18.796Z</time>
      </trkpt>
      <trkpt lat="48.24395" lon="3.23808">
        <ele>108</ele>
        <time>2024-05-23T09:33:23.146Z</time>
      </trkpt>
      <trkpt lat="48.24389" lon="3.23811">
        <ele>108</ele>
        <time>2024-05-23T09:33:28.054Z</time>
      </trkpt>
      <trkpt lat="48.24385" lon="3.23814">
        <ele>108</ele>
        <time>2024-05-23T09:33:32.146Z</time>
      </trkpt>
      <trkpt lat="48.2438" lon="3.23816">
        <ele>108</ele>
        <time>2024-05-23T09:33:36.732Z</time>
      </trkpt>
      <trkpt lat="48.24376" lon="3.23818">
        <ele>108</ele>
        <time>2024-05-23T09:33:41.014Z</time>
      </trkpt>
      <trkpt lat="48.24372" lon="3.23821">
        <ele>108</ele>
        <time>2024-05-23T09:33:45.146Z</time>
      </trkpt>
      <trkpt lat="48.24367" lon="3.23824">
        <ele>108</ele>
        <time>2024-05-23T09:33:50.016Z</time>
      </trkpt>
      <trkpt lat="48.24363" lon="3.23825">
        <ele>108</ele>
        <time>2024-05-23T09:33:54.256Z</time>
      </trkpt>
      <trkpt lat="48.24362" lon="3.23832">
        <ele>108</ele>
        <time>2024-05-23T09:34:27.146Z</time>
      </trkpt>
      <trkpt lat="48.24362" lon="3.23832">
        <ele>108</ele>
        <time>2024-05-23T09:34:32.146Z</time>
      </trkpt>
      <trkpt lat="48.24359" lon="3.23836">
        <ele>108</ele>
        <time>2024-05-23T09:34:37.146Z</time>
      </trkpt>
      <trkpt lat="48.24357" lon="3.23845">
        <ele>108</ele>
        <time>2024-05-23T09:34:42.146Z</time>
      </trkpt>
      <trkpt lat="48.24353" lon="3.23846">
        <ele>108</ele>
        <time>2024-05-23T09:34:46.641Z</time>
      </trkpt>
      <trkpt lat="48.24345" lon="3.23842">
        <ele>108</ele>
        <time>2024-05-23T09:35:16.139Z</time>
      </trkpt>
      <trkpt lat="48.24345" lon="3.23841">
        <ele>108</ele>
        <time>2024-05-23T09:35:21.141Z</time>
      </trkpt>
      <trkpt lat="48.24343" lon="3.23841">
        <ele>108</ele>
        <time>2024-05-23T09:35:25.146Z</time>
      </trkpt>
      <trkpt lat="48.2434" lon="3.23842">
        <ele>108</ele>
        <time>2024-05-23T09:35:29.698Z</time>
      </trkpt>
      <trkpt lat="48.24337" lon="3.23844">
        <ele>108</ele>
        <time>2024-05-23T09:35:33.779Z</time>
      </trkpt>
      <trkpt lat="48.24334" lon="3.23844">
        <ele>108</ele>
        <time>2024-05-23T09:35:37.814Z</time>
      </trkpt>
      <trkpt lat="48.24329" lon="3.23845">
        <ele>108</ele>
        <time>2024-05-23T09:35:42.146Z</time>
      </trkpt>
      <trkpt lat="48.24325" lon="3.23848">
        <ele>108</ele>
        <time>2024-05-23T09:35:46.911Z</time>
      </trkpt>
      <trkpt lat="48.24321" lon="3.23852">
        <ele>108</ele>
        <time>2024-05-23T09:35:51.146Z</time>
      </trkpt>
      <trkpt lat="48.24322" lon="3.23858">
        <ele>108</ele>
        <time>2024-05-23T09:36:05.094Z</time>
      </trkpt>
      <trkpt lat="48.24315" lon="3.23859">
        <ele>111</ele>
        <time>2024-05-23T09:36:09.295Z</time>
      </trkpt>
      <trkpt lat="48.24309" lon="3.23858">
        <ele>111</ele>
        <time>2024-05-23T09:36:13.679Z</time>
      </trkpt>
      <trkpt lat="48.24304" lon="3.23861">
        <ele>111</ele>
        <time>2024-05-23T09:36:17.937Z</time>
      </trkpt>
      <trkpt lat="48.24299" lon="3.23864">
        <ele>111</ele>
        <time>2024-05-23T09:36:21.977Z</time>
      </trkpt>
      <trkpt lat="48.24294" lon="3.23867">
        <ele>111</ele>
        <time>2024-05-23T09:36:27.051Z</time>
      </trkpt>
      <trkpt lat="48.24288" lon="3.23871">
        <ele>115</ele>
        <time>2024-05-23T09:36:31.539Z</time>
      </trkpt>
      <trkpt lat="48.24284" lon="3.23874">
        <ele>115</ele>
        <time>2024-05-23T09:36:36.035Z</time>
      </trkpt>
      <trkpt lat="48.24283" lon="3.23875">
        <ele>114</ele>
        <time>2024-05-23T09:36:40.146Z</time>
      </trkpt>
      <trkpt lat="48.24285" lon="3.23874">
        <ele>115</ele>
        <time>2024-05-23T09:36:45.146Z</time>
      </trkpt>
      <trkpt lat="48.24285" lon="3.23873">
        <ele>115</ele>
        <time>2024-05-23T09:36:49.835Z</time>
      </trkpt>
      <trkpt lat="48.24281" lon="3.23877">
        <ele>114</ele>
        <time>2024-05-23T09:36:54.146Z</time>
      </trkpt>
      <trkpt lat="48.24275" lon="3.23876">
        <ele>114</ele>
        <time>2024-05-23T09:36:58.914Z</time>
      </trkpt>
      <trkpt lat="48.24269" lon="3.23879">
        <ele>114</ele>
        <time>2024-05-23T09:37:03.494Z</time>
      </trkpt>
      <trkpt lat="48.24263" lon="3.23881">
        <ele>116</ele>
        <time>2024-05-23T09:37:07.854Z</time>
      </trkpt>
      <trkpt lat="48.24258" lon="3.23882">
        <ele>116</ele>
        <time>2024-05-23T09:37:12.258Z</time>
      </trkpt>
      <trkpt lat="48.24252" lon="3.23885">
        <ele>116</ele>
        <time>2024-05-23T09:37:16.771Z</time>
      </trkpt>
      <trkpt lat="48.24247" lon="3.23888">
        <ele>116</ele>
        <time>2024-05-23T09:37:21.235Z</time>
      </trkpt>
      <trkpt lat="48.24241" lon="3.23891">
        <ele>116</ele>
        <time>2024-05-23T09:37:25.731Z</time>
      </trkpt>
      <trkpt lat="48.24236" lon="3.23894">
        <ele>116</ele>
        <time>2024-05-23T09:37:30.146Z</time>
      </trkpt>
      <trkpt lat="48.24229" lon="3.23897">
        <ele>116</ele>
        <time>2024-05-23T09:37:35.079Z</time>
      </trkpt>
      <trkpt lat="48.24225" lon="3.23901">
        <ele>116</ele>
        <time>2024-05-23T09:37:39.146Z</time>
      </trkpt>
      <trkpt lat="48.2422" lon="3.23903">
        <ele>116</ele>
        <time>2024-05-23T09:37:43.996Z</time>
      </trkpt>
      <trkpt lat="48.24213" lon="3.23905">
        <ele>116</ele>
        <time>2024-05-23T09:37:48.238Z</time>
      </trkpt>
      <trkpt lat="48.24205" lon="3.23905">
        <ele>115</ele>
        <time>2024-05-23T09:37:53.058Z</time>
      </trkpt>
      <trkpt lat="48.242" lon="3.23904">
        <ele>115</ele>
        <time>2024-05-23T09:37:57.146Z</time>
      </trkpt>
      <trkpt lat="48.24194" lon="3.23904">
        <ele>115</ele>
        <time>2024-05-23T09:38:01.754Z</time>
      </trkpt>
      <trkpt lat="48.24188" lon="3.23903">
        <ele>116</ele>
        <time>2024-05-23T09:38:06.146Z</time>
      </trkpt>
      <trkpt lat="48.24181" lon="3.23904">
        <ele>115</ele>
        <time>2024-05-23T09:38:10.636Z</time>
      </trkpt>
      <trkpt lat="48.24176" lon="3.23903">
        <ele>117</ele>
        <time>2024-05-23T09:38:14.937Z</time>
      </trkpt>
      <trkpt lat="48.2417" lon="3.23903">
        <ele>118</ele>
        <time>2024-05-23T09:38:19.146Z</time>
      </trkpt>
      <trkpt lat="48.24168" lon="3.23898">
        <ele>118</ele>
        <time>2024-05-23T09:38:24.146Z</time>
      </trkpt>
      <trkpt lat="48.24167" lon="3.23885">
        <ele>118</ele>
        <time>2024-05-23T09:38:29.136Z</time>
      </trkpt>
      <trkpt lat="48.24159" lon="3.23878">
        <ele>118</ele>
        <time>2024-05-23T09:38:33.897Z</time>
      </trkpt>
      <trkpt lat="48.24155" lon="3.23879">
        <ele>118</ele>
        <time>2024-05-23T09:38:38.318Z</time>
      </trkpt>
      <trkpt lat="48.24151" lon="3.23877">
        <ele>121</ele>
        <time>2024-05-23T09:38:42.874Z</time>
      </trkpt>
      <trkpt lat="48.24148" lon="3.23876">
        <ele>121</ele>
        <time>2024-05-23T09:38:47.440Z</time>
      </trkpt>
      <trkpt lat="48.24143" lon="3.23874">
        <ele>123</ele>
        <time>2024-05-23T09:38:51.732Z</time>
      </trkpt>
      <trkpt lat="48.2414" lon="3.23871">
        <ele>123</ele>
        <time>2024-05-23T09:38:56.034Z</time>
      </trkpt>
      <trkpt lat="48.24138" lon="3.23867">
        <ele>123</ele>
        <time>2024-05-23T09:39:00.434Z</time>
      </trkpt>
      <trkpt lat="48.24136" lon="3.23866">
        <ele>123</ele>
        <time>2024-05-23T09:39:03.141Z</time>
      </trkpt>
      <trkpt lat="48.24134" lon="3.23869">
        <ele>123</ele>
        <time>2024-05-23T09:39:17.145Z</time>
      </trkpt>
      <trkpt lat="48.24132" lon="3.23866">
        <ele>123</ele>
        <time>2024-05-23T09:39:22.146Z</time>
      </trkpt>
      <trkpt lat="48.24131" lon="3.23867">
        <ele>123</ele>
        <time>2024-05-23T09:39:27.145Z</time>
      </trkpt>
      <trkpt lat="48.24131" lon="3.23861">
        <ele>123</ele>
        <time>2024-05-23T09:39:32.141Z</time>
      </trkpt>
      <trkpt lat="48.24126" lon="3.23856">
        <ele>123</ele>
        <time>2024-05-23T09:39:36.638Z</time>
      </trkpt>
      <trkpt lat="48.24122" lon="3.23851">
        <ele>128</ele>
        <time>2024-05-23T09:39:40.879Z</time>
      </trkpt>
      <trkpt lat="48.24118" lon="3.23848">
        <ele>128</ele>
        <time>2024-05-23T09:39:45.146Z</time>
      </trkpt>
      <trkpt lat="48.24114" lon="3.23842">
        <ele>129</ele>
        <time>2024-05-23T09:39:50.141Z</time>
      </trkpt>
      <trkpt lat="48.2411" lon="3.23836">
        <ele>129</ele>
        <time>2024-05-23T09:39:54.542Z</time>
      </trkpt>
      <trkpt lat="48.24106" lon="3.23832">
        <ele>129</ele>
        <time>2024-05-23T09:39:59.080Z</time>
      </trkpt>
      <trkpt lat="48.24103" lon="3.23827">
        <ele>129</ele>
        <time>2024-05-23T09:40:03.146Z</time>
      </trkpt>
      <trkpt lat="48.241" lon="3.23821">
        <ele>129</ele>
        <time>2024-05-23T09:40:07.534Z</time>
      </trkpt>
      <trkpt lat="48.24096" lon="3.23816">
        <ele>135</ele>
        <time>2024-05-23T09:40:11.865Z</time>
      </trkpt>
      <trkpt lat="48.24093" lon="3.2381">
        <ele>135</ele>
        <time>2024-05-23T09:40:16.145Z</time>
      </trkpt>
      <trkpt lat="48.24089" lon="3.23805">
        <ele>135</ele>
        <time>2024-05-23T09:40:20.820Z</time>
      </trkpt>
      <trkpt lat="48.24085" lon="3.23803">
        <ele>135</ele>
        <time>2024-05-23T09:40:24.831Z</time>
      </trkpt>
      <trkpt lat="48.24081" lon="3.23799">
        <ele>135</ele>
        <time>2024-05-23T09:40:29.146Z</time>
      </trkpt>
      <trkpt lat="48.24079" lon="3.23794">
        <ele>135</ele>
        <time>2024-05-23T09:40:33.377Z</time>
      </trkpt>
      <trkpt lat="48.24079" lon="3.23788">
        <ele>135</ele>
        <time>2024-05-23T09:40:38.014Z</time>
      </trkpt>
      <trkpt lat="48.24076" lon="3.23783">
        <ele>135</ele>
        <time>2024-05-23T09:40:42.736Z</time>
      </trkpt>
      <trkpt lat="48.24072" lon="3.23778">
        <ele>135</ele>
        <time>2024-05-23T09:40:47.139Z</time>
      </trkpt>
      <trkpt lat="48.2407" lon="3.23772">
        <ele>135</ele>
        <time>2024-05-23T09:40:51.814Z</time>
      </trkpt>
      <trkpt lat="48.24067" lon="3.23768">
        <ele>138</ele>
        <time>2024-05-23T09:40:55.895Z</time>
      </trkpt>
      <trkpt lat="48.24068" lon="3.23763">
        <ele>139</ele>
        <time>2024-05-23T09:40:59.994Z</time>
      </trkpt>
      <trkpt lat="48.24064" lon="3.2376">
        <ele>139</ele>
        <time>2024-05-23T09:41:04.038Z</time>
      </trkpt>
      <trkpt lat="48.2406" lon="3.23761">
        <ele>139</ele>
        <time>2024-05-23T09:41:08.146Z</time>
      </trkpt>
      <trkpt lat="48.24054" lon="3.23763">
        <ele>139</ele>
        <time>2024-05-23T09:41:12.938Z</time>
      </trkpt>
      <trkpt lat="48.24051" lon="3.2376">
        <ele>139</ele>
        <time>2024-05-23T09:41:17.255Z</time>
      </trkpt>
      <trkpt lat="48.24047" lon="3.23756">
        <ele>139</ele>
        <time>2024-05-23T09:41:21.738Z</time>
      </trkpt>
      <trkpt lat="48.24044" lon="3.23751">
        <ele>139</ele>
        <time>2024-05-23T09:41:26.138Z</time>
      </trkpt>
      <trkpt lat="48.24042" lon="3.23745">
        <ele>139</ele>
        <time>2024-05-23T09:41:30.146Z</time>
      </trkpt>
      <trkpt lat="48.24039" lon="3.23739">
        <ele>143</ele>
        <time>2024-05-23T09:41:34.831Z</time>
      </trkpt>
      <trkpt lat="48.24037" lon="3.23734">
        <ele>144</ele>
        <time>2024-05-23T09:41:39.146Z</time>
      </trkpt>
      <trkpt lat="48.24035" lon="3.23729">
        <ele>144</ele>
        <time>2024-05-23T09:41:43.374Z</time>
      </trkpt>
      <trkpt lat="48.24032" lon="3.23724">
        <ele>144</ele>
        <time>2024-05-23T09:41:47.778Z</time>
      </trkpt>
      <trkpt lat="48.24029" lon="3.23719">
        <ele>144</ele>
        <time>2024-05-23T09:41:51.976Z</time>
      </trkpt>
      <trkpt lat="48.24027" lon="3.23713">
        <ele>144</ele>
        <time>2024-05-23T09:41:56.576Z</time>
      </trkpt>
      <trkpt lat="48.24023" lon="3.23708">
        <ele>146</ele>
        <time>2024-05-23T09:42:01.116Z</time>
      </trkpt>
      <trkpt lat="48.24019" lon="3.23703">
        <ele>146</ele>
        <time>2024-05-23T09:42:05.699Z</time>
      </trkpt>
      <trkpt lat="48.24019" lon="3.23698">
        <ele>146</ele>
        <time>2024-05-23T09:42:10.145Z</time>
      </trkpt>
      <trkpt lat="48.24014" lon="3.23693">
        <ele>146</ele>
        <time>2024-05-23T09:42:14.336Z</time>
      </trkpt>
      <trkpt lat="48.24013" lon="3.23686">
        <ele>148</ele>
        <time>2024-05-23T09:42:18.737Z</time>
      </trkpt>
      <trkpt lat="48.2401" lon="3.23681">
        <ele>152</ele>
        <time>2024-05-23T09:42:23.396Z</time>
      </trkpt>
      <trkpt lat="48.24007" lon="3.23676">
        <ele>152</ele>
        <time>2024-05-23T09:42:28.099Z</time>
      </trkpt>
      <trkpt lat="48.24004" lon="3.2367">
        <ele>152</ele>
        <time>2024-05-23T09:42:32.141Z</time>
      </trkpt>
      <trkpt lat="48.24002" lon="3.23665">
        <ele>152</ele>
        <time>2024-05-23T09:42:36.376Z</time>
      </trkpt>
      <trkpt lat="48.23999" lon="3.23658">
        <ele>152</ele>
        <time>2024-05-23T09:42:40.652Z</time>
      </trkpt>
      <trkpt lat="48.23997" lon="3.23651">
        <ele>155</ele>
        <time>2024-05-23T09:42:44.875Z</time>
      </trkpt>
      <trkpt lat="48.23994" lon="3.23645">
        <ele>155</ele>
        <time>2024-05-23T09:42:49.140Z</time>
      </trkpt>
      <trkpt lat="48.23992" lon="3.23638">
        <ele>155</ele>
        <time>2024-05-23T09:42:53.614Z</time>
      </trkpt>
      <trkpt lat="48.2399" lon="3.23632">
        <ele>155</ele>
        <time>2024-05-23T09:42:57.873Z</time>
      </trkpt>
      <trkpt lat="48.23987" lon="3.23625">
        <ele>155</ele>
        <time>2024-05-23T09:43:02.437Z</time>
      </trkpt>
      <trkpt lat="48.23985" lon="3.23619">
        <ele>161</ele>
        <time>2024-05-23T09:43:07.143Z</time>
      </trkpt>
      <trkpt lat="48.23982" lon="3.23613">
        <ele>161</ele>
        <time>2024-05-23T09:43:11.611Z</time>
      </trkpt>
      <trkpt lat="48.23979" lon="3.23608">
        <ele>161</ele>
        <time>2024-05-23T09:43:16.033Z</time>
      </trkpt>
      <trkpt lat="48.23976" lon="3.23604">
        <ele>161</ele>
        <time>2024-05-23T09:43:20.138Z</time>
      </trkpt>
      <trkpt lat="48.23974" lon="3.23601">
        <ele>161</ele>
        <time>2024-05-23T09:43:25.146Z</time>
      </trkpt>
      <trkpt lat="48.23973" lon="3.23602">
        <ele>161</ele>
        <time>2024-05-23T09:43:30.146Z</time>
      </trkpt>
      <trkpt lat="48.23972" lon="3.23601">
        <ele>161</ele>
        <time>2024-05-23T09:43:34.473Z</time>
      </trkpt>
      <trkpt lat="48.23968" lon="3.23593">
        <ele>160</ele>
        <time>2024-05-23T09:43:39.144Z</time>
      </trkpt>
      <trkpt lat="48.23964" lon="3.23587">
        <ele>160</ele>
        <time>2024-05-23T09:43:43.894Z</time>
      </trkpt>
      <trkpt lat="48.23962" lon="3.2358">
        <ele>160</ele>
        <time>2024-05-23T09:43:48.146Z</time>
      </trkpt>
      <trkpt lat="48.23959" lon="3.23572">
        <ele>160</ele>
        <time>2024-05-23T09:43:53.094Z</time>
      </trkpt>
      <trkpt lat="48.23954" lon="3.23564">
        <ele>163</ele>
        <time>2024-05-23T09:43:58.138Z</time>
      </trkpt>
      <trkpt lat="48.2395" lon="3.23558">
        <ele>163</ele>
        <time>2024-05-23T09:44:03.139Z</time>
      </trkpt>
      <trkpt lat="48.23947" lon="3.23555">
        <ele>163</ele>
        <time>2024-05-23T09:44:07.857Z</time>
      </trkpt>
      <trkpt lat="48.2394" lon="3.23555">
        <ele>163</ele>
        <time>2024-05-23T09:44:12.145Z</time>
      </trkpt>
      <trkpt lat="48.23935" lon="3.2355">
        <ele>163</ele>
        <time>2024-05-23T09:44:17.100Z</time>
      </trkpt>
      <trkpt lat="48.23931" lon="3.23548">
        <ele>163</ele>
        <time>2024-05-23T09:44:21.494Z</time>
      </trkpt>
      <trkpt lat="48.23928" lon="3.23545">
        <ele>163</ele>
        <time>2024-05-23T09:44:26.141Z</time>
      </trkpt>
      <trkpt lat="48.23923" lon="3.23542">
        <ele>163</ele>
        <time>2024-05-23T09:44:31.146Z</time>
      </trkpt>
      <trkpt lat="48.23916" lon="3.23539">
        <ele>162</ele>
        <time>2024-05-23T09:44:36.142Z</time>
      </trkpt>
      <trkpt lat="48.23913" lon="3.23539">
        <ele>162</ele>
        <time>2024-05-23T09:44:40.674Z</time>
      </trkpt>
      <trkpt lat="48.23909" lon="3.23535">
        <ele>162</ele>
        <time>2024-05-23T09:44:45.145Z</time>
      </trkpt>
      <trkpt lat="48.23907" lon="3.23532">
        <ele>162</ele>
        <time>2024-05-23T09:44:49.796Z</time>
      </trkpt>
      <trkpt lat="48.23904" lon="3.23529">
        <ele>162</ele>
        <time>2024-05-23T09:44:54.137Z</time>
      </trkpt>
      <trkpt lat="48.239" lon="3.23525">
        <ele>161</ele>
        <time>2024-05-23T09:44:58.775Z</time>
      </trkpt>
      <trkpt lat="48.23897" lon="3.23522">
        <ele>161</ele>
        <time>2024-05-23T09:45:02.854Z</time>
      </trkpt>
      <trkpt lat="48.23894" lon="3.23519">
        <ele>161</ele>
        <time>2024-05-23T09:45:06.846Z</time>
      </trkpt>
      <trkpt lat="48.2389" lon="3.23515">
        <ele>161</ele>
        <time>2024-05-23T09:45:11.144Z</time>
      </trkpt>
      <trkpt lat="48.23886" lon="3.23513">
        <ele>161</ele>
        <time>2024-05-23T09:45:15.719Z</time>
      </trkpt>
      <trkpt lat="48.23885" lon="3.2351">
        <ele>161</ele>
        <time>2024-05-23T09:45:20.146Z</time>
      </trkpt>
      <trkpt lat="48.23881" lon="3.23508">
        <ele>161</ele>
        <time>2024-05-23T09:45:25.146Z</time>
      </trkpt>
      <trkpt lat="48.23877" lon="3.23507">
        <ele>161</ele>
        <time>2024-05-23T09:45:29.219Z</time>
      </trkpt>
      <trkpt lat="48.23873" lon="3.23507">
        <ele>161</ele>
        <time>2024-05-23T09:45:33.697Z</time>
      </trkpt>
      <trkpt lat="48.2387" lon="3.23502">
        <ele>161</ele>
        <time>2024-05-23T09:45:38.145Z</time>
      </trkpt>
      <trkpt lat="48.23867" lon="3.23499">
        <ele>161</ele>
        <time>2024-05-23T09:45:42.418Z</time>
      </trkpt>
      <trkpt lat="48.23862" lon="3.23499">
        <ele>161</ele>
        <time>2024-05-23T09:45:46.932Z</time>
      </trkpt>
      <trkpt lat="48.23858" lon="3.23496">
        <ele>161</ele>
        <time>2024-05-23T09:45:51.018Z</time>
      </trkpt>
      <trkpt lat="48.23852" lon="3.23495">
        <ele>161</ele>
        <time>2024-05-23T09:45:55.145Z</time>
      </trkpt>
      <trkpt lat="48.23846" lon="3.23495">
        <ele>163</ele>
        <time>2024-05-23T09:46:00.131Z</time>
      </trkpt>
      <trkpt lat="48.23841" lon="3.23492">
        <ele>163</ele>
        <time>2024-05-23T09:46:04.396Z</time>
      </trkpt>
      <trkpt lat="48.23836" lon="3.2349">
        <ele>163</ele>
        <time>2024-05-23T09:46:08.731Z</time>
      </trkpt>
      <trkpt lat="48.23832" lon="3.23489">
        <ele>163</ele>
        <time>2024-05-23T09:46:13.116Z</time>
      </trkpt>
      <trkpt lat="48.23826" lon="3.23489">
        <ele>163</ele>
        <time>2024-05-23T09:46:17.476Z</time>
      </trkpt>
      <trkpt lat="48.23822" lon="3.23488">
        <ele>163</ele>
        <time>2024-05-23T09:46:21.777Z</time>
      </trkpt>
      <trkpt lat="48.23819" lon="3.23486">
        <ele>163</ele>
        <time>2024-05-23T09:46:26.018Z</time>
      </trkpt>
      <trkpt lat="48.23816" lon="3.23482">
        <ele>163</ele>
        <time>2024-05-23T09:46:30.756Z</time>
      </trkpt>
      <trkpt lat="48.23812" lon="3.2348">
        <ele>163</ele>
        <time>2024-05-23T09:46:34.874Z</time>
      </trkpt>
      <trkpt lat="48.23809" lon="3.23477">
        <ele>163</ele>
        <time>2024-05-23T09:46:38.917Z</time>
      </trkpt>
      <trkpt lat="48.23805" lon="3.23476">
        <ele>163</ele>
        <time>2024-05-23T09:46:43.146Z</time>
      </trkpt>
      <trkpt lat="48.23801" lon="3.23474">
        <ele>163</ele>
        <time>2024-05-23T09:46:48.146Z</time>
      </trkpt>
      <trkpt lat="48.238" lon="3.23468">
        <ele>163</ele>
        <time>2024-05-23T09:46:52.791Z</time>
      </trkpt>
      <trkpt lat="48.23798" lon="3.23464">
        <ele>163</ele>
        <time>2024-05-23T09:46:56.938Z</time>
      </trkpt>
      <trkpt lat="48.23795" lon="3.23461">
        <ele>163</ele>
        <time>2024-05-23T09:47:01.146Z</time>
      </trkpt>
      <trkpt lat="48.2379" lon="3.23458">
        <ele>164</ele>
        <time>2024-05-23T09:47:06.146Z</time>
      </trkpt>
      <trkpt lat="48.23783" lon="3.23454">
        <ele>164</ele>
        <time>2024-05-23T09:47:10.554Z</time>
      </trkpt>
      <trkpt lat="48.23779" lon="3.2345">
        <ele>164</ele>
        <time>2024-05-23T09:47:14.598Z</time>
      </trkpt>
      <trkpt lat="48.23775" lon="3.23448">
        <ele>164</ele>
        <time>2024-05-23T09:47:19.018Z</time>
      </trkpt>
      <trkpt lat="48.2377" lon="3.23446">
        <ele>164</ele>
        <time>2024-05-23T09:47:23.146Z</time>
      </trkpt>
      <trkpt lat="48.23764" lon="3.23444">
        <ele>164</ele>
        <time>2024-05-23T09:47:28.096Z</time>
      </trkpt>
      <trkpt lat="48.23759" lon="3.23442">
        <ele>166</ele>
        <time>2024-05-23T09:47:33.146Z</time>
      </trkpt>
      <trkpt lat="48.23753" lon="3.2344">
        <ele>166</ele>
        <time>2024-05-23T09:47:37.891Z</time>
      </trkpt>
      <trkpt lat="48.23747" lon="3.23438">
        <ele>166</ele>
        <time>2024-05-23T09:47:42.474Z</time>
      </trkpt>
      <trkpt lat="48.23742" lon="3.23436">
        <ele>166</ele>
        <time>2024-05-23T09:47:46.802Z</time>
      </trkpt>
      <trkpt lat="48.23738" lon="3.23434">
        <ele>166</ele>
        <time>2024-05-23T09:47:51.146Z</time>
      </trkpt>
      <trkpt lat="48.23733" lon="3.23432">
        <ele>168</ele>
        <time>2024-05-23T09:47:55.654Z</time>
      </trkpt>
      <trkpt lat="48.23728" lon="3.23429">
        <ele>168</ele>
        <time>2024-05-23T09:47:59.971Z</time>
      </trkpt>
      <trkpt lat="48.23723" lon="3.23424">
        <ele>168</ele>
        <time>2024-05-23T09:48:05.018Z</time>
      </trkpt>
      <trkpt lat="48.23718" lon="3.23419">
        <ele>168</ele>
        <time>2024-05-23T09:48:10.146Z</time>
      </trkpt>
      <trkpt lat="48.23715" lon="3.23417">
        <ele>168</ele>
        <time>2024-05-23T09:48:15.074Z</time>
      </trkpt>
      <trkpt lat="48.23706" lon="3.23414">
        <ele>170</ele>
        <time>2024-05-23T09:48:19.517Z</time>
      </trkpt>
      <trkpt lat="48.23703" lon="3.23415">
        <ele>170</ele>
        <time>2024-05-23T09:48:24.062Z</time>
      </trkpt>
      <trkpt lat="48.23699" lon="3.23415">
        <ele>170</ele>
        <time>2024-05-23T09:48:28.115Z</time>
      </trkpt>
      <trkpt lat="48.23694" lon="3.23417">
        <ele>170</ele>
        <time>2024-05-23T09:48:32.959Z</time>
      </trkpt>
      <trkpt lat="48.23691" lon="3.23416">
        <ele>170</ele>
        <time>2024-05-23T09:48:37.145Z</time>
      </trkpt>
      <trkpt lat="48.23686" lon="3.23415">
        <ele>170</ele>
        <time>2024-05-23T09:48:41.976Z</time>
      </trkpt>
      <trkpt lat="48.23682" lon="3.23415">
        <ele>170</ele>
        <time>2024-05-23T09:48:46.142Z</time>
      </trkpt>
      <trkpt lat="48.23677" lon="3.23411">
        <ele>173</ele>
        <time>2024-05-23T09:48:50.741Z</time>
      </trkpt>
      <trkpt lat="48.23672" lon="3.23408">
        <ele>173</ele>
        <time>2024-05-23T09:48:55.146Z</time>
      </trkpt>
      <trkpt lat="48.23667" lon="3.23405">
        <ele>173</ele>
        <time>2024-05-23T09:48:59.636Z</time>
      </trkpt>
      <trkpt lat="48.23662" lon="3.23405">
        <ele>173</ele>
        <time>2024-05-23T09:49:04.146Z</time>
      </trkpt>
      <trkpt lat="48.23656" lon="3.23405">
        <ele>173</ele>
        <time>2024-05-23T09:49:08.339Z</time>
      </trkpt>
      <trkpt lat="48.23651" lon="3.23404">
        <ele>175</ele>
        <time>2024-05-23T09:49:12.818Z</time>
      </trkpt>
      <trkpt lat="48.23647" lon="3.23404">
        <ele>175</ele>
        <time>2024-05-23T09:49:17.314Z</time>
      </trkpt>
      <trkpt lat="48.23643" lon="3.23401">
        <ele>175</ele>
        <time>2024-05-23T09:49:22.056Z</time>
      </trkpt>
      <trkpt lat="48.23635" lon="3.23398">
        <ele>175</ele>
        <time>2024-05-23T09:49:31.142Z</time>
      </trkpt>
      <trkpt lat="48.23629" lon="3.23398">
        <ele>175</ele>
        <time>2024-05-23T09:49:35.754Z</time>
      </trkpt>
      <trkpt lat="48.23624" lon="3.23399">
        <ele>175</ele>
        <time>2024-05-23T09:49:40.138Z</time>
      </trkpt>
      <trkpt lat="48.23618" lon="3.23398">
        <ele>175</ele>
        <time>2024-05-23T09:49:44.179Z</time>
      </trkpt>
      <trkpt lat="48.23614" lon="3.23399">
        <ele>175</ele>
        <time>2024-05-23T09:49:48.744Z</time>
      </trkpt>
      <trkpt lat="48.2361" lon="3.23396">
        <ele>175</ele>
        <time>2024-05-23T09:49:52.839Z</time>
      </trkpt>
      <trkpt lat="48.23611" lon="3.23392">
        <ele>175</ele>
        <time>2024-05-23T09:49:57.144Z</time>
      </trkpt>
      <trkpt lat="48.23609" lon="3.23388">
        <ele>175</ele>
        <time>2024-05-23T09:50:01.780Z</time>
      </trkpt>
      <trkpt lat="48.23604" lon="3.23385">
        <ele>175</ele>
        <time>2024-05-23T09:50:06.432Z</time>
      </trkpt>
      <trkpt lat="48.236" lon="3.23382">
        <ele>175</ele>
        <time>2024-05-23T09:50:09.638Z</time>
      </trkpt>
      <trkpt lat="48.23599" lon="3.23383">
        <ele>175</ele>
        <time>2024-05-23T09:50:19.146Z</time>
      </trkpt>
      <trkpt lat="48.23596" lon="3.23387">
        <ele>175</ele>
        <time>2024-05-23T09:50:23.438Z</time>
      </trkpt>
      <trkpt lat="48.2359" lon="3.23389">
        <ele>175</ele>
        <time>2024-05-23T09:50:28.145Z</time>
      </trkpt>
      <trkpt lat="48.23582" lon="3.2339">
        <ele>175</ele>
        <time>2024-05-23T09:50:33.146Z</time>
      </trkpt>
      <trkpt lat="48.23577" lon="3.23388">
        <ele>175</ele>
        <time>2024-05-23T09:50:37.329Z</time>
      </trkpt>
      <trkpt lat="48.23578" lon="3.23379">
        <ele>175</ele>
        <time>2024-05-23T09:50:41.602Z</time>
      </trkpt>
      <trkpt lat="48.23573" lon="3.23375">
        <ele>175</ele>
        <time>2024-05-23T09:50:46.001Z</time>
      </trkpt>
      <trkpt lat="48.23568" lon="3.23373">
        <ele>174</ele>
        <time>2024-05-23T09:50:50.519Z</time>
      </trkpt>
      <trkpt lat="48.23563" lon="3.23371">
        <ele>174</ele>
        <time>2024-05-23T09:50:55.124Z</time>
      </trkpt>
      <trkpt lat="48.23558" lon="3.23369">
        <ele>174</ele>
        <time>2024-05-23T09:51:00.124Z</time>
      </trkpt>
      <trkpt lat="48.23553" lon="3.23365">
        <ele>174</ele>
        <time>2024-05-23T09:51:04.496Z</time>
      </trkpt>
      <trkpt lat="48.23548" lon="3.23361">
        <ele>174</ele>
        <time>2024-05-23T09:51:08.936Z</time>
      </trkpt>
      <trkpt lat="48.23542" lon="3.23361">
        <ele>174</ele>
        <time>2024-05-23T09:51:13.146Z</time>
      </trkpt>
      <trkpt lat="48.23536" lon="3.23364">
        <ele>175</ele>
        <time>2024-05-23T09:51:18.146Z</time>
      </trkpt>
      <trkpt lat="48.23531" lon="3.23368">
        <ele>175</ele>
        <time>2024-05-23T09:51:22.693Z</time>
      </trkpt>
      <trkpt lat="48.23526" lon="3.23373">
        <ele>175</ele>
        <time>2024-05-23T09:51:27.146Z</time>
      </trkpt>
      <trkpt lat="48.23524" lon="3.23376">
        <ele>175</ele>
        <time>2024-05-23T09:51:32Z</time>
      </trkpt>
      <trkpt lat="48.23522" lon="3.23381">
        <ele>175</ele>
        <time>2024-05-23T09:51:36.142Z</time>
      </trkpt>
      <trkpt lat="48.23518" lon="3.23386">
        <ele>175</ele>
        <time>2024-05-23T09:51:40.536Z</time>
      </trkpt>
      <trkpt lat="48.23514" lon="3.23389">
        <ele>175</ele>
        <time>2024-05-23T09:51:44.742Z</time>
      </trkpt>
      <trkpt lat="48.23511" lon="3.23393">
        <ele>177</ele>
        <time>2024-05-23T09:51:49.146Z</time>
      </trkpt>
      <trkpt lat="48.23508" lon="3.23398">
        <ele>177</ele>
        <time>2024-05-23T09:51:54.119Z</time>
      </trkpt>
      <trkpt lat="48.23503" lon="3.23403">
        <ele>177</ele>
        <time>2024-05-23T09:51:58.636Z</time>
      </trkpt>
      <trkpt lat="48.23499" lon="3.23407">
        <ele>177</ele>
        <time>2024-05-23T09:52:02.965Z</time>
      </trkpt>
      <trkpt lat="48.23494" lon="3.23409">
        <ele>177</ele>
        <time>2024-05-23T09:52:07.457Z</time>
      </trkpt>
      <trkpt lat="48.23491" lon="3.23412">
        <ele>177</ele>
        <time>2024-05-23T09:52:11.953Z</time>
      </trkpt>
      <trkpt lat="48.23486" lon="3.23416">
        <ele>178</ele>
        <time>2024-05-23T09:52:16.738Z</time>
      </trkpt>
      <trkpt lat="48.23482" lon="3.23421">
        <ele>178</ele>
        <time>2024-05-23T09:52:21.134Z</time>
      </trkpt>
      <trkpt lat="48.23475" lon="3.23424">
        <ele>178</ele>
        <time>2024-05-23T09:52:25.937Z</time>
      </trkpt>
      <trkpt lat="48.23472" lon="3.23428">
        <ele>178</ele>
        <time>2024-05-23T09:52:30.142Z</time>
      </trkpt>
      <trkpt lat="48.23467" lon="3.2343">
        <ele>178</ele>
        <time>2024-05-23T09:52:34.597Z</time>
      </trkpt>
      <trkpt lat="48.23464" lon="3.23434">
        <ele>178</ele>
        <time>2024-05-23T09:52:38.874Z</time>
      </trkpt>
      <trkpt lat="48.23461" lon="3.23438">
        <ele>178</ele>
        <time>2024-05-23T09:52:43.146Z</time>
      </trkpt>
      <trkpt lat="48.23459" lon="3.23442">
        <ele>178</ele>
        <time>2024-05-23T09:52:47.806Z</time>
      </trkpt>
      <trkpt lat="48.23459" lon="3.23444">
        <ele>178</ele>
        <time>2024-05-23T09:52:52.139Z</time>
      </trkpt>
      <trkpt lat="48.23457" lon="3.23448">
        <ele>177</ele>
        <time>2024-05-23T09:52:56.146Z</time>
      </trkpt>
      <trkpt lat="48.23451" lon="3.2345">
        <ele>177</ele>
        <time>2024-05-23T09:53:35.142Z</time>
      </trkpt>
      <trkpt lat="48.23451" lon="3.23449">
        <ele>177</ele>
        <time>2024-05-23T09:53:39.146Z</time>
      </trkpt>
      <trkpt lat="48.2345" lon="3.23442">
        <ele>177</ele>
        <time>2024-05-23T09:53:43.690Z</time>
      </trkpt>
      <trkpt lat="48.23448" lon="3.23438">
        <ele>177</ele>
        <time>2024-05-23T09:53:48.144Z</time>
      </trkpt>
      <trkpt lat="48.23443" lon="3.23436">
        <ele>177</ele>
        <time>2024-05-23T09:53:52.534Z</time>
      </trkpt>
      <trkpt lat="48.23443" lon="3.23429">
        <ele>177</ele>
        <time>2024-05-23T09:53:56.712Z</time>
      </trkpt>
      <trkpt lat="48.23442" lon="3.23422">
        <ele>177</ele>
        <time>2024-05-23T09:54:01.114Z</time>
      </trkpt>
      <trkpt lat="48.2344" lon="3.23415">
        <ele>177</ele>
        <time>2024-05-23T09:54:05.977Z</time>
      </trkpt>
      <trkpt lat="48.23438" lon="3.2341">
        <ele>177</ele>
        <time>2024-05-23T09:54:10.146Z</time>
      </trkpt>
      <trkpt lat="48.23436" lon="3.23404">
        <ele>177</ele>
        <time>2024-05-23T09:54:14.698Z</time>
      </trkpt>
      <trkpt lat="48.23433" lon="3.23396">
        <ele>177</ele>
        <time>2024-05-23T09:54:19.057Z</time>
      </trkpt>
      <trkpt lat="48.23431" lon="3.23396">
        <ele>177</ele>
        <time>2024-05-23T09:54:23.146Z</time>
      </trkpt>
      <trkpt lat="48.2343" lon="3.2339">
        <ele>176</ele>
        <time>2024-05-23T09:54:27.777Z</time>
      </trkpt>
      <trkpt lat="48.23422" lon="3.23376">
        <ele>176</ele>
        <time>2024-05-23T09:55:04.146Z</time>
      </trkpt>
      <trkpt lat="48.23422" lon="3.23376">
        <ele>176</ele>
        <time>2024-05-23T09:55:09.146Z</time>
      </trkpt>
      <trkpt lat="48.23422" lon="3.23376">
        <ele>176</ele>
        <time>2024-05-23T09:55:14.146Z</time>
      </trkpt>
      <trkpt lat="48.23421" lon="3.23375">
        <ele>176</ele>
        <time>2024-05-23T09:55:19.144Z</time>
      </trkpt>
      <trkpt lat="48.23421" lon="3.23375">
        <ele>176</ele>
        <time>2024-05-23T09:55:23.144Z</time>
      </trkpt>
      <trkpt lat="48.23421" lon="3.23377">
        <ele>176</ele>
        <time>2024-05-23T09:55:27.597Z</time>
      </trkpt>
      <trkpt lat="48.23415" lon="3.2339">
        <ele>176</ele>
        <time>2024-05-23T09:55:32.014Z</time>
      </trkpt>
      <trkpt lat="48.23411" lon="3.23391">
        <ele>176</ele>
        <time>2024-05-23T09:55:36.553Z</time>
      </trkpt>
      <trkpt lat="48.23407" lon="3.23395">
        <ele>176</ele>
        <time>2024-05-23T09:55:40.979Z</time>
      </trkpt>
      <trkpt lat="48.23403" lon="3.23395">
        <ele>176</ele>
        <time>2024-05-23T09:55:46.143Z</time>
      </trkpt>
      <trkpt lat="48.23399" lon="3.23392">
        <ele>172</ele>
        <time>2024-05-23T09:55:51.138Z</time>
      </trkpt>
      <trkpt lat="48.23397" lon="3.23399">
        <ele>172</ele>
        <time>2024-05-23T09:55:55.596Z</time>
      </trkpt>
      <trkpt lat="48.23396" lon="3.23405">
        <ele>172</ele>
        <time>2024-05-23T09:56:00.146Z</time>
      </trkpt>
      <trkpt lat="48.23396" lon="3.23413">
        <ele>172</ele>
        <time>2024-05-23T09:56:04.577Z</time>
      </trkpt>
      <trkpt lat="48.23394" lon="3.23419">
        <ele>172</ele>
        <time>2024-05-23T09:56:09.145Z</time>
      </trkpt>
      <trkpt lat="48.23392" lon="3.23423">
        <ele>172</ele>
        <time>2024-05-23T09:56:13.146Z</time>
      </trkpt>
      <trkpt lat="48.23389" lon="3.23429">
        <ele>172</ele>
        <time>2024-05-23T09:56:18.146Z</time>
      </trkpt>
      <trkpt lat="48.23387" lon="3.23435">
        <ele>172</ele>
        <time>2024-05-23T09:56:22.833Z</time>
      </trkpt>
      <trkpt lat="48.23384" lon="3.23442">
        <ele>172</ele>
        <time>2024-05-23T09:56:27.142Z</time>
      </trkpt>
      <trkpt lat="48.23384" lon="3.23443">
        <ele>172</ele>
        <time>2024-05-23T09:56:27.923Z</time>
      </trkpt>
      <trkpt lat="48.23376" lon="3.23456">
        <ele>172</ele>
        <time>2024-05-23T09:56:36.681Z</time>
      </trkpt>
      <trkpt lat="48.23364" lon="3.23455">
        <ele>166</ele>
        <time>2024-05-23T09:57:40.139Z</time>
      </trkpt>
      <trkpt lat="48.23364" lon="3.23456">
        <ele>166</ele>
        <time>2024-05-23T09:57:45.138Z</time>
      </trkpt>
      <trkpt lat="48.23361" lon="3.23455">
        <ele>166</ele>
        <time>2024-05-23T09:57:50.146Z</time>
      </trkpt>
      <trkpt lat="48.23358" lon="3.23451">
        <ele>166</ele>
        <time>2024-05-23T09:57:54.141Z</time>
      </trkpt>
      <trkpt lat="48.23355" lon="3.2345">
        <ele>166</ele>
        <time>2024-05-23T09:57:58.137Z</time>
      </trkpt>
      <trkpt lat="48.23352" lon="3.23448">
        <ele>166</ele>
        <time>2024-05-23T09:58:02.144Z</time>
      </trkpt>
      <trkpt lat="48.23349" lon="3.23449">
        <ele>166</ele>
        <time>2024-05-23T09:58:06.661Z</time>
      </trkpt>
      <trkpt lat="48.23344" lon="3.23447">
        <ele>160</ele>
        <time>2024-05-23T09:58:11.141Z</time>
      </trkpt>
      <trkpt lat="48.23343" lon="3.23447">
        <ele>160</ele>
        <time>2024-05-23T09:58:15.976Z</time>
      </trkpt>
      <trkpt lat="48.23339" lon="3.23446">
        <ele>160</ele>
        <time>2024-05-23T09:58:20.062Z</time>
      </trkpt>
      <trkpt lat="48.23334" lon="3.2345">
        <ele>160</ele>
        <time>2024-05-23T09:58:24.724Z</time>
      </trkpt>
      <trkpt lat="48.23329" lon="3.23453">
        <ele>160</ele>
        <time>2024-05-23T09:58:29.146Z</time>
      </trkpt>
      <trkpt lat="48.23325" lon="3.23454">
        <ele>160</ele>
        <time>2024-05-23T09:58:33.181Z</time>
      </trkpt>
      <trkpt lat="48.23321" lon="3.23454">
        <ele>160</ele>
        <time>2024-05-23T09:58:37.420Z</time>
      </trkpt>
      <trkpt lat="48.23317" lon="3.23455">
        <ele>156</ele>
        <time>2024-05-23T09:58:41.898Z</time>
      </trkpt>
      <trkpt lat="48.23313" lon="3.23455">
        <ele>156</ele>
        <time>2024-05-23T09:58:46.082Z</time>
      </trkpt>
      <trkpt lat="48.2331" lon="3.2345">
        <ele>156</ele>
        <time>2024-05-23T09:58:50.641Z</time>
      </trkpt>
      <trkpt lat="48.23307" lon="3.23451">
        <ele>156</ele>
        <time>2024-05-23T09:58:54.746Z</time>
      </trkpt>
      <trkpt lat="48.233" lon="3.2346">
        <ele>154</ele>
        <time>2024-05-23T09:59:12.146Z</time>
      </trkpt>
      <trkpt lat="48.233" lon="3.2346">
        <ele>154</ele>
        <time>2024-05-23T09:59:17.139Z</time>
      </trkpt>
      <trkpt lat="48.23299" lon="3.2346">
        <ele>154</ele>
        <time>2024-05-23T09:59:22.140Z</time>
      </trkpt>
      <trkpt lat="48.23295" lon="3.23462">
        <ele>154</ele>
        <time>2024-05-23T09:59:27.139Z</time>
      </trkpt>
      <trkpt lat="48.23289" lon="3.23463">
        <ele>150</ele>
        <time>2024-05-23T09:59:31.214Z</time>
      </trkpt>
      <trkpt lat="48.23285" lon="3.23468">
        <ele>150</ele>
        <time>2024-05-23T09:59:35.777Z</time>
      </trkpt>
      <trkpt lat="48.23281" lon="3.23472">
        <ele>150</ele>
        <time>2024-05-23T09:59:39.814Z</time>
      </trkpt>
      <trkpt lat="48.23275" lon="3.23474">
        <ele>150</ele>
        <time>2024-05-23T09:59:44.320Z</time>
      </trkpt>
      <trkpt lat="48.2327" lon="3.23477">
        <ele>150</ele>
        <time>2024-05-23T09:59:48.956Z</time>
      </trkpt>
      <trkpt lat="48.23265" lon="3.23478">
        <ele>150</ele>
        <time>2024-05-23T09:59:53.115Z</time>
      </trkpt>
      <trkpt lat="48.23262" lon="3.23479">
        <ele>148</ele>
        <time>2024-05-23T09:59:57.438Z</time>
      </trkpt>
      <trkpt lat="48.23257" lon="3.23477">
        <ele>148</ele>
        <time>2024-05-23T10:00:02.146Z</time>
      </trkpt>
      <trkpt lat="48.23252" lon="3.23477">
        <ele>148</ele>
        <time>2024-05-23T10:00:06.734Z</time>
      </trkpt>
      <trkpt lat="48.23249" lon="3.23479">
        <ele>148</ele>
        <time>2024-05-23T10:00:11.140Z</time>
      </trkpt>
      <trkpt lat="48.23244" lon="3.23482">
        <ele>148</ele>
        <time>2024-05-23T10:00:16.021Z</time>
      </trkpt>
      <trkpt lat="48.2324" lon="3.23483">
        <ele>148</ele>
        <time>2024-05-23T10:00:20.146Z</time>
      </trkpt>
      <trkpt lat="48.23235" lon="3.23482">
        <ele>144</ele>
        <time>2024-05-23T10:00:24.905Z</time>
      </trkpt>
      <trkpt lat="48.2323" lon="3.23482">
        <ele>144</ele>
        <time>2024-05-23T10:00:29.142Z</time>
      </trkpt>
      <trkpt lat="48.23226" lon="3.23484">
        <ele>144</ele>
        <time>2024-05-23T10:00:33.642Z</time>
      </trkpt>
      <trkpt lat="48.23222" lon="3.23485">
        <ele>144</ele>
        <time>2024-05-23T10:00:37.626Z</time>
      </trkpt>
      <trkpt lat="48.23219" lon="3.23487">
        <ele>137</ele>
        <time>2024-05-23T10:00:42.146Z</time>
      </trkpt>
      <trkpt lat="48.23213" lon="3.23489">
        <ele>137</ele>
        <time>2024-05-23T10:00:47.139Z</time>
      </trkpt>
      <trkpt lat="48.23208" lon="3.23493">
        <ele>136</ele>
        <time>2024-05-23T10:00:51.278Z</time>
      </trkpt>
      <trkpt lat="48.23204" lon="3.23496">
        <ele>136</ele>
        <time>2024-05-23T10:00:55.138Z</time>
      </trkpt>
      <trkpt lat="48.23199" lon="3.23498">
        <ele>136</ele>
        <time>2024-05-23T10:01:00.145Z</time>
      </trkpt>
      <trkpt lat="48.23194" lon="3.23499">
        <ele>136</ele>
        <time>2024-05-23T10:01:04.618Z</time>
      </trkpt>
      <trkpt lat="48.2319" lon="3.23501">
        <ele>136</ele>
        <time>2024-05-23T10:01:08.776Z</time>
      </trkpt>
      <trkpt lat="48.23187" lon="3.235">
        <ele>136</ele>
        <time>2024-05-23T10:01:13.090Z</time>
      </trkpt>
      <trkpt lat="48.23184" lon="3.23499">
        <ele>136</ele>
        <time>2024-05-23T10:01:17.630Z</time>
      </trkpt>
      <trkpt lat="48.23178" lon="3.23497">
        <ele>134</ele>
        <time>2024-05-23T10:01:22.142Z</time>
      </trkpt>
      <trkpt lat="48.23174" lon="3.23494">
        <ele>134</ele>
        <time>2024-05-23T10:01:26.556Z</time>
      </trkpt>
      <trkpt lat="48.23169" lon="3.23494">
        <ele>134</ele>
        <time>2024-05-23T10:01:30.800Z</time>
      </trkpt>
      <trkpt lat="48.23161" lon="3.23497">
        <ele>134</ele>
        <time>2024-05-23T10:01:35.858Z</time>
      </trkpt>
      <trkpt lat="48.23154" lon="3.23498">
        <ele>134</ele>
        <time>2024-05-23T10:01:40.057Z</time>
      </trkpt>
      <trkpt lat="48.23149" lon="3.23503">
        <ele>131</ele>
        <time>2024-05-23T10:01:44.386Z</time>
      </trkpt>
      <trkpt lat="48.23144" lon="3.23509">
        <ele>131</ele>
        <time>2024-05-23T10:01:48.719Z</time>
      </trkpt>
      <trkpt lat="48.23138" lon="3.23512">
        <ele>131</ele>
        <time>2024-05-23T10:01:53.136Z</time>
      </trkpt>
      <trkpt lat="48.23134" lon="3.23516">
        <ele>127</ele>
        <time>2024-05-23T10:01:57.456Z</time>
      </trkpt>
      <trkpt lat="48.23131" lon="3.23519">
        <ele>127</ele>
        <time>2024-05-23T10:02:01.518Z</time>
      </trkpt>
      <trkpt lat="48.23125" lon="3.23521">
        <ele>127</ele>
        <time>2024-05-23T10:02:06.033Z</time>
      </trkpt>
      <trkpt lat="48.23119" lon="3.23526">
        <ele>128</ele>
        <time>2024-05-23T10:02:10.146Z</time>
      </trkpt>
      <trkpt lat="48.23113" lon="3.2353">
        <ele>128</ele>
        <time>2024-05-23T10:02:14.635Z</time>
      </trkpt>
      <trkpt lat="48.23108" lon="3.23533">
        <ele>128</ele>
        <time>2024-05-23T10:02:19.096Z</time>
      </trkpt>
      <trkpt lat="48.23102" lon="3.23535">
        <ele>128</ele>
        <time>2024-05-23T10:02:24.142Z</time>
      </trkpt>
      <trkpt lat="48.23099" lon="3.23538">
        <ele>128</ele>
        <time>2024-05-23T10:02:28.278Z</time>
      </trkpt>
      <trkpt lat="48.23095" lon="3.23544">
        <ele>124</ele>
        <time>2024-05-23T10:02:32.715Z</time>
      </trkpt>
      <trkpt lat="48.2309" lon="3.23546">
        <ele>124</ele>
        <time>2024-05-23T10:02:37.146Z</time>
      </trkpt>
      <trkpt lat="48.23086" lon="3.2355">
        <ele>124</ele>
        <time>2024-05-23T10:02:41.538Z</time>
      </trkpt>
      <trkpt lat="48.23082" lon="3.23555">
        <ele>124</ele>
        <time>2024-05-23T10:02:45.779Z</time>
      </trkpt>
      <trkpt lat="48.23079" lon="3.2356">
        <ele>124</ele>
        <time>2024-05-23T10:02:49.994Z</time>
      </trkpt>
      <trkpt lat="48.23075" lon="3.23565">
        <ele>124</ele>
        <time>2024-05-23T10:02:54.874Z</time>
      </trkpt>
      <trkpt lat="48.23074" lon="3.2357">
        <ele>123</ele>
        <time>2024-05-23T10:02:59.144Z</time>
      </trkpt>
      <trkpt lat="48.23075" lon="3.23578">
        <ele>123</ele>
        <time>2024-05-23T10:03:04.139Z</time>
      </trkpt>
      <trkpt lat="48.23076" lon="3.23588">
        <ele>123</ele>
        <time>2024-05-23T10:03:08.637Z</time>
      </trkpt>
      <trkpt lat="48.23077" lon="3.23595">
        <ele>123</ele>
        <time>2024-05-23T10:03:12.998Z</time>
      </trkpt>
      <trkpt lat="48.23077" lon="3.236">
        <ele>122</ele>
        <time>2024-05-23T10:03:17.144Z</time>
      </trkpt>
      <trkpt lat="48.23077" lon="3.23603">
        <ele>122</ele>
        <time>2024-05-23T10:03:21.617Z</time>
      </trkpt>
      <trkpt lat="48.23077" lon="3.23608">
        <ele>122</ele>
        <time>2024-05-23T10:03:25.738Z</time>
      </trkpt>
      <trkpt lat="48.23076" lon="3.23616">
        <ele>122</ele>
        <time>2024-05-23T10:03:30.144Z</time>
      </trkpt>
      <trkpt lat="48.23076" lon="3.23624">
        <ele>122</ele>
        <time>2024-05-23T10:03:35.139Z</time>
      </trkpt>
      <trkpt lat="48.23075" lon="3.2363">
        <ele>121</ele>
        <time>2024-05-23T10:03:39.475Z</time>
      </trkpt>
      <trkpt lat="48.23075" lon="3.23636">
        <ele>121</ele>
        <time>2024-05-23T10:03:43.757Z</time>
      </trkpt>
      <trkpt lat="48.23073" lon="3.23642">
        <ele>121</ele>
        <time>2024-05-23T10:03:48.075Z</time>
      </trkpt>
      <trkpt lat="48.23072" lon="3.23648">
        <ele>121</ele>
        <time>2024-05-23T10:03:52.366Z</time>
      </trkpt>
      <trkpt lat="48.23071" lon="3.23654">
        <ele>120</ele>
        <time>2024-05-23T10:03:56.735Z</time>
      </trkpt>
      <trkpt lat="48.2307" lon="3.2366">
        <ele>120</ele>
        <time>2024-05-23T10:04:00.976Z</time>
      </trkpt>
      <trkpt lat="48.23069" lon="3.23666">
        <ele>128</ele>
        <time>2024-05-23T10:04:05.055Z</time>
      </trkpt>
      <trkpt lat="48.23067" lon="3.23674">
        <ele>128</ele>
        <time>2024-05-23T10:04:09.516Z</time>
      </trkpt>
      <trkpt lat="48.23066" lon="3.23681">
        <ele>127</ele>
        <time>2024-05-23T10:04:13.554Z</time>
      </trkpt>
      <trkpt lat="48.23066" lon="3.23688">
        <ele>127</ele>
        <time>2024-05-23T10:04:18.033Z</time>
      </trkpt>
      <trkpt lat="48.23065" lon="3.23696">
        <ele>127</ele>
        <time>2024-05-23T10:04:22.146Z</time>
      </trkpt>
      <trkpt lat="48.23064" lon="3.23703">
        <ele>127</ele>
        <time>2024-05-23T10:04:26.436Z</time>
      </trkpt>
      <trkpt lat="48.23063" lon="3.23711">
        <ele>126</ele>
        <time>2024-05-23T10:04:31.138Z</time>
      </trkpt>
      <trkpt lat="48.23063" lon="3.23718">
        <ele>126</ele>
        <time>2024-05-23T10:04:35.514Z</time>
      </trkpt>
      <trkpt lat="48.23062" lon="3.23726">
        <ele>126</ele>
        <time>2024-05-23T10:04:40.096Z</time>
      </trkpt>
      <trkpt lat="48.23062" lon="3.23734">
        <ele>126</ele>
        <time>2024-05-23T10:04:44.694Z</time>
      </trkpt>
      <trkpt lat="48.23061" lon="3.23742">
        <ele>124</ele>
        <time>2024-05-23T10:04:49.143Z</time>
      </trkpt>
      <trkpt lat="48.2306" lon="3.2375">
        <ele>124</ele>
        <time>2024-05-23T10:04:53.654Z</time>
      </trkpt>
      <trkpt lat="48.2306" lon="3.23759">
        <ele>124</ele>
        <time>2024-05-23T10:04:58.144Z</time>
      </trkpt>
      <trkpt lat="48.2306" lon="3.23766">
        <ele>120</ele>
        <time>2024-05-23T10:05:02.639Z</time>
      </trkpt>
      <trkpt lat="48.2306" lon="3.23774">
        <ele>120</ele>
        <time>2024-05-23T10:05:07.141Z</time>
      </trkpt>
      <trkpt lat="48.2306" lon="3.23781">
        <ele>120</ele>
        <time>2024-05-23T10:05:11.844Z</time>
      </trkpt>
      <trkpt lat="48.2306" lon="3.23788">
        <ele>120</ele>
        <time>2024-05-23T10:05:15.999Z</time>
      </trkpt>
      <trkpt lat="48.23061" lon="3.23794">
        <ele>117</ele>
        <time>2024-05-23T10:05:20.674Z</time>
      </trkpt>
      <trkpt lat="48.23058" lon="3.23797">
        <ele>117</ele>
        <time>2024-05-23T10:05:25.140Z</time>
      </trkpt>
      <trkpt lat="48.23053" lon="3.23799">
        <ele>117</ele>
        <time>2024-05-23T10:05:29.539Z</time>
      </trkpt>
      <trkpt lat="48.23049" lon="3.238">
        <ele>117</ele>
        <time>2024-05-23T10:05:33.591Z</time>
      </trkpt>
      <trkpt lat="48.23044" lon="3.23801">
        <ele>117</ele>
        <time>2024-05-23T10:05:38.080Z</time>
      </trkpt>
      <trkpt lat="48.2304" lon="3.23802">
        <ele>126</ele>
        <time>2024-05-23T10:05:42.594Z</time>
      </trkpt>
      <trkpt lat="48.23036" lon="3.23802">
        <ele>126</ele>
        <time>2024-05-23T10:05:46.678Z</time>
      </trkpt>
      <trkpt lat="48.23032" lon="3.23803">
        <ele>126</ele>
        <time>2024-05-23T10:05:50.757Z</time>
      </trkpt>
      <trkpt lat="48.23028" lon="3.23804">
        <ele>126</ele>
        <time>2024-05-23T10:05:55.032Z</time>
      </trkpt>
      <trkpt lat="48.23024" lon="3.23806">
        <ele>126</ele>
        <time>2024-05-23T10:05:59.441Z</time>
      </trkpt>
      <trkpt lat="48.23019" lon="3.23807">
        <ele>126</ele>
        <time>2024-05-23T10:06:03.658Z</time>
      </trkpt>
      <trkpt lat="48.23016" lon="3.23808">
        <ele>126</ele>
        <time>2024-05-23T10:06:07.695Z</time>
      </trkpt>
      <trkpt lat="48.23012" lon="3.23811">
        <ele>133</ele>
        <time>2024-05-23T10:06:11.738Z</time>
      </trkpt>
      <trkpt lat="48.23008" lon="3.23813">
        <ele>133</ele>
        <time>2024-05-23T10:06:16.012Z</time>
      </trkpt>
      <trkpt lat="48.23004" lon="3.23816">
        <ele>133</ele>
        <time>2024-05-23T10:06:20.312Z</time>
      </trkpt>
      <trkpt lat="48.23001" lon="3.23821">
        <ele>126</ele>
        <time>2024-05-23T10:06:24.578Z</time>
      </trkpt>
      <trkpt lat="48.22999" lon="3.23828">
        <ele>126</ele>
        <time>2024-05-23T10:06:28.735Z</time>
      </trkpt>
      <trkpt lat="48.22997" lon="3.23835">
        <ele>126</ele>
        <time>2024-05-23T10:06:32.880Z</time>
      </trkpt>
      <trkpt lat="48.22995" lon="3.23842">
        <ele>126</ele>
        <time>2024-05-23T10:06:36.932Z</time>
      </trkpt>
      <trkpt lat="48.22994" lon="3.23849">
        <ele>122</ele>
        <time>2024-05-23T10:06:41.139Z</time>
      </trkpt>
      <trkpt lat="48.22994" lon="3.23857">
        <ele>122</ele>
        <time>2024-05-23T10:06:45.367Z</time>
      </trkpt>
      <trkpt lat="48.22993" lon="3.23866">
        <ele>122</ele>
        <time>2024-05-23T10:06:49.814Z</time>
      </trkpt>
      <trkpt lat="48.22992" lon="3.23874">
        <ele>122</ele>
        <time>2024-05-23T10:06:54.396Z</time>
      </trkpt>
      <trkpt lat="48.22992" lon="3.23882">
        <ele>121</ele>
        <time>2024-05-23T10:06:58.935Z</time>
      </trkpt>
      <trkpt lat="48.22993" lon="3.23892">
        <ele>121</ele>
        <time>2024-05-23T10:07:04.011Z</time>
      </trkpt>
      <trkpt lat="48.22994" lon="3.23899">
        <ele>121</ele>
        <time>2024-05-23T10:07:08.040Z</time>
      </trkpt>
      <trkpt lat="48.22992" lon="3.23907">
        <ele>121</ele>
        <time>2024-05-23T10:07:12.497Z</time>
      </trkpt>
      <trkpt lat="48.22993" lon="3.23914">
        <ele>121</ele>
        <time>2024-05-23T10:07:17.141Z</time>
      </trkpt>
      <trkpt lat="48.22995" lon="3.23923">
        <ele>121</ele>
        <time>2024-05-23T10:07:21.737Z</time>
      </trkpt>
      <trkpt lat="48.22995" lon="3.2393">
        <ele>121</ele>
        <time>2024-05-23T10:07:25.916Z</time>
      </trkpt>
      <trkpt lat="48.22995" lon="3.2393">
        <ele>121</ele>
        <time>2024-05-23T10:07:33.135Z</time>
      </trkpt>
      <trkpt lat="48.22994" lon="3.23929">
        <ele>121</ele>
        <time>2024-05-23T10:07:42.137Z</time>
      </trkpt>
      <trkpt lat="48.22994" lon="3.23929">
        <ele>121</ele>
        <time>2024-05-23T10:07:46.875Z</time>
      </trkpt>
      <trkpt lat="48.22995" lon="3.23939">
        <ele>120</ele>
        <time>2024-05-23T10:07:51.636Z</time>
      </trkpt>
      <trkpt lat="48.22995" lon="3.23947">
        <ele>120</ele>
        <time>2024-05-23T10:07:55.978Z</time>
      </trkpt>
      <trkpt lat="48.22995" lon="3.23952">
        <ele>120</ele>
        <time>2024-05-23T10:08:00.139Z</time>
      </trkpt>
      <trkpt lat="48.22996" lon="3.23959">
        <ele>121</ele>
        <time>2024-05-23T10:08:04.459Z</time>
      </trkpt>
      <trkpt lat="48.22997" lon="3.23967">
        <ele>121</ele>
        <time>2024-05-23T10:08:09.034Z</time>
      </trkpt>
      <trkpt lat="48.22998" lon="3.23974">
        <ele>121</ele>
        <time>2024-05-23T10:08:13.146Z</time>
      </trkpt>
      <trkpt lat="48.22999" lon="3.2398">
        <ele>121</ele>
        <time>2024-05-23T10:08:17.358Z</time>
      </trkpt>
      <trkpt lat="48.23002" lon="3.23987">
        <ele>119</ele>
        <time>2024-05-23T10:08:21.414Z</time>
      </trkpt>
      <trkpt lat="48.23002" lon="3.23996">
        <ele>119</ele>
        <time>2024-05-23T10:08:25.635Z</time>
      </trkpt>
      <trkpt lat="48.23002" lon="3.24004">
        <ele>119</ele>
        <time>2024-05-23T10:08:29.756Z</time>
      </trkpt>
      <trkpt lat="48.23004" lon="3.24012">
        <ele>119</ele>
        <time>2024-05-23T10:08:33.937Z</time>
      </trkpt>
      <trkpt lat="48.23005" lon="3.24018">
        <ele>122</ele>
        <time>2024-05-23T10:08:38.146Z</time>
      </trkpt>
      <trkpt lat="48.23006" lon="3.24026">
        <ele>122</ele>
        <time>2024-05-23T10:08:42.272Z</time>
      </trkpt>
      <trkpt lat="48.23005" lon="3.24033">
        <ele>122</ele>
        <time>2024-05-23T10:08:46.419Z</time>
      </trkpt>
      <trkpt lat="48.23006" lon="3.2404">
        <ele>122</ele>
        <time>2024-05-23T10:08:50.659Z</time>
      </trkpt>
      <trkpt lat="48.23007" lon="3.24046">
        <ele>124</ele>
        <time>2024-05-23T10:08:55.145Z</time>
      </trkpt>
      <trkpt lat="48.23009" lon="3.24053">
        <ele>124</ele>
        <time>2024-05-23T10:08:59.532Z</time>
      </trkpt>
      <trkpt lat="48.23009" lon="3.2406">
        <ele>124</ele>
        <time>2024-05-23T10:09:03.857Z</time>
      </trkpt>
      <trkpt lat="48.23011" lon="3.24067">
        <ele>124</ele>
        <time>2024-05-23T10:09:08.515Z</time>
      </trkpt>
      <trkpt lat="48.23012" lon="3.24074">
        <ele>126</ele>
        <time>2024-05-23T10:09:12.620Z</time>
      </trkpt>
      <trkpt lat="48.23013" lon="3.24081">
        <ele>126</ele>
        <time>2024-05-23T10:09:17.145Z</time>
      </trkpt>
      <trkpt lat="48.23014" lon="3.24089">
        <ele>116</ele>
        <time>2024-05-23T10:09:22.114Z</time>
      </trkpt>
      <trkpt lat="48.23015" lon="3.24096">
        <ele>116</ele>
        <time>2024-05-23T10:09:26.141Z</time>
      </trkpt>
      <trkpt lat="48.23015" lon="3.24104">
        <ele>118</ele>
        <time>2024-05-23T10:09:30.360Z</time>
      </trkpt>
      <trkpt lat="48.23015" lon="3.2411">
        <ele>118</ele>
        <time>2024-05-23T10:09:34.513Z</time>
      </trkpt>
      <trkpt lat="48.23017" lon="3.24118">
        <ele>118</ele>
        <time>2024-05-23T10:09:39.059Z</time>
      </trkpt>
      <trkpt lat="48.23018" lon="3.24125">
        <ele>118</ele>
        <time>2024-05-23T10:09:43.141Z</time>
      </trkpt>
      <trkpt lat="48.2302" lon="3.24132">
        <ele>118</ele>
        <time>2024-05-23T10:09:47.334Z</time>
      </trkpt>
      <trkpt lat="48.23021" lon="3.24139">
        <ele>118</ele>
        <time>2024-05-23T10:09:51.395Z</time>
      </trkpt>
      <trkpt lat="48.23022" lon="3.24146">
        <ele>118</ele>
        <time>2024-05-23T10:09:55.457Z</time>
      </trkpt>
      <trkpt lat="48.23023" lon="3.24154">
        <ele>117</ele>
        <time>2024-05-23T10:10:00.071Z</time>
      </trkpt>
      <trkpt lat="48.23024" lon="3.24161">
        <ele>117</ele>
        <time>2024-05-23T10:10:04.146Z</time>
      </trkpt>
      <trkpt lat="48.23024" lon="3.24168">
        <ele>117</ele>
        <time>2024-05-23T10:10:08.298Z</time>
      </trkpt>
      <trkpt lat="48.23025" lon="3.24175">
        <ele>117</ele>
        <time>2024-05-23T10:10:12.853Z</time>
      </trkpt>
      <trkpt lat="48.23026" lon="3.24183">
        <ele>116</ele>
        <time>2024-05-23T10:10:17.144Z</time>
      </trkpt>
      <trkpt lat="48.23028" lon="3.2419">
        <ele>116</ele>
        <time>2024-05-23T10:10:21.657Z</time>
      </trkpt>
      <trkpt lat="48.23029" lon="3.24196">
        <ele>116</ele>
        <time>2024-05-23T10:10:25.751Z</time>
      </trkpt>
      <trkpt lat="48.2303" lon="3.24203">
        <ele>116</ele>
        <time>2024-05-23T10:10:29.974Z</time>
      </trkpt>
      <trkpt lat="48.2303" lon="3.2421">
        <ele>116</ele>
        <time>2024-05-23T10:10:34.139Z</time>
      </trkpt>
      <trkpt lat="48.23031" lon="3.24217">
        <ele>116</ele>
        <time>2024-05-23T10:10:38.797Z</time>
      </trkpt>
      <trkpt lat="48.23032" lon="3.24224">
        <ele>116</ele>
        <time>2024-05-23T10:10:42.832Z</time>
      </trkpt>
      <trkpt lat="48.23033" lon="3.24231">
        <ele>116</ele>
        <time>2024-05-23T10:10:46.997Z</time>
      </trkpt>
      <trkpt lat="48.23035" lon="3.24236">
        <ele>115</ele>
        <time>2024-05-23T10:10:51.140Z</time>
      </trkpt>
      <trkpt lat="48.23036" lon="3.24244">
        <ele>115</ele>
        <time>2024-05-23T10:10:55.818Z</time>
      </trkpt>
      <trkpt lat="48.23037" lon="3.24251">
        <ele>115</ele>
        <time>2024-05-23T10:10:59.999Z</time>
      </trkpt>
      <trkpt lat="48.23038" lon="3.24256">
        <ele>115</ele>
        <time>2024-05-23T10:11:04.142Z</time>
      </trkpt>
      <trkpt lat="48.23039" lon="3.24263">
        <ele>115</ele>
        <time>2024-05-23T10:11:08.879Z</time>
      </trkpt>
      <trkpt lat="48.23039" lon="3.24269">
        <ele>113</ele>
        <time>2024-05-23T10:11:13.854Z</time>
      </trkpt>
      <trkpt lat="48.23039" lon="3.24275">
        <ele>113</ele>
        <time>2024-05-23T10:11:18.143Z</time>
      </trkpt>
      <trkpt lat="48.23039" lon="3.24281">
        <ele>113</ele>
        <time>2024-05-23T10:11:23.146Z</time>
      </trkpt>
      <trkpt lat="48.23038" lon="3.24287">
        <ele>113</ele>
        <time>2024-05-23T10:11:27.998Z</time>
      </trkpt>
      <trkpt lat="48.23038" lon="3.24294">
        <ele>111</ele>
        <time>2024-05-23T10:11:32.140Z</time>
      </trkpt>
      <trkpt lat="48.23037" lon="3.243">
        <ele>111</ele>
        <time>2024-05-23T10:11:36.435Z</time>
      </trkpt>
      <trkpt lat="48.23037" lon="3.24307">
        <ele>111</ele>
        <time>2024-05-23T10:11:40.675Z</time>
      </trkpt>
      <trkpt lat="48.23029" lon="3.24315">
        <ele>111</ele>
        <time>2024-05-23T10:13:50.875Z</time>
      </trkpt>
      <trkpt lat="48.23029" lon="3.24312">
        <ele>111</ele>
        <time>2024-05-23T10:13:55.146Z</time>
      </trkpt>
      <trkpt lat="48.23028" lon="3.24313">
        <ele>111</ele>
        <time>2024-05-23T10:13:59.146Z</time>
      </trkpt>
      <trkpt lat="48.23028" lon="3.24312">
        <ele>111</ele>
        <time>2024-05-23T10:14:04.139Z</time>
      </trkpt>
      <trkpt lat="48.23027" lon="3.24308">
        <ele>111</ele>
        <time>2024-05-23T10:14:08.140Z</time>
      </trkpt>
      <trkpt lat="48.23024" lon="3.243">
        <ele>111</ele>
        <time>2024-05-23T10:14:13.146Z</time>
      </trkpt>
      <trkpt lat="48.2302" lon="3.24293">
        <ele>111</ele>
        <time>2024-05-23T10:14:18.144Z</time>
      </trkpt>
      <trkpt lat="48.23018" lon="3.24288">
        <ele>113</ele>
        <time>2024-05-23T10:14:22.715Z</time>
      </trkpt>
      <trkpt lat="48.23015" lon="3.24282">
        <ele>113</ele>
        <time>2024-05-23T10:14:26.956Z</time>
      </trkpt>
      <trkpt lat="48.23012" lon="3.24278">
        <ele>114</ele>
        <time>2024-05-23T10:14:31.143Z</time>
      </trkpt>
      <trkpt lat="48.23009" lon="3.24273">
        <ele>114</ele>
        <time>2024-05-23T10:14:35.436Z</time>
      </trkpt>
      <trkpt lat="48.23005" lon="3.24267">
        <ele>114</ele>
        <time>2024-05-23T10:14:39.899Z</time>
      </trkpt>
      <trkpt lat="48.23002" lon="3.24263">
        <ele>119</ele>
        <time>2024-05-23T10:14:44.135Z</time>
      </trkpt>
      <trkpt lat="48.22997" lon="3.24257">
        <ele>119</ele>
        <time>2024-05-23T10:14:48.499Z</time>
      </trkpt>
      <trkpt lat="48.22993" lon="3.24252">
        <ele>119</ele>
        <time>2024-05-23T10:14:53.146Z</time>
      </trkpt>
      <trkpt lat="48.2299" lon="3.24246">
        <ele>119</ele>
        <time>2024-05-23T10:14:57.816Z</time>
      </trkpt>
      <trkpt lat="48.22987" lon="3.24241">
        <ele>119</ele>
        <time>2024-05-23T10:15:01.800Z</time>
      </trkpt>
      <trkpt lat="48.22983" lon="3.24237">
        <ele>116</ele>
        <time>2024-05-23T10:15:06.142Z</time>
      </trkpt>
      <trkpt lat="48.22979" lon="3.24231">
        <ele>122</ele>
        <time>2024-05-23T10:15:11.032Z</time>
      </trkpt>
      <trkpt lat="48.22975" lon="3.24226">
        <ele>122</ele>
        <time>2024-05-23T10:15:15.146Z</time>
      </trkpt>
      <trkpt lat="48.22971" lon="3.2422">
        <ele>122</ele>
        <time>2024-05-23T10:15:20.144Z</time>
      </trkpt>
      <trkpt lat="48.22968" lon="3.24212">
        <ele>122</ele>
        <time>2024-05-23T10:16:04.144Z</time>
      </trkpt>
      <trkpt lat="48.22965" lon="3.2421">
        <ele>122</ele>
        <time>2024-05-23T10:16:08.315Z</time>
      </trkpt>
      <trkpt lat="48.22961" lon="3.24205">
        <ele>125</ele>
        <time>2024-05-23T10:16:12.997Z</time>
      </trkpt>
      <trkpt lat="48.2296" lon="3.242">
        <ele>125</ele>
        <time>2024-05-23T10:16:17.141Z</time>
      </trkpt>
      <trkpt lat="48.22958" lon="3.24193">
        <ele>125</ele>
        <time>2024-05-23T10:16:21.141Z</time>
      </trkpt>
      <trkpt lat="48.22953" lon="3.24181">
        <ele>120</ele>
        <time>2024-05-23T10:16:55.146Z</time>
      </trkpt>
      <trkpt lat="48.22953" lon="3.2418">
        <ele>126</ele>
        <time>2024-05-23T10:16:59.915Z</time>
      </trkpt>
      <trkpt lat="48.22953" lon="3.24174">
        <ele>126</ele>
        <time>2024-05-23T10:17:03.977Z</time>
      </trkpt>
      <trkpt lat="48.22953" lon="3.24165">
        <ele>126</ele>
        <time>2024-05-23T10:17:08.534Z</time>
      </trkpt>
      <trkpt lat="48.22951" lon="3.24159">
        <ele>126</ele>
        <time>2024-05-23T10:17:12.543Z</time>
      </trkpt>
      <trkpt lat="48.22949" lon="3.24151">
        <ele>129</ele>
        <time>2024-05-23T10:17:43.142Z</time>
      </trkpt>
      <trkpt lat="48.22949" lon="3.24145">
        <ele>129</ele>
        <time>2024-05-23T10:17:47.664Z</time>
      </trkpt>
      <trkpt lat="48.22949" lon="3.24137">
        <ele>129</ele>
        <time>2024-05-23T10:17:52.146Z</time>
      </trkpt>
      <trkpt lat="48.22947" lon="3.2413">
        <ele>129</ele>
        <time>2024-05-23T10:17:56.146Z</time>
      </trkpt>
      <trkpt lat="48.22944" lon="3.24123">
        <ele>132</ele>
        <time>2024-05-23T10:18:01.138Z</time>
      </trkpt>
      <trkpt lat="48.22943" lon="3.24116">
        <ele>132</ele>
        <time>2024-05-23T10:18:05.245Z</time>
      </trkpt>
      <trkpt lat="48.22942" lon="3.24109">
        <ele>132</ele>
        <time>2024-05-23T10:18:09.476Z</time>
      </trkpt>
      <trkpt lat="48.22942" lon="3.24101">
        <ele>132</ele>
        <time>2024-05-23T10:18:13.634Z</time>
      </trkpt>
      <trkpt lat="48.22941" lon="3.24095">
        <ele>134</ele>
        <time>2024-05-23T10:18:17.762Z</time>
      </trkpt>
      <trkpt lat="48.2294" lon="3.24088">
        <ele>134</ele>
        <time>2024-05-23T10:18:22.402Z</time>
      </trkpt>
      <trkpt lat="48.22938" lon="3.24081">
        <ele>134</ele>
        <time>2024-05-23T10:18:26.638Z</time>
      </trkpt>
      <trkpt lat="48.22937" lon="3.24073">
        <ele>134</ele>
        <time>2024-05-23T10:18:31.143Z</time>
      </trkpt>
      <trkpt lat="48.22936" lon="3.24065">
        <ele>135</ele>
        <time>2024-05-23T10:18:35.659Z</time>
      </trkpt>
      <trkpt lat="48.22934" lon="3.24058">
        <ele>135</ele>
        <time>2024-05-23T10:18:40.146Z</time>
      </trkpt>
      <trkpt lat="48.22932" lon="3.24049">
        <ele>135</ele>
        <time>2024-05-23T10:18:44.961Z</time>
      </trkpt>
      <trkpt lat="48.22929" lon="3.24043">
        <ele>133</ele>
        <time>2024-05-23T10:18:49.141Z</time>
      </trkpt>
      <trkpt lat="48.22926" lon="3.24035">
        <ele>134</ele>
        <time>2024-05-23T10:18:54.142Z</time>
      </trkpt>
      <trkpt lat="48.22925" lon="3.24028">
        <ele>134</ele>
        <time>2024-05-23T10:18:58.340Z</time>
      </trkpt>
      <trkpt lat="48.22922" lon="3.24022">
        <ele>134</ele>
        <time>2024-05-23T10:19:02.395Z</time>
      </trkpt>
      <trkpt lat="48.22919" lon="3.24015">
        <ele>134</ele>
        <time>2024-05-23T10:19:06.555Z</time>
      </trkpt>
      <trkpt lat="48.22918" lon="3.24008">
        <ele>134</ele>
        <time>2024-05-23T10:19:10.674Z</time>
      </trkpt>
      <trkpt lat="48.22916" lon="3.24">
        <ele>134</ele>
        <time>2024-05-23T10:19:15.142Z</time>
      </trkpt>
      <trkpt lat="48.22915" lon="3.23992">
        <ele>134</ele>
        <time>2024-05-23T10:19:19.560Z</time>
      </trkpt>
      <trkpt lat="48.22914" lon="3.23984">
        <ele>135</ele>
        <time>2024-05-23T10:19:24.019Z</time>
      </trkpt>
      <trkpt lat="48.22912" lon="3.23979">
        <ele>135</ele>
        <time>2024-05-23T10:19:28.146Z</time>
      </trkpt>
      <trkpt lat="48.22912" lon="3.23973">
        <ele>135</ele>
        <time>2024-05-23T10:19:32.776Z</time>
      </trkpt>
      <trkpt lat="48.22912" lon="3.23966">
        <ele>135</ele>
        <time>2024-05-23T10:19:37.135Z</time>
      </trkpt>
      <trkpt lat="48.22912" lon="3.23958">
        <ele>135</ele>
        <time>2024-05-23T10:19:41.452Z</time>
      </trkpt>
      <trkpt lat="48.22911" lon="3.23951">
        <ele>135</ele>
        <time>2024-05-23T10:19:45.724Z</time>
      </trkpt>
      <trkpt lat="48.22911" lon="3.23944">
        <ele>135</ele>
        <time>2024-05-23T10:19:49.934Z</time>
      </trkpt>
      <trkpt lat="48.2291" lon="3.23937">
        <ele>135</ele>
        <time>2024-05-23T10:19:54.146Z</time>
      </trkpt>
      <trkpt lat="48.22909" lon="3.23929">
        <ele>136</ele>
        <time>2024-05-23T10:19:58.997Z</time>
      </trkpt>
      <trkpt lat="48.2291" lon="3.23922">
        <ele>136</ele>
        <time>2024-05-23T10:20:03.390Z</time>
      </trkpt>
      <trkpt lat="48.22911" lon="3.23916">
        <ele>136</ele>
        <time>2024-05-23T10:20:07.574Z</time>
      </trkpt>
      <trkpt lat="48.22912" lon="3.23909">
        <ele>136</ele>
        <time>2024-05-23T10:20:11.779Z</time>
      </trkpt>
      <trkpt lat="48.22912" lon="3.23905">
        <ele>136</ele>
        <time>2024-05-23T10:20:16.140Z</time>
      </trkpt>
      <trkpt lat="48.22911" lon="3.23901">
        <ele>137</ele>
        <time>2024-05-23T10:20:21.039Z</time>
      </trkpt>
      <trkpt lat="48.22916" lon="3.23886">
        <ele>137</ele>
        <time>2024-05-23T10:20:43.137Z</time>
      </trkpt>
      <trkpt lat="48.22918" lon="3.23885">
        <ele>137</ele>
        <time>2024-05-23T10:20:48.138Z</time>
      </trkpt>
      <trkpt lat="48.22918" lon="3.23872">
        <ele>138</ele>
        <time>2024-05-23T10:20:53.135Z</time>
      </trkpt>
      <trkpt lat="48.22919" lon="3.23865">
        <ele>138</ele>
        <time>2024-05-23T10:20:57.779Z</time>
      </trkpt>
      <trkpt lat="48.2292" lon="3.23858">
        <ele>138</ele>
        <time>2024-05-23T10:21:02.145Z</time>
      </trkpt>
      <trkpt lat="48.22922" lon="3.23851">
        <ele>138</ele>
        <time>2024-05-23T10:21:06.671Z</time>
      </trkpt>
      <trkpt lat="48.22924" lon="3.23843">
        <ele>141</ele>
        <time>2024-05-23T10:21:10.734Z</time>
      </trkpt>
      <trkpt lat="48.22926" lon="3.23834">
        <ele>141</ele>
        <time>2024-05-23T10:21:15.146Z</time>
      </trkpt>
      <trkpt lat="48.22926" lon="3.23827">
        <ele>141</ele>
        <time>2024-05-23T10:21:20.096Z</time>
      </trkpt>
      <trkpt lat="48.22927" lon="3.2382">
        <ele>141</ele>
        <time>2024-05-23T10:21:24.139Z</time>
      </trkpt>
      <trkpt lat="48.22928" lon="3.23812">
        <ele>143</ele>
        <time>2024-05-23T10:21:28.415Z</time>
      </trkpt>
      <trkpt lat="48.22927" lon="3.23804">
        <ele>143</ele>
        <time>2024-05-23T10:21:32.879Z</time>
      </trkpt>
      <trkpt lat="48.22927" lon="3.23796">
        <ele>143</ele>
        <time>2024-05-23T10:21:37.395Z</time>
      </trkpt>
      <trkpt lat="48.22927" lon="3.23787">
        <ele>146</ele>
        <time>2024-05-23T10:21:42.035Z</time>
      </trkpt>
      <trkpt lat="48.22926" lon="3.23779">
        <ele>146</ele>
        <time>2024-05-23T10:21:46.143Z</time>
      </trkpt>
      <trkpt lat="48.22926" lon="3.23771">
        <ele>146</ele>
        <time>2024-05-23T10:21:51.140Z</time>
      </trkpt>
      <trkpt lat="48.22924" lon="3.23762">
        <ele>147</ele>
        <time>2024-05-23T10:21:55.817Z</time>
      </trkpt>
      <trkpt lat="48.22923" lon="3.23755">
        <ele>147</ele>
        <time>2024-05-23T10:22:00.139Z</time>
      </trkpt>
      <trkpt lat="48.22922" lon="3.23747">
        <ele>147</ele>
        <time>2024-05-23T10:22:05.145Z</time>
      </trkpt>
      <trkpt lat="48.22921" lon="3.23739">
        <ele>147</ele>
        <time>2024-05-23T10:22:09.718Z</time>
      </trkpt>
      <trkpt lat="48.22921" lon="3.23732">
        <ele>147</ele>
        <time>2024-05-23T10:22:13.916Z</time>
      </trkpt>
      <trkpt lat="48.2292" lon="3.23725">
        <ele>147</ele>
        <time>2024-05-23T10:22:18.439Z</time>
      </trkpt>
      <trkpt lat="48.22918" lon="3.23718">
        <ele>147</ele>
        <time>2024-05-23T10:22:22.757Z</time>
      </trkpt>
      <trkpt lat="48.22916" lon="3.23711">
        <ele>147</ele>
        <time>2024-05-23T10:22:27.138Z</time>
      </trkpt>
      <trkpt lat="48.22915" lon="3.23704">
        <ele>146</ele>
        <time>2024-05-23T10:22:31.631Z</time>
      </trkpt>
      <trkpt lat="48.22915" lon="3.23698">
        <ele>146</ele>
        <time>2024-05-23T10:22:36.034Z</time>
      </trkpt>
      <trkpt lat="48.22913" lon="3.23691">
        <ele>146</ele>
        <time>2024-05-23T10:22:40.718Z</time>
      </trkpt>
      <trkpt lat="48.22911" lon="3.23687">
        <ele>146</ele>
        <time>2024-05-23T10:22:45.037Z</time>
      </trkpt>
      <trkpt lat="48.2291" lon="3.23679">
        <ele>147</ele>
        <time>2024-05-23T10:22:49.311Z</time>
      </trkpt>
      <trkpt lat="48.22909" lon="3.23674">
        <ele>147</ele>
        <time>2024-05-23T10:22:54.116Z</time>
      </trkpt>
      <trkpt lat="48.22907" lon="3.23668">
        <ele>147</ele>
        <time>2024-05-23T10:22:58.605Z</time>
      </trkpt>
      <trkpt lat="48.22907" lon="3.23661">
        <ele>147</ele>
        <time>2024-05-23T10:23:03.034Z</time>
      </trkpt>
      <trkpt lat="48.22908" lon="3.23654">
        <ele>147</ele>
        <time>2024-05-23T10:23:07.146Z</time>
      </trkpt>
      <trkpt lat="48.22908" lon="3.23646">
        <ele>147</ele>
        <time>2024-05-23T10:23:12.096Z</time>
      </trkpt>
      <trkpt lat="48.22906" lon="3.23641">
        <ele>147</ele>
        <time>2024-05-23T10:23:16.259Z</time>
      </trkpt>
      <trkpt lat="48.22905" lon="3.23634">
        <ele>147</ele>
        <time>2024-05-23T10:23:20.638Z</time>
      </trkpt>
      <trkpt lat="48.22905" lon="3.23627">
        <ele>147</ele>
        <time>2024-05-23T10:23:24.818Z</time>
      </trkpt>
      <trkpt lat="48.22905" lon="3.2362">
        <ele>147</ele>
        <time>2024-05-23T10:23:28.939Z</time>
      </trkpt>
      <trkpt lat="48.22903" lon="3.23614">
        <ele>147</ele>
        <time>2024-05-23T10:23:33.141Z</time>
      </trkpt>
      <trkpt lat="48.22902" lon="3.23608">
        <ele>146</ele>
        <time>2024-05-23T10:23:37.898Z</time>
      </trkpt>
      <trkpt lat="48.229" lon="3.23603">
        <ele>146</ele>
        <time>2024-05-23T10:23:42.292Z</time>
      </trkpt>
      <trkpt lat="48.22899" lon="3.23596">
        <ele>148</ele>
        <time>2024-05-23T10:23:46.617Z</time>
      </trkpt>
      <trkpt lat="48.22897" lon="3.23588">
        <ele>148</ele>
        <time>2024-05-23T10:23:51.054Z</time>
      </trkpt>
      <trkpt lat="48.22896" lon="3.23581">
        <ele>148</ele>
        <time>2024-05-23T10:23:55.146Z</time>
      </trkpt>
      <trkpt lat="48.22895" lon="3.23571">
        <ele>148</ele>
        <time>2024-05-23T10:23:59.775Z</time>
      </trkpt>
      <trkpt lat="48.22894" lon="3.23564">
        <ele>151</ele>
        <time>2024-05-23T10:24:04.144Z</time>
      </trkpt>
      <trkpt lat="48.22893" lon="3.23556">
        <ele>151</ele>
        <time>2024-05-23T10:24:08.836Z</time>
      </trkpt>
      <trkpt lat="48.22892" lon="3.23549">
        <ele>151</ele>
        <time>2024-05-23T10:24:13.034Z</time>
      </trkpt>
      <trkpt lat="48.2289" lon="3.23541">
        <ele>154</ele>
        <time>2024-05-23T10:24:17.294Z</time>
      </trkpt>
      <trkpt lat="48.22889" lon="3.23534">
        <ele>154</ele>
        <time>2024-05-23T10:24:21.349Z</time>
      </trkpt>
      <trkpt lat="48.22887" lon="3.23527">
        <ele>154</ele>
        <time>2024-05-23T10:24:25.577Z</time>
      </trkpt>
      <trkpt lat="48.22887" lon="3.23518">
        <ele>154</ele>
        <time>2024-05-23T10:24:30.116Z</time>
      </trkpt>
      <trkpt lat="48.22885" lon="3.23512">
        <ele>154</ele>
        <time>2024-05-23T10:24:34.136Z</time>
      </trkpt>
      <trkpt lat="48.22882" lon="3.23504">
        <ele>154</ele>
        <time>2024-05-23T10:24:38.631Z</time>
      </trkpt>
      <trkpt lat="48.2288" lon="3.23497">
        <ele>154</ele>
        <time>2024-05-23T10:24:43.141Z</time>
      </trkpt>
      <trkpt lat="48.22877" lon="3.2349">
        <ele>154</ele>
        <time>2024-05-23T10:24:47.932Z</time>
      </trkpt>
      <trkpt lat="48.22874" lon="3.23483">
        <ele>150</ele>
        <time>2024-05-23T10:24:52.538Z</time>
      </trkpt>
      <trkpt lat="48.22871" lon="3.23475">
        <ele>150</ele>
        <time>2024-05-23T10:24:56.924Z</time>
      </trkpt>
      <trkpt lat="48.22869" lon="3.23468">
        <ele>150</ele>
        <time>2024-05-23T10:25:01.144Z</time>
      </trkpt>
      <trkpt lat="48.22868" lon="3.23462">
        <ele>150</ele>
        <time>2024-05-23T10:25:05.527Z</time>
      </trkpt>
      <trkpt lat="48.2287" lon="3.23456">
        <ele>152</ele>
        <time>2024-05-23T10:25:09.859Z</time>
      </trkpt>
      <trkpt lat="48.2287" lon="3.2345">
        <ele>152</ele>
        <time>2024-05-23T10:25:13.946Z</time>
      </trkpt>
      <trkpt lat="48.22866" lon="3.23442">
        <ele>152</ele>
        <time>2024-05-23T10:25:19.081Z</time>
      </trkpt>
      <trkpt lat="48.22864" lon="3.23435">
        <ele>152</ele>
        <time>2024-05-23T10:25:23.146Z</time>
      </trkpt>
      <trkpt lat="48.22863" lon="3.23426">
        <ele>154</ele>
        <time>2024-05-23T10:25:27.861Z</time>
      </trkpt>
      <trkpt lat="48.22862" lon="3.23419">
        <ele>154</ele>
        <time>2024-05-23T10:25:32.138Z</time>
      </trkpt>
      <trkpt lat="48.2286" lon="3.23413">
        <ele>154</ele>
        <time>2024-05-23T10:25:36.744Z</time>
      </trkpt>
      <trkpt lat="48.22858" lon="3.23406">
        <ele>154</ele>
        <time>2024-05-23T10:25:40.821Z</time>
      </trkpt>
      <trkpt lat="48.22857" lon="3.23401">
        <ele>155</ele>
        <time>2024-05-23T10:25:44.866Z</time>
      </trkpt>
      <trkpt lat="48.22855" lon="3.23394">
        <ele>155</ele>
        <time>2024-05-23T10:25:49.106Z</time>
      </trkpt>
      <trkpt lat="48.22853" lon="3.23387">
        <ele>155</ele>
        <time>2024-05-23T10:25:53.144Z</time>
      </trkpt>
      <trkpt lat="48.22851" lon="3.2338">
        <ele>155</ele>
        <time>2024-05-23T10:25:57.483Z</time>
      </trkpt>
      <trkpt lat="48.22849" lon="3.23373">
        <ele>156</ele>
        <time>2024-05-23T10:26:01.886Z</time>
      </trkpt>
      <trkpt lat="48.22847" lon="3.23366">
        <ele>156</ele>
        <time>2024-05-23T10:26:06.144Z</time>
      </trkpt>
      <trkpt lat="48.22846" lon="3.2336">
        <ele>153</ele>
        <time>2024-05-23T10:26:10.486Z</time>
      </trkpt>
      <trkpt lat="48.22844" lon="3.23353">
        <ele>153</ele>
        <time>2024-05-23T10:26:14.726Z</time>
      </trkpt>
      <trkpt lat="48.22843" lon="3.23345">
        <ele>154</ele>
        <time>2024-05-23T10:26:19.087Z</time>
      </trkpt>
      <trkpt lat="48.22843" lon="3.23337">
        <ele>154</ele>
        <time>2024-05-23T10:26:23.479Z</time>
      </trkpt>
      <trkpt lat="48.22843" lon="3.23329">
        <ele>154</ele>
        <time>2024-05-23T10:26:27.746Z</time>
      </trkpt>
      <trkpt lat="48.22843" lon="3.23322">
        <ele>154</ele>
        <time>2024-05-23T10:26:31.807Z</time>
      </trkpt>
      <trkpt lat="48.22843" lon="3.23316">
        <ele>155</ele>
        <time>2024-05-23T10:26:35.868Z</time>
      </trkpt>
      <trkpt lat="48.22839" lon="3.23298">
        <ele>155</ele>
        <time>2024-05-23T10:26:53.139Z</time>
      </trkpt>
      <trkpt lat="48.22837" lon="3.23291">
        <ele>158</ele>
        <time>2024-05-23T10:26:57.887Z</time>
      </trkpt>
      <trkpt lat="48.22835" lon="3.23284">
        <ele>158</ele>
        <time>2024-05-23T10:27:02.025Z</time>
      </trkpt>
      <trkpt lat="48.22834" lon="3.23276">
        <ele>158</ele>
        <time>2024-05-23T10:27:06.606Z</time>
      </trkpt>
      <trkpt lat="48.22834" lon="3.2327">
        <ele>158</ele>
        <time>2024-05-23T10:27:11.104Z</time>
      </trkpt>
      <trkpt lat="48.22834" lon="3.23263">
        <ele>159</ele>
        <time>2024-05-23T10:27:15.743Z</time>
      </trkpt>
      <trkpt lat="48.22834" lon="3.23257">
        <ele>159</ele>
        <time>2024-05-23T10:27:19.966Z</time>
      </trkpt>
      <trkpt lat="48.22833" lon="3.23251">
        <ele>159</ele>
        <time>2024-05-23T10:27:24.139Z</time>
      </trkpt>
      <trkpt lat="48.22833" lon="3.23245">
        <ele>159</ele>
        <time>2024-05-23T10:27:28.406Z</time>
      </trkpt>
      <trkpt lat="48.22832" lon="3.23239">
        <ele>159</ele>
        <time>2024-05-23T10:27:32.900Z</time>
      </trkpt>
      <trkpt lat="48.2283" lon="3.23233">
        <ele>161</ele>
        <time>2024-05-23T10:27:37.141Z</time>
      </trkpt>
      <trkpt lat="48.2283" lon="3.23226">
        <ele>161</ele>
        <time>2024-05-23T10:27:41.944Z</time>
      </trkpt>
      <trkpt lat="48.22829" lon="3.23221">
        <ele>161</ele>
        <time>2024-05-23T10:27:46.136Z</time>
      </trkpt>
      <trkpt lat="48.22828" lon="3.23215">
        <ele>161</ele>
        <time>2024-05-23T10:27:50.721Z</time>
      </trkpt>
      <trkpt lat="48.22827" lon="3.23209">
        <ele>161</ele>
        <time>2024-05-23T10:27:55.004Z</time>
      </trkpt>
      <trkpt lat="48.22826" lon="3.23202">
        <ele>162</ele>
        <time>2024-05-23T10:27:59.559Z</time>
      </trkpt>
      <trkpt lat="48.22826" lon="3.23195">
        <ele>162</ele>
        <time>2024-05-23T10:28:04.140Z</time>
      </trkpt>
      <trkpt lat="48.22826" lon="3.23189">
        <ele>162</ele>
        <time>2024-05-23T10:28:08.440Z</time>
      </trkpt>
      <trkpt lat="48.22826" lon="3.23183">
        <ele>162</ele>
        <time>2024-05-23T10:28:13.005Z</time>
      </trkpt>
      <trkpt lat="48.22827" lon="3.23175">
        <ele>162</ele>
        <time>2024-05-23T10:28:17.143Z</time>
      </trkpt>
      <trkpt lat="48.22827" lon="3.23168">
        <ele>162</ele>
        <time>2024-05-23T10:28:21.827Z</time>
      </trkpt>
      <trkpt lat="48.22828" lon="3.23162">
        <ele>162</ele>
        <time>2024-05-23T10:28:26.141Z</time>
      </trkpt>
      <trkpt lat="48.22829" lon="3.23156">
        <ele>162</ele>
        <time>2024-05-23T10:28:30.460Z</time>
      </trkpt>
      <trkpt lat="48.22831" lon="3.23151">
        <ele>162</ele>
        <time>2024-05-23T10:28:34.546Z</time>
      </trkpt>
      <trkpt lat="48.22832" lon="3.23146">
        <ele>162</ele>
        <time>2024-05-23T10:28:38.607Z</time>
      </trkpt>
      <trkpt lat="48.22833" lon="3.23141">
        <ele>162</ele>
        <time>2024-05-23T10:28:43.146Z</time>
      </trkpt>
      <trkpt lat="48.22835" lon="3.23135">
        <ele>162</ele>
        <time>2024-05-23T10:28:47.685Z</time>
      </trkpt>
      <trkpt lat="48.22836" lon="3.23128">
        <ele>162</ele>
        <time>2024-05-23T10:28:52.027Z</time>
      </trkpt>
      <trkpt lat="48.22837" lon="3.23122">
        <ele>162</ele>
        <time>2024-05-23T10:28:56.634Z</time>
      </trkpt>
      <trkpt lat="48.22838" lon="3.23115">
        <ele>162</ele>
        <time>2024-05-23T10:29:00.840Z</time>
      </trkpt>
      <trkpt lat="48.2284" lon="3.23108">
        <ele>162</ele>
        <time>2024-05-23T10:29:05.141Z</time>
      </trkpt>
      <trkpt lat="48.22841" lon="3.23102">
        <ele>162</ele>
        <time>2024-05-23T10:29:09.225Z</time>
      </trkpt>
      <trkpt lat="48.22842" lon="3.23095">
        <ele>163</ele>
        <time>2024-05-23T10:29:13.646Z</time>
      </trkpt>
      <trkpt lat="48.22843" lon="3.23088">
        <ele>163</ele>
        <time>2024-05-23T10:29:18.004Z</time>
      </trkpt>
      <trkpt lat="48.22845" lon="3.23082">
        <ele>163</ele>
        <time>2024-05-23T10:29:22.358Z</time>
      </trkpt>
      <trkpt lat="48.22846" lon="3.23075">
        <ele>163</ele>
        <time>2024-05-23T10:29:26.663Z</time>
      </trkpt>
      <trkpt lat="48.22848" lon="3.23068">
        <ele>163</ele>
        <time>2024-05-23T10:29:30.919Z</time>
      </trkpt>
      <trkpt lat="48.2285" lon="3.23062">
        <ele>163</ele>
        <time>2024-05-23T10:29:35.321Z</time>
      </trkpt>
      <trkpt lat="48.22852" lon="3.23056">
        <ele>163</ele>
        <time>2024-05-23T10:29:39.844Z</time>
      </trkpt>
      <trkpt lat="48.22854" lon="3.2305">
        <ele>163</ele>
        <time>2024-05-23T10:29:44.144Z</time>
      </trkpt>
      <trkpt lat="48.22856" lon="3.23043">
        <ele>163</ele>
        <time>2024-05-23T10:29:48.886Z</time>
      </trkpt>
      <trkpt lat="48.22859" lon="3.23038">
        <ele>162</ele>
        <time>2024-05-23T10:29:53.140Z</time>
      </trkpt>
      <trkpt lat="48.22861" lon="3.23032">
        <ele>162</ele>
        <time>2024-05-23T10:29:57.545Z</time>
      </trkpt>
      <trkpt lat="48.22863" lon="3.23025">
        <ele>162</ele>
        <time>2024-05-23T10:30:01.862Z</time>
      </trkpt>
      <trkpt lat="48.22866" lon="3.23019">
        <ele>162</ele>
        <time>2024-05-23T10:30:06.003Z</time>
      </trkpt>
      <trkpt lat="48.22867" lon="3.23013">
        <ele>161</ele>
        <time>2024-05-23T10:30:10.139Z</time>
      </trkpt>
      <trkpt lat="48.2287" lon="3.23006">
        <ele>161</ele>
        <time>2024-05-23T10:30:14.560Z</time>
      </trkpt>
      <trkpt lat="48.22872" lon="3.23">
        <ele>161</ele>
        <time>2024-05-23T10:30:18.724Z</time>
      </trkpt>
      <trkpt lat="48.22874" lon="3.22993">
        <ele>161</ele>
        <time>2024-05-23T10:30:22.980Z</time>
      </trkpt>
      <trkpt lat="48.22876" lon="3.22988">
        <ele>163</ele>
        <time>2024-05-23T10:30:27.024Z</time>
      </trkpt>
      <trkpt lat="48.22879" lon="3.22983">
        <ele>163</ele>
        <time>2024-05-23T10:30:31.140Z</time>
      </trkpt>
      <trkpt lat="48.22881" lon="3.22976">
        <ele>163</ele>
        <time>2024-05-23T10:30:35.700Z</time>
      </trkpt>
      <trkpt lat="48.22884" lon="3.2297">
        <ele>163</ele>
        <time>2024-05-23T10:30:40.138Z</time>
      </trkpt>
      <trkpt lat="48.22886" lon="3.22963">
        <ele>163</ele>
        <time>2024-05-23T10:30:45.137Z</time>
      </trkpt>
      <trkpt lat="48.22889" lon="3.22957">
        <ele>162</ele>
        <time>2024-05-23T10:30:49.401Z</time>
      </trkpt>
      <trkpt lat="48.22891" lon="3.2295">
        <ele>162</ele>
        <time>2024-05-23T10:30:53.862Z</time>
      </trkpt>
      <trkpt lat="48.22893" lon="3.22944">
        <ele>162</ele>
        <time>2024-05-23T10:30:58.118Z</time>
      </trkpt>
      <trkpt lat="48.22895" lon="3.22939">
        <ele>162</ele>
        <time>2024-05-23T10:31:02.146Z</time>
      </trkpt>
      <trkpt lat="48.22897" lon="3.22931">
        <ele>162</ele>
        <time>2024-05-23T10:31:07.136Z</time>
      </trkpt>
      <trkpt lat="48.22899" lon="3.22924">
        <ele>162</ele>
        <time>2024-05-23T10:31:12.131Z</time>
      </trkpt>
      <trkpt lat="48.22901" lon="3.22916">
        <ele>162</ele>
        <time>2024-05-23T10:31:17.141Z</time>
      </trkpt>
      <trkpt lat="48.22903" lon="3.22909">
        <ele>162</ele>
        <time>2024-05-23T10:31:21.758Z</time>
      </trkpt>
      <trkpt lat="48.22905" lon="3.22904">
        <ele>162</ele>
        <time>2024-05-23T10:31:25.821Z</time>
      </trkpt>
      <trkpt lat="48.22907" lon="3.22897">
        <ele>161</ele>
        <time>2024-05-23T10:31:31.142Z</time>
      </trkpt>
      <trkpt lat="48.22909" lon="3.22891">
        <ele>161</ele>
        <time>2024-05-23T10:31:36.133Z</time>
      </trkpt>
      <trkpt lat="48.22911" lon="3.22886">
        <ele>161</ele>
        <time>2024-05-23T10:31:40.544Z</time>
      </trkpt>
      <trkpt lat="48.22914" lon="3.22882">
        <ele>161</ele>
        <time>2024-05-23T10:31:44.681Z</time>
      </trkpt>
      <trkpt lat="48.22917" lon="3.22879">
        <ele>161</ele>
        <time>2024-05-23T10:31:48.802Z</time>
      </trkpt>
      <trkpt lat="48.22921" lon="3.22877">
        <ele>161</ele>
        <time>2024-05-23T10:31:52.906Z</time>
      </trkpt>
      <trkpt lat="48.22926" lon="3.22879">
        <ele>161</ele>
        <time>2024-05-23T10:31:57.683Z</time>
      </trkpt>
      <trkpt lat="48.2293" lon="3.22881">
        <ele>161</ele>
        <time>2024-05-23T10:32:02.142Z</time>
      </trkpt>
      <trkpt lat="48.22935" lon="3.22885">
        <ele>159</ele>
        <time>2024-05-23T10:32:07.085Z</time>
      </trkpt>
      <trkpt lat="48.22939" lon="3.22886">
        <ele>159</ele>
        <time>2024-05-23T10:32:11.342Z</time>
      </trkpt>
      <trkpt lat="48.22944" lon="3.22889">
        <ele>159</ele>
        <time>2024-05-23T10:33:13.135Z</time>
      </trkpt>
      <trkpt lat="48.22945" lon="3.22889">
        <ele>159</ele>
        <time>2024-05-23T10:33:17.137Z</time>
      </trkpt>
      <trkpt lat="48.22948" lon="3.22891">
        <ele>159</ele>
        <time>2024-05-23T10:33:21.140Z</time>
      </trkpt>
      <trkpt lat="48.22952" lon="3.22894">
        <ele>159</ele>
        <time>2024-05-23T10:33:26.141Z</time>
      </trkpt>
      <trkpt lat="48.22957" lon="3.22897">
        <ele>159</ele>
        <time>2024-05-23T10:33:31.065Z</time>
      </trkpt>
      <trkpt lat="48.22961" lon="3.229">
        <ele>158</ele>
        <time>2024-05-23T10:33:36.143Z</time>
      </trkpt>
      <trkpt lat="48.22966" lon="3.22902">
        <ele>158</ele>
        <time>2024-05-23T10:33:41.138Z</time>
      </trkpt>
      <trkpt lat="48.2297" lon="3.22904">
        <ele>159</ele>
        <time>2024-05-23T10:33:45.798Z</time>
      </trkpt>
      <trkpt lat="48.22974" lon="3.22906">
        <ele>159</ele>
        <time>2024-05-23T10:33:50.140Z</time>
      </trkpt>
      <trkpt lat="48.22979" lon="3.2291">
        <ele>159</ele>
        <time>2024-05-23T10:33:55.142Z</time>
      </trkpt>
      <trkpt lat="48.22983" lon="3.22913">
        <ele>159</ele>
        <time>2024-05-23T10:33:59.526Z</time>
      </trkpt>
      <trkpt lat="48.22987" lon="3.22915">
        <ele>161</ele>
        <time>2024-05-23T10:34:04.146Z</time>
      </trkpt>
      <trkpt lat="48.22992" lon="3.22914">
        <ele>161</ele>
        <time>2024-05-23T10:34:09.142Z</time>
      </trkpt>
      <trkpt lat="48.22996" lon="3.22911">
        <ele>161</ele>
        <time>2024-05-23T10:34:14.136Z</time>
      </trkpt>
      <trkpt lat="48.22999" lon="3.22905">
        <ele>161</ele>
        <time>2024-05-23T10:34:18.602Z</time>
      </trkpt>
      <trkpt lat="48.23" lon="3.22898">
        <ele>159</ele>
        <time>2024-05-23T10:34:23.080Z</time>
      </trkpt>
      <trkpt lat="48.23001" lon="3.22892">
        <ele>159</ele>
        <time>2024-05-23T10:34:27.140Z</time>
      </trkpt>
      <trkpt lat="48.23001" lon="3.22885">
        <ele>159</ele>
        <time>2024-05-23T10:34:32.139Z</time>
      </trkpt>
      <trkpt lat="48.23002" lon="3.22877">
        <ele>159</ele>
        <time>2024-05-23T10:34:37.146Z</time>
      </trkpt>
      <trkpt lat="48.23003" lon="3.22869">
        <ele>159</ele>
        <time>2024-05-23T10:34:41.926Z</time>
      </trkpt>
      <trkpt lat="48.23005" lon="3.22862">
        <ele>159</ele>
        <time>2024-05-23T10:34:47.105Z</time>
      </trkpt>
      <trkpt lat="48.23007" lon="3.22855">
        <ele>159</ele>
        <time>2024-05-23T10:34:51.687Z</time>
      </trkpt>
      <trkpt lat="48.23008" lon="3.22848">
        <ele>159</ele>
        <time>2024-05-23T10:34:55.986Z</time>
      </trkpt>
      <trkpt lat="48.2301" lon="3.22843">
        <ele>159</ele>
        <time>2024-05-23T10:35:00.144Z</time>
      </trkpt>
      <trkpt lat="48.23011" lon="3.22837">
        <ele>159</ele>
        <time>2024-05-23T10:35:05.142Z</time>
      </trkpt>
      <trkpt lat="48.23012" lon="3.2283">
        <ele>159</ele>
        <time>2024-05-23T10:35:10.140Z</time>
      </trkpt>
      <trkpt lat="48.23013" lon="3.22823">
        <ele>159</ele>
        <time>2024-05-23T10:35:14.585Z</time>
      </trkpt>
      <trkpt lat="48.23014" lon="3.22818">
        <ele>162</ele>
        <time>2024-05-23T10:35:18.697Z</time>
      </trkpt>
      <trkpt lat="48.23016" lon="3.2281">
        <ele>162</ele>
        <time>2024-05-23T10:35:23.140Z</time>
      </trkpt>
      <trkpt lat="48.23016" lon="3.22803">
        <ele>162</ele>
        <time>2024-05-23T10:35:27.467Z</time>
      </trkpt>
      <trkpt lat="48.23017" lon="3.22797">
        <ele>162</ele>
        <time>2024-05-23T10:35:31.561Z</time>
      </trkpt>
      <trkpt lat="48.23018" lon="3.2279">
        <ele>163</ele>
        <time>2024-05-23T10:35:36.126Z</time>
      </trkpt>
      <trkpt lat="48.2302" lon="3.22783">
        <ele>163</ele>
        <time>2024-05-23T10:35:40.525Z</time>
      </trkpt>
      <trkpt lat="48.23021" lon="3.22776">
        <ele>163</ele>
        <time>2024-05-23T10:35:45.137Z</time>
      </trkpt>
      <trkpt lat="48.23023" lon="3.22769">
        <ele>163</ele>
        <time>2024-05-23T10:35:49.700Z</time>
      </trkpt>
      <trkpt lat="48.23024" lon="3.22761">
        <ele>164</ele>
        <time>2024-05-23T10:35:55.066Z</time>
      </trkpt>
      <trkpt lat="48.23026" lon="3.22754">
        <ele>164</ele>
        <time>2024-05-23T10:36:00.136Z</time>
      </trkpt>
      <trkpt lat="48.23028" lon="3.22748">
        <ele>164</ele>
        <time>2024-05-23T10:36:04.204Z</time>
      </trkpt>
      <trkpt lat="48.2303" lon="3.22742">
        <ele>164</ele>
        <time>2024-05-23T10:36:08.964Z</time>
      </trkpt>
      <trkpt lat="48.23031" lon="3.22736">
        <ele>164</ele>
        <time>2024-05-23T10:36:13.140Z</time>
      </trkpt>
      <trkpt lat="48.23033" lon="3.2273">
        <ele>164</ele>
        <time>2024-05-23T10:36:17.205Z</time>
      </trkpt>
      <trkpt lat="48.23035" lon="3.22722">
        <ele>164</ele>
        <time>2024-05-23T10:36:22.143Z</time>
      </trkpt>
      <trkpt lat="48.23037" lon="3.22716">
        <ele>164</ele>
        <time>2024-05-23T10:36:26.965Z</time>
      </trkpt>
      <trkpt lat="48.23039" lon="3.2271">
        <ele>164</ele>
        <time>2024-05-23T10:36:31.487Z</time>
      </trkpt>
      <trkpt lat="48.23041" lon="3.22703">
        <ele>164</ele>
        <time>2024-05-23T10:36:36.142Z</time>
      </trkpt>
      <trkpt lat="48.23044" lon="3.22696">
        <ele>164</ele>
        <time>2024-05-23T10:36:41.102Z</time>
      </trkpt>
      <trkpt lat="48.23046" lon="3.2269">
        <ele>164</ele>
        <time>2024-05-23T10:36:45.142Z</time>
      </trkpt>
      <trkpt lat="48.23049" lon="3.22684">
        <ele>164</ele>
        <time>2024-05-23T10:36:50.141Z</time>
      </trkpt>
      <trkpt lat="48.23051" lon="3.22676">
        <ele>163</ele>
        <time>2024-05-23T10:36:54.940Z</time>
      </trkpt>
      <trkpt lat="48.23053" lon="3.2267">
        <ele>163</ele>
        <time>2024-05-23T10:36:59.120Z</time>
      </trkpt>
      <trkpt lat="48.23055" lon="3.22664">
        <ele>163</ele>
        <time>2024-05-23T10:37:03.463Z</time>
      </trkpt>
      <trkpt lat="48.23058" lon="3.22657">
        <ele>163</ele>
        <time>2024-05-23T10:37:07.625Z</time>
      </trkpt>
      <trkpt lat="48.2306" lon="3.22651">
        <ele>164</ele>
        <time>2024-05-23T10:37:12.141Z</time>
      </trkpt>
      <trkpt lat="48.23062" lon="3.22644">
        <ele>164</ele>
        <time>2024-05-23T10:37:17.140Z</time>
      </trkpt>
      <trkpt lat="48.23064" lon="3.22636">
        <ele>164</ele>
        <time>2024-05-23T10:37:21.780Z</time>
      </trkpt>
      <trkpt lat="48.23067" lon="3.22631">
        <ele>164</ele>
        <time>2024-05-23T10:37:25.869Z</time>
      </trkpt>
      <trkpt lat="48.23069" lon="3.22625">
        <ele>164</ele>
        <time>2024-05-23T10:37:30.142Z</time>
      </trkpt>
      <trkpt lat="48.23072" lon="3.22618">
        <ele>165</ele>
        <time>2024-05-23T10:37:34.484Z</time>
      </trkpt>
      <trkpt lat="48.23074" lon="3.22612">
        <ele>165</ele>
        <time>2024-05-23T10:37:38.887Z</time>
      </trkpt>
      <trkpt lat="48.23076" lon="3.22606">
        <ele>165</ele>
        <time>2024-05-23T10:37:43.142Z</time>
      </trkpt>
      <trkpt lat="48.23077" lon="3.226">
        <ele>165</ele>
        <time>2024-05-23T10:37:47.760Z</time>
      </trkpt>
      <trkpt lat="48.23078" lon="3.22593">
        <ele>166</ele>
        <time>2024-05-23T10:37:52.140Z</time>
      </trkpt>
      <trkpt lat="48.23077" lon="3.22587">
        <ele>166</ele>
        <time>2024-05-23T10:37:56.326Z</time>
      </trkpt>
      <trkpt lat="48.23076" lon="3.22583">
        <ele>166</ele>
        <time>2024-05-23T10:38:01.027Z</time>
      </trkpt>
      <trkpt lat="48.23073" lon="3.22582">
        <ele>166</ele>
        <time>2024-05-23T10:38:05.146Z</time>
      </trkpt>
      <trkpt lat="48.23073" lon="3.22581">
        <ele>166</ele>
        <time>2024-05-23T10:38:10.146Z</time>
      </trkpt>
      <trkpt lat="48.2307" lon="3.2258">
        <ele>166</ele>
        <time>2024-05-23T10:38:15.144Z</time>
      </trkpt>
      <trkpt lat="48.23066" lon="3.22579">
        <ele>165</ele>
        <time>2024-05-23T10:38:19.566Z</time>
      </trkpt>
      <trkpt lat="48.23063" lon="3.2258">
        <ele>165</ele>
        <time>2024-05-23T10:38:23.882Z</time>
      </trkpt>
      <trkpt lat="48.2306" lon="3.22579">
        <ele>165</ele>
        <time>2024-05-23T10:38:28.601Z</time>
      </trkpt>
      <trkpt lat="48.23057" lon="3.22578">
        <ele>165</ele>
        <time>2024-05-23T10:38:32.807Z</time>
      </trkpt>
      <trkpt lat="48.23053" lon="3.22578">
        <ele>165</ele>
        <time>2024-05-23T10:38:37.143Z</time>
      </trkpt>
      <trkpt lat="48.23049" lon="3.22577">
        <ele>165</ele>
        <time>2024-05-23T10:38:42.140Z</time>
      </trkpt>
      <trkpt lat="48.23044" lon="3.22577">
        <ele>165</ele>
        <time>2024-05-23T10:38:47.145Z</time>
      </trkpt>
      <trkpt lat="48.2304" lon="3.22577">
        <ele>162</ele>
        <time>2024-05-23T10:38:51.406Z</time>
      </trkpt>
      <trkpt lat="48.23036" lon="3.22576">
        <ele>162</ele>
        <time>2024-05-23T10:38:55.945Z</time>
      </trkpt>
      <trkpt lat="48.23031" lon="3.22576">
        <ele>162</ele>
        <time>2024-05-23T10:39:00.765Z</time>
      </trkpt>
      <trkpt lat="48.23027" lon="3.22575">
        <ele>162</ele>
        <time>2024-05-23T10:39:04.844Z</time>
      </trkpt>
      <trkpt lat="48.23023" lon="3.22574">
        <ele>162</ele>
        <time>2024-05-23T10:39:09.139Z</time>
      </trkpt>
      <trkpt lat="48.23018" lon="3.22573">
        <ele>162</ele>
        <time>2024-05-23T10:39:13.324Z</time>
      </trkpt>
      <trkpt lat="48.23014" lon="3.22572">
        <ele>160</ele>
        <time>2024-05-23T10:39:17.743Z</time>
      </trkpt>
      <trkpt lat="48.23009" lon="3.22571">
        <ele>160</ele>
        <time>2024-05-23T10:39:21.865Z</time>
      </trkpt>
      <trkpt lat="48.23005" lon="3.2257">
        <ele>160</ele>
        <time>2024-05-23T10:39:26.143Z</time>
      </trkpt>
      <trkpt lat="48.23" lon="3.2257">
        <ele>160</ele>
        <time>2024-05-23T10:39:30.405Z</time>
      </trkpt>
      <trkpt lat="48.22996" lon="3.22571">
        <ele>160</ele>
        <time>2024-05-23T10:39:34.952Z</time>
      </trkpt>
      <trkpt lat="48.22991" lon="3.22571">
        <ele>160</ele>
        <time>2024-05-23T10:39:39.070Z</time>
      </trkpt>
      <trkpt lat="48.22987" lon="3.2257">
        <ele>160</ele>
        <time>2024-05-23T10:39:43.142Z</time>
      </trkpt>
      <trkpt lat="48.22982" lon="3.22569">
        <ele>159</ele>
        <time>2024-05-23T10:39:47.843Z</time>
      </trkpt>
      <trkpt lat="48.22977" lon="3.22568">
        <ele>159</ele>
        <time>2024-05-23T10:39:52.140Z</time>
      </trkpt>
      <trkpt lat="48.22973" lon="3.22567">
        <ele>159</ele>
        <time>2024-05-23T10:39:56.503Z</time>
      </trkpt>
      <trkpt lat="48.22968" lon="3.22566">
        <ele>159</ele>
        <time>2024-05-23T10:40:00.607Z</time>
      </trkpt>
      <trkpt lat="48.22963" lon="3.22566">
        <ele>159</ele>
        <time>2024-05-23T10:40:05.141Z</time>
      </trkpt>
      <trkpt lat="48.22958" lon="3.22566">
        <ele>156</ele>
        <time>2024-05-23T10:40:10.140Z</time>
      </trkpt>
      <trkpt lat="48.22954" lon="3.22564">
        <ele>156</ele>
        <time>2024-05-23T10:40:14.821Z</time>
      </trkpt>
      <trkpt lat="48.2295" lon="3.22563">
        <ele>156</ele>
        <time>2024-05-23T10:40:20.140Z</time>
      </trkpt>
      <trkpt lat="48.22945" lon="3.22563">
        <ele>156</ele>
        <time>2024-05-23T10:40:24.564Z</time>
      </trkpt>
      <trkpt lat="48.22942" lon="3.22564">
        <ele>156</ele>
        <time>2024-05-23T10:40:28.642Z</time>
      </trkpt>
      <trkpt lat="48.22939" lon="3.22564">
        <ele>156</ele>
        <time>2024-05-23T10:40:33.136Z</time>
      </trkpt>
      <trkpt lat="48.22939" lon="3.22564">
        <ele>156</ele>
        <time>2024-05-23T10:40:38.132Z</time>
      </trkpt>
      <trkpt lat="48.22939" lon="3.22564">
        <ele>156</ele>
        <time>2024-05-23T10:40:42.139Z</time>
      </trkpt>
      <trkpt lat="48.22938" lon="3.22564">
        <ele>156</ele>
        <time>2024-05-23T10:40:46.943Z</time>
      </trkpt>
      <trkpt lat="48.22933" lon="3.22564">
        <ele>156</ele>
        <time>2024-05-23T10:40:51.602Z</time>
      </trkpt>
      <trkpt lat="48.22928" lon="3.22562">
        <ele>152</ele>
        <time>2024-05-23T10:40:55.721Z</time>
      </trkpt>
      <trkpt lat="48.22924" lon="3.22558">
        <ele>152</ele>
        <time>2024-05-23T10:40:59.902Z</time>
      </trkpt>
      <trkpt lat="48.2292" lon="3.22555">
        <ele>152</ele>
        <time>2024-05-23T10:41:04.527Z</time>
      </trkpt>
      <trkpt lat="48.22917" lon="3.2255">
        <ele>152</ele>
        <time>2024-05-23T10:41:09.142Z</time>
      </trkpt>
      <trkpt lat="48.22914" lon="3.22544">
        <ele>152</ele>
        <time>2024-05-23T10:41:13.647Z</time>
      </trkpt>
      <trkpt lat="48.22911" lon="3.22539">
        <ele>151</ele>
        <time>2024-05-23T10:41:18.140Z</time>
      </trkpt>
      <trkpt lat="48.22907" lon="3.22533">
        <ele>151</ele>
        <time>2024-05-23T10:41:23.066Z</time>
      </trkpt>
      <trkpt lat="48.22904" lon="3.22528">
        <ele>151</ele>
        <time>2024-05-23T10:41:27.141Z</time>
      </trkpt>
      <trkpt lat="48.229" lon="3.22523">
        <ele>144</ele>
        <time>2024-05-23T10:41:31.701Z</time>
      </trkpt>
      <trkpt lat="48.22896" lon="3.22519">
        <ele>144</ele>
        <time>2024-05-23T10:41:36.139Z</time>
      </trkpt>
      <trkpt lat="48.22892" lon="3.22517">
        <ele>144</ele>
        <time>2024-05-23T10:41:40.676Z</time>
      </trkpt>
      <trkpt lat="48.22888" lon="3.22513">
        <ele>144</ele>
        <time>2024-05-23T10:41:44.822Z</time>
      </trkpt>
      <trkpt lat="48.22884" lon="3.22511">
        <ele>144</ele>
        <time>2024-05-23T10:41:49.138Z</time>
      </trkpt>
      <trkpt lat="48.2288" lon="3.22508">
        <ele>144</ele>
        <time>2024-05-23T10:41:53.986Z</time>
      </trkpt>
      <trkpt lat="48.22876" lon="3.22507">
        <ele>144</ele>
        <time>2024-05-23T10:41:58.141Z</time>
      </trkpt>
      <trkpt lat="48.22871" lon="3.22506">
        <ele>140</ele>
        <time>2024-05-23T10:42:02.406Z</time>
      </trkpt>
      <trkpt lat="48.22867" lon="3.22505">
        <ele>140</ele>
        <time>2024-05-23T10:42:06.603Z</time>
      </trkpt>
      <trkpt lat="48.22863" lon="3.22504">
        <ele>140</ele>
        <time>2024-05-23T10:42:10.726Z</time>
      </trkpt>
      <trkpt lat="48.22859" lon="3.22504">
        <ele>140</ele>
        <time>2024-05-23T10:42:15.137Z</time>
      </trkpt>
      <trkpt lat="48.22854" lon="3.22504">
        <ele>140</ele>
        <time>2024-05-23T10:42:19.845Z</time>
      </trkpt>
      <trkpt lat="48.2285" lon="3.22503">
        <ele>140</ele>
        <time>2024-05-23T10:42:23.984Z</time>
      </trkpt>
      <trkpt lat="48.22846" lon="3.225">
        <ele>138</ele>
        <time>2024-05-23T10:43:25.143Z</time>
      </trkpt>
      <trkpt lat="48.22844" lon="3.22499">
        <ele>138</ele>
        <time>2024-05-23T10:43:29.146Z</time>
      </trkpt>
      <trkpt lat="48.22839" lon="3.22497">
        <ele>138</ele>
        <time>2024-05-23T10:43:33.901Z</time>
      </trkpt>
      <trkpt lat="48.22833" lon="3.22499">
        <ele>138</ele>
        <time>2024-05-23T10:43:38.466Z</time>
      </trkpt>
      <trkpt lat="48.22829" lon="3.225">
        <ele>138</ele>
        <time>2024-05-23T10:43:42.904Z</time>
      </trkpt>
      <trkpt lat="48.22825" lon="3.22497">
        <ele>138</ele>
        <time>2024-05-23T10:43:46.964Z</time>
      </trkpt>
      <trkpt lat="48.22821" lon="3.22494">
        <ele>138</ele>
        <time>2024-05-23T10:43:51.141Z</time>
      </trkpt>
      <trkpt lat="48.22816" lon="3.22491">
        <ele>135</ele>
        <time>2024-05-23T10:43:55.700Z</time>
      </trkpt>
      <trkpt lat="48.22812" lon="3.22489">
        <ele>135</ele>
        <time>2024-05-23T10:44:00.085Z</time>
      </trkpt>
      <trkpt lat="48.22807" lon="3.22488">
        <ele>135</ele>
        <time>2024-05-23T10:44:04.206Z</time>
      </trkpt>
      <trkpt lat="48.22801" lon="3.22486">
        <ele>135</ele>
        <time>2024-05-23T10:44:08.864Z</time>
      </trkpt>
      <trkpt lat="48.22796" lon="3.22484">
        <ele>135</ele>
        <time>2024-05-23T10:44:13.140Z</time>
      </trkpt>
      <trkpt lat="48.2279" lon="3.22481">
        <ele>131</ele>
        <time>2024-05-23T10:44:18.061Z</time>
      </trkpt>
      <trkpt lat="48.22785" lon="3.22478">
        <ele>131</ele>
        <time>2024-05-23T10:44:22.138Z</time>
      </trkpt>
      <trkpt lat="48.22779" lon="3.22477">
        <ele>131</ele>
        <time>2024-05-23T10:44:26.585Z</time>
      </trkpt>
      <trkpt lat="48.22774" lon="3.22476">
        <ele>131</ele>
        <time>2024-05-23T10:44:30.944Z</time>
      </trkpt>
      <trkpt lat="48.22769" lon="3.22474">
        <ele>131</ele>
        <time>2024-05-23T10:44:35.138Z</time>
      </trkpt>
      <trkpt lat="48.22763" lon="3.22472">
        <ele>127</ele>
        <time>2024-05-23T10:44:39.920Z</time>
      </trkpt>
      <trkpt lat="48.22757" lon="3.22471">
        <ele>127</ele>
        <time>2024-05-23T10:44:44.963Z</time>
      </trkpt>
      <trkpt lat="48.22752" lon="3.22469">
        <ele>127</ele>
        <time>2024-05-23T10:44:49.142Z</time>
      </trkpt>
      <trkpt lat="48.22746" lon="3.22467">
        <ele>127</ele>
        <time>2024-05-23T10:44:53.605Z</time>
      </trkpt>
      <trkpt lat="48.2274" lon="3.22464">
        <ele>127</ele>
        <time>2024-05-23T10:44:58.141Z</time>
      </trkpt>
      <trkpt lat="48.22735" lon="3.22463">
        <ele>124</ele>
        <time>2024-05-23T10:45:02.726Z</time>
      </trkpt>
      <trkpt lat="48.2273" lon="3.22461">
        <ele>124</ele>
        <time>2024-05-23T10:45:06.940Z</time>
      </trkpt>
      <trkpt lat="48.22725" lon="3.22459">
        <ele>124</ele>
        <time>2024-05-23T10:45:11.141Z</time>
      </trkpt>
      <trkpt lat="48.22719" lon="3.22456">
        <ele>126</ele>
        <time>2024-05-23T10:45:15.822Z</time>
      </trkpt>
      <trkpt lat="48.22714" lon="3.22452">
        <ele>126</ele>
        <time>2024-05-23T10:45:19.944Z</time>
      </trkpt>
      <trkpt lat="48.22708" lon="3.2245">
        <ele>122</ele>
        <time>2024-05-23T10:45:24.022Z</time>
      </trkpt>
      <trkpt lat="48.22703" lon="3.22447">
        <ele>122</ele>
        <time>2024-05-23T10:45:28.083Z</time>
      </trkpt>
      <trkpt lat="48.22696" lon="3.22443">
        <ele>122</ele>
        <time>2024-05-23T10:45:33.081Z</time>
      </trkpt>
      <trkpt lat="48.2269" lon="3.22439">
        <ele>122</ele>
        <time>2024-05-23T10:45:37.100Z</time>
      </trkpt>
      <trkpt lat="48.22685" lon="3.22437">
        <ele>122</ele>
        <time>2024-05-23T10:45:41.140Z</time>
      </trkpt>
      <trkpt lat="48.22679" lon="3.22434">
        <ele>120</ele>
        <time>2024-05-23T10:45:45.580Z</time>
      </trkpt>
      <trkpt lat="48.22675" lon="3.2243">
        <ele>122</ele>
        <time>2024-05-23T10:45:49.806Z</time>
      </trkpt>
      <trkpt lat="48.22668" lon="3.22429">
        <ele>122</ele>
        <time>2024-05-23T10:45:54.061Z</time>
      </trkpt>
      <trkpt lat="48.22662" lon="3.22427">
        <ele>122</ele>
        <time>2024-05-23T10:45:58.141Z</time>
      </trkpt>
      <trkpt lat="48.22657" lon="3.22427">
        <ele>122</ele>
        <time>2024-05-23T10:46:02.602Z</time>
      </trkpt>
      <trkpt lat="48.22652" lon="3.22427">
        <ele>122</ele>
        <time>2024-05-23T10:46:06.706Z</time>
      </trkpt>
      <trkpt lat="48.22646" lon="3.22428">
        <ele>122</ele>
        <time>2024-05-23T10:46:10.980Z</time>
      </trkpt>
      <trkpt lat="48.22641" lon="3.22426">
        <ele>122</ele>
        <time>2024-05-23T10:46:15.140Z</time>
      </trkpt>
      <trkpt lat="48.22636" lon="3.22427">
        <ele>122</ele>
        <time>2024-05-23T10:46:19.999Z</time>
      </trkpt>
      <trkpt lat="48.22623" lon="3.22429">
        <ele>123</ele>
        <time>2024-05-23T10:47:30.019Z</time>
      </trkpt>
      <trkpt lat="48.22619" lon="3.22428">
        <ele>123</ele>
        <time>2024-05-23T10:47:34.134Z</time>
      </trkpt>
      <trkpt lat="48.22614" lon="3.22425">
        <ele>123</ele>
        <time>2024-05-23T10:47:38.839Z</time>
      </trkpt>
      <trkpt lat="48.22608" lon="3.22423">
        <ele>123</ele>
        <time>2024-05-23T10:47:43.140Z</time>
      </trkpt>
      <trkpt lat="48.22603" lon="3.22422">
        <ele>123</ele>
        <time>2024-05-23T10:47:47.694Z</time>
      </trkpt>
      <trkpt lat="48.22597" lon="3.22424">
        <ele>123</ele>
        <time>2024-05-23T10:47:52.135Z</time>
      </trkpt>
      <trkpt lat="48.22593" lon="3.22423">
        <ele>122</ele>
        <time>2024-05-23T10:47:56.133Z</time>
      </trkpt>
      <trkpt lat="48.22587" lon="3.22421">
        <ele>122</ele>
        <time>2024-05-23T10:48:00.820Z</time>
      </trkpt>
      <trkpt lat="48.22582" lon="3.22416">
        <ele>122</ele>
        <time>2024-05-23T10:48:05.096Z</time>
      </trkpt>
      <trkpt lat="48.22578" lon="3.22412">
        <ele>122</ele>
        <time>2024-05-23T10:48:09.300Z</time>
      </trkpt>
      <trkpt lat="48.22574" lon="3.2241">
        <ele>122</ele>
        <time>2024-05-23T10:48:13.535Z</time>
      </trkpt>
      <trkpt lat="48.2257" lon="3.22407">
        <ele>122</ele>
        <time>2024-05-23T10:48:17.625Z</time>
      </trkpt>
      <trkpt lat="48.22567" lon="3.22403">
        <ele>120</ele>
        <time>2024-05-23T10:48:21.658Z</time>
      </trkpt>
      <trkpt lat="48.22563" lon="3.22399">
        <ele>121</ele>
        <time>2024-05-23T10:48:26.144Z</time>
      </trkpt>
      <trkpt lat="48.22558" lon="3.22396">
        <ele>121</ele>
        <time>2024-05-23T10:48:30.720Z</time>
      </trkpt>
      <trkpt lat="48.22553" lon="3.22393">
        <ele>121</ele>
        <time>2024-05-23T10:48:35.040Z</time>
      </trkpt>
      <trkpt lat="48.22548" lon="3.2239">
        <ele>121</ele>
        <time>2024-05-23T10:48:39.554Z</time>
      </trkpt>
      <trkpt lat="48.22543" lon="3.22386">
        <ele>121</ele>
        <time>2024-05-23T10:48:44.142Z</time>
      </trkpt>
      <trkpt lat="48.22539" lon="3.22383">
        <ele>118</ele>
        <time>2024-05-23T10:48:48.779Z</time>
      </trkpt>
      <trkpt lat="48.22535" lon="3.2238">
        <ele>118</ele>
        <time>2024-05-23T10:48:53.133Z</time>
      </trkpt>
      <trkpt lat="48.22531" lon="3.22375">
        <ele>119</ele>
        <time>2024-05-23T10:48:57.775Z</time>
      </trkpt>
      <trkpt lat="48.22528" lon="3.22373">
        <ele>119</ele>
        <time>2024-05-23T10:49:00.483Z</time>
      </trkpt>
      <trkpt lat="48.22521" lon="3.2237">
        <ele>119</ele>
        <time>2024-05-23T10:49:09.141Z</time>
      </trkpt>
      <trkpt lat="48.22516" lon="3.22366">
        <ele>119</ele>
        <time>2024-05-23T10:49:13.882Z</time>
      </trkpt>
      <trkpt lat="48.22511" lon="3.22365">
        <ele>117</ele>
        <time>2024-05-23T10:49:18.423Z</time>
      </trkpt>
      <trkpt lat="48.22506" lon="3.22363">
        <ele>117</ele>
        <time>2024-05-23T10:49:22.483Z</time>
      </trkpt>
      <trkpt lat="48.22502" lon="3.22358">
        <ele>117</ele>
        <time>2024-05-23T10:49:26.776Z</time>
      </trkpt>
      <trkpt lat="48.22498" lon="3.22355">
        <ele>117</ele>
        <time>2024-05-23T10:49:30.844Z</time>
      </trkpt>
      <trkpt lat="48.22493" lon="3.22354">
        <ele>117</ele>
        <time>2024-05-23T10:49:35.146Z</time>
      </trkpt>
      <trkpt lat="48.22492" lon="3.22354">
        <ele>117</ele>
        <time>2024-05-23T10:49:39.558Z</time>
      </trkpt>
      <trkpt lat="48.22486" lon="3.22353">
        <ele>117</ele>
        <time>2024-05-23T10:49:43.821Z</time>
      </trkpt>
      <trkpt lat="48.22481" lon="3.22352">
        <ele>115</ele>
        <time>2024-05-23T10:49:48.142Z</time>
      </trkpt>
      <trkpt lat="48.22476" lon="3.22352">
        <ele>115</ele>
        <time>2024-05-23T10:49:52.540Z</time>
      </trkpt>
      <trkpt lat="48.22471" lon="3.22353">
        <ele>115</ele>
        <time>2024-05-23T10:49:57.140Z</time>
      </trkpt>
      <trkpt lat="48.22467" lon="3.22355">
        <ele>115</ele>
        <time>2024-05-23T10:50:01.458Z</time>
      </trkpt>
      <trkpt lat="48.22462" lon="3.22357">
        <ele>115</ele>
        <time>2024-05-23T10:50:05.902Z</time>
      </trkpt>
      <trkpt lat="48.22457" lon="3.22358">
        <ele>112</ele>
        <time>2024-05-23T10:50:09.965Z</time>
      </trkpt>
      <trkpt lat="48.22452" lon="3.22359">
        <ele>112</ele>
        <time>2024-05-23T10:50:14.442Z</time>
      </trkpt>
      <trkpt lat="48.22446" lon="3.22359">
        <ele>112</ele>
        <time>2024-05-23T10:50:18.818Z</time>
      </trkpt>
      <trkpt lat="48.22441" lon="3.22359">
        <ele>112</ele>
        <time>2024-05-23T10:50:23.138Z</time>
      </trkpt>
      <trkpt lat="48.22438" lon="3.22357">
        <ele>112</ele>
        <time>2024-05-23T10:50:28.138Z</time>
      </trkpt>
      <trkpt lat="48.22439" lon="3.22356">
        <ele>112</ele>
        <time>2024-05-23T10:51:02.143Z</time>
      </trkpt>
      <trkpt lat="48.22439" lon="3.22361">
        <ele>112</ele>
        <time>2024-05-23T10:51:06.856Z</time>
      </trkpt>
      <trkpt lat="48.22438" lon="3.22371">
        <ele>112</ele>
        <time>2024-05-23T10:51:11.396Z</time>
      </trkpt>
      <trkpt lat="48.22439" lon="3.22379">
        <ele>112</ele>
        <time>2024-05-23T10:51:15.635Z</time>
      </trkpt>
      <trkpt lat="48.22439" lon="3.22386">
        <ele>112</ele>
        <time>2024-05-23T10:51:20.139Z</time>
      </trkpt>
      <trkpt lat="48.2244" lon="3.22392">
        <ele>112</ele>
        <time>2024-05-23T10:51:24.146Z</time>
      </trkpt>
      <trkpt lat="48.2244" lon="3.22399">
        <ele>112</ele>
        <time>2024-05-23T10:51:28.680Z</time>
      </trkpt>
      <trkpt lat="48.22439" lon="3.22406">
        <ele>111</ele>
        <time>2024-05-23T10:51:33.139Z</time>
      </trkpt>
      <trkpt lat="48.22439" lon="3.22413">
        <ele>111</ele>
        <time>2024-05-23T10:51:37.844Z</time>
      </trkpt>
      <trkpt lat="48.22438" lon="3.22419">
        <ele>111</ele>
        <time>2024-05-23T10:51:42.143Z</time>
      </trkpt>
      <trkpt lat="48.22437" lon="3.22428">
        <ele>111</ele>
        <time>2024-05-23T10:51:47.143Z</time>
      </trkpt>
      <trkpt lat="48.22436" lon="3.22435">
        <ele>111</ele>
        <time>2024-05-23T10:51:51.846Z</time>
      </trkpt>
      <trkpt lat="48.22437" lon="3.22443">
        <ele>111</ele>
        <time>2024-05-23T10:51:56.044Z</time>
      </trkpt>
      <trkpt lat="48.22436" lon="3.22456">
        <ele>111</ele>
        <time>2024-05-23T10:52:28.146Z</time>
      </trkpt>
      <trkpt lat="48.22435" lon="3.22457">
        <ele>111</ele>
        <time>2024-05-23T10:52:32.443Z</time>
      </trkpt>
      <trkpt lat="48.2243" lon="3.22457">
        <ele>109</ele>
        <time>2024-05-23T10:52:36.595Z</time>
      </trkpt>
      <trkpt lat="48.22424" lon="3.22462">
        <ele>108</ele>
        <time>2024-05-23T10:52:41.121Z</time>
      </trkpt>
      <trkpt lat="48.22419" lon="3.22464">
        <ele>108</ele>
        <time>2024-05-23T10:52:45.517Z</time>
      </trkpt>
      <trkpt lat="48.22413" lon="3.22465">
        <ele>108</ele>
        <time>2024-05-23T10:52:50.056Z</time>
      </trkpt>
      <trkpt lat="48.22408" lon="3.22463">
        <ele>108</ele>
        <time>2024-05-23T10:52:54.524Z</time>
      </trkpt>
      <trkpt lat="48.22402" lon="3.22462">
        <ele>107</ele>
        <time>2024-05-23T10:52:59.085Z</time>
      </trkpt>
      <trkpt lat="48.22396" lon="3.2246">
        <ele>107</ele>
        <time>2024-05-23T10:53:03.595Z</time>
      </trkpt>
      <trkpt lat="48.22392" lon="3.22465">
        <ele>107</ele>
        <time>2024-05-23T10:53:07.786Z</time>
      </trkpt>
      <trkpt lat="48.2239" lon="3.22473">
        <ele>107</ele>
        <time>2024-05-23T10:53:12Z</time>
      </trkpt>
      <trkpt lat="48.2239" lon="3.22478">
        <ele>107</ele>
        <time>2024-05-23T10:53:16.479Z</time>
      </trkpt>
      <trkpt lat="48.22387" lon="3.22481">
        <ele>107</ele>
        <time>2024-05-23T10:53:20.762Z</time>
      </trkpt>
      <trkpt lat="48.22383" lon="3.22482">
        <ele>107</ele>
        <time>2024-05-23T10:53:25.133Z</time>
      </trkpt>
      <trkpt lat="48.22381" lon="3.22482">
        <ele>107</ele>
        <time>2024-05-23T10:53:29.144Z</time>
      </trkpt>
      <trkpt lat="48.22378" lon="3.22475">
        <ele>107</ele>
        <time>2024-05-23T10:53:33.596Z</time>
      </trkpt>
      <trkpt lat="48.22372" lon="3.22471">
        <ele>106</ele>
        <time>2024-05-23T10:53:38.146Z</time>
      </trkpt>
      <trkpt lat="48.22365" lon="3.2247">
        <ele>106</ele>
        <time>2024-05-23T10:53:57.700Z</time>
      </trkpt>
      <trkpt lat="48.22363" lon="3.22471">
        <ele>106</ele>
        <time>2024-05-23T10:54:02.146Z</time>
      </trkpt>
      <trkpt lat="48.22357" lon="3.22473">
        <ele>106</ele>
        <time>2024-05-23T10:54:06.997Z</time>
      </trkpt>
      <trkpt lat="48.22352" lon="3.22472">
        <ele>106</ele>
        <time>2024-05-23T10:54:11.146Z</time>
      </trkpt>
      <trkpt lat="48.22348" lon="3.22472">
        <ele>106</ele>
        <time>2024-05-23T10:54:15.419Z</time>
      </trkpt>
      <trkpt lat="48.22319" lon="3.22492">
        <ele>103</ele>
        <time>2024-05-23T10:55:53.131Z</time>
      </trkpt>
      <trkpt lat="48.22319" lon="3.22492">
        <ele>103</ele>
        <time>2024-05-23T10:55:57.420Z</time>
      </trkpt>
      <trkpt lat="48.22317" lon="3.2249">
        <ele>103</ele>
        <time>2024-05-23T10:56:01.801Z</time>
      </trkpt>
      <trkpt lat="48.22314" lon="3.22488">
        <ele>103</ele>
        <time>2024-05-23T10:56:06.132Z</time>
      </trkpt>
      <trkpt lat="48.22312" lon="3.22487">
        <ele>103</ele>
        <time>2024-05-23T10:56:10.138Z</time>
      </trkpt>
      <trkpt lat="48.22314" lon="3.22491">
        <ele>103</ele>
        <time>2024-05-23T11:03:03.128Z</time>
      </trkpt>
      <trkpt lat="48.22315" lon="3.22493">
        <ele>103</ele>
        <time>2024-05-23T11:03:07.130Z</time>
      </trkpt>
      <trkpt lat="48.22314" lon="3.22496">
        <ele>103</ele>
        <time>2024-05-23T11:03:09.765Z</time>
      </trkpt>
      <trkpt lat="48.22316" lon="3.22499">
        <ele>103</ele>
        <time>2024-05-23T11:03:19.144Z</time>
      </trkpt>
      <trkpt lat="48.22318" lon="3.22498">
        <ele>103</ele>
        <time>2024-05-23T11:03:24.136Z</time>
      </trkpt>
      <trkpt lat="48.22315" lon="3.22492">
        <ele>103</ele>
        <time>2024-05-23T12:19:27.107Z</time>
      </trkpt>
      <trkpt lat="48.22316" lon="3.2249">
        <ele>103</ele>
        <time>2024-05-23T12:19:31.976Z</time>
      </trkpt>
      <trkpt lat="48.22316" lon="3.22489">
        <ele>103</ele>
        <time>2024-05-23T12:19:36.020Z</time>
      </trkpt>
      <trkpt lat="48.22312" lon="3.22486">
        <ele>105</ele>
        <time>2024-05-23T12:19:40.577Z</time>
      </trkpt>
      <trkpt lat="48.22309" lon="3.22484">
        <ele>105</ele>
        <time>2024-05-23T12:19:44.597Z</time>
      </trkpt>
      <trkpt lat="48.22307" lon="3.22484">
        <ele>105</ele>
        <time>2024-05-23T12:20:05.107Z</time>
      </trkpt>
      <trkpt lat="48.22307" lon="3.22485">
        <ele>105</ele>
        <time>2024-05-23T12:20:10.106Z</time>
      </trkpt>
      <trkpt lat="48.22307" lon="3.22485">
        <ele>105</ele>
        <time>2024-05-23T12:20:14.498Z</time>
      </trkpt>
      <trkpt lat="48.22306" lon="3.2249">
        <ele>103</ele>
        <time>2024-05-23T12:20:18.844Z</time>
      </trkpt>
      <trkpt lat="48.22306" lon="3.22498">
        <ele>103</ele>
        <time>2024-05-23T12:20:22.915Z</time>
      </trkpt>
      <trkpt lat="48.22307" lon="3.22504">
        <ele>103</ele>
        <time>2024-05-23T12:20:27.120Z</time>
      </trkpt>
      <trkpt lat="48.22305" lon="3.22511">
        <ele>103</ele>
        <time>2024-05-23T12:20:31.686Z</time>
      </trkpt>
      <trkpt lat="48.223" lon="3.22516">
        <ele>101</ele>
        <time>2024-05-23T12:20:36.106Z</time>
      </trkpt>
      <trkpt lat="48.22296" lon="3.22519">
        <ele>101</ele>
        <time>2024-05-23T12:20:40.107Z</time>
      </trkpt>
      <trkpt lat="48.22295" lon="3.2252">
        <ele>101</ele>
        <time>2024-05-23T12:20:45.106Z</time>
      </trkpt>
      <trkpt lat="48.223" lon="3.22516">
        <ele>101</ele>
        <time>2024-05-23T12:20:50.056Z</time>
      </trkpt>
      <trkpt lat="48.22305" lon="3.22512">
        <ele>103</ele>
        <time>2024-05-23T12:20:54.758Z</time>
      </trkpt>
      <trkpt lat="48.22307" lon="3.22507">
        <ele>103</ele>
        <time>2024-05-23T12:20:59.042Z</time>
      </trkpt>
      <trkpt lat="48.22307" lon="3.22503">
        <ele>103</ele>
        <time>2024-05-23T12:21:03.107Z</time>
      </trkpt>
      <trkpt lat="48.22307" lon="3.22498">
        <ele>103</ele>
        <time>2024-05-23T12:21:08.113Z</time>
      </trkpt>
      <trkpt lat="48.22307" lon="3.22492">
        <ele>103</ele>
        <time>2024-05-23T12:21:12.858Z</time>
      </trkpt>
      <trkpt lat="48.22311" lon="3.22487">
        <ele>103</ele>
        <time>2024-05-23T12:21:17.098Z</time>
      </trkpt>
      <trkpt lat="48.22319" lon="3.22492">
        <ele>103</ele>
        <time>2024-05-23T12:34:45.190Z</time>
      </trkpt>
      <trkpt lat="48.22319" lon="3.22492">
        <ele>103</ele>
        <time>2024-05-23T12:34:50.104Z</time>
      </trkpt>
      <trkpt lat="48.2232" lon="3.2249">
        <ele>103</ele>
        <time>2024-05-23T12:34:54.104Z</time>
      </trkpt>
      <trkpt lat="48.22321" lon="3.22485">
        <ele>105</ele>
        <time>2024-05-23T12:34:58.851Z</time>
      </trkpt>
      <trkpt lat="48.22323" lon="3.22479">
        <ele>105</ele>
        <time>2024-05-23T12:35:03.105Z</time>
      </trkpt>
      <trkpt lat="48.22325" lon="3.22474">
        <ele>105</ele>
        <time>2024-05-23T12:35:07.105Z</time>
      </trkpt>
      <trkpt lat="48.22328" lon="3.22468">
        <ele>105</ele>
        <time>2024-05-23T12:35:11.735Z</time>
      </trkpt>
      <trkpt lat="48.22329" lon="3.22462">
        <ele>105</ele>
        <time>2024-05-23T12:35:16.104Z</time>
      </trkpt>
      <trkpt lat="48.22328" lon="3.22456">
        <ele>105</ele>
        <time>2024-05-23T12:35:20.833Z</time>
      </trkpt>
      <trkpt lat="48.22327" lon="3.22451">
        <ele>105</ele>
        <time>2024-05-23T12:35:24.909Z</time>
      </trkpt>
      <trkpt lat="48.22325" lon="3.22447">
        <ele>105</ele>
        <time>2024-05-23T12:35:29.104Z</time>
      </trkpt>
      <trkpt lat="48.22323" lon="3.2244">
        <ele>105</ele>
        <time>2024-05-23T12:35:33.715Z</time>
      </trkpt>
      <trkpt lat="48.22322" lon="3.22434">
        <ele>105</ele>
        <time>2024-05-23T12:35:37.896Z</time>
      </trkpt>
      <trkpt lat="48.22321" lon="3.22428">
        <ele>106</ele>
        <time>2024-05-23T12:35:41.914Z</time>
      </trkpt>
      <trkpt lat="48.2232" lon="3.22421">
        <ele>106</ele>
        <time>2024-05-23T12:35:46.333Z</time>
      </trkpt>
      <trkpt lat="48.22318" lon="3.22414">
        <ele>108</ele>
        <time>2024-05-23T12:35:50.575Z</time>
      </trkpt>
      <trkpt lat="48.22318" lon="3.22408">
        <ele>108</ele>
        <time>2024-05-23T12:35:54.952Z</time>
      </trkpt>
      <trkpt lat="48.22315" lon="3.22403">
        <ele>105</ele>
        <time>2024-05-23T12:35:59.047Z</time>
      </trkpt>
      <trkpt lat="48.22311" lon="3.22397">
        <ele>105</ele>
        <time>2024-05-23T12:36:03.105Z</time>
      </trkpt>
      <trkpt lat="48.22309" lon="3.22392">
        <ele>105</ele>
        <time>2024-05-23T12:36:07.555Z</time>
      </trkpt>
      <trkpt lat="48.22306" lon="3.22386">
        <ele>105</ele>
        <time>2024-05-23T12:36:11.770Z</time>
      </trkpt>
      <trkpt lat="48.22305" lon="3.2238">
        <ele>105</ele>
        <time>2024-05-23T12:36:16.095Z</time>
      </trkpt>
      <trkpt lat="48.22306" lon="3.22374">
        <ele>103</ele>
        <time>2024-05-23T12:36:20.104Z</time>
      </trkpt>
      <trkpt lat="48.22305" lon="3.22369">
        <ele>103</ele>
        <time>2024-05-23T12:36:24.654Z</time>
      </trkpt>
      <trkpt lat="48.22306" lon="3.22365">
        <ele>103</ele>
        <time>2024-05-23T12:36:28.690Z</time>
      </trkpt>
      <trkpt lat="48.223" lon="3.22365">
        <ele>103</ele>
        <time>2024-05-23T12:36:33.104Z</time>
      </trkpt>
      <trkpt lat="48.22298" lon="3.22367">
        <ele>103</ele>
        <time>2024-05-23T12:36:37.733Z</time>
      </trkpt>
      <trkpt lat="48.22293" lon="3.22371">
        <ele>103</ele>
        <time>2024-05-23T12:36:42.104Z</time>
      </trkpt>
      <trkpt lat="48.22289" lon="3.22377">
        <ele>100</ele>
        <time>2024-05-23T12:36:46.431Z</time>
      </trkpt>
      <trkpt lat="48.22284" lon="3.22381">
        <ele>100</ele>
        <time>2024-05-23T12:36:51.022Z</time>
      </trkpt>
      <trkpt lat="48.22281" lon="3.22386">
        <ele>100</ele>
        <time>2024-05-23T12:36:55.576Z</time>
      </trkpt>
      <trkpt lat="48.22276" lon="3.22389">
        <ele>100</ele>
        <time>2024-05-23T12:37:00.073Z</time>
      </trkpt>
      <trkpt lat="48.22271" lon="3.22391">
        <ele>100</ele>
        <time>2024-05-23T12:37:04.104Z</time>
      </trkpt>
      <trkpt lat="48.22266" lon="3.22394">
        <ele>100</ele>
        <time>2024-05-23T12:37:08.614Z</time>
      </trkpt>
      <trkpt lat="48.22261" lon="3.22397">
        <ele>94</ele>
        <time>2024-05-23T12:37:12.952Z</time>
      </trkpt>
      <trkpt lat="48.22257" lon="3.224">
        <ele>94</ele>
        <time>2024-05-23T12:37:17.095Z</time>
      </trkpt>
      <trkpt lat="48.22252" lon="3.22403">
        <ele>94</ele>
        <time>2024-05-23T12:37:21.471Z</time>
      </trkpt>
      <trkpt lat="48.22246" lon="3.22406">
        <ele>93</ele>
        <time>2024-05-23T12:37:25.788Z</time>
      </trkpt>
      <trkpt lat="48.22243" lon="3.22409">
        <ele>93</ele>
        <time>2024-05-23T12:37:30.104Z</time>
      </trkpt>
      <trkpt lat="48.22238" lon="3.22412">
        <ele>93</ele>
        <time>2024-05-23T12:37:34.713Z</time>
      </trkpt>
      <trkpt lat="48.22234" lon="3.22415">
        <ele>90</ele>
        <time>2024-05-23T12:37:39.074Z</time>
      </trkpt>
      <trkpt lat="48.22231" lon="3.22417">
        <ele>90</ele>
        <time>2024-05-23T12:37:43.211Z</time>
      </trkpt>
      <trkpt lat="48.22228" lon="3.2242">
        <ele>90</ele>
        <time>2024-05-23T12:37:47.410Z</time>
      </trkpt>
      <trkpt lat="48.22224" lon="3.22423">
        <ele>90</ele>
        <time>2024-05-23T12:37:51.453Z</time>
      </trkpt>
      <trkpt lat="48.2222" lon="3.22424">
        <ele>90</ele>
        <time>2024-05-23T12:37:55.609Z</time>
      </trkpt>
      <trkpt lat="48.22217" lon="3.22416">
        <ele>90</ele>
        <time>2024-05-23T12:37:59.968Z</time>
      </trkpt>
      <trkpt lat="48.22216" lon="3.22407">
        <ele>90</ele>
        <time>2024-05-23T12:38:04.286Z</time>
      </trkpt>
      <trkpt lat="48.22215" lon="3.22401">
        <ele>90</ele>
        <time>2024-05-23T12:38:08.314Z</time>
      </trkpt>
      <trkpt lat="48.22214" lon="3.22392">
        <ele>90</ele>
        <time>2024-05-23T12:38:12.468Z</time>
      </trkpt>
      <trkpt lat="48.22214" lon="3.22386">
        <ele>90</ele>
        <time>2024-05-23T12:38:16.691Z</time>
      </trkpt>
      <trkpt lat="48.22214" lon="3.22382">
        <ele>90</ele>
        <time>2024-05-23T12:38:19.104Z</time>
      </trkpt>
      <trkpt lat="48.22215" lon="3.22372">
        <ele>90</ele>
        <time>2024-05-23T12:38:28.104Z</time>
      </trkpt>
      <trkpt lat="48.22217" lon="3.22366">
        <ele>90</ele>
        <time>2024-05-23T12:38:32.590Z</time>
      </trkpt>
      <trkpt lat="48.22217" lon="3.22358">
        <ele>90</ele>
        <time>2024-05-23T12:38:41.104Z</time>
      </trkpt>
      <trkpt lat="48.22213" lon="3.22354">
        <ele>90</ele>
        <time>2024-05-23T12:38:45.834Z</time>
      </trkpt>
      <trkpt lat="48.22213" lon="3.22353">
        <ele>90</ele>
        <time>2024-05-23T12:38:50.104Z</time>
      </trkpt>
      <trkpt lat="48.22213" lon="3.22352">
        <ele>90</ele>
        <time>2024-05-23T12:38:54.773Z</time>
      </trkpt>
      <trkpt lat="48.22213" lon="3.22346">
        <ele>89</ele>
        <time>2024-05-23T12:38:59.104Z</time>
      </trkpt>
      <trkpt lat="48.22214" lon="3.22337">
        <ele>89</ele>
        <time>2024-05-23T12:39:03.707Z</time>
      </trkpt>
      <trkpt lat="48.22215" lon="3.2233">
        <ele>89</ele>
        <time>2024-05-23T12:39:07.871Z</time>
      </trkpt>
      <trkpt lat="48.22216" lon="3.22323">
        <ele>89</ele>
        <time>2024-05-23T12:39:12.334Z</time>
      </trkpt>
      <trkpt lat="48.22217" lon="3.22317">
        <ele>89</ele>
        <time>2024-05-23T12:39:16.412Z</time>
      </trkpt>
      <trkpt lat="48.22217" lon="3.22311">
        <ele>89</ele>
        <time>2024-05-23T12:39:20.474Z</time>
      </trkpt>
      <trkpt lat="48.22217" lon="3.22304">
        <ele>89</ele>
        <time>2024-05-23T12:39:25.012Z</time>
      </trkpt>
      <trkpt lat="48.22218" lon="3.22297">
        <ele>89</ele>
        <time>2024-05-23T12:39:29.568Z</time>
      </trkpt>
      <trkpt lat="48.22218" lon="3.22289">
        <ele>89</ele>
        <time>2024-05-23T12:39:34.103Z</time>
      </trkpt>
      <trkpt lat="48.22217" lon="3.2228">
        <ele>89</ele>
        <time>2024-05-23T12:39:38.707Z</time>
      </trkpt>
      <trkpt lat="48.22215" lon="3.22273">
        <ele>89</ele>
        <time>2024-05-23T12:39:42.887Z</time>
      </trkpt>
      <trkpt lat="48.22215" lon="3.22266">
        <ele>89</ele>
        <time>2024-05-23T12:39:46.949Z</time>
      </trkpt>
      <trkpt lat="48.22215" lon="3.22259">
        <ele>90</ele>
        <time>2024-05-23T12:39:51.022Z</time>
      </trkpt>
      <trkpt lat="48.22216" lon="3.22251">
        <ele>90</ele>
        <time>2024-05-23T12:39:55.106Z</time>
      </trkpt>
      <trkpt lat="48.22215" lon="3.22244">
        <ele>90</ele>
        <time>2024-05-23T12:39:59.349Z</time>
      </trkpt>
      <trkpt lat="48.22215" lon="3.22236">
        <ele>90</ele>
        <time>2024-05-23T12:40:04.091Z</time>
      </trkpt>
      <trkpt lat="48.22213" lon="3.22229">
        <ele>90</ele>
        <time>2024-05-23T12:40:08.289Z</time>
      </trkpt>
      <trkpt lat="48.2221" lon="3.22223">
        <ele>90</ele>
        <time>2024-05-23T12:40:12.529Z</time>
      </trkpt>
      <trkpt lat="48.22206" lon="3.22218">
        <ele>89</ele>
        <time>2024-05-23T12:40:17.103Z</time>
      </trkpt>
      <trkpt lat="48.22206" lon="3.22211">
        <ele>89</ele>
        <time>2024-05-23T12:40:22.103Z</time>
      </trkpt>
      <trkpt lat="48.22206" lon="3.22203">
        <ele>90</ele>
        <time>2024-05-23T12:40:27.096Z</time>
      </trkpt>
      <trkpt lat="48.22203" lon="3.22198">
        <ele>90</ele>
        <time>2024-05-23T12:40:31.104Z</time>
      </trkpt>
      <trkpt lat="48.22203" lon="3.22195">
        <ele>90</ele>
        <time>2024-05-23T12:40:33.104Z</time>
      </trkpt>
      <trkpt lat="48.22208" lon="3.22187">
        <ele>90</ele>
        <time>2024-05-23T12:40:42.072Z</time>
      </trkpt>
      <trkpt lat="48.22205" lon="3.22176">
        <ele>92</ele>
        <time>2024-05-23T12:40:46.104Z</time>
      </trkpt>
      <trkpt lat="48.22204" lon="3.22173">
        <ele>92</ele>
        <time>2024-05-23T12:40:50.103Z</time>
      </trkpt>
      <trkpt lat="48.22203" lon="3.22168">
        <ele>92</ele>
        <time>2024-05-23T12:40:54.914Z</time>
      </trkpt>
      <trkpt lat="48.22198" lon="3.22166">
        <ele>92</ele>
        <time>2024-05-23T12:40:59.104Z</time>
      </trkpt>
      <trkpt lat="48.22194" lon="3.22162">
        <ele>92</ele>
        <time>2024-05-23T12:41:03.728Z</time>
      </trkpt>
      <trkpt lat="48.22192" lon="3.22155">
        <ele>92</ele>
        <time>2024-05-23T12:41:08.249Z</time>
      </trkpt>
      <trkpt lat="48.2219" lon="3.22147">
        <ele>94</ele>
        <time>2024-05-23T12:41:13.103Z</time>
      </trkpt>
      <trkpt lat="48.2219" lon="3.22141">
        <ele>94</ele>
        <time>2024-05-23T12:41:17.355Z</time>
      </trkpt>
      <trkpt lat="48.22188" lon="3.22135">
        <ele>94</ele>
        <time>2024-05-23T12:41:21.894Z</time>
      </trkpt>
      <trkpt lat="48.22187" lon="3.2213">
        <ele>94</ele>
        <time>2024-05-23T12:41:26.005Z</time>
      </trkpt>
      <trkpt lat="48.22186" lon="3.22124">
        <ele>94</ele>
        <time>2024-05-23T12:41:30.307Z</time>
      </trkpt>
      <trkpt lat="48.22185" lon="3.22117">
        <ele>94</ele>
        <time>2024-05-23T12:41:34.529Z</time>
      </trkpt>
      <trkpt lat="48.22184" lon="3.2211">
        <ele>94</ele>
        <time>2024-05-23T12:41:39.069Z</time>
      </trkpt>
      <trkpt lat="48.22183" lon="3.22102">
        <ele>94</ele>
        <time>2024-05-23T12:41:43.907Z</time>
      </trkpt>
      <trkpt lat="48.22181" lon="3.22096">
        <ele>94</ele>
        <time>2024-05-23T12:41:48.103Z</time>
      </trkpt>
      <trkpt lat="48.2218" lon="3.2209">
        <ele>99</ele>
        <time>2024-05-23T12:41:52.550Z</time>
      </trkpt>
      <trkpt lat="48.2218" lon="3.22083">
        <ele>99</ele>
        <time>2024-05-23T12:41:56.893Z</time>
      </trkpt>
      <trkpt lat="48.22178" lon="3.22075">
        <ele>99</ele>
        <time>2024-05-23T12:42:01.211Z</time>
      </trkpt>
      <trkpt lat="48.22177" lon="3.22067">
        <ele>99</ele>
        <time>2024-05-23T12:42:05.493Z</time>
      </trkpt>
      <trkpt lat="48.22177" lon="3.2206">
        <ele>99</ele>
        <time>2024-05-23T12:42:09.854Z</time>
      </trkpt>
      <trkpt lat="48.22175" lon="3.22053">
        <ele>99</ele>
        <time>2024-05-23T12:42:14.010Z</time>
      </trkpt>
      <trkpt lat="48.22174" lon="3.22046">
        <ele>99</ele>
        <time>2024-05-23T12:42:18.113Z</time>
      </trkpt>
      <trkpt lat="48.22172" lon="3.2204">
        <ele>97</ele>
        <time>2024-05-23T12:42:22.891Z</time>
      </trkpt>
      <trkpt lat="48.2217" lon="3.22035">
        <ele>97</ele>
        <time>2024-05-23T12:42:27.072Z</time>
      </trkpt>
      <trkpt lat="48.22168" lon="3.22029">
        <ele>97</ele>
        <time>2024-05-23T12:42:31.491Z</time>
      </trkpt>
      <trkpt lat="48.22166" lon="3.22023">
        <ele>97</ele>
        <time>2024-05-23T12:42:35.646Z</time>
      </trkpt>
      <trkpt lat="48.22164" lon="3.22017">
        <ele>97</ele>
        <time>2024-05-23T12:42:39.930Z</time>
      </trkpt>
      <trkpt lat="48.22163" lon="3.22011">
        <ele>96</ele>
        <time>2024-05-23T12:42:44.103Z</time>
      </trkpt>
      <trkpt lat="48.22161" lon="3.22004">
        <ele>96</ele>
        <time>2024-05-23T12:42:48.572Z</time>
      </trkpt>
      <trkpt lat="48.22159" lon="3.21999">
        <ele>96</ele>
        <time>2024-05-23T12:42:52.754Z</time>
      </trkpt>
      <trkpt lat="48.22157" lon="3.21992">
        <ele>96</ele>
        <time>2024-05-23T12:42:57.087Z</time>
      </trkpt>
      <trkpt lat="48.22157" lon="3.21985">
        <ele>94</ele>
        <time>2024-05-23T12:43:01.473Z</time>
      </trkpt>
      <trkpt lat="48.22156" lon="3.21979">
        <ele>94</ele>
        <time>2024-05-23T12:43:05.492Z</time>
      </trkpt>
      <trkpt lat="48.22154" lon="3.21971">
        <ele>94</ele>
        <time>2024-05-23T12:43:09.630Z</time>
      </trkpt>
      <trkpt lat="48.22152" lon="3.21964">
        <ele>98</ele>
        <time>2024-05-23T12:43:14.103Z</time>
      </trkpt>
      <trkpt lat="48.22149" lon="3.21957">
        <ele>96</ele>
        <time>2024-05-23T12:43:18.571Z</time>
      </trkpt>
      <trkpt lat="48.22148" lon="3.21951">
        <ele>96</ele>
        <time>2024-05-23T12:43:22.872Z</time>
      </trkpt>
      <trkpt lat="48.22147" lon="3.21945">
        <ele>96</ele>
        <time>2024-05-23T12:43:27.086Z</time>
      </trkpt>
      <trkpt lat="48.22145" lon="3.21939">
        <ele>96</ele>
        <time>2024-05-23T12:43:31.104Z</time>
      </trkpt>
      <trkpt lat="48.22143" lon="3.21932">
        <ele>96</ele>
        <time>2024-05-23T12:43:35.968Z</time>
      </trkpt>
      <trkpt lat="48.22141" lon="3.21926">
        <ele>94</ele>
        <time>2024-05-23T12:43:40.390Z</time>
      </trkpt>
      <trkpt lat="48.22138" lon="3.21921">
        <ele>94</ele>
        <time>2024-05-23T12:43:45.046Z</time>
      </trkpt>
      <trkpt lat="48.22134" lon="3.21917">
        <ele>94</ele>
        <time>2024-05-23T12:43:49.228Z</time>
      </trkpt>
      <trkpt lat="48.22131" lon="3.21914">
        <ele>94</ele>
        <time>2024-05-23T12:43:53.494Z</time>
      </trkpt>
      <trkpt lat="48.22127" lon="3.2191">
        <ele>94</ele>
        <time>2024-05-23T12:43:57.648Z</time>
      </trkpt>
      <trkpt lat="48.22122" lon="3.21907">
        <ele>96</ele>
        <time>2024-05-23T12:44:02.050Z</time>
      </trkpt>
      <trkpt lat="48.22118" lon="3.21903">
        <ele>95</ele>
        <time>2024-05-23T12:44:06.412Z</time>
      </trkpt>
      <trkpt lat="48.22114" lon="3.21899">
        <ele>95</ele>
        <time>2024-05-23T12:44:10.933Z</time>
      </trkpt>
      <trkpt lat="48.2211" lon="3.21896">
        <ele>95</ele>
        <time>2024-05-23T12:44:15.104Z</time>
      </trkpt>
      <trkpt lat="48.22105" lon="3.21893">
        <ele>95</ele>
        <time>2024-05-23T12:44:20.087Z</time>
      </trkpt>
      <trkpt lat="48.22101" lon="3.2189">
        <ele>95</ele>
        <time>2024-05-23T12:44:24.354Z</time>
      </trkpt>
      <trkpt lat="48.22096" lon="3.21887">
        <ele>96</ele>
        <time>2024-05-23T12:44:28.674Z</time>
      </trkpt>
      <trkpt lat="48.22092" lon="3.21883">
        <ele>96</ele>
        <time>2024-05-23T12:44:32.893Z</time>
      </trkpt>
      <trkpt lat="48.22088" lon="3.21879">
        <ele>96</ele>
        <time>2024-05-23T12:44:37.104Z</time>
      </trkpt>
      <trkpt lat="48.22083" lon="3.21876">
        <ele>96</ele>
        <time>2024-05-23T12:44:41.872Z</time>
      </trkpt>
      <trkpt lat="48.22079" lon="3.21872">
        <ele>95</ele>
        <time>2024-05-23T12:44:46.431Z</time>
      </trkpt>
      <trkpt lat="48.22074" lon="3.21869">
        <ele>95</ele>
        <time>2024-05-23T12:44:51.002Z</time>
      </trkpt>
      <trkpt lat="48.2207" lon="3.21867">
        <ele>95</ele>
        <time>2024-05-23T12:44:55.052Z</time>
      </trkpt>
      <trkpt lat="48.22066" lon="3.21866">
        <ele>96</ele>
        <time>2024-05-23T12:44:59.636Z</time>
      </trkpt>
      <trkpt lat="48.22061" lon="3.21864">
        <ele>96</ele>
        <time>2024-05-23T12:45:04.103Z</time>
      </trkpt>
      <trkpt lat="48.22059" lon="3.21861">
        <ele>96</ele>
        <time>2024-05-23T12:45:08.609Z</time>
      </trkpt>
      <trkpt lat="48.22055" lon="3.21858">
        <ele>96</ele>
        <time>2024-05-23T12:45:22.104Z</time>
      </trkpt>
      <trkpt lat="48.22054" lon="3.21858">
        <ele>96</ele>
        <time>2024-05-23T12:45:26.773Z</time>
      </trkpt>
      <trkpt lat="48.22054" lon="3.21858">
        <ele>96</ele>
        <time>2024-05-23T12:45:31.104Z</time>
      </trkpt>
      <trkpt lat="48.22051" lon="3.21858">
        <ele>96</ele>
        <time>2024-05-23T12:45:36.107Z</time>
      </trkpt>
      <trkpt lat="48.22048" lon="3.21864">
        <ele>96</ele>
        <time>2024-05-23T12:45:40.646Z</time>
      </trkpt>
      <trkpt lat="48.22047" lon="3.21869">
        <ele>96</ele>
        <time>2024-05-23T12:45:45.104Z</time>
      </trkpt>
      <trkpt lat="48.22045" lon="3.21877">
        <ele>97</ele>
        <time>2024-05-23T12:45:50.103Z</time>
      </trkpt>
      <trkpt lat="48.22043" lon="3.21884">
        <ele>97</ele>
        <time>2024-05-23T12:45:54.273Z</time>
      </trkpt>
      <trkpt lat="48.22042" lon="3.21892">
        <ele>97</ele>
        <time>2024-05-23T12:45:58.366Z</time>
      </trkpt>
      <trkpt lat="48.22041" lon="3.21899">
        <ele>100</ele>
        <time>2024-05-23T12:46:02.634Z</time>
      </trkpt>
      <trkpt lat="48.2204" lon="3.21906">
        <ele>101</ele>
        <time>2024-05-23T12:46:06.789Z</time>
      </trkpt>
      <trkpt lat="48.22038" lon="3.21914">
        <ele>101</ele>
        <time>2024-05-23T12:46:11.115Z</time>
      </trkpt>
      <trkpt lat="48.22036" lon="3.21921">
        <ele>101</ele>
        <time>2024-05-23T12:46:15.414Z</time>
      </trkpt>
      <trkpt lat="48.22034" lon="3.21923">
        <ele>101</ele>
        <time>2024-05-23T12:46:18.103Z</time>
      </trkpt>
      <trkpt lat="48.22033" lon="3.21925">
        <ele>101</ele>
        <time>2024-05-23T12:46:26.654Z</time>
      </trkpt>
      <trkpt lat="48.22032" lon="3.21927">
        <ele>101</ele>
        <time>2024-05-23T12:46:30.914Z</time>
      </trkpt>
      <trkpt lat="48.22033" lon="3.21932">
        <ele>101</ele>
        <time>2024-05-23T12:46:35.294Z</time>
      </trkpt>
      <trkpt lat="48.22032" lon="3.21938">
        <ele>101</ele>
        <time>2024-05-23T12:46:40.104Z</time>
      </trkpt>
      <trkpt lat="48.22032" lon="3.21948">
        <ele>101</ele>
        <time>2024-05-23T12:50:54.103Z</time>
      </trkpt>
      <trkpt lat="48.22033" lon="3.21949">
        <ele>101</ele>
        <time>2024-05-23T12:50:58.103Z</time>
      </trkpt>
      <trkpt lat="48.22033" lon="3.21952">
        <ele>101</ele>
        <time>2024-05-23T12:51:03.102Z</time>
      </trkpt>
      <trkpt lat="48.22033" lon="3.21954">
        <ele>101</ele>
        <time>2024-05-23T12:51:07.103Z</time>
      </trkpt>
      <trkpt lat="48.22032" lon="3.2196">
        <ele>101</ele>
        <time>2024-05-23T12:51:11.951Z</time>
      </trkpt>
      <trkpt lat="48.22031" lon="3.21965">
        <ele>101</ele>
        <time>2024-05-23T12:51:16.107Z</time>
      </trkpt>
      <trkpt lat="48.2203" lon="3.2197">
        <ele>101</ele>
        <time>2024-05-23T12:51:21.103Z</time>
      </trkpt>
      <trkpt lat="48.22029" lon="3.21975">
        <ele>101</ele>
        <time>2024-05-23T12:51:25.972Z</time>
      </trkpt>
      <trkpt lat="48.22029" lon="3.21978">
        <ele>101</ele>
        <time>2024-05-23T12:51:30.102Z</time>
      </trkpt>
      <trkpt lat="48.22029" lon="3.21978">
        <ele>101</ele>
        <time>2024-05-23T12:51:34.888Z</time>
      </trkpt>
      <trkpt lat="48.22025" lon="3.21987">
        <ele>102</ele>
        <time>2024-05-23T12:51:39.103Z</time>
      </trkpt>
      <trkpt lat="48.22025" lon="3.21998">
        <ele>102</ele>
        <time>2024-05-23T12:51:43.906Z</time>
      </trkpt>
      <trkpt lat="48.22023" lon="3.22008">
        <ele>102</ele>
        <time>2024-05-23T12:51:48.965Z</time>
      </trkpt>
      <trkpt lat="48.2202" lon="3.22012">
        <ele>102</ele>
        <time>2024-05-23T12:51:53.368Z</time>
      </trkpt>
      <trkpt lat="48.22018" lon="3.2202">
        <ele>102</ele>
        <time>2024-05-23T12:51:57.832Z</time>
      </trkpt>
      <trkpt lat="48.22016" lon="3.22027">
        <ele>102</ele>
        <time>2024-05-23T12:52:02.513Z</time>
      </trkpt>
      <trkpt lat="48.22014" lon="3.22035">
        <ele>102</ele>
        <time>2024-05-23T12:52:07.102Z</time>
      </trkpt>
      <trkpt lat="48.22014" lon="3.22041">
        <ele>102</ele>
        <time>2024-05-23T12:52:11.270Z</time>
      </trkpt>
      <trkpt lat="48.22015" lon="3.22048">
        <ele>101</ele>
        <time>2024-05-23T12:52:16.031Z</time>
      </trkpt>
      <trkpt lat="48.22014" lon="3.22052">
        <ele>101</ele>
        <time>2024-05-23T12:52:20.409Z</time>
      </trkpt>
      <trkpt lat="48.22013" lon="3.2206">
        <ele>102</ele>
        <time>2024-05-23T12:52:25.103Z</time>
      </trkpt>
      <trkpt lat="48.22012" lon="3.22067">
        <ele>102</ele>
        <time>2024-05-23T12:52:29.530Z</time>
      </trkpt>
      <trkpt lat="48.22011" lon="3.22074">
        <ele>102</ele>
        <time>2024-05-23T12:52:33.592Z</time>
      </trkpt>
      <trkpt lat="48.2201" lon="3.2208">
        <ele>102</ele>
        <time>2024-05-23T12:52:37.630Z</time>
      </trkpt>
      <trkpt lat="48.22008" lon="3.22086">
        <ele>102</ele>
        <time>2024-05-23T12:52:41.893Z</time>
      </trkpt>
      <trkpt lat="48.22006" lon="3.22092">
        <ele>102</ele>
        <time>2024-05-23T12:52:46.130Z</time>
      </trkpt>
      <trkpt lat="48.22004" lon="3.22101">
        <ele>101</ele>
        <time>2024-05-23T12:52:51.049Z</time>
      </trkpt>
      <trkpt lat="48.22003" lon="3.22107">
        <ele>101</ele>
        <time>2024-05-23T12:52:55.103Z</time>
      </trkpt>
      <trkpt lat="48.22001" lon="3.22115">
        <ele>101</ele>
        <time>2024-05-23T12:53:00.093Z</time>
      </trkpt>
      <trkpt lat="48.22" lon="3.22123">
        <ele>101</ele>
        <time>2024-05-23T12:53:04.710Z</time>
      </trkpt>
      <trkpt lat="48.21999" lon="3.22131">
        <ele>98</ele>
        <time>2024-05-23T12:53:09.371Z</time>
      </trkpt>
      <trkpt lat="48.21997" lon="3.22139">
        <ele>98</ele>
        <time>2024-05-23T12:53:13.890Z</time>
      </trkpt>
      <trkpt lat="48.21996" lon="3.22145">
        <ele>98</ele>
        <time>2024-05-23T12:53:18.012Z</time>
      </trkpt>
      <trkpt lat="48.21994" lon="3.22152">
        <ele>98</ele>
        <time>2024-05-23T12:53:22.102Z</time>
      </trkpt>
      <trkpt lat="48.21993" lon="3.22159">
        <ele>96</ele>
        <time>2024-05-23T12:53:27.102Z</time>
      </trkpt>
      <trkpt lat="48.21993" lon="3.22164">
        <ele>96</ele>
        <time>2024-05-23T12:53:31.306Z</time>
      </trkpt>
      <trkpt lat="48.21994" lon="3.22171">
        <ele>96</ele>
        <time>2024-05-23T12:53:35.513Z</time>
      </trkpt>
      <trkpt lat="48.21992" lon="3.22178">
        <ele>96</ele>
        <time>2024-05-23T12:53:39.710Z</time>
      </trkpt>
      <trkpt lat="48.21994" lon="3.22185">
        <ele>95</ele>
        <time>2024-05-23T12:53:43.746Z</time>
      </trkpt>
      <trkpt lat="48.21997" lon="3.22191">
        <ele>95</ele>
        <time>2024-05-23T12:53:48.312Z</time>
      </trkpt>
      <trkpt lat="48.22" lon="3.22199">
        <ele>95</ele>
        <time>2024-05-23T12:53:52.806Z</time>
      </trkpt>
      <trkpt lat="48.22013" lon="3.22224">
        <ele>94</ele>
        <time>2024-05-23T12:54:42.577Z</time>
      </trkpt>
      <trkpt lat="48.22012" lon="3.22226">
        <ele>94</ele>
        <time>2024-05-23T12:54:47.103Z</time>
      </trkpt>
      <trkpt lat="48.22011" lon="3.22227">
        <ele>94</ele>
        <time>2024-05-23T12:54:51.103Z</time>
      </trkpt>
      <trkpt lat="48.22012" lon="3.22233">
        <ele>94</ele>
        <time>2024-05-23T12:54:55.617Z</time>
      </trkpt>
      <trkpt lat="48.22015" lon="3.22237">
        <ele>91</ele>
        <time>2024-05-23T12:54:59.669Z</time>
      </trkpt>
      <trkpt lat="48.22015" lon="3.2225">
        <ele>91</ele>
        <time>2024-05-23T12:56:17.102Z</time>
      </trkpt>
      <trkpt lat="48.22015" lon="3.22252">
        <ele>91</ele>
        <time>2024-05-23T12:56:21.802Z</time>
      </trkpt>
      <trkpt lat="48.22015" lon="3.22258">
        <ele>91</ele>
        <time>2024-05-23T12:56:26.335Z</time>
      </trkpt>
      <trkpt lat="48.22015" lon="3.22264">
        <ele>91</ele>
        <time>2024-05-23T12:56:30.832Z</time>
      </trkpt>
      <trkpt lat="48.22017" lon="3.22267">
        <ele>91</ele>
        <time>2024-05-23T12:56:35.713Z</time>
      </trkpt>
      <trkpt lat="48.22018" lon="3.2227">
        <ele>91</ele>
        <time>2024-05-23T12:57:18.101Z</time>
      </trkpt>
      <trkpt lat="48.22018" lon="3.22276">
        <ele>91</ele>
        <time>2024-05-23T12:57:22.513Z</time>
      </trkpt>
      <trkpt lat="48.22019" lon="3.22282">
        <ele>91</ele>
        <time>2024-05-23T12:57:26.728Z</time>
      </trkpt>
      <trkpt lat="48.22022" lon="3.22289">
        <ele>91</ele>
        <time>2024-05-23T12:57:31.353Z</time>
      </trkpt>
      <trkpt lat="48.22023" lon="3.22295">
        <ele>91</ele>
        <time>2024-05-23T12:57:35.611Z</time>
      </trkpt>
      <trkpt lat="48.22024" lon="3.22301">
        <ele>91</ele>
        <time>2024-05-23T12:57:39.829Z</time>
      </trkpt>
      <trkpt lat="48.22026" lon="3.22307">
        <ele>91</ele>
        <time>2024-05-23T12:57:44.111Z</time>
      </trkpt>
      <trkpt lat="48.22026" lon="3.22314">
        <ele>91</ele>
        <time>2024-05-23T12:57:48.548Z</time>
      </trkpt>
      <trkpt lat="48.22026" lon="3.22321">
        <ele>92</ele>
        <time>2024-05-23T12:57:52.754Z</time>
      </trkpt>
      <trkpt lat="48.22027" lon="3.22329">
        <ele>92</ele>
        <time>2024-05-23T12:57:56.893Z</time>
      </trkpt>
      <trkpt lat="48.22027" lon="3.22335">
        <ele>92</ele>
        <time>2024-05-23T12:58:00.954Z</time>
      </trkpt>
      <trkpt lat="48.22028" lon="3.22343">
        <ele>92</ele>
        <time>2024-05-23T12:58:05.050Z</time>
      </trkpt>
      <trkpt lat="48.22028" lon="3.2235">
        <ele>92</ele>
        <time>2024-05-23T12:58:09.154Z</time>
      </trkpt>
      <trkpt lat="48.22027" lon="3.22357">
        <ele>92</ele>
        <time>2024-05-23T12:58:13.353Z</time>
      </trkpt>
      <trkpt lat="48.22025" lon="3.22363">
        <ele>92</ele>
        <time>2024-05-23T12:58:18.102Z</time>
      </trkpt>
      <trkpt lat="48.22026" lon="3.2237">
        <ele>92</ele>
        <time>2024-05-23T12:58:22.258Z</time>
      </trkpt>
      <trkpt lat="48.22028" lon="3.22377">
        <ele>92</ele>
        <time>2024-05-23T12:58:26.313Z</time>
      </trkpt>
      <trkpt lat="48.22027" lon="3.22386">
        <ele>92</ele>
        <time>2024-05-23T12:58:31.101Z</time>
      </trkpt>
      <trkpt lat="48.22025" lon="3.22396">
        <ele>92</ele>
        <time>2024-05-23T12:58:35.809Z</time>
      </trkpt>
      <trkpt lat="48.22024" lon="3.22404">
        <ele>92</ele>
        <time>2024-05-23T12:58:40.022Z</time>
      </trkpt>
      <trkpt lat="48.22023" lon="3.22411">
        <ele>92</ele>
        <time>2024-05-23T12:58:44.101Z</time>
      </trkpt>
      <trkpt lat="48.22023" lon="3.2242">
        <ele>92</ele>
        <time>2024-05-23T12:58:48.811Z</time>
      </trkpt>
      <trkpt lat="48.22023" lon="3.22428">
        <ele>92</ele>
        <time>2024-05-23T12:58:53.015Z</time>
      </trkpt>
      <trkpt lat="48.22022" lon="3.22436">
        <ele>91</ele>
        <time>2024-05-23T12:58:57.101Z</time>
      </trkpt>
      <trkpt lat="48.22022" lon="3.22444">
        <ele>91</ele>
        <time>2024-05-23T12:59:01.854Z</time>
      </trkpt>
      <trkpt lat="48.22021" lon="3.2245">
        <ele>91</ele>
        <time>2024-05-23T12:59:05.994Z</time>
      </trkpt>
      <trkpt lat="48.22018" lon="3.22453">
        <ele>91</ele>
        <time>2024-05-23T12:59:10.031Z</time>
      </trkpt>
      <trkpt lat="48.22014" lon="3.22452">
        <ele>92</ele>
        <time>2024-05-23T12:59:14.521Z</time>
      </trkpt>
      <trkpt lat="48.22009" lon="3.22452">
        <ele>92</ele>
        <time>2024-05-23T12:59:18.930Z</time>
      </trkpt>
      <trkpt lat="48.22006" lon="3.2245">
        <ele>92</ele>
        <time>2024-05-23T12:59:23.102Z</time>
      </trkpt>
      <trkpt lat="48.22002" lon="3.2245">
        <ele>92</ele>
        <time>2024-05-23T12:59:27.576Z</time>
      </trkpt>
      <trkpt lat="48.21999" lon="3.2245">
        <ele>92</ele>
        <time>2024-05-23T12:59:31.836Z</time>
      </trkpt>
      <trkpt lat="48.21995" lon="3.22449">
        <ele>92</ele>
        <time>2024-05-23T12:59:36.102Z</time>
      </trkpt>
      <trkpt lat="48.21991" lon="3.22449">
        <ele>92</ele>
        <time>2024-05-23T12:59:40.537Z</time>
      </trkpt>
      <trkpt lat="48.21988" lon="3.22449">
        <ele>92</ele>
        <time>2024-05-23T12:59:44.638Z</time>
      </trkpt>
      <trkpt lat="48.21984" lon="3.22448">
        <ele>94</ele>
        <time>2024-05-23T12:59:48.751Z</time>
      </trkpt>
      <trkpt lat="48.2198" lon="3.22447">
        <ele>94</ele>
        <time>2024-05-23T12:59:52.830Z</time>
      </trkpt>
      <trkpt lat="48.21976" lon="3.22447">
        <ele>94</ele>
        <time>2024-05-23T12:59:57.102Z</time>
      </trkpt>
      <trkpt lat="48.21971" lon="3.22447">
        <ele>94</ele>
        <time>2024-05-23T13:00:01.652Z</time>
      </trkpt>
      <trkpt lat="48.21969" lon="3.22445">
        <ele>94</ele>
        <time>2024-05-23T13:00:06.101Z</time>
      </trkpt>
      <trkpt lat="48.21965" lon="3.22445">
        <ele>94</ele>
        <time>2024-05-23T13:00:10.104Z</time>
      </trkpt>
      <trkpt lat="48.21962" lon="3.22442">
        <ele>94</ele>
        <time>2024-05-23T13:00:14.668Z</time>
      </trkpt>
      <trkpt lat="48.21959" lon="3.2244">
        <ele>94</ele>
        <time>2024-05-23T13:00:19.101Z</time>
      </trkpt>
      <trkpt lat="48.21956" lon="3.22441">
        <ele>97</ele>
        <time>2024-05-23T13:00:23.408Z</time>
      </trkpt>
      <trkpt lat="48.21951" lon="3.22442">
        <ele>97</ele>
        <time>2024-05-23T13:00:27.487Z</time>
      </trkpt>
      <trkpt lat="48.21947" lon="3.22442">
        <ele>97</ele>
        <time>2024-05-23T13:00:31.847Z</time>
      </trkpt>
      <trkpt lat="48.21942" lon="3.22442">
        <ele>97</ele>
        <time>2024-05-23T13:00:36.370Z</time>
      </trkpt>
      <trkpt lat="48.21937" lon="3.22442">
        <ele>97</ele>
        <time>2024-05-23T13:00:40.773Z</time>
      </trkpt>
      <trkpt lat="48.21933" lon="3.22439">
        <ele>97</ele>
        <time>2024-05-23T13:00:44.886Z</time>
      </trkpt>
      <trkpt lat="48.21929" lon="3.22437">
        <ele>98</ele>
        <time>2024-05-23T13:00:48.948Z</time>
      </trkpt>
      <trkpt lat="48.21925" lon="3.22436">
        <ele>98</ele>
        <time>2024-05-23T13:00:53.070Z</time>
      </trkpt>
      <trkpt lat="48.21921" lon="3.22435">
        <ele>98</ele>
        <time>2024-05-23T13:00:57.088Z</time>
      </trkpt>
      <trkpt lat="48.21916" lon="3.22436">
        <ele>98</ele>
        <time>2024-05-23T13:01:01.714Z</time>
      </trkpt>
      <trkpt lat="48.21912" lon="3.22438">
        <ele>98</ele>
        <time>2024-05-23T13:01:06.287Z</time>
      </trkpt>
      <trkpt lat="48.21908" lon="3.22441">
        <ele>98</ele>
        <time>2024-05-23T13:01:10.409Z</time>
      </trkpt>
      <trkpt lat="48.21906" lon="3.22447">
        <ele>98</ele>
        <time>2024-05-23T13:01:14.813Z</time>
      </trkpt>
      <trkpt lat="48.21904" lon="3.22453">
        <ele>98</ele>
        <time>2024-05-23T13:01:19.102Z</time>
      </trkpt>
      <trkpt lat="48.21903" lon="3.22459">
        <ele>97</ele>
        <time>2024-05-23T13:01:23.311Z</time>
      </trkpt>
      <trkpt lat="48.21903" lon="3.22466">
        <ele>99</ele>
        <time>2024-05-23T13:01:28.029Z</time>
      </trkpt>
      <trkpt lat="48.21902" lon="3.22473">
        <ele>99</ele>
        <time>2024-05-23T13:01:32.347Z</time>
      </trkpt>
      <trkpt lat="48.21901" lon="3.22481">
        <ele>99</ele>
        <time>2024-05-23T13:01:36.733Z</time>
      </trkpt>
      <trkpt lat="48.219" lon="3.22488">
        <ele>97</ele>
        <time>2024-05-23T13:01:40.786Z</time>
      </trkpt>
      <trkpt lat="48.21899" lon="3.22495">
        <ele>97</ele>
        <time>2024-05-23T13:01:45.101Z</time>
      </trkpt>
      <trkpt lat="48.21899" lon="3.22503">
        <ele>97</ele>
        <time>2024-05-23T13:01:49.754Z</time>
      </trkpt>
      <trkpt lat="48.21898" lon="3.2251">
        <ele>97</ele>
        <time>2024-05-23T13:01:53.987Z</time>
      </trkpt>
      <trkpt lat="48.21898" lon="3.22517">
        <ele>97</ele>
        <time>2024-05-23T13:01:58.102Z</time>
      </trkpt>
      <trkpt lat="48.21897" lon="3.22525">
        <ele>97</ele>
        <time>2024-05-23T13:02:02.928Z</time>
      </trkpt>
      <trkpt lat="48.21897" lon="3.22531">
        <ele>97</ele>
        <time>2024-05-23T13:02:07.101Z</time>
      </trkpt>
      <trkpt lat="48.21896" lon="3.22538">
        <ele>97</ele>
        <time>2024-05-23T13:02:11.632Z</time>
      </trkpt>
      <trkpt lat="48.21896" lon="3.22546">
        <ele>97</ele>
        <time>2024-05-23T13:02:16.101Z</time>
      </trkpt>
      <trkpt lat="48.21895" lon="3.22554">
        <ele>97</ele>
        <time>2024-05-23T13:02:20.548Z</time>
      </trkpt>
      <trkpt lat="48.21894" lon="3.22562">
        <ele>97</ele>
        <time>2024-05-23T13:02:25.101Z</time>
      </trkpt>
      <trkpt lat="48.21893" lon="3.2257">
        <ele>97</ele>
        <time>2024-05-23T13:02:29.686Z</time>
      </trkpt>
      <trkpt lat="48.21893" lon="3.22578">
        <ele>97</ele>
        <time>2024-05-23T13:02:33.953Z</time>
      </trkpt>
      <trkpt lat="48.21892" lon="3.22584">
        <ele>97</ele>
        <time>2024-05-23T13:02:38.509Z</time>
      </trkpt>
      <trkpt lat="48.21892" lon="3.22591">
        <ele>97</ele>
        <time>2024-05-23T13:02:42.683Z</time>
      </trkpt>
      <trkpt lat="48.21891" lon="3.22599">
        <ele>96</ele>
        <time>2024-05-23T13:02:47.276Z</time>
      </trkpt>
      <trkpt lat="48.2189" lon="3.22605">
        <ele>96</ele>
        <time>2024-05-23T13:02:51.727Z</time>
      </trkpt>
      <trkpt lat="48.21889" lon="3.22614">
        <ele>96</ele>
        <time>2024-05-23T13:02:56.133Z</time>
      </trkpt>
      <trkpt lat="48.21888" lon="3.22621">
        <ele>96</ele>
        <time>2024-05-23T13:03:00.168Z</time>
      </trkpt>
      <trkpt lat="48.21888" lon="3.22627">
        <ele>96</ele>
        <time>2024-05-23T13:03:04.613Z</time>
      </trkpt>
      <trkpt lat="48.21888" lon="3.22633">
        <ele>96</ele>
        <time>2024-05-23T13:03:08.815Z</time>
      </trkpt>
      <trkpt lat="48.21887" lon="3.22639">
        <ele>96</ele>
        <time>2024-05-23T13:03:13.100Z</time>
      </trkpt>
      <trkpt lat="48.21886" lon="3.22644">
        <ele>96</ele>
        <time>2024-05-23T13:03:17.353Z</time>
      </trkpt>
      <trkpt lat="48.21886" lon="3.22651">
        <ele>96</ele>
        <time>2024-05-23T13:03:21.771Z</time>
      </trkpt>
      <trkpt lat="48.21885" lon="3.22652">
        <ele>96</ele>
        <time>2024-05-23T13:04:16.029Z</time>
      </trkpt>
      <trkpt lat="48.21885" lon="3.22652">
        <ele>96</ele>
        <time>2024-05-23T13:04:20.075Z</time>
      </trkpt>
      <trkpt lat="48.21882" lon="3.22657">
        <ele>97</ele>
        <time>2024-05-23T13:04:24.100Z</time>
      </trkpt>
      <trkpt lat="48.2188" lon="3.22664">
        <ele>97</ele>
        <time>2024-05-23T13:04:28.737Z</time>
      </trkpt>
      <trkpt lat="48.21879" lon="3.22671">
        <ele>97</ele>
        <time>2024-05-23T13:04:33.108Z</time>
      </trkpt>
      <trkpt lat="48.21877" lon="3.22678">
        <ele>97</ele>
        <time>2024-05-23T13:04:37.113Z</time>
      </trkpt>
      <trkpt lat="48.21872" lon="3.22681">
        <ele>99</ele>
        <time>2024-05-23T13:04:41.590Z</time>
      </trkpt>
      <trkpt lat="48.21867" lon="3.22681">
        <ele>99</ele>
        <time>2024-05-23T13:04:45.774Z</time>
      </trkpt>
      <trkpt lat="48.21863" lon="3.22682">
        <ele>99</ele>
        <time>2024-05-23T13:04:50.388Z</time>
      </trkpt>
      <trkpt lat="48.21856" lon="3.22675">
        <ele>98</ele>
        <time>2024-05-23T13:05:32.100Z</time>
      </trkpt>
      <trkpt lat="48.21856" lon="3.22675">
        <ele>98</ele>
        <time>2024-05-23T13:05:36.100Z</time>
      </trkpt>
      <trkpt lat="48.21855" lon="3.22675">
        <ele>98</ele>
        <time>2024-05-23T13:05:41.100Z</time>
      </trkpt>
      <trkpt lat="48.21854" lon="3.22675">
        <ele>98</ele>
        <time>2024-05-23T13:05:45.100Z</time>
      </trkpt>
      <trkpt lat="48.21849" lon="3.22674">
        <ele>98</ele>
        <time>2024-05-23T13:05:49.374Z</time>
      </trkpt>
      <trkpt lat="48.21846" lon="3.22674">
        <ele>99</ele>
        <time>2024-05-23T13:05:54.100Z</time>
      </trkpt>
      <trkpt lat="48.21842" lon="3.22682">
        <ele>100</ele>
        <time>2024-05-23T13:05:58.354Z</time>
      </trkpt>
      <trkpt lat="48.21837" lon="3.22685">
        <ele>100</ele>
        <time>2024-05-23T13:06:02.412Z</time>
      </trkpt>
      <trkpt lat="48.21832" lon="3.22686">
        <ele>100</ele>
        <time>2024-05-23T13:06:06.473Z</time>
      </trkpt>
      <trkpt lat="48.21827" lon="3.22685">
        <ele>100</ele>
        <time>2024-05-23T13:06:10.735Z</time>
      </trkpt>
      <trkpt lat="48.21823" lon="3.22685">
        <ele>100</ele>
        <time>2024-05-23T13:06:15.126Z</time>
      </trkpt>
      <trkpt lat="48.21818" lon="3.22685">
        <ele>100</ele>
        <time>2024-05-23T13:06:19.535Z</time>
      </trkpt>
      <trkpt lat="48.21813" lon="3.22686">
        <ele>100</ele>
        <time>2024-05-23T13:06:23.754Z</time>
      </trkpt>
      <trkpt lat="48.21809" lon="3.22687">
        <ele>100</ele>
        <time>2024-05-23T13:06:27.775Z</time>
      </trkpt>
      <trkpt lat="48.21804" lon="3.22689">
        <ele>100</ele>
        <time>2024-05-23T13:06:32.100Z</time>
      </trkpt>
      <trkpt lat="48.21799" lon="3.2269">
        <ele>100</ele>
        <time>2024-05-23T13:06:36.874Z</time>
      </trkpt>
      <trkpt lat="48.21795" lon="3.22691">
        <ele>100</ele>
        <time>2024-05-23T13:06:41.100Z</time>
      </trkpt>
      <trkpt lat="48.21791" lon="3.22691">
        <ele>101</ele>
        <time>2024-05-23T13:06:45.991Z</time>
      </trkpt>
      <trkpt lat="48.21786" lon="3.22693">
        <ele>101</ele>
        <time>2024-05-23T13:06:50.101Z</time>
      </trkpt>
      <trkpt lat="48.21781" lon="3.22694">
        <ele>101</ele>
        <time>2024-05-23T13:06:54.356Z</time>
      </trkpt>
      <trkpt lat="48.21776" lon="3.22695">
        <ele>101</ele>
        <time>2024-05-23T13:06:58.612Z</time>
      </trkpt>
      <trkpt lat="48.21771" lon="3.22696">
        <ele>101</ele>
        <time>2024-05-23T13:07:02.972Z</time>
      </trkpt>
      <trkpt lat="48.21766" lon="3.22697">
        <ele>101</ele>
        <time>2024-05-23T13:07:07.100Z</time>
      </trkpt>
      <trkpt lat="48.21762" lon="3.22696">
        <ele>101</ele>
        <time>2024-05-23T13:07:11.477Z</time>
      </trkpt>
      <trkpt lat="48.21758" lon="3.22698">
        <ele>101</ele>
        <time>2024-05-23T13:07:15.511Z</time>
      </trkpt>
      <trkpt lat="48.21753" lon="3.227">
        <ele>101</ele>
        <time>2024-05-23T13:07:20.096Z</time>
      </trkpt>
      <trkpt lat="48.21748" lon="3.227">
        <ele>101</ele>
        <time>2024-05-23T13:07:24.471Z</time>
      </trkpt>
      <trkpt lat="48.21743" lon="3.22699">
        <ele>101</ele>
        <time>2024-05-23T13:07:28.830Z</time>
      </trkpt>
      <trkpt lat="48.21738" lon="3.22699">
        <ele>101</ele>
        <time>2024-05-23T13:07:32.957Z</time>
      </trkpt>
      <trkpt lat="48.21734" lon="3.22699">
        <ele>102</ele>
        <time>2024-05-23T13:07:37.100Z</time>
      </trkpt>
      <trkpt lat="48.21728" lon="3.22698">
        <ele>102</ele>
        <time>2024-05-23T13:07:41.488Z</time>
      </trkpt>
      <trkpt lat="48.21724" lon="3.22697">
        <ele>102</ele>
        <time>2024-05-23T13:07:45.912Z</time>
      </trkpt>
      <trkpt lat="48.2172" lon="3.22695">
        <ele>102</ele>
        <time>2024-05-23T13:07:50.100Z</time>
      </trkpt>
      <trkpt lat="48.21715" lon="3.22694">
        <ele>102</ele>
        <time>2024-05-23T13:07:54.555Z</time>
      </trkpt>
      <trkpt lat="48.21711" lon="3.22692">
        <ele>102</ele>
        <time>2024-05-23T13:07:58.846Z</time>
      </trkpt>
      <trkpt lat="48.21706" lon="3.22692">
        <ele>102</ele>
        <time>2024-05-23T13:08:02.873Z</time>
      </trkpt>
      <trkpt lat="48.21702" lon="3.2269">
        <ele>102</ele>
        <time>2024-05-23T13:08:07.100Z</time>
      </trkpt>
      <trkpt lat="48.21697" lon="3.22689">
        <ele>102</ele>
        <time>2024-05-23T13:08:11.633Z</time>
      </trkpt>
      <trkpt lat="48.21692" lon="3.22687">
        <ele>102</ele>
        <time>2024-05-23T13:08:16.100Z</time>
      </trkpt>
      <trkpt lat="48.21687" lon="3.22686">
        <ele>102</ele>
        <time>2024-05-23T13:08:20.457Z</time>
      </trkpt>
      <trkpt lat="48.21682" lon="3.22684">
        <ele>102</ele>
        <time>2024-05-23T13:08:24.730Z</time>
      </trkpt>
      <trkpt lat="48.21677" lon="3.22682">
        <ele>103</ele>
        <time>2024-05-23T13:08:29.100Z</time>
      </trkpt>
      <trkpt lat="48.21673" lon="3.22681">
        <ele>103</ele>
        <time>2024-05-23T13:08:33.379Z</time>
      </trkpt>
      <trkpt lat="48.21667" lon="3.22679">
        <ele>102</ele>
        <time>2024-05-23T13:08:37.912Z</time>
      </trkpt>
      <trkpt lat="48.21663" lon="3.22677">
        <ele>102</ele>
        <time>2024-05-23T13:08:42.099Z</time>
      </trkpt>
      <trkpt lat="48.21658" lon="3.22678">
        <ele>102</ele>
        <time>2024-05-23T13:08:46.349Z</time>
      </trkpt>
      <trkpt lat="48.21654" lon="3.22677">
        <ele>102</ele>
        <time>2024-05-23T13:08:50.669Z</time>
      </trkpt>
      <trkpt lat="48.21649" lon="3.22674">
        <ele>103</ele>
        <time>2024-05-23T13:08:54.808Z</time>
      </trkpt>
      <trkpt lat="48.21644" lon="3.22672">
        <ele>103</ele>
        <time>2024-05-23T13:08:59.099Z</time>
      </trkpt>
      <trkpt lat="48.21639" lon="3.2267">
        <ele>103</ele>
        <time>2024-05-23T13:09:03.471Z</time>
      </trkpt>
      <trkpt lat="48.21634" lon="3.22668">
        <ele>103</ele>
        <time>2024-05-23T13:09:07.874Z</time>
      </trkpt>
      <trkpt lat="48.21629" lon="3.22667">
        <ele>103</ele>
        <time>2024-05-23T13:09:12.089Z</time>
      </trkpt>
      <trkpt lat="48.21624" lon="3.22667">
        <ele>105</ele>
        <time>2024-05-23T13:09:16.434Z</time>
      </trkpt>
      <trkpt lat="48.21619" lon="3.22666">
        <ele>105</ele>
        <time>2024-05-23T13:09:21.099Z</time>
      </trkpt>
      <trkpt lat="48.21614" lon="3.22664">
        <ele>105</ele>
        <time>2024-05-23T13:09:25.325Z</time>
      </trkpt>
      <trkpt lat="48.21609" lon="3.22663">
        <ele>105</ele>
        <time>2024-05-23T13:09:29.747Z</time>
      </trkpt>
      <trkpt lat="48.21604" lon="3.22663">
        <ele>105</ele>
        <time>2024-05-23T13:09:33.893Z</time>
      </trkpt>
      <trkpt lat="48.21599" lon="3.22662">
        <ele>105</ele>
        <time>2024-05-23T13:09:38.099Z</time>
      </trkpt>
      <trkpt lat="48.21595" lon="3.22661">
        <ele>107</ele>
        <time>2024-05-23T13:09:42.633Z</time>
      </trkpt>
      <trkpt lat="48.2159" lon="3.22659">
        <ele>107</ele>
        <time>2024-05-23T13:09:47.105Z</time>
      </trkpt>
      <trkpt lat="48.21585" lon="3.22657">
        <ele>107</ele>
        <time>2024-05-23T13:09:51.354Z</time>
      </trkpt>
      <trkpt lat="48.2158" lon="3.22656">
        <ele>107</ele>
        <time>2024-05-23T13:09:55.646Z</time>
      </trkpt>
      <trkpt lat="48.21575" lon="3.22655">
        <ele>107</ele>
        <time>2024-05-23T13:10:00.100Z</time>
      </trkpt>
      <trkpt lat="48.2157" lon="3.22653">
        <ele>107</ele>
        <time>2024-05-23T13:10:04.548Z</time>
      </trkpt>
      <trkpt lat="48.21565" lon="3.22652">
        <ele>108</ele>
        <time>2024-05-23T13:10:09.053Z</time>
      </trkpt>
      <trkpt lat="48.21561" lon="3.22651">
        <ele>108</ele>
        <time>2024-05-23T13:10:13.099Z</time>
      </trkpt>
      <trkpt lat="48.21556" lon="3.2265">
        <ele>108</ele>
        <time>2024-05-23T13:10:17.792Z</time>
      </trkpt>
      <trkpt lat="48.21551" lon="3.22649">
        <ele>108</ele>
        <time>2024-05-23T13:10:22.067Z</time>
      </trkpt>
      <trkpt lat="48.21546" lon="3.22647">
        <ele>108</ele>
        <time>2024-05-23T13:10:26.530Z</time>
      </trkpt>
      <trkpt lat="48.21541" lon="3.22645">
        <ele>110</ele>
        <time>2024-05-23T13:10:30.770Z</time>
      </trkpt>
      <trkpt lat="48.21536" lon="3.22643">
        <ele>110</ele>
        <time>2024-05-23T13:10:35.610Z</time>
      </trkpt>
      <trkpt lat="48.21532" lon="3.2264">
        <ele>110</ele>
        <time>2024-05-23T13:10:39.689Z</time>
      </trkpt>
      <trkpt lat="48.21526" lon="3.22639">
        <ele>110</ele>
        <time>2024-05-23T13:10:44.271Z</time>
      </trkpt>
      <trkpt lat="48.21522" lon="3.22637">
        <ele>110</ele>
        <time>2024-05-23T13:10:48.452Z</time>
      </trkpt>
      <trkpt lat="48.21516" lon="3.22635">
        <ele>110</ele>
        <time>2024-05-23T13:10:53.052Z</time>
      </trkpt>
      <trkpt lat="48.21511" lon="3.22634">
        <ele>112</ele>
        <time>2024-05-23T13:10:57.387Z</time>
      </trkpt>
      <trkpt lat="48.21507" lon="3.22632">
        <ele>112</ele>
        <time>2024-05-23T13:11:01.627Z</time>
      </trkpt>
      <trkpt lat="48.21502" lon="3.22631">
        <ele>112</ele>
        <time>2024-05-23T13:11:05.929Z</time>
      </trkpt>
      <trkpt lat="48.21497" lon="3.22629">
        <ele>112</ele>
        <time>2024-05-23T13:11:10.349Z</time>
      </trkpt>
      <trkpt lat="48.21493" lon="3.22629">
        <ele>112</ele>
        <time>2024-05-23T13:11:14.591Z</time>
      </trkpt>
      <trkpt lat="48.21488" lon="3.22627">
        <ele>112</ele>
        <time>2024-05-23T13:11:18.967Z</time>
      </trkpt>
      <trkpt lat="48.21483" lon="3.22626">
        <ele>114</ele>
        <time>2024-05-23T13:11:23.100Z</time>
      </trkpt>
      <trkpt lat="48.21479" lon="3.22625">
        <ele>113</ele>
        <time>2024-05-23T13:11:27.193Z</time>
      </trkpt>
      <trkpt lat="48.21473" lon="3.22624">
        <ele>113</ele>
        <time>2024-05-23T13:11:31.511Z</time>
      </trkpt>
      <trkpt lat="48.21469" lon="3.22622">
        <ele>113</ele>
        <time>2024-05-23T13:11:35.846Z</time>
      </trkpt>
      <trkpt lat="48.21464" lon="3.22622">
        <ele>113</ele>
        <time>2024-05-23T13:11:40.099Z</time>
      </trkpt>
      <trkpt lat="48.21459" lon="3.22621">
        <ele>113</ele>
        <time>2024-05-23T13:11:44.355Z</time>
      </trkpt>
      <trkpt lat="48.21454" lon="3.2262">
        <ele>116</ele>
        <time>2024-05-23T13:11:48.791Z</time>
      </trkpt>
      <trkpt lat="48.2145" lon="3.22618">
        <ele>116</ele>
        <time>2024-05-23T13:11:53.100Z</time>
      </trkpt>
      <trkpt lat="48.21445" lon="3.22616">
        <ele>116</ele>
        <time>2024-05-23T13:11:57.427Z</time>
      </trkpt>
      <trkpt lat="48.2144" lon="3.22616">
        <ele>116</ele>
        <time>2024-05-23T13:12:01.846Z</time>
      </trkpt>
      <trkpt lat="48.21435" lon="3.22616">
        <ele>116</ele>
        <time>2024-05-23T13:12:06.099Z</time>
      </trkpt>
      <trkpt lat="48.21431" lon="3.22616">
        <ele>116</ele>
        <time>2024-05-23T13:12:10.415Z</time>
      </trkpt>
      <trkpt lat="48.21426" lon="3.22617">
        <ele>118</ele>
        <time>2024-05-23T13:12:14.748Z</time>
      </trkpt>
      <trkpt lat="48.21421" lon="3.22616">
        <ele>118</ele>
        <time>2024-05-23T13:12:19.099Z</time>
      </trkpt>
      <trkpt lat="48.21416" lon="3.22615">
        <ele>118</ele>
        <time>2024-05-23T13:12:23.751Z</time>
      </trkpt>
      <trkpt lat="48.21411" lon="3.22615">
        <ele>118</ele>
        <time>2024-05-23T13:12:28.100Z</time>
      </trkpt>
      <trkpt lat="48.21406" lon="3.22616">
        <ele>118</ele>
        <time>2024-05-23T13:12:32.480Z</time>
      </trkpt>
      <trkpt lat="48.21401" lon="3.22616">
        <ele>120</ele>
        <time>2024-05-23T13:12:36.610Z</time>
      </trkpt>
      <trkpt lat="48.21396" lon="3.22616">
        <ele>120</ele>
        <time>2024-05-23T13:12:41.100Z</time>
      </trkpt>
      <trkpt lat="48.21391" lon="3.22616">
        <ele>120</ele>
        <time>2024-05-23T13:12:45.613Z</time>
      </trkpt>
      <trkpt lat="48.21386" lon="3.22616">
        <ele>120</ele>
        <time>2024-05-23T13:12:50.048Z</time>
      </trkpt>
      <trkpt lat="48.21382" lon="3.22616">
        <ele>120</ele>
        <time>2024-05-23T13:12:54.188Z</time>
      </trkpt>
      <trkpt lat="48.21377" lon="3.22617">
        <ele>120</ele>
        <time>2024-05-23T13:12:58.873Z</time>
      </trkpt>
      <trkpt lat="48.21372" lon="3.22617">
        <ele>121</ele>
        <time>2024-05-23T13:13:03.099Z</time>
      </trkpt>
      <trkpt lat="48.21366" lon="3.22617">
        <ele>121</ele>
        <time>2024-05-23T13:13:08.087Z</time>
      </trkpt>
      <trkpt lat="48.21361" lon="3.22618">
        <ele>121</ele>
        <time>2024-05-23T13:13:12.474Z</time>
      </trkpt>
      <trkpt lat="48.21356" lon="3.22618">
        <ele>121</ele>
        <time>2024-05-23T13:13:16.737Z</time>
      </trkpt>
      <trkpt lat="48.21351" lon="3.22618">
        <ele>121</ele>
        <time>2024-05-23T13:13:21.092Z</time>
      </trkpt>
      <trkpt lat="48.21338" lon="3.22614">
        <ele>123</ele>
        <time>2024-05-23T13:13:38.099Z</time>
      </trkpt>
      <trkpt lat="48.21329" lon="3.22622">
        <ele>123</ele>
        <time>2024-05-23T13:13:42.731Z</time>
      </trkpt>
      <trkpt lat="48.21325" lon="3.2262">
        <ele>123</ele>
        <time>2024-05-23T13:13:46.809Z</time>
      </trkpt>
      <trkpt lat="48.2132" lon="3.22621">
        <ele>123</ele>
        <time>2024-05-23T13:13:51.051Z</time>
      </trkpt>
      <trkpt lat="48.21316" lon="3.2262">
        <ele>125</ele>
        <time>2024-05-23T13:13:55.112Z</time>
      </trkpt>
      <trkpt lat="48.21312" lon="3.22621">
        <ele>125</ele>
        <time>2024-05-23T13:13:59.693Z</time>
      </trkpt>
      <trkpt lat="48.21308" lon="3.22623">
        <ele>125</ele>
        <time>2024-05-23T13:14:03.952Z</time>
      </trkpt>
      <trkpt lat="48.21305" lon="3.22624">
        <ele>125</ele>
        <time>2024-05-23T13:14:08.073Z</time>
      </trkpt>
      <trkpt lat="48.21301" lon="3.22625">
        <ele>126</ele>
        <time>2024-05-23T13:14:12.672Z</time>
      </trkpt>
      <trkpt lat="48.21297" lon="3.22624">
        <ele>125</ele>
        <time>2024-05-23T13:14:16.751Z</time>
      </trkpt>
      <trkpt lat="48.21292" lon="3.22623">
        <ele>125</ele>
        <time>2024-05-23T13:14:21.452Z</time>
      </trkpt>
      <trkpt lat="48.21287" lon="3.22623">
        <ele>132</ele>
        <time>2024-05-23T13:14:25.951Z</time>
      </trkpt>
      <trkpt lat="48.21282" lon="3.22624">
        <ele>132</ele>
        <time>2024-05-23T13:14:30.412Z</time>
      </trkpt>
      <trkpt lat="48.21279" lon="3.22625">
        <ele>132</ele>
        <time>2024-05-23T13:19:07.098Z</time>
      </trkpt>
      <trkpt lat="48.21278" lon="3.22624">
        <ele>132</ele>
        <time>2024-05-23T13:19:12.098Z</time>
      </trkpt>
      <trkpt lat="48.21274" lon="3.22621">
        <ele>132</ele>
        <time>2024-05-23T13:19:17.098Z</time>
      </trkpt>
      <trkpt lat="48.2127" lon="3.22621">
        <ele>132</ele>
        <time>2024-05-23T13:19:21.639Z</time>
      </trkpt>
      <trkpt lat="48.21266" lon="3.22619">
        <ele>132</ele>
        <time>2024-05-23T13:19:25.836Z</time>
      </trkpt>
      <trkpt lat="48.21267" lon="3.22613">
        <ele>132</ele>
        <time>2024-05-23T13:20:39.473Z</time>
      </trkpt>
      <trkpt lat="48.21266" lon="3.22618">
        <ele>132</ele>
        <time>2024-05-23T13:20:44.098Z</time>
      </trkpt>
      <trkpt lat="48.21266" lon="3.2262">
        <ele>132</ele>
        <time>2024-05-23T13:20:49.098Z</time>
      </trkpt>
      <trkpt lat="48.21271" lon="3.22627">
        <ele>131</ele>
        <time>2024-05-23T13:20:53.236Z</time>
      </trkpt>
      <trkpt lat="48.21279" lon="3.22621">
        <ele>132</ele>
        <time>2024-05-23T13:20:57.877Z</time>
      </trkpt>
      <trkpt lat="48.21279" lon="3.22611">
        <ele>132</ele>
        <time>2024-05-23T13:21:02.098Z</time>
      </trkpt>
      <trkpt lat="48.2128" lon="3.22601">
        <ele>132</ele>
        <time>2024-05-23T13:21:07.009Z</time>
      </trkpt>
      <trkpt lat="48.21281" lon="3.22592">
        <ele>135</ele>
        <time>2024-05-23T13:21:11.397Z</time>
      </trkpt>
      <trkpt lat="48.21283" lon="3.22584">
        <ele>135</ele>
        <time>2024-05-23T13:21:15.717Z</time>
      </trkpt>
      <trkpt lat="48.21283" lon="3.22576">
        <ele>135</ele>
        <time>2024-05-23T13:21:19.916Z</time>
      </trkpt>
      <trkpt lat="48.21284" lon="3.22568">
        <ele>139</ele>
        <time>2024-05-23T13:21:24.098Z</time>
      </trkpt>
      <trkpt lat="48.21286" lon="3.22559">
        <ele>139</ele>
        <time>2024-05-23T13:21:28.696Z</time>
      </trkpt>
      <trkpt lat="48.21288" lon="3.22551">
        <ele>139</ele>
        <time>2024-05-23T13:21:33.098Z</time>
      </trkpt>
      <trkpt lat="48.21289" lon="3.22542">
        <ele>139</ele>
        <time>2024-05-23T13:21:37.796Z</time>
      </trkpt>
      <trkpt lat="48.21289" lon="3.22535">
        <ele>140</ele>
        <time>2024-05-23T13:21:41.941Z</time>
      </trkpt>
      <trkpt lat="48.2129" lon="3.22528">
        <ele>140</ele>
        <time>2024-05-23T13:21:46.099Z</time>
      </trkpt>
      <trkpt lat="48.2129" lon="3.22521">
        <ele>140</ele>
        <time>2024-05-23T13:21:50.596Z</time>
      </trkpt>
      <trkpt lat="48.21291" lon="3.22513">
        <ele>142</ele>
        <time>2024-05-23T13:21:54.896Z</time>
      </trkpt>
      <trkpt lat="48.21292" lon="3.22506">
        <ele>134</ele>
        <time>2024-05-23T13:21:59.333Z</time>
      </trkpt>
      <trkpt lat="48.21293" lon="3.22498">
        <ele>134</ele>
        <time>2024-05-23T13:22:03.650Z</time>
      </trkpt>
      <trkpt lat="48.21294" lon="3.22491">
        <ele>134</ele>
        <time>2024-05-23T13:22:08.099Z</time>
      </trkpt>
      <trkpt lat="48.21294" lon="3.22483">
        <ele>135</ele>
        <time>2024-05-23T13:22:12.716Z</time>
      </trkpt>
      <trkpt lat="48.21294" lon="3.22476">
        <ele>135</ele>
        <time>2024-05-23T13:22:17.081Z</time>
      </trkpt>
      <trkpt lat="48.21294" lon="3.22469">
        <ele>135</ele>
        <time>2024-05-23T13:22:21.098Z</time>
      </trkpt>
      <trkpt lat="48.21292" lon="3.2246">
        <ele>135</ele>
        <time>2024-05-23T13:22:26.098Z</time>
      </trkpt>
      <trkpt lat="48.2129" lon="3.22454">
        <ele>145</ele>
        <time>2024-05-23T13:22:30.182Z</time>
      </trkpt>
      <trkpt lat="48.2129" lon="3.22447">
        <ele>145</ele>
        <time>2024-05-23T13:22:34.420Z</time>
      </trkpt>
      <trkpt lat="48.21289" lon="3.22442">
        <ele>145</ele>
        <time>2024-05-23T13:22:38.555Z</time>
      </trkpt>
      <trkpt lat="48.21288" lon="3.22434">
        <ele>145</ele>
        <time>2024-05-23T13:22:43.098Z</time>
      </trkpt>
      <trkpt lat="48.21287" lon="3.22428">
        <ele>146</ele>
        <time>2024-05-23T13:22:47.512Z</time>
      </trkpt>
      <trkpt lat="48.21287" lon="3.22422">
        <ele>146</ele>
        <time>2024-05-23T13:22:51.966Z</time>
      </trkpt>
      <trkpt lat="48.21286" lon="3.22415">
        <ele>146</ele>
        <time>2024-05-23T13:22:56.385Z</time>
      </trkpt>
      <trkpt lat="48.21286" lon="3.22412">
        <ele>146</ele>
        <time>2024-05-23T13:22:57.631Z</time>
      </trkpt>
      <trkpt lat="48.21288" lon="3.22408">
        <ele>146</ele>
        <time>2024-05-23T13:23:07.098Z</time>
      </trkpt>
      <trkpt lat="48.21288" lon="3.22407">
        <ele>146</ele>
        <time>2024-05-23T13:23:11.568Z</time>
      </trkpt>
      <trkpt lat="48.21289" lon="3.22399">
        <ele>145</ele>
        <time>2024-05-23T13:23:16.105Z</time>
      </trkpt>
      <trkpt lat="48.21287" lon="3.22389">
        <ele>145</ele>
        <time>2024-05-23T13:23:20.532Z</time>
      </trkpt>
      <trkpt lat="48.21287" lon="3.2238">
        <ele>145</ele>
        <time>2024-05-23T13:23:25.088Z</time>
      </trkpt>
      <trkpt lat="48.21287" lon="3.22373">
        <ele>144</ele>
        <time>2024-05-23T13:23:29.099Z</time>
      </trkpt>
      <trkpt lat="48.21288" lon="3.22366">
        <ele>144</ele>
        <time>2024-05-23T13:23:33.731Z</time>
      </trkpt>
      <trkpt lat="48.21289" lon="3.2236">
        <ele>144</ele>
        <time>2024-05-23T13:23:37.870Z</time>
      </trkpt>
      <trkpt lat="48.2129" lon="3.22354">
        <ele>144</ele>
        <time>2024-05-23T13:23:42.098Z</time>
      </trkpt>
      <trkpt lat="48.21291" lon="3.22351">
        <ele>144</ele>
        <time>2024-05-23T13:23:46.888Z</time>
      </trkpt>
      <trkpt lat="48.2129" lon="3.22344">
        <ele>145</ele>
        <time>2024-05-23T13:23:51.069Z</time>
      </trkpt>
      <trkpt lat="48.2129" lon="3.22336">
        <ele>145</ele>
        <time>2024-05-23T13:23:55.771Z</time>
      </trkpt>
      <trkpt lat="48.2129" lon="3.22329">
        <ele>145</ele>
        <time>2024-05-23T13:24:00.070Z</time>
      </trkpt>
      <trkpt lat="48.2129" lon="3.22322">
        <ele>145</ele>
        <time>2024-05-23T13:24:04.373Z</time>
      </trkpt>
      <trkpt lat="48.21293" lon="3.22319">
        <ele>145</ele>
        <time>2024-05-23T13:24:08.808Z</time>
      </trkpt>
      <trkpt lat="48.21293" lon="3.22313">
        <ele>145</ele>
        <time>2024-05-23T13:24:12.998Z</time>
      </trkpt>
      <trkpt lat="48.21294" lon="3.22309">
        <ele>145</ele>
        <time>2024-05-23T13:24:17.928Z</time>
      </trkpt>
      <trkpt lat="48.21296" lon="3.22304">
        <ele>145</ele>
        <time>2024-05-23T13:24:22.289Z</time>
      </trkpt>
      <trkpt lat="48.21297" lon="3.22297">
        <ele>145</ele>
        <time>2024-05-23T13:24:26.869Z</time>
      </trkpt>
      <trkpt lat="48.21296" lon="3.22291">
        <ele>147</ele>
        <time>2024-05-23T13:24:30.947Z</time>
      </trkpt>
      <trkpt lat="48.21294" lon="3.22284">
        <ele>147</ele>
        <time>2024-05-23T13:24:35.530Z</time>
      </trkpt>
      <trkpt lat="48.21295" lon="3.22278">
        <ele>147</ele>
        <time>2024-05-23T13:24:40.098Z</time>
      </trkpt>
      <trkpt lat="48.21297" lon="3.22275">
        <ele>147</ele>
        <time>2024-05-23T13:24:44.285Z</time>
      </trkpt>
      <trkpt lat="48.21297" lon="3.22269">
        <ele>147</ele>
        <time>2024-05-23T13:24:48.311Z</time>
      </trkpt>
      <trkpt lat="48.21297" lon="3.22266">
        <ele>147</ele>
        <time>2024-05-23T13:25:08.098Z</time>
      </trkpt>
      <trkpt lat="48.21297" lon="3.22265">
        <ele>147</ele>
        <time>2024-05-23T13:25:13.098Z</time>
      </trkpt>
      <trkpt lat="48.21298" lon="3.22263">
        <ele>148</ele>
        <time>2024-05-23T13:25:18.099Z</time>
      </trkpt>
      <trkpt lat="48.21301" lon="3.22257">
        <ele>148</ele>
        <time>2024-05-23T13:25:23.098Z</time>
      </trkpt>
      <trkpt lat="48.21298" lon="3.22252">
        <ele>148</ele>
        <time>2024-05-23T13:25:27.098Z</time>
      </trkpt>
      <trkpt lat="48.21298" lon="3.22252">
        <ele>148</ele>
        <time>2024-05-23T13:25:31.097Z</time>
      </trkpt>
      <trkpt lat="48.21298" lon="3.22252">
        <ele>148</ele>
        <time>2024-05-23T13:25:35.551Z</time>
      </trkpt>
      <trkpt lat="48.21296" lon="3.22246">
        <ele>148</ele>
        <time>2024-05-23T13:25:40.091Z</time>
      </trkpt>
      <trkpt lat="48.21297" lon="3.22241">
        <ele>148</ele>
        <time>2024-05-23T13:25:44.097Z</time>
      </trkpt>
      <trkpt lat="48.21298" lon="3.22236">
        <ele>149</ele>
        <time>2024-05-23T13:25:48.571Z</time>
      </trkpt>
      <trkpt lat="48.213" lon="3.22232">
        <ele>149</ele>
        <time>2024-05-23T13:25:52.965Z</time>
      </trkpt>
      <trkpt lat="48.21301" lon="3.22228">
        <ele>149</ele>
        <time>2024-05-23T13:25:57.097Z</time>
      </trkpt>
      <trkpt lat="48.21302" lon="3.22222">
        <ele>149</ele>
        <time>2024-05-23T13:26:02.112Z</time>
      </trkpt>
      <trkpt lat="48.21302" lon="3.22222">
        <ele>149</ele>
        <time>2024-05-23T13:26:06.889Z</time>
      </trkpt>
      <trkpt lat="48.21302" lon="3.22217">
        <ele>149</ele>
        <time>2024-05-23T13:26:11.097Z</time>
      </trkpt>
      <trkpt lat="48.2131" lon="3.22203">
        <ele>150</ele>
        <time>2024-05-23T13:26:58.098Z</time>
      </trkpt>
      <trkpt lat="48.21312" lon="3.22202">
        <ele>150</ele>
        <time>2024-05-23T13:27:02.097Z</time>
      </trkpt>
      <trkpt lat="48.21316" lon="3.22197">
        <ele>150</ele>
        <time>2024-05-23T13:27:06.953Z</time>
      </trkpt>
      <trkpt lat="48.21319" lon="3.2219">
        <ele>150</ele>
        <time>2024-05-23T13:27:11.405Z</time>
      </trkpt>
      <trkpt lat="48.21321" lon="3.22184">
        <ele>142</ele>
        <time>2024-05-23T13:27:15.407Z</time>
      </trkpt>
      <trkpt lat="48.21322" lon="3.22177">
        <ele>145</ele>
        <time>2024-05-23T13:27:19.793Z</time>
      </trkpt>
      <trkpt lat="48.21324" lon="3.2217">
        <ele>145</ele>
        <time>2024-05-23T13:27:24.048Z</time>
      </trkpt>
      <trkpt lat="48.21327" lon="3.22164">
        <ele>145</ele>
        <time>2024-05-23T13:27:28.451Z</time>
      </trkpt>
      <trkpt lat="48.2133" lon="3.22159">
        <ele>145</ele>
        <time>2024-05-23T13:27:32.606Z</time>
      </trkpt>
      <trkpt lat="48.21333" lon="3.22153">
        <ele>145</ele>
        <time>2024-05-23T13:27:36.769Z</time>
      </trkpt>
      <trkpt lat="48.21336" lon="3.22147">
        <ele>148</ele>
        <time>2024-05-23T13:27:40.949Z</time>
      </trkpt>
      <trkpt lat="48.21339" lon="3.22143">
        <ele>148</ele>
        <time>2024-05-23T13:27:45.003Z</time>
      </trkpt>
      <trkpt lat="48.21342" lon="3.22136">
        <ele>148</ele>
        <time>2024-05-23T13:27:49.098Z</time>
      </trkpt>
      <trkpt lat="48.21345" lon="3.2213">
        <ele>148</ele>
        <time>2024-05-23T13:27:53.432Z</time>
      </trkpt>
      <trkpt lat="48.21348" lon="3.22124">
        <ele>147</ele>
        <time>2024-05-23T13:27:57.945Z</time>
      </trkpt>
      <trkpt lat="48.21351" lon="3.22118">
        <ele>147</ele>
        <time>2024-05-23T13:28:02.031Z</time>
      </trkpt>
      <trkpt lat="48.21354" lon="3.22112">
        <ele>147</ele>
        <time>2024-05-23T13:28:06.097Z</time>
      </trkpt>
      <trkpt lat="48.21358" lon="3.22107">
        <ele>147</ele>
        <time>2024-05-23T13:28:10.529Z</time>
      </trkpt>
      <trkpt lat="48.2136" lon="3.22101">
        <ele>147</ele>
        <time>2024-05-23T13:28:14.769Z</time>
      </trkpt>
      <trkpt lat="48.21364" lon="3.22096">
        <ele>150</ele>
        <time>2024-05-23T13:28:19.098Z</time>
      </trkpt>
      <trkpt lat="48.21365" lon="3.2209">
        <ele>150</ele>
        <time>2024-05-23T13:28:23.547Z</time>
      </trkpt>
      <trkpt lat="48.21368" lon="3.22085">
        <ele>150</ele>
        <time>2024-05-23T13:28:28.070Z</time>
      </trkpt>
      <trkpt lat="48.21371" lon="3.22081">
        <ele>150</ele>
        <time>2024-05-23T13:28:32.711Z</time>
      </trkpt>
      <trkpt lat="48.21373" lon="3.22075">
        <ele>150</ele>
        <time>2024-05-23T13:28:37.097Z</time>
      </trkpt>
      <trkpt lat="48.21376" lon="3.22069">
        <ele>150</ele>
        <time>2024-05-23T13:28:41.711Z</time>
      </trkpt>
      <trkpt lat="48.21379" lon="3.22065">
        <ele>150</ele>
        <time>2024-05-23T13:28:46.097Z</time>
      </trkpt>
      <trkpt lat="48.21383" lon="3.2206">
        <ele>150</ele>
        <time>2024-05-23T13:28:50.686Z</time>
      </trkpt>
      <trkpt lat="48.21385" lon="3.22056">
        <ele>150</ele>
        <time>2024-05-23T13:28:54.706Z</time>
      </trkpt>
      <trkpt lat="48.21387" lon="3.22051">
        <ele>150</ele>
        <time>2024-05-23T13:28:58.910Z</time>
      </trkpt>
      <trkpt lat="48.21389" lon="3.22046">
        <ele>150</ele>
        <time>2024-05-23T13:29:03.005Z</time>
      </trkpt>
      <trkpt lat="48.21392" lon="3.22042">
        <ele>150</ele>
        <time>2024-05-23T13:29:07.097Z</time>
      </trkpt>
      <trkpt lat="48.21394" lon="3.22037">
        <ele>155</ele>
        <time>2024-05-23T13:29:11.545Z</time>
      </trkpt>
      <trkpt lat="48.21397" lon="3.22032">
        <ele>155</ele>
        <time>2024-05-23T13:29:15.785Z</time>
      </trkpt>
      <trkpt lat="48.21407" lon="3.22014">
        <ele>159</ele>
        <time>2024-05-23T13:32:03.098Z</time>
      </trkpt>
      <trkpt lat="48.21407" lon="3.22013">
        <ele>159</ele>
        <time>2024-05-23T13:32:07.097Z</time>
      </trkpt>
      <trkpt lat="48.21407" lon="3.22013">
        <ele>159</ele>
        <time>2024-05-23T13:32:12.097Z</time>
      </trkpt>
      <trkpt lat="48.21407" lon="3.2201">
        <ele>159</ele>
        <time>2024-05-23T13:32:17.097Z</time>
      </trkpt>
      <trkpt lat="48.21408" lon="3.22007">
        <ele>159</ele>
        <time>2024-05-23T13:32:22.061Z</time>
      </trkpt>
      <trkpt lat="48.21406" lon="3.22">
        <ele>159</ele>
        <time>2024-05-23T13:32:26.097Z</time>
      </trkpt>
      <trkpt lat="48.21403" lon="3.21999">
        <ele>159</ele>
        <time>2024-05-23T13:32:31.097Z</time>
      </trkpt>
      <trkpt lat="48.21399" lon="3.21994">
        <ele>160</ele>
        <time>2024-05-23T13:32:36.097Z</time>
      </trkpt>
      <trkpt lat="48.21396" lon="3.2199">
        <ele>160</ele>
        <time>2024-05-23T13:32:41.078Z</time>
      </trkpt>
      <trkpt lat="48.21392" lon="3.21987">
        <ele>160</ele>
        <time>2024-05-23T13:32:45.098Z</time>
      </trkpt>
      <trkpt lat="48.21388" lon="3.21982">
        <ele>162</ele>
        <time>2024-05-23T13:32:49.618Z</time>
      </trkpt>
      <trkpt lat="48.21384" lon="3.21978">
        <ele>162</ele>
        <time>2024-05-23T13:32:54.098Z</time>
      </trkpt>
      <trkpt lat="48.21381" lon="3.21974">
        <ele>162</ele>
        <time>2024-05-23T13:32:58.520Z</time>
      </trkpt>
      <trkpt lat="48.21378" lon="3.21969">
        <ele>162</ele>
        <time>2024-05-23T13:33:03.068Z</time>
      </trkpt>
      <trkpt lat="48.21375" lon="3.21965">
        <ele>162</ele>
        <time>2024-05-23T13:33:07.098Z</time>
      </trkpt>
      <trkpt lat="48.21371" lon="3.21962">
        <ele>162</ele>
        <time>2024-05-23T13:33:11.561Z</time>
      </trkpt>
      <trkpt lat="48.21367" lon="3.21959">
        <ele>162</ele>
        <time>2024-05-23T13:33:16.025Z</time>
      </trkpt>
      <trkpt lat="48.21362" lon="3.21956">
        <ele>163</ele>
        <time>2024-05-23T13:33:20.098Z</time>
      </trkpt>
      <trkpt lat="48.21358" lon="3.21954">
        <ele>163</ele>
        <time>2024-05-23T13:33:24.563Z</time>
      </trkpt>
      <trkpt lat="48.21354" lon="3.21952">
        <ele>163</ele>
        <time>2024-05-23T13:33:28.991Z</time>
      </trkpt>
      <trkpt lat="48.21348" lon="3.21949">
        <ele>163</ele>
        <time>2024-05-23T13:33:33.418Z</time>
      </trkpt>
      <trkpt lat="48.21344" lon="3.21946">
        <ele>163</ele>
        <time>2024-05-23T13:33:37.865Z</time>
      </trkpt>
      <trkpt lat="48.2134" lon="3.21944">
        <ele>163</ele>
        <time>2024-05-23T13:33:42.098Z</time>
      </trkpt>
      <trkpt lat="48.21335" lon="3.21942">
        <ele>163</ele>
        <time>2024-05-23T13:33:46.522Z</time>
      </trkpt>
      <trkpt lat="48.21331" lon="3.21939">
        <ele>163</ele>
        <time>2024-05-23T13:33:50.661Z</time>
      </trkpt>
      <trkpt lat="48.21326" lon="3.21936">
        <ele>163</ele>
        <time>2024-05-23T13:33:55.098Z</time>
      </trkpt>
      <trkpt lat="48.21321" lon="3.21933">
        <ele>163</ele>
        <time>2024-05-23T13:33:59.482Z</time>
      </trkpt>
      <trkpt lat="48.21317" lon="3.2193">
        <ele>164</ele>
        <time>2024-05-23T13:34:04.097Z</time>
      </trkpt>
      <trkpt lat="48.21313" lon="3.21934">
        <ele>163</ele>
        <time>2024-05-23T13:34:08.441Z</time>
      </trkpt>
      <trkpt lat="48.21309" lon="3.21932">
        <ele>163</ele>
        <time>2024-05-23T13:34:12.757Z</time>
      </trkpt>
      <trkpt lat="48.21305" lon="3.21928">
        <ele>164</ele>
        <time>2024-05-23T13:34:16.996Z</time>
      </trkpt>
      <trkpt lat="48.21301" lon="3.21923">
        <ele>164</ele>
        <time>2024-05-23T13:34:21.125Z</time>
      </trkpt>
      <trkpt lat="48.21298" lon="3.21918">
        <ele>164</ele>
        <time>2024-05-23T13:34:25.340Z</time>
      </trkpt>
      <trkpt lat="48.21293" lon="3.21915">
        <ele>164</ele>
        <time>2024-05-23T13:34:29.566Z</time>
      </trkpt>
      <trkpt lat="48.21289" lon="3.21912">
        <ele>162</ele>
        <time>2024-05-23T13:34:33.820Z</time>
      </trkpt>
      <trkpt lat="48.21284" lon="3.2191">
        <ele>162</ele>
        <time>2024-05-23T13:34:38.098Z</time>
      </trkpt>
      <trkpt lat="48.2128" lon="3.21907">
        <ele>162</ele>
        <time>2024-05-23T13:34:42.480Z</time>
      </trkpt>
      <trkpt lat="48.21271" lon="3.21905">
        <ele>162</ele>
        <time>2024-05-23T13:36:20.821Z</time>
      </trkpt>
      <trkpt lat="48.21269" lon="3.21907">
        <ele>162</ele>
        <time>2024-05-23T13:36:24.994Z</time>
      </trkpt>
      <trkpt lat="48.21265" lon="3.21911">
        <ele>162</ele>
        <time>2024-05-23T13:36:29.457Z</time>
      </trkpt>
      <trkpt lat="48.21263" lon="3.21917">
        <ele>160</ele>
        <time>2024-05-23T13:36:33.579Z</time>
      </trkpt>
      <trkpt lat="48.21262" lon="3.21921">
        <ele>160</ele>
        <time>2024-05-23T13:36:38.031Z</time>
      </trkpt>
      <trkpt lat="48.2126" lon="3.21925">
        <ele>160</ele>
        <time>2024-05-23T13:36:42.097Z</time>
      </trkpt>
      <trkpt lat="48.21256" lon="3.2193">
        <ele>160</ele>
        <time>2024-05-23T13:36:46.734Z</time>
      </trkpt>
      <trkpt lat="48.21253" lon="3.21934">
        <ele>159</ele>
        <time>2024-05-23T13:36:50.897Z</time>
      </trkpt>
      <trkpt lat="48.21249" lon="3.21938">
        <ele>159</ele>
        <time>2024-05-23T13:36:55.098Z</time>
      </trkpt>
      <trkpt lat="48.21245" lon="3.21943">
        <ele>159</ele>
        <time>2024-05-23T13:36:59.480Z</time>
      </trkpt>
      <trkpt lat="48.21243" lon="3.21946">
        <ele>159</ele>
        <time>2024-05-23T13:37:03.779Z</time>
      </trkpt>
      <trkpt lat="48.21239" lon="3.2195">
        <ele>159</ele>
        <time>2024-05-23T13:37:08.098Z</time>
      </trkpt>
      <trkpt lat="48.21236" lon="3.21954">
        <ele>160</ele>
        <time>2024-05-23T13:37:12.839Z</time>
      </trkpt>
      <trkpt lat="48.21233" lon="3.21959">
        <ele>160</ele>
        <time>2024-05-23T13:37:17.098Z</time>
      </trkpt>
      <trkpt lat="48.21229" lon="3.21964">
        <ele>160</ele>
        <time>2024-05-23T13:37:21.771Z</time>
      </trkpt>
      <trkpt lat="48.21225" lon="3.21969">
        <ele>160</ele>
        <time>2024-05-23T13:37:26.097Z</time>
      </trkpt>
      <trkpt lat="48.21222" lon="3.21975">
        <ele>160</ele>
        <time>2024-05-23T13:37:30.515Z</time>
      </trkpt>
      <trkpt lat="48.21219" lon="3.21981">
        <ele>160</ele>
        <time>2024-05-23T13:37:35.097Z</time>
      </trkpt>
      <trkpt lat="48.21215" lon="3.21986">
        <ele>159</ele>
        <time>2024-05-23T13:37:39.340Z</time>
      </trkpt>
      <trkpt lat="48.21212" lon="3.21993">
        <ele>159</ele>
        <time>2024-05-23T13:37:43.816Z</time>
      </trkpt>
      <trkpt lat="48.21209" lon="3.21998">
        <ele>159</ele>
        <time>2024-05-23T13:37:48.158Z</time>
      </trkpt>
      <trkpt lat="48.21207" lon="3.22004">
        <ele>158</ele>
        <time>2024-05-23T13:37:52.698Z</time>
      </trkpt>
      <trkpt lat="48.21204" lon="3.2201">
        <ele>158</ele>
        <time>2024-05-23T13:37:57.097Z</time>
      </trkpt>
      <trkpt lat="48.21201" lon="3.22015">
        <ele>158</ele>
        <time>2024-05-23T13:38:01.280Z</time>
      </trkpt>
      <trkpt lat="48.21198" lon="3.22019">
        <ele>158</ele>
        <time>2024-05-23T13:38:05.392Z</time>
      </trkpt>
      <trkpt lat="48.21195" lon="3.22025">
        <ele>158</ele>
        <time>2024-05-23T13:38:10.016Z</time>
      </trkpt>
      <trkpt lat="48.21192" lon="3.2203">
        <ele>158</ele>
        <time>2024-05-23T13:38:14.538Z</time>
      </trkpt>
      <trkpt lat="48.21188" lon="3.22035">
        <ele>158</ele>
        <time>2024-05-23T13:38:18.999Z</time>
      </trkpt>
      <trkpt lat="48.21185" lon="3.22041">
        <ele>158</ele>
        <time>2024-05-23T13:38:23.333Z</time>
      </trkpt>
      <trkpt lat="48.21182" lon="3.22046">
        <ele>159</ele>
        <time>2024-05-23T13:38:27.846Z</time>
      </trkpt>
      <trkpt lat="48.21179" lon="3.22051">
        <ele>161</ele>
        <time>2024-05-23T13:38:31.959Z</time>
      </trkpt>
      <trkpt lat="48.21176" lon="3.22055">
        <ele>161</ele>
        <time>2024-05-23T13:38:36.097Z</time>
      </trkpt>
      <trkpt lat="48.21173" lon="3.2206">
        <ele>161</ele>
        <time>2024-05-23T13:38:40.651Z</time>
      </trkpt>
      <trkpt lat="48.21169" lon="3.22064">
        <ele>161</ele>
        <time>2024-05-23T13:38:44.993Z</time>
      </trkpt>
      <trkpt lat="48.21166" lon="3.22069">
        <ele>161</ele>
        <time>2024-05-23T13:38:49.038Z</time>
      </trkpt>
      <trkpt lat="48.21163" lon="3.22074">
        <ele>163</ele>
        <time>2024-05-23T13:38:53.696Z</time>
      </trkpt>
      <trkpt lat="48.21159" lon="3.22079">
        <ele>163</ele>
        <time>2024-05-23T13:38:58.097Z</time>
      </trkpt>
      <trkpt lat="48.21157" lon="3.22083">
        <ele>163</ele>
        <time>2024-05-23T13:39:02.457Z</time>
      </trkpt>
      <trkpt lat="48.21153" lon="3.22087">
        <ele>163</ele>
        <time>2024-05-23T13:39:06.936Z</time>
      </trkpt>
      <trkpt lat="48.21149" lon="3.22092">
        <ele>164</ele>
        <time>2024-05-23T13:39:11.355Z</time>
      </trkpt>
      <trkpt lat="48.21146" lon="3.22096">
        <ele>164</ele>
        <time>2024-05-23T13:39:16.098Z</time>
      </trkpt>
      <trkpt lat="48.2114" lon="3.22103">
        <ele>166</ele>
        <time>2024-05-23T13:40:09.096Z</time>
      </trkpt>
      <trkpt lat="48.21138" lon="3.22104">
        <ele>166</ele>
        <time>2024-05-23T13:40:13.097Z</time>
      </trkpt>
      <trkpt lat="48.21137" lon="3.22108">
        <ele>166</ele>
        <time>2024-05-23T13:40:17.096Z</time>
      </trkpt>
      <trkpt lat="48.21133" lon="3.22113">
        <ele>166</ele>
        <time>2024-05-23T13:40:21.817Z</time>
      </trkpt>
      <trkpt lat="48.2113" lon="3.22115">
        <ele>166</ele>
        <time>2024-05-23T13:40:26.072Z</time>
      </trkpt>
      <trkpt lat="48.21126" lon="3.22116">
        <ele>166</ele>
        <time>2024-05-23T13:40:30.097Z</time>
      </trkpt>
      <trkpt lat="48.21122" lon="3.22119">
        <ele>166</ele>
        <time>2024-05-23T13:40:34.996Z</time>
      </trkpt>
      <trkpt lat="48.21118" lon="3.22124">
        <ele>166</ele>
        <time>2024-05-23T13:40:39.671Z</time>
      </trkpt>
      <trkpt lat="48.21114" lon="3.22129">
        <ele>168</ele>
        <time>2024-05-23T13:40:44.097Z</time>
      </trkpt>
      <trkpt lat="48.21111" lon="3.22133">
        <ele>168</ele>
        <time>2024-05-23T13:40:48.556Z</time>
      </trkpt>
      <trkpt lat="48.21108" lon="3.22136">
        <ele>168</ele>
        <time>2024-05-23T13:40:52.616Z</time>
      </trkpt>
      <trkpt lat="48.21105" lon="3.2214">
        <ele>168</ele>
        <time>2024-05-23T13:40:56.658Z</time>
      </trkpt>
      <trkpt lat="48.21101" lon="3.22143">
        <ele>168</ele>
        <time>2024-05-23T13:41:00.753Z</time>
      </trkpt>
      <trkpt lat="48.21097" lon="3.22147">
        <ele>168</ele>
        <time>2024-05-23T13:41:05.258Z</time>
      </trkpt>
      <trkpt lat="48.21092" lon="3.2215">
        <ele>168</ele>
        <time>2024-05-23T13:41:09.891Z</time>
      </trkpt>
      <trkpt lat="48.21089" lon="3.22155">
        <ele>168</ele>
        <time>2024-05-23T13:41:14.096Z</time>
      </trkpt>
      <trkpt lat="48.21085" lon="3.22159">
        <ele>168</ele>
        <time>2024-05-23T13:41:18.337Z</time>
      </trkpt>
      <trkpt lat="48.21082" lon="3.22162">
        <ele>168</ele>
        <time>2024-05-23T13:41:22.859Z</time>
      </trkpt>
      <trkpt lat="48.21079" lon="3.22165">
        <ele>168</ele>
        <time>2024-05-23T13:41:27.096Z</time>
      </trkpt>
      <trkpt lat="48.21076" lon="3.22173">
        <ele>168</ele>
        <time>2024-05-23T13:41:31.834Z</time>
      </trkpt>
      <trkpt lat="48.21073" lon="3.2218">
        <ele>168</ele>
        <time>2024-05-23T13:41:36.096Z</time>
      </trkpt>
      <trkpt lat="48.21068" lon="3.22195">
        <ele>168</ele>
        <time>2024-05-23T13:41:55.096Z</time>
      </trkpt>
      <trkpt lat="48.21067" lon="3.22202">
        <ele>168</ele>
        <time>2024-05-23T13:41:59.434Z</time>
      </trkpt>
      <trkpt lat="48.21065" lon="3.22209">
        <ele>166</ele>
        <time>2024-05-23T13:42:03.658Z</time>
      </trkpt>
      <trkpt lat="48.21061" lon="3.22214">
        <ele>166</ele>
        <time>2024-05-23T13:42:07.813Z</time>
      </trkpt>
      <trkpt lat="48.21056" lon="3.22218">
        <ele>166</ele>
        <time>2024-05-23T13:42:12.036Z</time>
      </trkpt>
      <trkpt lat="48.2105" lon="3.22222">
        <ele>166</ele>
        <time>2024-05-23T13:42:16.635Z</time>
      </trkpt>
      <trkpt lat="48.21045" lon="3.22224">
        <ele>166</ele>
        <time>2024-05-23T13:42:21.097Z</time>
      </trkpt>
      <trkpt lat="48.2104" lon="3.22226">
        <ele>167</ele>
        <time>2024-05-23T13:42:25.294Z</time>
      </trkpt>
      <trkpt lat="48.21036" lon="3.22229">
        <ele>167</ele>
        <time>2024-05-23T13:42:29.433Z</time>
      </trkpt>
      <trkpt lat="48.21031" lon="3.22233">
        <ele>167</ele>
        <time>2024-05-23T13:42:33.837Z</time>
      </trkpt>
      <trkpt lat="48.21025" lon="3.22237">
        <ele>167</ele>
        <time>2024-05-23T13:42:38.416Z</time>
      </trkpt>
      <trkpt lat="48.21021" lon="3.22241">
        <ele>167</ele>
        <time>2024-05-23T13:42:42.854Z</time>
      </trkpt>
      <trkpt lat="48.21019" lon="3.22244">
        <ele>167</ele>
        <time>2024-05-23T13:42:47.097Z</time>
      </trkpt>
      <trkpt lat="48.21018" lon="3.22244">
        <ele>167</ele>
        <time>2024-05-23T13:42:52.097Z</time>
      </trkpt>
      <trkpt lat="48.21017" lon="3.22246">
        <ele>167</ele>
        <time>2024-05-23T13:42:56.938Z</time>
      </trkpt>
      <trkpt lat="48.21013" lon="3.2225">
        <ele>168</ele>
        <time>2024-05-23T13:43:01.096Z</time>
      </trkpt>
      <trkpt lat="48.2101" lon="3.22255">
        <ele>168</ele>
        <time>2024-05-23T13:43:06.097Z</time>
      </trkpt>
      <trkpt lat="48.21007" lon="3.22257">
        <ele>168</ele>
        <time>2024-05-23T13:43:10.777Z</time>
      </trkpt>
      <trkpt lat="48.21003" lon="3.22262">
        <ele>168</ele>
        <time>2024-05-23T13:43:15.052Z</time>
      </trkpt>
      <trkpt lat="48.20999" lon="3.22265">
        <ele>168</ele>
        <time>2024-05-23T13:43:19.260Z</time>
      </trkpt>
      <trkpt lat="48.20996" lon="3.22271">
        <ele>168</ele>
        <time>2024-05-23T13:43:24.117Z</time>
      </trkpt>
      <trkpt lat="48.2099" lon="3.22283">
        <ele>168</ele>
        <time>2024-05-23T13:47:38.797Z</time>
      </trkpt>
      <trkpt lat="48.2099" lon="3.22284">
        <ele>168</ele>
        <time>2024-05-23T13:47:44.078Z</time>
      </trkpt>
      <trkpt lat="48.20989" lon="3.22284">
        <ele>168</ele>
        <time>2024-05-23T13:47:48.097Z</time>
      </trkpt>
      <trkpt lat="48.20989" lon="3.22284">
        <ele>168</ele>
        <time>2024-05-23T13:47:52.479Z</time>
      </trkpt>
      <trkpt lat="48.20988" lon="3.22287">
        <ele>168</ele>
        <time>2024-05-23T13:47:56.754Z</time>
      </trkpt>
      <trkpt lat="48.20985" lon="3.2229">
        <ele>166</ele>
        <time>2024-05-23T13:48:01.097Z</time>
      </trkpt>
      <trkpt lat="48.20983" lon="3.22295">
        <ele>165</ele>
        <time>2024-05-23T13:48:05.479Z</time>
      </trkpt>
      <trkpt lat="48.20982" lon="3.22303">
        <ele>165</ele>
        <time>2024-05-23T13:48:09.799Z</time>
      </trkpt>
      <trkpt lat="48.20982" lon="3.22307">
        <ele>165</ele>
        <time>2024-05-23T13:48:14.493Z</time>
      </trkpt>
      <trkpt lat="48.2098" lon="3.22313">
        <ele>165</ele>
        <time>2024-05-23T13:48:18.658Z</time>
      </trkpt>
      <trkpt lat="48.20978" lon="3.2232">
        <ele>164</ele>
        <time>2024-05-23T13:48:23.096Z</time>
      </trkpt>
      <trkpt lat="48.20976" lon="3.22325">
        <ele>164</ele>
        <time>2024-05-23T13:48:28.095Z</time>
      </trkpt>
      <trkpt lat="48.20973" lon="3.22331">
        <ele>164</ele>
        <time>2024-05-23T13:48:32.655Z</time>
      </trkpt>
      <trkpt lat="48.2097" lon="3.22336">
        <ele>164</ele>
        <time>2024-05-23T13:48:37.096Z</time>
      </trkpt>
      <trkpt lat="48.20968" lon="3.22341">
        <ele>164</ele>
        <time>2024-05-23T13:48:41.317Z</time>
      </trkpt>
      <trkpt lat="48.20963" lon="3.22345">
        <ele>164</ele>
        <time>2024-05-23T13:48:46.096Z</time>
      </trkpt>
      <trkpt lat="48.2096" lon="3.22352">
        <ele>164</ele>
        <time>2024-05-23T13:48:50.833Z</time>
      </trkpt>
      <trkpt lat="48.20956" lon="3.22355">
        <ele>162</ele>
        <time>2024-05-23T13:48:55.095Z</time>
      </trkpt>
      <trkpt lat="48.20952" lon="3.22361">
        <ele>162</ele>
        <time>2024-05-23T13:48:59.555Z</time>
      </trkpt>
      <trkpt lat="48.20948" lon="3.22365">
        <ele>162</ele>
        <time>2024-05-23T13:49:03.737Z</time>
      </trkpt>
      <trkpt lat="48.20944" lon="3.22369">
        <ele>162</ele>
        <time>2024-05-23T13:49:08.054Z</time>
      </trkpt>
      <trkpt lat="48.2094" lon="3.22372">
        <ele>162</ele>
        <time>2024-05-23T13:49:12.095Z</time>
      </trkpt>
      <trkpt lat="48.20936" lon="3.2237">
        <ele>162</ele>
        <time>2024-05-23T13:49:17.095Z</time>
      </trkpt>
      <trkpt lat="48.20932" lon="3.22373">
        <ele>162</ele>
        <time>2024-05-23T13:49:21.299Z</time>
      </trkpt>
      <trkpt lat="48.20929" lon="3.22378">
        <ele>163</ele>
        <time>2024-05-23T13:49:25.585Z</time>
      </trkpt>
      <trkpt lat="48.20927" lon="3.22384">
        <ele>163</ele>
        <time>2024-05-23T13:49:29.799Z</time>
      </trkpt>
      <trkpt lat="48.20922" lon="3.22388">
        <ele>163</ele>
        <time>2024-05-23T13:49:34.057Z</time>
      </trkpt>
      <trkpt lat="48.20918" lon="3.22394">
        <ele>163</ele>
        <time>2024-05-23T13:49:38.095Z</time>
      </trkpt>
      <trkpt lat="48.20914" lon="3.22397">
        <ele>163</ele>
        <time>2024-05-23T13:49:42.352Z</time>
      </trkpt>
      <trkpt lat="48.20909" lon="3.22402">
        <ele>163</ele>
        <time>2024-05-23T13:49:46.738Z</time>
      </trkpt>
      <trkpt lat="48.20904" lon="3.22405">
        <ele>163</ele>
        <time>2024-05-23T13:49:50.876Z</time>
      </trkpt>
      <trkpt lat="48.209" lon="3.22409">
        <ele>164</ele>
        <time>2024-05-23T13:49:55.095Z</time>
      </trkpt>
      <trkpt lat="48.20897" lon="3.22415">
        <ele>164</ele>
        <time>2024-05-23T13:49:59.837Z</time>
      </trkpt>
      <trkpt lat="48.20897" lon="3.22423">
        <ele>164</ele>
        <time>2024-05-23T13:50:04.377Z</time>
      </trkpt>
      <trkpt lat="48.20899" lon="3.22431">
        <ele>164</ele>
        <time>2024-05-23T13:50:08.916Z</time>
      </trkpt>
      <trkpt lat="48.20903" lon="3.22438">
        <ele>164</ele>
        <time>2024-05-23T13:50:13.380Z</time>
      </trkpt>
      <trkpt lat="48.20906" lon="3.22446">
        <ele>163</ele>
        <time>2024-05-23T13:50:17.953Z</time>
      </trkpt>
      <trkpt lat="48.2091" lon="3.22452">
        <ele>163</ele>
        <time>2024-05-23T13:50:22.016Z</time>
      </trkpt>
      <trkpt lat="48.20913" lon="3.22458">
        <ele>163</ele>
        <time>2024-05-23T13:50:26.096Z</time>
      </trkpt>
      <trkpt lat="48.20916" lon="3.22464">
        <ele>164</ele>
        <time>2024-05-23T13:50:30.779Z</time>
      </trkpt>
      <trkpt lat="48.20918" lon="3.22471">
        <ele>164</ele>
        <time>2024-05-23T13:50:34.798Z</time>
      </trkpt>
      <trkpt lat="48.20924" lon="3.22477">
        <ele>164</ele>
        <time>2024-05-23T13:50:38.893Z</time>
      </trkpt>
      <trkpt lat="48.20925" lon="3.22482">
        <ele>164</ele>
        <time>2024-05-23T13:50:42.973Z</time>
      </trkpt>
      <trkpt lat="48.20928" lon="3.22488">
        <ele>164</ele>
        <time>2024-05-23T13:50:47.077Z</time>
      </trkpt>
      <trkpt lat="48.2093" lon="3.22493">
        <ele>164</ele>
        <time>2024-05-23T13:50:51.204Z</time>
      </trkpt>
      <trkpt lat="48.20935" lon="3.22499">
        <ele>164</ele>
        <time>2024-05-23T13:50:55.637Z</time>
      </trkpt>
      <trkpt lat="48.20938" lon="3.22504">
        <ele>164</ele>
        <time>2024-05-23T13:50:59.671Z</time>
      </trkpt>
      <trkpt lat="48.2094" lon="3.22509">
        <ele>164</ele>
        <time>2024-05-23T13:51:03.717Z</time>
      </trkpt>
      <trkpt lat="48.20943" lon="3.22515">
        <ele>164</ele>
        <time>2024-05-23T13:51:07.855Z</time>
      </trkpt>
      <trkpt lat="48.20946" lon="3.22521">
        <ele>164</ele>
        <time>2024-05-23T13:51:11.934Z</time>
      </trkpt>
      <trkpt lat="48.20949" lon="3.22525">
        <ele>164</ele>
        <time>2024-05-23T13:51:16.072Z</time>
      </trkpt>
      <trkpt lat="48.20952" lon="3.22531">
        <ele>164</ele>
        <time>2024-05-23T13:51:20.255Z</time>
      </trkpt>
      <trkpt lat="48.20956" lon="3.22537">
        <ele>164</ele>
        <time>2024-05-23T13:51:24.511Z</time>
      </trkpt>
      <trkpt lat="48.20959" lon="3.22543">
        <ele>162</ele>
        <time>2024-05-23T13:51:28.855Z</time>
      </trkpt>
      <trkpt lat="48.20961" lon="3.22549">
        <ele>162</ele>
        <time>2024-05-23T13:51:33.540Z</time>
      </trkpt>
      <trkpt lat="48.20965" lon="3.22553">
        <ele>162</ele>
        <time>2024-05-23T13:51:37.934Z</time>
      </trkpt>
      <trkpt lat="48.20968" lon="3.22558">
        <ele>162</ele>
        <time>2024-05-23T13:51:42.473Z</time>
      </trkpt>
      <trkpt lat="48.20971" lon="3.22564">
        <ele>162</ele>
        <time>2024-05-23T13:51:46.757Z</time>
      </trkpt>
      <trkpt lat="48.20974" lon="3.22569">
        <ele>162</ele>
        <time>2024-05-23T13:51:51.096Z</time>
      </trkpt>
      <trkpt lat="48.20977" lon="3.22574">
        <ele>164</ele>
        <time>2024-05-23T13:51:55.596Z</time>
      </trkpt>
      <trkpt lat="48.2098" lon="3.2258">
        <ele>164</ele>
        <time>2024-05-23T13:51:59.991Z</time>
      </trkpt>
      <trkpt lat="48.20982" lon="3.22585">
        <ele>164</ele>
        <time>2024-05-23T13:52:04.096Z</time>
      </trkpt>
      <trkpt lat="48.20986" lon="3.22591">
        <ele>164</ele>
        <time>2024-05-23T13:52:08.737Z</time>
      </trkpt>
      <trkpt lat="48.2099" lon="3.22595">
        <ele>161</ele>
        <time>2024-05-23T13:52:12.774Z</time>
      </trkpt>
      <trkpt lat="48.20994" lon="3.22601">
        <ele>163</ele>
        <time>2024-05-23T13:52:16.972Z</time>
      </trkpt>
      <trkpt lat="48.20996" lon="3.22606">
        <ele>163</ele>
        <time>2024-05-23T13:52:21.095Z</time>
      </trkpt>
      <trkpt lat="48.20998" lon="3.22613">
        <ele>163</ele>
        <time>2024-05-23T13:52:25.297Z</time>
      </trkpt>
      <trkpt lat="48.21002" lon="3.22618">
        <ele>163</ele>
        <time>2024-05-23T13:52:29.416Z</time>
      </trkpt>
      <trkpt lat="48.21005" lon="3.22624">
        <ele>163</ele>
        <time>2024-05-23T13:52:33.538Z</time>
      </trkpt>
      <trkpt lat="48.21008" lon="3.22629">
        <ele>164</ele>
        <time>2024-05-23T13:52:37.932Z</time>
      </trkpt>
      <trkpt lat="48.21011" lon="3.22635">
        <ele>164</ele>
        <time>2024-05-23T13:52:42.095Z</time>
      </trkpt>
      <trkpt lat="48.21014" lon="3.22641">
        <ele>159</ele>
        <time>2024-05-23T13:52:46.311Z</time>
      </trkpt>
      <trkpt lat="48.21017" lon="3.22647">
        <ele>159</ele>
        <time>2024-05-23T13:52:50.416Z</time>
      </trkpt>
      <trkpt lat="48.2102" lon="3.22653">
        <ele>159</ele>
        <time>2024-05-23T13:52:54.640Z</time>
      </trkpt>
      <trkpt lat="48.21023" lon="3.22659">
        <ele>159</ele>
        <time>2024-05-23T13:52:58.735Z</time>
      </trkpt>
      <trkpt lat="48.21026" lon="3.22665">
        <ele>159</ele>
        <time>2024-05-23T13:53:02.917Z</time>
      </trkpt>
      <trkpt lat="48.21029" lon="3.22671">
        <ele>159</ele>
        <time>2024-05-23T13:53:07.097Z</time>
      </trkpt>
      <trkpt lat="48.21031" lon="3.22676">
        <ele>159</ele>
        <time>2024-05-23T13:53:11.338Z</time>
      </trkpt>
      <trkpt lat="48.21034" lon="3.22683">
        <ele>160</ele>
        <time>2024-05-23T13:53:15.493Z</time>
      </trkpt>
      <trkpt lat="48.21037" lon="3.22689">
        <ele>160</ele>
        <time>2024-05-23T13:53:19.678Z</time>
      </trkpt>
      <trkpt lat="48.2104" lon="3.22695">
        <ele>160</ele>
        <time>2024-05-23T13:53:23.898Z</time>
      </trkpt>
      <trkpt lat="48.21043" lon="3.22701">
        <ele>158</ele>
        <time>2024-05-23T13:53:28.096Z</time>
      </trkpt>
      <trkpt lat="48.21044" lon="3.22708">
        <ele>158</ele>
        <time>2024-05-23T13:53:32.336Z</time>
      </trkpt>
      <trkpt lat="48.21046" lon="3.22715">
        <ele>159</ele>
        <time>2024-05-23T13:53:36.919Z</time>
      </trkpt>
      <trkpt lat="48.21047" lon="3.22724">
        <ele>159</ele>
        <time>2024-05-23T13:53:41.518Z</time>
      </trkpt>
      <trkpt lat="48.21049" lon="3.22731">
        <ele>159</ele>
        <time>2024-05-23T13:53:45.835Z</time>
      </trkpt>
      <trkpt lat="48.2105" lon="3.22738">
        <ele>160</ele>
        <time>2024-05-23T13:53:50.095Z</time>
      </trkpt>
      <trkpt lat="48.2105" lon="3.22745">
        <ele>160</ele>
        <time>2024-05-23T13:53:54.734Z</time>
      </trkpt>
      <trkpt lat="48.21051" lon="3.22752">
        <ele>160</ele>
        <time>2024-05-23T13:53:59.112Z</time>
      </trkpt>
      <trkpt lat="48.21052" lon="3.2276">
        <ele>160</ele>
        <time>2024-05-23T13:54:03.719Z</time>
      </trkpt>
      <trkpt lat="48.21052" lon="3.22768">
        <ele>163</ele>
        <time>2024-05-23T13:54:08.096Z</time>
      </trkpt>
      <trkpt lat="48.21052" lon="3.22775">
        <ele>163</ele>
        <time>2024-05-23T13:54:12.192Z</time>
      </trkpt>
      <trkpt lat="48.21052" lon="3.22783">
        <ele>163</ele>
        <time>2024-05-23T13:54:16.715Z</time>
      </trkpt>
      <trkpt lat="48.21052" lon="3.22791">
        <ele>163</ele>
        <time>2024-05-23T13:54:21.126Z</time>
      </trkpt>
      <trkpt lat="48.21052" lon="3.22798">
        <ele>165</ele>
        <time>2024-05-23T13:54:25.332Z</time>
      </trkpt>
      <trkpt lat="48.2105" lon="3.22804">
        <ele>165</ele>
        <time>2024-05-23T13:54:29.779Z</time>
      </trkpt>
      <trkpt lat="48.21049" lon="3.22812">
        <ele>165</ele>
        <time>2024-05-23T13:54:34.023Z</time>
      </trkpt>
      <trkpt lat="48.21047" lon="3.22819">
        <ele>165</ele>
        <time>2024-05-23T13:54:38.415Z</time>
      </trkpt>
      <trkpt lat="48.21046" lon="3.22826">
        <ele>168</ele>
        <time>2024-05-23T13:54:42.834Z</time>
      </trkpt>
      <trkpt lat="48.21044" lon="3.22832">
        <ele>168</ele>
        <time>2024-05-23T13:54:47.074Z</time>
      </trkpt>
      <trkpt lat="48.21043" lon="3.22839">
        <ele>168</ele>
        <time>2024-05-23T13:54:51.096Z</time>
      </trkpt>
      <trkpt lat="48.2104" lon="3.22845">
        <ele>168</ele>
        <time>2024-05-23T13:54:56.095Z</time>
      </trkpt>
      <trkpt lat="48.21039" lon="3.22852">
        <ele>169</ele>
        <time>2024-05-23T13:55:00.737Z</time>
      </trkpt>
      <trkpt lat="48.21037" lon="3.22859">
        <ele>169</ele>
        <time>2024-05-23T13:55:04.779Z</time>
      </trkpt>
      <trkpt lat="48.21035" lon="3.22866">
        <ele>169</ele>
        <time>2024-05-23T13:55:08.934Z</time>
      </trkpt>
      <trkpt lat="48.21032" lon="3.22871">
        <ele>169</ele>
        <time>2024-05-23T13:55:13.277Z</time>
      </trkpt>
      <trkpt lat="48.21032" lon="3.22873">
        <ele>169</ele>
        <time>2024-05-23T13:55:13.754Z</time>
      </trkpt>
      <trkpt lat="48.21028" lon="3.22886">
        <ele>168</ele>
        <time>2024-05-23T13:55:23.095Z</time>
      </trkpt>
      <trkpt lat="48.21026" lon="3.2289">
        <ele>168</ele>
        <time>2024-05-23T13:55:28.094Z</time>
      </trkpt>
      <trkpt lat="48.21023" lon="3.22896">
        <ele>168</ele>
        <time>2024-05-23T13:55:32.095Z</time>
      </trkpt>
      <trkpt lat="48.2102" lon="3.22904">
        <ele>167</ele>
        <time>2024-05-23T13:55:36.598Z</time>
      </trkpt>
      <trkpt lat="48.21018" lon="3.22913">
        <ele>167</ele>
        <time>2024-05-23T13:55:41.094Z</time>
      </trkpt>
      <trkpt lat="48.21016" lon="3.22922">
        <ele>167</ele>
        <time>2024-05-23T13:55:46.094Z</time>
      </trkpt>
      <trkpt lat="48.21014" lon="3.22928">
        <ele>167</ele>
        <time>2024-05-23T13:55:50.272Z</time>
      </trkpt>
      <trkpt lat="48.21012" lon="3.22934">
        <ele>164</ele>
        <time>2024-05-23T13:55:55.094Z</time>
      </trkpt>
      <trkpt lat="48.21011" lon="3.22938">
        <ele>164</ele>
        <time>2024-05-23T13:55:59.441Z</time>
      </trkpt>
      <trkpt lat="48.21008" lon="3.22947">
        <ele>164</ele>
        <time>2024-05-23T13:56:03.880Z</time>
      </trkpt>
      <trkpt lat="48.21004" lon="3.22954">
        <ele>164</ele>
        <time>2024-05-23T13:56:08.397Z</time>
      </trkpt>
      <trkpt lat="48.21" lon="3.22961">
        <ele>163</ele>
        <time>2024-05-23T13:56:12.899Z</time>
      </trkpt>
      <trkpt lat="48.21" lon="3.22969">
        <ele>163</ele>
        <time>2024-05-23T13:56:16.894Z</time>
      </trkpt>
      <trkpt lat="48.20996" lon="3.22974">
        <ele>163</ele>
        <time>2024-05-23T13:56:21.378Z</time>
      </trkpt>
      <trkpt lat="48.20993" lon="3.22983">
        <ele>163</ele>
        <time>2024-05-23T13:56:26.094Z</time>
      </trkpt>
      <trkpt lat="48.20992" lon="3.2299">
        <ele>163</ele>
        <time>2024-05-23T13:56:30.492Z</time>
      </trkpt>
      <trkpt lat="48.20989" lon="3.22998">
        <ele>163</ele>
        <time>2024-05-23T13:56:35.031Z</time>
      </trkpt>
      <trkpt lat="48.20987" lon="3.23005">
        <ele>163</ele>
        <time>2024-05-23T13:56:39.494Z</time>
      </trkpt>
      <trkpt lat="48.20984" lon="3.23009">
        <ele>161</ele>
        <time>2024-05-23T13:56:43.720Z</time>
      </trkpt>
      <trkpt lat="48.20982" lon="3.23016">
        <ele>162</ele>
        <time>2024-05-23T13:56:48.258Z</time>
      </trkpt>
      <trkpt lat="48.20981" lon="3.23024">
        <ele>162</ele>
        <time>2024-05-23T13:56:52.654Z</time>
      </trkpt>
      <trkpt lat="48.20979" lon="3.23031">
        <ele>162</ele>
        <time>2024-05-23T13:56:56.775Z</time>
      </trkpt>
      <trkpt lat="48.20976" lon="3.23038">
        <ele>162</ele>
        <time>2024-05-23T13:57:01.254Z</time>
      </trkpt>
      <trkpt lat="48.20973" lon="3.23046">
        <ele>162</ele>
        <time>2024-05-23T13:57:05.794Z</time>
      </trkpt>
      <trkpt lat="48.20971" lon="3.23051">
        <ele>162</ele>
        <time>2024-05-23T13:57:09.898Z</time>
      </trkpt>
      <trkpt lat="48.20969" lon="3.23058">
        <ele>162</ele>
        <time>2024-05-23T13:57:14.083Z</time>
      </trkpt>
      <trkpt lat="48.20967" lon="3.23064">
        <ele>162</ele>
        <time>2024-05-23T13:57:18.095Z</time>
      </trkpt>
      <trkpt lat="48.20965" lon="3.2307">
        <ele>164</ele>
        <time>2024-05-23T13:57:22.095Z</time>
      </trkpt>
      <trkpt lat="48.20964" lon="3.23078">
        <ele>164</ele>
        <time>2024-05-23T13:57:27.075Z</time>
      </trkpt>
      <trkpt lat="48.20961" lon="3.23084">
        <ele>164</ele>
        <time>2024-05-23T13:57:31.095Z</time>
      </trkpt>
      <trkpt lat="48.20959" lon="3.23089">
        <ele>164</ele>
        <time>2024-05-23T13:57:35.634Z</time>
      </trkpt>
      <trkpt lat="48.20957" lon="3.23096">
        <ele>165</ele>
        <time>2024-05-23T13:57:39.858Z</time>
      </trkpt>
      <trkpt lat="48.20955" lon="3.23103">
        <ele>166</ele>
        <time>2024-05-23T13:57:44.253Z</time>
      </trkpt>
      <trkpt lat="48.20952" lon="3.23109">
        <ele>166</ele>
        <time>2024-05-23T13:57:48.792Z</time>
      </trkpt>
      <trkpt lat="48.2095" lon="3.23116">
        <ele>166</ele>
        <time>2024-05-23T13:57:53.314Z</time>
      </trkpt>
      <trkpt lat="48.20948" lon="3.23123">
        <ele>166</ele>
        <time>2024-05-23T13:57:57.359Z</time>
      </trkpt>
      <trkpt lat="48.20946" lon="3.23129">
        <ele>169</ele>
        <time>2024-05-23T13:58:01.753Z</time>
      </trkpt>
      <trkpt lat="48.20944" lon="3.23137">
        <ele>169</ele>
        <time>2024-05-23T13:58:06.258Z</time>
      </trkpt>
      <trkpt lat="48.20943" lon="3.23143">
        <ele>169</ele>
        <time>2024-05-23T13:58:10.337Z</time>
      </trkpt>
      <trkpt lat="48.20941" lon="3.2315">
        <ele>169</ele>
        <time>2024-05-23T13:58:14.979Z</time>
      </trkpt>
      <trkpt lat="48.20938" lon="3.23157">
        <ele>172</ele>
        <time>2024-05-23T13:58:19.416Z</time>
      </trkpt>
      <trkpt lat="48.20935" lon="3.23163">
        <ele>172</ele>
        <time>2024-05-23T13:58:23.955Z</time>
      </trkpt>
      <trkpt lat="48.2093" lon="3.23167">
        <ele>170</ele>
        <time>2024-05-23T13:58:28.418Z</time>
      </trkpt>
      <trkpt lat="48.20926" lon="3.23169">
        <ele>170</ele>
        <time>2024-05-23T13:58:32.752Z</time>
      </trkpt>
      <trkpt lat="48.20923" lon="3.23169">
        <ele>170</ele>
        <time>2024-05-23T13:58:37.095Z</time>
      </trkpt>
      <trkpt lat="48.20918" lon="3.23167">
        <ele>170</ele>
        <time>2024-05-23T13:58:41.095Z</time>
      </trkpt>
      <trkpt lat="48.20914" lon="3.23167">
        <ele>170</ele>
        <time>2024-05-23T13:58:45.295Z</time>
      </trkpt>
      <trkpt lat="48.20909" lon="3.23165">
        <ele>170</ele>
        <time>2024-05-23T13:58:49.672Z</time>
      </trkpt>
      <trkpt lat="48.20905" lon="3.23165">
        <ele>170</ele>
        <time>2024-05-23T13:58:53.939Z</time>
      </trkpt>
      <trkpt lat="48.209" lon="3.23164">
        <ele>169</ele>
        <time>2024-05-23T13:58:58.094Z</time>
      </trkpt>
      <trkpt lat="48.20895" lon="3.23163">
        <ele>169</ele>
        <time>2024-05-23T13:59:02.599Z</time>
      </trkpt>
      <trkpt lat="48.20893" lon="3.23164">
        <ele>169</ele>
        <time>2024-05-23T13:59:04.399Z</time>
      </trkpt>
      <trkpt lat="48.20882" lon="3.2316">
        <ele>169</ele>
        <time>2024-05-23T13:59:14.094Z</time>
      </trkpt>
      <trkpt lat="48.20877" lon="3.2316">
        <ele>169</ele>
        <time>2024-05-23T13:59:18.277Z</time>
      </trkpt>
      <trkpt lat="48.20871" lon="3.23159">
        <ele>169</ele>
        <time>2024-05-23T13:59:22.366Z</time>
      </trkpt>
      <trkpt lat="48.20865" lon="3.23158">
        <ele>169</ele>
        <time>2024-05-23T13:59:26.872Z</time>
      </trkpt>
      <trkpt lat="48.2086" lon="3.23159">
        <ele>169</ele>
        <time>2024-05-23T13:59:31.094Z</time>
      </trkpt>
      <trkpt lat="48.20855" lon="3.23156">
        <ele>169</ele>
        <time>2024-05-23T13:59:35.963Z</time>
      </trkpt>
      <trkpt lat="48.20849" lon="3.23159">
        <ele>169</ele>
        <time>2024-05-23T13:59:40.398Z</time>
      </trkpt>
      <trkpt lat="48.20844" lon="3.2316">
        <ele>169</ele>
        <time>2024-05-23T13:59:44.544Z</time>
      </trkpt>
      <trkpt lat="48.20839" lon="3.2316">
        <ele>169</ele>
        <time>2024-05-23T13:59:48.896Z</time>
      </trkpt>
      <trkpt lat="48.20834" lon="3.2316">
        <ele>169</ele>
        <time>2024-05-23T13:59:53.094Z</time>
      </trkpt>
      <trkpt lat="48.20828" lon="3.23159">
        <ele>169</ele>
        <time>2024-05-23T13:59:58.017Z</time>
      </trkpt>
      <trkpt lat="48.20822" lon="3.23159">
        <ele>169</ele>
        <time>2024-05-23T14:00:02.779Z</time>
      </trkpt>
      <trkpt lat="48.20816" lon="3.23157">
        <ele>168</ele>
        <time>2024-05-23T14:00:07.017Z</time>
      </trkpt>
      <trkpt lat="48.20812" lon="3.23158">
        <ele>168</ele>
        <time>2024-05-23T14:00:11.095Z</time>
      </trkpt>
      <trkpt lat="48.20805" lon="3.23157">
        <ele>168</ele>
        <time>2024-05-23T14:00:16.094Z</time>
      </trkpt>
      <trkpt lat="48.20799" lon="3.23156">
        <ele>168</ele>
        <time>2024-05-23T14:00:21.094Z</time>
      </trkpt>
      <trkpt lat="48.20794" lon="3.23156">
        <ele>168</ele>
        <time>2024-05-23T14:00:25.364Z</time>
      </trkpt>
      <trkpt lat="48.20788" lon="3.23155">
        <ele>168</ele>
        <time>2024-05-23T14:00:30.094Z</time>
      </trkpt>
      <trkpt lat="48.20783" lon="3.23157">
        <ele>168</ele>
        <time>2024-05-23T14:00:34.544Z</time>
      </trkpt>
      <trkpt lat="48.20778" lon="3.23156">
        <ele>168</ele>
        <time>2024-05-23T14:00:38.596Z</time>
      </trkpt>
      <trkpt lat="48.20774" lon="3.23155">
        <ele>168</ele>
        <time>2024-05-23T14:00:42.843Z</time>
      </trkpt>
      <trkpt lat="48.20767" lon="3.23154">
        <ele>168</ele>
        <time>2024-05-23T14:00:47.035Z</time>
      </trkpt>
      <trkpt lat="48.20763" lon="3.23155">
        <ele>168</ele>
        <time>2024-05-23T14:00:51.595Z</time>
      </trkpt>
      <trkpt lat="48.20758" lon="3.23153">
        <ele>168</ele>
        <time>2024-05-23T14:00:56.094Z</time>
      </trkpt>
      <trkpt lat="48.20754" lon="3.23152">
        <ele>169</ele>
        <time>2024-05-23T14:01:00.217Z</time>
      </trkpt>
      <trkpt lat="48.20753" lon="3.23153">
        <ele>168</ele>
        <time>2024-05-23T14:01:05.094Z</time>
      </trkpt>
      <trkpt lat="48.20753" lon="3.23153">
        <ele>169</ele>
        <time>2024-05-23T14:01:10.095Z</time>
      </trkpt>
      <trkpt lat="48.20753" lon="3.23153">
        <ele>169</ele>
        <time>2024-05-23T14:01:15.094Z</time>
      </trkpt>
      <trkpt lat="48.20748" lon="3.23149">
        <ele>169</ele>
        <time>2024-05-23T14:01:19.697Z</time>
      </trkpt>
      <trkpt lat="48.20744" lon="3.2315">
        <ele>169</ele>
        <time>2024-05-23T14:01:24.094Z</time>
      </trkpt>
      <trkpt lat="48.2074" lon="3.23148">
        <ele>169</ele>
        <time>2024-05-23T14:02:33.093Z</time>
      </trkpt>
      <trkpt lat="48.20738" lon="3.23149">
        <ele>169</ele>
        <time>2024-05-23T14:02:37.619Z</time>
      </trkpt>
      <trkpt lat="48.20732" lon="3.23147">
        <ele>168</ele>
        <time>2024-05-23T14:02:41.774Z</time>
      </trkpt>
      <trkpt lat="48.2073" lon="3.23145">
        <ele>168</ele>
        <time>2024-05-23T14:02:46.597Z</time>
      </trkpt>
      <trkpt lat="48.20722" lon="3.23144">
        <ele>168</ele>
        <time>2024-05-23T14:02:50.975Z</time>
      </trkpt>
      <trkpt lat="48.20719" lon="3.23144">
        <ele>168</ele>
        <time>2024-05-23T14:02:55.007Z</time>
      </trkpt>
      <trkpt lat="48.20713" lon="3.23144">
        <ele>168</ele>
        <time>2024-05-23T14:02:59.058Z</time>
      </trkpt>
      <trkpt lat="48.20708" lon="3.23143">
        <ele>168</ele>
        <time>2024-05-23T14:03:03.759Z</time>
      </trkpt>
      <trkpt lat="48.20703" lon="3.23142">
        <ele>168</ele>
        <time>2024-05-23T14:03:07.898Z</time>
      </trkpt>
      <trkpt lat="48.20699" lon="3.23144">
        <ele>168</ele>
        <time>2024-05-23T14:03:12.093Z</time>
      </trkpt>
      <trkpt lat="48.20695" lon="3.2314">
        <ele>168</ele>
        <time>2024-05-23T14:03:16.415Z</time>
      </trkpt>
      <trkpt lat="48.20689" lon="3.2314">
        <ele>168</ele>
        <time>2024-05-23T14:03:21.093Z</time>
      </trkpt>
      <trkpt lat="48.20684" lon="3.23138">
        <ele>168</ele>
        <time>2024-05-23T14:03:25.580Z</time>
      </trkpt>
      <trkpt lat="48.20679" lon="3.23138">
        <ele>167</ele>
        <time>2024-05-23T14:03:30.093Z</time>
      </trkpt>
      <trkpt lat="48.20674" lon="3.23138">
        <ele>167</ele>
        <time>2024-05-23T14:03:34.318Z</time>
      </trkpt>
      <trkpt lat="48.20669" lon="3.23138">
        <ele>167</ele>
        <time>2024-05-23T14:03:38.473Z</time>
      </trkpt>
      <trkpt lat="48.20665" lon="3.23139">
        <ele>167</ele>
        <time>2024-05-23T14:03:42.562Z</time>
      </trkpt>
      <trkpt lat="48.2066" lon="3.23138">
        <ele>167</ele>
        <time>2024-05-23T14:03:46.751Z</time>
      </trkpt>
      <trkpt lat="48.20655" lon="3.23136">
        <ele>167</ele>
        <time>2024-05-23T14:03:50.993Z</time>
      </trkpt>
      <trkpt lat="48.2065" lon="3.23134">
        <ele>166</ele>
        <time>2024-05-23T14:03:55.353Z</time>
      </trkpt>
      <trkpt lat="48.20645" lon="3.23133">
        <ele>166</ele>
        <time>2024-05-23T14:03:59.492Z</time>
      </trkpt>
      <trkpt lat="48.20642" lon="3.23136">
        <ele>166</ele>
        <time>2024-05-23T14:04:04.093Z</time>
      </trkpt>
      <trkpt lat="48.20638" lon="3.23139">
        <ele>166</ele>
        <time>2024-05-23T14:04:08.094Z</time>
      </trkpt>
      <trkpt lat="48.20634" lon="3.2314">
        <ele>166</ele>
        <time>2024-05-23T14:04:12.668Z</time>
      </trkpt>
      <trkpt lat="48.2063" lon="3.23141">
        <ele>166</ele>
        <time>2024-05-23T14:04:17.028Z</time>
      </trkpt>
      <trkpt lat="48.20625" lon="3.23143">
        <ele>166</ele>
        <time>2024-05-23T14:04:21.094Z</time>
      </trkpt>
      <trkpt lat="48.2062" lon="3.23146">
        <ele>163</ele>
        <time>2024-05-23T14:04:25.817Z</time>
      </trkpt>
      <trkpt lat="48.20615" lon="3.23148">
        <ele>163</ele>
        <time>2024-05-23T14:04:30.059Z</time>
      </trkpt>
      <trkpt lat="48.20611" lon="3.23151">
        <ele>163</ele>
        <time>2024-05-23T14:04:34.776Z</time>
      </trkpt>
      <trkpt lat="48.20607" lon="3.23154">
        <ele>163</ele>
        <time>2024-05-23T14:04:38.935Z</time>
      </trkpt>
      <trkpt lat="48.20603" lon="3.23154">
        <ele>163</ele>
        <time>2024-05-23T14:04:43.093Z</time>
      </trkpt>
      <trkpt lat="48.20598" lon="3.23154">
        <ele>163</ele>
        <time>2024-05-23T14:04:47.176Z</time>
      </trkpt>
      <trkpt lat="48.20594" lon="3.23153">
        <ele>162</ele>
        <time>2024-05-23T14:04:51.238Z</time>
      </trkpt>
      <trkpt lat="48.2059" lon="3.23156">
        <ele>162</ele>
        <time>2024-05-23T14:04:55.358Z</time>
      </trkpt>
      <trkpt lat="48.20584" lon="3.23158">
        <ele>162</ele>
        <time>2024-05-23T14:04:59.412Z</time>
      </trkpt>
      <trkpt lat="48.20579" lon="3.23159">
        <ele>162</ele>
        <time>2024-05-23T14:05:03.684Z</time>
      </trkpt>
      <trkpt lat="48.20575" lon="3.2316">
        <ele>162</ele>
        <time>2024-05-23T14:05:07.799Z</time>
      </trkpt>
      <trkpt lat="48.20569" lon="3.23158">
        <ele>164</ele>
        <time>2024-05-23T14:05:12.340Z</time>
      </trkpt>
      <trkpt lat="48.20565" lon="3.23154">
        <ele>164</ele>
        <time>2024-05-23T14:05:16.657Z</time>
      </trkpt>
      <trkpt lat="48.2056" lon="3.23152">
        <ele>165</ele>
        <time>2024-05-23T14:05:21.093Z</time>
      </trkpt>
      <trkpt lat="48.20555" lon="3.23145">
        <ele>165</ele>
        <time>2024-05-23T14:05:25.812Z</time>
      </trkpt>
      <trkpt lat="48.20551" lon="3.23136">
        <ele>165</ele>
        <time>2024-05-23T14:05:30.094Z</time>
      </trkpt>
      <trkpt lat="48.20553" lon="3.2313">
        <ele>165</ele>
        <time>2024-05-23T14:05:34.738Z</time>
      </trkpt>
      <trkpt lat="48.20553" lon="3.23128">
        <ele>165</ele>
        <time>2024-05-23T14:05:38.773Z</time>
      </trkpt>
      <trkpt lat="48.20552" lon="3.23121">
        <ele>166</ele>
        <time>2024-05-23T14:05:43.014Z</time>
      </trkpt>
      <trkpt lat="48.2055" lon="3.23114">
        <ele>166</ele>
        <time>2024-05-23T14:05:47.094Z</time>
      </trkpt>
      <trkpt lat="48.20551" lon="3.23106">
        <ele>166</ele>
        <time>2024-05-23T14:05:51.094Z</time>
      </trkpt>
      <trkpt lat="48.20554" lon="3.231">
        <ele>166</ele>
        <time>2024-05-23T14:05:55.799Z</time>
      </trkpt>
      <trkpt lat="48.20555" lon="3.23092">
        <ele>165</ele>
        <time>2024-05-23T14:06:00.473Z</time>
      </trkpt>
      <trkpt lat="48.20553" lon="3.23085">
        <ele>165</ele>
        <time>2024-05-23T14:06:04.858Z</time>
      </trkpt>
      <trkpt lat="48.20552" lon="3.23078">
        <ele>165</ele>
        <time>2024-05-23T14:06:09.094Z</time>
      </trkpt>
      <trkpt lat="48.20552" lon="3.23071">
        <ele>165</ele>
        <time>2024-05-23T14:06:13.597Z</time>
      </trkpt>
      <trkpt lat="48.20551" lon="3.23063">
        <ele>165</ele>
        <time>2024-05-23T14:06:18.094Z</time>
      </trkpt>
      <trkpt lat="48.2055" lon="3.23055">
        <ele>165</ele>
        <time>2024-05-23T14:06:22.818Z</time>
      </trkpt>
      <trkpt lat="48.20549" lon="3.23047">
        <ele>165</ele>
        <time>2024-05-23T14:06:27.093Z</time>
      </trkpt>
      <trkpt lat="48.2055" lon="3.23039">
        <ele>165</ele>
        <time>2024-05-23T14:06:31.616Z</time>
      </trkpt>
      <trkpt lat="48.20548" lon="3.23031">
        <ele>165</ele>
        <time>2024-05-23T14:06:36.633Z</time>
      </trkpt>
      <trkpt lat="48.20546" lon="3.23024">
        <ele>165</ele>
        <time>2024-05-23T14:06:41.094Z</time>
      </trkpt>
      <trkpt lat="48.20544" lon="3.23015">
        <ele>165</ele>
        <time>2024-05-23T14:06:45.959Z</time>
      </trkpt>
      <trkpt lat="48.20543" lon="3.23008">
        <ele>166</ele>
        <time>2024-05-23T14:06:50.094Z</time>
      </trkpt>
      <trkpt lat="48.20542" lon="3.22999">
        <ele>167</ele>
        <time>2024-05-23T14:06:55.094Z</time>
      </trkpt>
      <trkpt lat="48.2054" lon="3.22992">
        <ele>167</ele>
        <time>2024-05-23T14:06:59.252Z</time>
      </trkpt>
      <trkpt lat="48.20539" lon="3.22985">
        <ele>168</ele>
        <time>2024-05-23T14:07:03.477Z</time>
      </trkpt>
      <trkpt lat="48.20538" lon="3.22978">
        <ele>168</ele>
        <time>2024-05-23T14:07:07.494Z</time>
      </trkpt>
      <trkpt lat="48.20537" lon="3.2297">
        <ele>168</ele>
        <time>2024-05-23T14:07:11.915Z</time>
      </trkpt>
      <trkpt lat="48.20536" lon="3.22963">
        <ele>168</ele>
        <time>2024-05-23T14:07:15.933Z</time>
      </trkpt>
      <trkpt lat="48.20535" lon="3.22956">
        <ele>167</ele>
        <time>2024-05-23T14:07:20.094Z</time>
      </trkpt>
      <trkpt lat="48.20534" lon="3.22949">
        <ele>167</ele>
        <time>2024-05-23T14:07:24.372Z</time>
      </trkpt>
      <trkpt lat="48.20533" lon="3.22942">
        <ele>167</ele>
        <time>2024-05-23T14:07:28.877Z</time>
      </trkpt>
      <trkpt lat="48.20532" lon="3.22936">
        <ele>167</ele>
        <time>2024-05-23T14:07:32.913Z</time>
      </trkpt>
      <trkpt lat="48.2053" lon="3.22929">
        <ele>166</ele>
        <time>2024-05-23T14:07:37.093Z</time>
      </trkpt>
      <trkpt lat="48.20528" lon="3.22921">
        <ele>166</ele>
        <time>2024-05-23T14:07:42.094Z</time>
      </trkpt>
      <trkpt lat="48.20526" lon="3.22914">
        <ele>166</ele>
        <time>2024-05-23T14:07:47.094Z</time>
      </trkpt>
      <trkpt lat="48.20525" lon="3.22907">
        <ele>166</ele>
        <time>2024-05-23T14:07:51.154Z</time>
      </trkpt>
      <trkpt lat="48.20525" lon="3.22901">
        <ele>165</ele>
        <time>2024-05-23T14:07:55.677Z</time>
      </trkpt>
      <trkpt lat="48.20524" lon="3.22893">
        <ele>165</ele>
        <time>2024-05-23T14:08:00.093Z</time>
      </trkpt>
      <trkpt lat="48.20523" lon="3.22885">
        <ele>165</ele>
        <time>2024-05-23T14:08:04.892Z</time>
      </trkpt>
      <trkpt lat="48.20522" lon="3.22878">
        <ele>165</ele>
        <time>2024-05-23T14:08:09.094Z</time>
      </trkpt>
      <trkpt lat="48.20522" lon="3.22871">
        <ele>165</ele>
        <time>2024-05-23T14:08:13.552Z</time>
      </trkpt>
      <trkpt lat="48.20521" lon="3.22864">
        <ele>165</ele>
        <time>2024-05-23T14:08:17.972Z</time>
      </trkpt>
      <trkpt lat="48.20521" lon="3.22857">
        <ele>165</ele>
        <time>2024-05-23T14:08:22.094Z</time>
      </trkpt>
      <trkpt lat="48.2052" lon="3.22849">
        <ele>165</ele>
        <time>2024-05-23T14:08:26.556Z</time>
      </trkpt>
      <trkpt lat="48.20519" lon="3.22843">
        <ele>165</ele>
        <time>2024-05-23T14:08:30.754Z</time>
      </trkpt>
      <trkpt lat="48.20516" lon="3.22838">
        <ele>165</ele>
        <time>2024-05-23T14:08:34.815Z</time>
      </trkpt>
      <trkpt lat="48.20516" lon="3.22831">
        <ele>165</ele>
        <time>2024-05-23T14:08:38.979Z</time>
      </trkpt>
      <trkpt lat="48.20515" lon="3.22824">
        <ele>165</ele>
        <time>2024-05-23T14:08:43.094Z</time>
      </trkpt>
      <trkpt lat="48.20514" lon="3.22816">
        <ele>164</ele>
        <time>2024-05-23T14:08:48.094Z</time>
      </trkpt>
      <trkpt lat="48.20514" lon="3.22808">
        <ele>166</ele>
        <time>2024-05-23T14:08:52.452Z</time>
      </trkpt>
      <trkpt lat="48.20513" lon="3.228">
        <ele>166</ele>
        <time>2024-05-23T14:08:56.837Z</time>
      </trkpt>
      <trkpt lat="48.20511" lon="3.22792">
        <ele>166</ele>
        <time>2024-05-23T14:09:01.692Z</time>
      </trkpt>
      <trkpt lat="48.2051" lon="3.22784">
        <ele>166</ele>
        <time>2024-05-23T14:09:06.512Z</time>
      </trkpt>
      <trkpt lat="48.20508" lon="3.22778">
        <ele>166</ele>
        <time>2024-05-23T14:09:11.094Z</time>
      </trkpt>
      <trkpt lat="48.20507" lon="3.22769">
        <ele>166</ele>
        <time>2024-05-23T14:09:16.094Z</time>
      </trkpt>
      <trkpt lat="48.20506" lon="3.22763">
        <ele>166</ele>
        <time>2024-05-23T14:09:20.093Z</time>
      </trkpt>
      <trkpt lat="48.20505" lon="3.22755">
        <ele>166</ele>
        <time>2024-05-23T14:09:24.653Z</time>
      </trkpt>
      <trkpt lat="48.20504" lon="3.22748">
        <ele>166</ele>
        <time>2024-05-23T14:09:29.092Z</time>
      </trkpt>
      <trkpt lat="48.20503" lon="3.2274">
        <ele>166</ele>
        <time>2024-05-23T14:09:34.092Z</time>
      </trkpt>
      <trkpt lat="48.20502" lon="3.22733">
        <ele>164</ele>
        <time>2024-05-23T14:09:38.637Z</time>
      </trkpt>
      <trkpt lat="48.20501" lon="3.22726">
        <ele>164</ele>
        <time>2024-05-23T14:09:43.009Z</time>
      </trkpt>
      <trkpt lat="48.205" lon="3.22719">
        <ele>164</ele>
        <time>2024-05-23T14:09:47.092Z</time>
      </trkpt>
      <trkpt lat="48.20498" lon="3.22713">
        <ele>164</ele>
        <time>2024-05-23T14:09:51.376Z</time>
      </trkpt>
      <trkpt lat="48.20495" lon="3.22707">
        <ele>162</ele>
        <time>2024-05-23T14:09:55.659Z</time>
      </trkpt>
      <trkpt lat="48.205" lon="3.22706">
        <ele>162</ele>
        <time>2024-05-23T14:10:00.098Z</time>
      </trkpt>
      <trkpt lat="48.20488" lon="3.227">
        <ele>162</ele>
        <time>2024-05-23T14:10:04.916Z</time>
      </trkpt>
      <trkpt lat="48.20484" lon="3.22697">
        <ele>162</ele>
        <time>2024-05-23T14:10:09.092Z</time>
      </trkpt>
      <trkpt lat="48.20479" lon="3.22698">
        <ele>162</ele>
        <time>2024-05-23T14:10:13.551Z</time>
      </trkpt>
      <trkpt lat="48.20477" lon="3.22698">
        <ele>162</ele>
        <time>2024-05-23T14:10:17.596Z</time>
      </trkpt>
      <trkpt lat="48.20473" lon="3.22698">
        <ele>162</ele>
        <time>2024-05-23T14:10:22.093Z</time>
      </trkpt>
      <trkpt lat="48.20469" lon="3.22699">
        <ele>162</ele>
        <time>2024-05-23T14:10:26.673Z</time>
      </trkpt>
      <trkpt lat="48.20466" lon="3.22697">
        <ele>162</ele>
        <time>2024-05-23T14:10:30.719Z</time>
      </trkpt>
      <trkpt lat="48.20465" lon="3.22701">
        <ele>162</ele>
        <time>2024-05-23T14:10:35.096Z</time>
      </trkpt>
      <trkpt lat="48.20462" lon="3.227">
        <ele>162</ele>
        <time>2024-05-23T14:10:39.233Z</time>
      </trkpt>
      <trkpt lat="48.20456" lon="3.22699">
        <ele>160</ele>
        <time>2024-05-23T14:10:43.918Z</time>
      </trkpt>
      <trkpt lat="48.20449" lon="3.22695">
        <ele>160</ele>
        <time>2024-05-23T14:11:06.093Z</time>
      </trkpt>
      <trkpt lat="48.20445" lon="3.22693">
        <ele>160</ele>
        <time>2024-05-23T14:11:11.075Z</time>
      </trkpt>
      <trkpt lat="48.20437" lon="3.22692">
        <ele>160</ele>
        <time>2024-05-23T14:11:15.419Z</time>
      </trkpt>
      <trkpt lat="48.20433" lon="3.2269">
        <ele>160</ele>
        <time>2024-05-23T14:11:20.092Z</time>
      </trkpt>
      <trkpt lat="48.20428" lon="3.2269">
        <ele>159</ele>
        <time>2024-05-23T14:11:24.233Z</time>
      </trkpt>
      <trkpt lat="48.20423" lon="3.22689">
        <ele>159</ele>
        <time>2024-05-23T14:11:29.092Z</time>
      </trkpt>
      <trkpt lat="48.20422" lon="3.22693">
        <ele>159</ele>
        <time>2024-05-23T14:11:34.096Z</time>
      </trkpt>
      <trkpt lat="48.20417" lon="3.22692">
        <ele>159</ele>
        <time>2024-05-23T14:11:38.960Z</time>
      </trkpt>
      <trkpt lat="48.20413" lon="3.2269">
        <ele>159</ele>
        <time>2024-05-23T14:11:43.037Z</time>
      </trkpt>
      <trkpt lat="48.20409" lon="3.22689">
        <ele>159</ele>
        <time>2024-05-23T14:11:47.093Z</time>
      </trkpt>
      <trkpt lat="48.20403" lon="3.22688">
        <ele>159</ele>
        <time>2024-05-23T14:11:51.818Z</time>
      </trkpt>
      <trkpt lat="48.20399" lon="3.22688">
        <ele>157</ele>
        <time>2024-05-23T14:11:55.913Z</time>
      </trkpt>
      <trkpt lat="48.20395" lon="3.22687">
        <ele>157</ele>
        <time>2024-05-23T14:11:59.975Z</time>
      </trkpt>
      <trkpt lat="48.20389" lon="3.22687">
        <ele>157</ele>
        <time>2024-05-23T14:12:04.420Z</time>
      </trkpt>
      <trkpt lat="48.20384" lon="3.22686">
        <ele>157</ele>
        <time>2024-05-23T14:12:08.916Z</time>
      </trkpt>
      <trkpt lat="48.20378" lon="3.22685">
        <ele>157</ele>
        <time>2024-05-23T14:12:13.959Z</time>
      </trkpt>
      <trkpt lat="48.20373" lon="3.22683">
        <ele>153</ele>
        <time>2024-05-23T14:12:18.617Z</time>
      </trkpt>
      <trkpt lat="48.20369" lon="3.22685">
        <ele>153</ele>
        <time>2024-05-23T14:12:23.037Z</time>
      </trkpt>
      <trkpt lat="48.20364" lon="3.22684">
        <ele>153</ele>
        <time>2024-05-23T14:12:27.559Z</time>
      </trkpt>
      <trkpt lat="48.2036" lon="3.22681">
        <ele>153</ele>
        <time>2024-05-23T14:12:32.098Z</time>
      </trkpt>
      <trkpt lat="48.20354" lon="3.2268">
        <ele>151</ele>
        <time>2024-05-23T14:12:36.671Z</time>
      </trkpt>
      <trkpt lat="48.20349" lon="3.22678">
        <ele>151</ele>
        <time>2024-05-23T14:12:41.093Z</time>
      </trkpt>
      <trkpt lat="48.20344" lon="3.22677">
        <ele>149</ele>
        <time>2024-05-23T14:12:45.844Z</time>
      </trkpt>
      <trkpt lat="48.20339" lon="3.22679">
        <ele>149</ele>
        <time>2024-05-23T14:12:50.092Z</time>
      </trkpt>
      <trkpt lat="48.20335" lon="3.22676">
        <ele>149</ele>
        <time>2024-05-23T14:12:54.718Z</time>
      </trkpt>
      <trkpt lat="48.20338" lon="3.22689">
        <ele>150</ele>
        <time>2024-05-23T14:13:31.858Z</time>
      </trkpt>
      <trkpt lat="48.20333" lon="3.22695">
        <ele>150</ele>
        <time>2024-05-23T14:13:37.072Z</time>
      </trkpt>
      <trkpt lat="48.20332" lon="3.227">
        <ele>150</ele>
        <time>2024-05-23T14:13:42.092Z</time>
      </trkpt>
      <trkpt lat="48.20328" lon="3.22706">
        <ele>150</ele>
        <time>2024-05-23T14:13:47.093Z</time>
      </trkpt>
      <trkpt lat="48.20325" lon="3.22711">
        <ele>153</ele>
        <time>2024-05-23T14:13:52.092Z</time>
      </trkpt>
      <trkpt lat="48.20326" lon="3.22714">
        <ele>153</ele>
        <time>2024-05-23T14:14:06.093Z</time>
      </trkpt>
      <trkpt lat="48.20325" lon="3.22717">
        <ele>153</ele>
        <time>2024-05-23T14:14:10.680Z</time>
      </trkpt>
      <trkpt lat="48.20322" lon="3.22724">
        <ele>153</ele>
        <time>2024-05-23T14:14:15.093Z</time>
      </trkpt>
      <trkpt lat="48.20319" lon="3.22731">
        <ele>150</ele>
        <time>2024-05-23T14:14:20.100Z</time>
      </trkpt>
      <trkpt lat="48.20317" lon="3.22737">
        <ele>150</ele>
        <time>2024-05-23T14:14:24.155Z</time>
      </trkpt>
      <trkpt lat="48.20315" lon="3.22744">
        <ele>150</ele>
        <time>2024-05-23T14:14:28.495Z</time>
      </trkpt>
      <trkpt lat="48.20313" lon="3.22751">
        <ele>150</ele>
        <time>2024-05-23T14:14:32.675Z</time>
      </trkpt>
      <trkpt lat="48.20311" lon="3.22757">
        <ele>150</ele>
        <time>2024-05-23T14:14:37.093Z</time>
      </trkpt>
      <trkpt lat="48.20312" lon="3.22762">
        <ele>150</ele>
        <time>2024-05-23T14:14:41.092Z</time>
      </trkpt>
      <trkpt lat="48.20312" lon="3.22765">
        <ele>151</ele>
        <time>2024-05-23T14:14:45.473Z</time>
      </trkpt>
      <trkpt lat="48.2031" lon="3.22773">
        <ele>151</ele>
        <time>2024-05-23T14:14:49.551Z</time>
      </trkpt>
      <trkpt lat="48.20308" lon="3.22778">
        <ele>151</ele>
        <time>2024-05-23T14:14:53.827Z</time>
      </trkpt>
      <trkpt lat="48.20307" lon="3.22783">
        <ele>151</ele>
        <time>2024-05-23T14:14:58.092Z</time>
      </trkpt>
      <trkpt lat="48.20305" lon="3.22791">
        <ele>151</ele>
        <time>2024-05-23T14:15:02.998Z</time>
      </trkpt>
      <trkpt lat="48.20301" lon="3.22796">
        <ele>151</ele>
        <time>2024-05-23T14:15:07.055Z</time>
      </trkpt>
      <trkpt lat="48.20295" lon="3.22798">
        <ele>151</ele>
        <time>2024-05-23T14:15:11.092Z</time>
      </trkpt>
      <trkpt lat="48.20289" lon="3.22799">
        <ele>147</ele>
        <time>2024-05-23T14:15:16.096Z</time>
      </trkpt>
      <trkpt lat="48.20283" lon="3.22799">
        <ele>147</ele>
        <time>2024-05-23T14:15:20.755Z</time>
      </trkpt>
      <trkpt lat="48.20281" lon="3.22802">
        <ele>147</ele>
        <time>2024-05-23T14:15:24.978Z</time>
      </trkpt>
      <trkpt lat="48.20278" lon="3.22804">
        <ele>147</ele>
        <time>2024-05-23T14:15:29.048Z</time>
      </trkpt>
      <trkpt lat="48.20271" lon="3.22803">
        <ele>147</ele>
        <time>2024-05-23T14:15:33.092Z</time>
      </trkpt>
      <trkpt lat="48.20266" lon="3.22802">
        <ele>147</ele>
        <time>2024-05-23T14:15:37.820Z</time>
      </trkpt>
      <trkpt lat="48.20261" lon="3.22799">
        <ele>146</ele>
        <time>2024-05-23T14:15:42.494Z</time>
      </trkpt>
      <trkpt lat="48.20256" lon="3.22797">
        <ele>146</ele>
        <time>2024-05-23T14:15:46.540Z</time>
      </trkpt>
      <trkpt lat="48.20251" lon="3.22794">
        <ele>146</ele>
        <time>2024-05-23T14:15:50.737Z</time>
      </trkpt>
      <trkpt lat="48.20245" lon="3.22792">
        <ele>146</ele>
        <time>2024-05-23T14:15:54.953Z</time>
      </trkpt>
      <trkpt lat="48.20241" lon="3.22792">
        <ele>146</ele>
        <time>2024-05-23T14:15:59.099Z</time>
      </trkpt>
      <trkpt lat="48.20236" lon="3.22791">
        <ele>148</ele>
        <time>2024-05-23T14:16:03.458Z</time>
      </trkpt>
      <trkpt lat="48.20231" lon="3.22791">
        <ele>148</ele>
        <time>2024-05-23T14:16:08.093Z</time>
      </trkpt>
      <trkpt lat="48.20226" lon="3.22791">
        <ele>148</ele>
        <time>2024-05-23T14:16:12.581Z</time>
      </trkpt>
      <trkpt lat="48.20223" lon="3.22795">
        <ele>148</ele>
        <time>2024-05-23T14:16:17.092Z</time>
      </trkpt>
      <trkpt lat="48.20216" lon="3.22799">
        <ele>148</ele>
        <time>2024-05-23T14:16:21.658Z</time>
      </trkpt>
      <trkpt lat="48.20212" lon="3.22793">
        <ele>148</ele>
        <time>2024-05-23T14:16:26.092Z</time>
      </trkpt>
      <trkpt lat="48.20207" lon="3.22793">
        <ele>152</ele>
        <time>2024-05-23T14:16:30.898Z</time>
      </trkpt>
      <trkpt lat="48.20202" lon="3.22791">
        <ele>151</ele>
        <time>2024-05-23T14:16:35.093Z</time>
      </trkpt>
      <trkpt lat="48.20198" lon="3.2279">
        <ele>151</ele>
        <time>2024-05-23T14:16:39.737Z</time>
      </trkpt>
      <trkpt lat="48.20193" lon="3.22788">
        <ele>151</ele>
        <time>2024-05-23T14:16:44.097Z</time>
      </trkpt>
      <trkpt lat="48.20188" lon="3.22785">
        <ele>151</ele>
        <time>2024-05-23T14:16:48.832Z</time>
      </trkpt>
      <trkpt lat="48.20184" lon="3.22785">
        <ele>151</ele>
        <time>2024-05-23T14:16:53.093Z</time>
      </trkpt>
      <trkpt lat="48.20179" lon="3.22784">
        <ele>154</ele>
        <time>2024-05-23T14:16:57.339Z</time>
      </trkpt>
      <trkpt lat="48.20174" lon="3.22784">
        <ele>154</ele>
        <time>2024-05-23T14:17:02.015Z</time>
      </trkpt>
      <trkpt lat="48.20169" lon="3.22783">
        <ele>154</ele>
        <time>2024-05-23T14:17:06.092Z</time>
      </trkpt>
      <trkpt lat="48.20164" lon="3.22783">
        <ele>154</ele>
        <time>2024-05-23T14:17:10.616Z</time>
      </trkpt>
      <trkpt lat="48.20159" lon="3.22782">
        <ele>154</ele>
        <time>2024-05-23T14:17:15.092Z</time>
      </trkpt>
      <trkpt lat="48.20154" lon="3.22782">
        <ele>154</ele>
        <time>2024-05-23T14:17:19.378Z</time>
      </trkpt>
      <trkpt lat="48.20149" lon="3.22781">
        <ele>157</ele>
        <time>2024-05-23T14:17:23.442Z</time>
      </trkpt>
      <trkpt lat="48.20144" lon="3.22781">
        <ele>157</ele>
        <time>2024-05-23T14:17:28.093Z</time>
      </trkpt>
      <trkpt lat="48.20138" lon="3.2278">
        <ele>157</ele>
        <time>2024-05-23T14:17:32.978Z</time>
      </trkpt>
      <trkpt lat="48.20132" lon="3.22779">
        <ele>157</ele>
        <time>2024-05-23T14:17:37.953Z</time>
      </trkpt>
      <trkpt lat="48.20127" lon="3.22777">
        <ele>157</ele>
        <time>2024-05-23T14:17:42.253Z</time>
      </trkpt>
      <trkpt lat="48.20121" lon="3.22776">
        <ele>158</ele>
        <time>2024-05-23T14:17:46.792Z</time>
      </trkpt>
      <trkpt lat="48.20117" lon="3.22776">
        <ele>158</ele>
        <time>2024-05-23T14:17:50.751Z</time>
      </trkpt>
      <trkpt lat="48.20111" lon="3.22776">
        <ele>158</ele>
        <time>2024-05-23T14:17:55.418Z</time>
      </trkpt>
      <trkpt lat="48.20106" lon="3.22775">
        <ele>158</ele>
        <time>2024-05-23T14:17:59.599Z</time>
      </trkpt>
      <trkpt lat="48.20101" lon="3.22775">
        <ele>158</ele>
        <time>2024-05-23T14:18:04.092Z</time>
      </trkpt>
      <trkpt lat="48.20096" lon="3.22774">
        <ele>158</ele>
        <time>2024-05-23T14:18:09.092Z</time>
      </trkpt>
      <trkpt lat="48.20091" lon="3.22774">
        <ele>158</ele>
        <time>2024-05-23T14:18:14.095Z</time>
      </trkpt>
      <trkpt lat="48.20085" lon="3.22773">
        <ele>158</ele>
        <time>2024-05-23T14:18:19.092Z</time>
      </trkpt>
      <trkpt lat="48.2008" lon="3.22772">
        <ele>158</ele>
        <time>2024-05-23T14:18:23.573Z</time>
      </trkpt>
      <trkpt lat="48.20074" lon="3.22772">
        <ele>158</ele>
        <time>2024-05-23T14:18:28.039Z</time>
      </trkpt>
      <trkpt lat="48.2007" lon="3.22772">
        <ele>158</ele>
        <time>2024-05-23T14:18:32.236Z</time>
      </trkpt>
      <trkpt lat="48.20064" lon="3.22771">
        <ele>157</ele>
        <time>2024-05-23T14:18:36.799Z</time>
      </trkpt>
      <trkpt lat="48.2006" lon="3.22771">
        <ele>157</ele>
        <time>2024-05-23T14:18:41.040Z</time>
      </trkpt>
      <trkpt lat="48.20055" lon="3.2277">
        <ele>157</ele>
        <time>2024-05-23T14:18:45.596Z</time>
      </trkpt>
      <trkpt lat="48.2005" lon="3.2277">
        <ele>157</ele>
        <time>2024-05-23T14:18:49.879Z</time>
      </trkpt>
      <trkpt lat="48.20045" lon="3.2277">
        <ele>157</ele>
        <time>2024-05-23T14:18:54.511Z</time>
      </trkpt>
      <trkpt lat="48.2004" lon="3.22769">
        <ele>158</ele>
        <time>2024-05-23T14:18:58.658Z</time>
      </trkpt>
      <trkpt lat="48.20035" lon="3.22768">
        <ele>158</ele>
        <time>2024-05-23T14:19:03.077Z</time>
      </trkpt>
      <trkpt lat="48.20029" lon="3.22768">
        <ele>158</ele>
        <time>2024-05-23T14:19:07.336Z</time>
      </trkpt>
      <trkpt lat="48.20023" lon="3.22767">
        <ele>158</ele>
        <time>2024-05-23T14:19:11.738Z</time>
      </trkpt>
      <trkpt lat="48.20018" lon="3.22765">
        <ele>158</ele>
        <time>2024-05-23T14:19:15.953Z</time>
      </trkpt>
      <trkpt lat="48.20013" lon="3.22764">
        <ele>161</ele>
        <time>2024-05-23T14:19:20.092Z</time>
      </trkpt>
      <trkpt lat="48.20007" lon="3.22764">
        <ele>160</ele>
        <time>2024-05-23T14:19:25.092Z</time>
      </trkpt>
      <trkpt lat="48.20002" lon="3.22763">
        <ele>160</ele>
        <time>2024-05-23T14:19:29.852Z</time>
      </trkpt>
      <trkpt lat="48.19998" lon="3.22763">
        <ele>160</ele>
        <time>2024-05-23T14:19:34.091Z</time>
      </trkpt>
      <trkpt lat="48.19992" lon="3.22762">
        <ele>160</ele>
        <time>2024-05-23T14:19:38.973Z</time>
      </trkpt>
      <trkpt lat="48.19987" lon="3.22762">
        <ele>160</ele>
        <time>2024-05-23T14:19:43.674Z</time>
      </trkpt>
      <trkpt lat="48.19982" lon="3.22761">
        <ele>161</ele>
        <time>2024-05-23T14:19:47.778Z</time>
      </trkpt>
      <trkpt lat="48.19976" lon="3.2276">
        <ele>161</ele>
        <time>2024-05-23T14:19:52.092Z</time>
      </trkpt>
      <trkpt lat="48.19972" lon="3.22759">
        <ele>161</ele>
        <time>2024-05-23T14:19:56.481Z</time>
      </trkpt>
      <trkpt lat="48.19965" lon="3.22757">
        <ele>161</ele>
        <time>2024-05-23T14:20:00.738Z</time>
      </trkpt>
      <trkpt lat="48.1996" lon="3.22756">
        <ele>161</ele>
        <time>2024-05-23T14:20:04.979Z</time>
      </trkpt>
      <trkpt lat="48.19954" lon="3.22755">
        <ele>163</ele>
        <time>2024-05-23T14:20:09.861Z</time>
      </trkpt>
      <trkpt lat="48.19948" lon="3.22755">
        <ele>163</ele>
        <time>2024-05-23T14:20:14.494Z</time>
      </trkpt>
      <trkpt lat="48.19943" lon="3.22754">
        <ele>163</ele>
        <time>2024-05-23T14:20:19.074Z</time>
      </trkpt>
      <trkpt lat="48.19938" lon="3.22753">
        <ele>163</ele>
        <time>2024-05-23T14:20:23.092Z</time>
      </trkpt>
      <trkpt lat="48.19932" lon="3.22753">
        <ele>163</ele>
        <time>2024-05-23T14:20:27.091Z</time>
      </trkpt>
      <trkpt lat="48.19928" lon="3.22752">
        <ele>166</ele>
        <time>2024-05-23T14:20:31.599Z</time>
      </trkpt>
      <trkpt lat="48.19922" lon="3.22751">
        <ele>166</ele>
        <time>2024-05-23T14:20:35.737Z</time>
      </trkpt>
      <trkpt lat="48.19917" lon="3.22749">
        <ele>166</ele>
        <time>2024-05-23T14:20:40.498Z</time>
      </trkpt>
      <trkpt lat="48.19911" lon="3.22748">
        <ele>166</ele>
        <time>2024-05-23T14:20:45.114Z</time>
      </trkpt>
      <trkpt lat="48.19906" lon="3.22748">
        <ele>166</ele>
        <time>2024-05-23T14:20:49.654Z</time>
      </trkpt>
      <trkpt lat="48.19901" lon="3.22748">
        <ele>167</ele>
        <time>2024-05-23T14:20:54.092Z</time>
      </trkpt>
      <trkpt lat="48.19895" lon="3.22748">
        <ele>167</ele>
        <time>2024-05-23T14:20:58.612Z</time>
      </trkpt>
      <trkpt lat="48.1989" lon="3.22746">
        <ele>167</ele>
        <time>2024-05-23T14:21:03.091Z</time>
      </trkpt>
      <trkpt lat="48.19885" lon="3.2274">
        <ele>167</ele>
        <time>2024-05-23T14:21:08.031Z</time>
      </trkpt>
      <trkpt lat="48.19881" lon="3.22734">
        <ele>165</ele>
        <time>2024-05-23T14:21:12.092Z</time>
      </trkpt>
      <trkpt lat="48.19881" lon="3.22726">
        <ele>165</ele>
        <time>2024-05-23T14:21:16.854Z</time>
      </trkpt>
      <trkpt lat="48.19882" lon="3.22717">
        <ele>165</ele>
        <time>2024-05-23T14:21:21.091Z</time>
      </trkpt>
      <trkpt lat="48.19883" lon="3.2271">
        <ele>165</ele>
        <time>2024-05-23T14:21:26.052Z</time>
      </trkpt>
      <trkpt lat="48.19882" lon="3.22704">
        <ele>164</ele>
        <time>2024-05-23T14:21:30.091Z</time>
      </trkpt>
      <trkpt lat="48.19882" lon="3.22698">
        <ele>164</ele>
        <time>2024-05-23T14:21:34.233Z</time>
      </trkpt>
      <trkpt lat="48.19883" lon="3.22691">
        <ele>164</ele>
        <time>2024-05-23T14:21:38.577Z</time>
      </trkpt>
      <trkpt lat="48.19883" lon="3.22683">
        <ele>164</ele>
        <time>2024-05-23T14:21:43.098Z</time>
      </trkpt>
      <trkpt lat="48.19883" lon="3.22676">
        <ele>163</ele>
        <time>2024-05-23T14:21:48.038Z</time>
      </trkpt>
      <trkpt lat="48.19884" lon="3.22668">
        <ele>163</ele>
        <time>2024-05-23T14:21:52.979Z</time>
      </trkpt>
      <trkpt lat="48.19884" lon="3.22661">
        <ele>163</ele>
        <time>2024-05-23T14:21:57.637Z</time>
      </trkpt>
      <trkpt lat="48.19884" lon="3.22654">
        <ele>163</ele>
        <time>2024-05-23T14:22:02.092Z</time>
      </trkpt>
      <trkpt lat="48.19884" lon="3.22646">
        <ele>164</ele>
        <time>2024-05-23T14:22:06.195Z</time>
      </trkpt>
      <trkpt lat="48.19885" lon="3.22638">
        <ele>164</ele>
        <time>2024-05-23T14:22:10.956Z</time>
      </trkpt>
      <trkpt lat="48.19884" lon="3.2263">
        <ele>164</ele>
        <time>2024-05-23T14:22:15.077Z</time>
      </trkpt>
      <trkpt lat="48.19885" lon="3.22622">
        <ele>164</ele>
        <time>2024-05-23T14:22:20.059Z</time>
      </trkpt>
      <trkpt lat="48.19885" lon="3.22617">
        <ele>164</ele>
        <time>2024-05-23T14:22:24.092Z</time>
      </trkpt>
      <trkpt lat="48.19884" lon="3.22616">
        <ele>164</ele>
        <time>2024-05-23T14:22:28.934Z</time>
      </trkpt>
      <trkpt lat="48.19885" lon="3.22612">
        <ele>164</ele>
        <time>2024-05-23T14:22:33.091Z</time>
      </trkpt>
      <trkpt lat="48.19888" lon="3.22606">
        <ele>164</ele>
        <time>2024-05-23T14:22:38.054Z</time>
      </trkpt>
      <trkpt lat="48.19891" lon="3.22601">
        <ele>164</ele>
        <time>2024-05-23T14:22:42.091Z</time>
      </trkpt>
      <trkpt lat="48.1989" lon="3.22582">
        <ele>164</ele>
        <time>2024-05-23T14:23:00.091Z</time>
      </trkpt>
      <trkpt lat="48.19894" lon="3.22577">
        <ele>164</ele>
        <time>2024-05-23T14:23:04.316Z</time>
      </trkpt>
      <trkpt lat="48.19896" lon="3.22571">
        <ele>164</ele>
        <time>2024-05-23T14:23:08.599Z</time>
      </trkpt>
      <trkpt lat="48.19899" lon="3.22565">
        <ele>162</ele>
        <time>2024-05-23T14:23:13.092Z</time>
      </trkpt>
      <trkpt lat="48.19901" lon="3.22559">
        <ele>162</ele>
        <time>2024-05-23T14:23:17.092Z</time>
      </trkpt>
      <trkpt lat="48.19904" lon="3.22552">
        <ele>161</ele>
        <time>2024-05-23T14:23:21.636Z</time>
      </trkpt>
      <trkpt lat="48.19907" lon="3.22547">
        <ele>161</ele>
        <time>2024-05-23T14:23:26.092Z</time>
      </trkpt>
      <trkpt lat="48.19911" lon="3.22547">
        <ele>161</ele>
        <time>2024-05-23T14:23:30.637Z</time>
      </trkpt>
      <trkpt lat="48.19914" lon="3.22539">
        <ele>160</ele>
        <time>2024-05-23T14:23:34.733Z</time>
      </trkpt>
      <trkpt lat="48.19917" lon="3.22533">
        <ele>160</ele>
        <time>2024-05-23T14:23:39.297Z</time>
      </trkpt>
      <trkpt lat="48.1992" lon="3.22525">
        <ele>160</ele>
        <time>2024-05-23T14:23:43.879Z</time>
      </trkpt>
      <trkpt lat="48.19923" lon="3.2252">
        <ele>160</ele>
        <time>2024-05-23T14:23:49.092Z</time>
      </trkpt>
      <trkpt lat="48.19926" lon="3.22514">
        <ele>160</ele>
        <time>2024-05-23T14:23:53.614Z</time>
      </trkpt>
      <trkpt lat="48.19932" lon="3.22508">
        <ele>160</ele>
        <time>2024-05-23T14:24:21.092Z</time>
      </trkpt>
      <trkpt lat="48.19932" lon="3.22508">
        <ele>160</ele>
        <time>2024-05-23T14:24:26.091Z</time>
      </trkpt>
      <trkpt lat="48.19933" lon="3.22504">
        <ele>160</ele>
        <time>2024-05-23T14:24:31.091Z</time>
      </trkpt>
      <trkpt lat="48.19931" lon="3.22497">
        <ele>160</ele>
        <time>2024-05-23T14:24:35.558Z</time>
      </trkpt>
      <trkpt lat="48.19933" lon="3.22489">
        <ele>160</ele>
        <time>2024-05-23T14:24:39.699Z</time>
      </trkpt>
      <trkpt lat="48.19936" lon="3.22482">
        <ele>160</ele>
        <time>2024-05-23T14:24:43.954Z</time>
      </trkpt>
      <trkpt lat="48.19938" lon="3.22478">
        <ele>160</ele>
        <time>2024-05-23T14:24:48.493Z</time>
      </trkpt>
      <trkpt lat="48.19943" lon="3.22474">
        <ele>160</ele>
        <time>2024-05-23T14:24:52.572Z</time>
      </trkpt>
      <trkpt lat="48.19947" lon="3.22468">
        <ele>160</ele>
        <time>2024-05-23T14:24:56.693Z</time>
      </trkpt>
      <trkpt lat="48.1995" lon="3.22462">
        <ele>160</ele>
        <time>2024-05-23T14:25:00.796Z</time>
      </trkpt>
      <trkpt lat="48.19953" lon="3.22456">
        <ele>159</ele>
        <time>2024-05-23T14:25:05.335Z</time>
      </trkpt>
      <trkpt lat="48.19955" lon="3.22451">
        <ele>159</ele>
        <time>2024-05-23T14:25:09.772Z</time>
      </trkpt>
      <trkpt lat="48.19958" lon="3.22444">
        <ele>160</ele>
        <time>2024-05-23T14:25:13.918Z</time>
      </trkpt>
      <trkpt lat="48.19962" lon="3.22437">
        <ele>160</ele>
        <time>2024-05-23T14:25:18.399Z</time>
      </trkpt>
      <trkpt lat="48.19965" lon="3.22432">
        <ele>160</ele>
        <time>2024-05-23T14:25:22.416Z</time>
      </trkpt>
      <trkpt lat="48.19968" lon="3.22425">
        <ele>160</ele>
        <time>2024-05-23T14:25:26.596Z</time>
      </trkpt>
      <trkpt lat="48.19972" lon="3.22417">
        <ele>160</ele>
        <time>2024-05-23T14:25:31.092Z</time>
      </trkpt>
      <trkpt lat="48.19975" lon="3.2241">
        <ele>160</ele>
        <time>2024-05-23T14:25:35.315Z</time>
      </trkpt>
      <trkpt lat="48.19978" lon="3.22404">
        <ele>160</ele>
        <time>2024-05-23T14:25:39.513Z</time>
      </trkpt>
      <trkpt lat="48.19981" lon="3.22397">
        <ele>160</ele>
        <time>2024-05-23T14:25:43.575Z</time>
      </trkpt>
      <trkpt lat="48.19984" lon="3.2239">
        <ele>160</ele>
        <time>2024-05-23T14:25:47.636Z</time>
      </trkpt>
      <trkpt lat="48.19987" lon="3.22384">
        <ele>161</ele>
        <time>2024-05-23T14:25:51.654Z</time>
      </trkpt>
      <trkpt lat="48.1999" lon="3.22377">
        <ele>161</ele>
        <time>2024-05-23T14:25:55.733Z</time>
      </trkpt>
      <trkpt lat="48.19992" lon="3.2237">
        <ele>161</ele>
        <time>2024-05-23T14:26:00.033Z</time>
      </trkpt>
      <trkpt lat="48.19995" lon="3.22364">
        <ele>161</ele>
        <time>2024-05-23T14:26:04.512Z</time>
      </trkpt>
      <trkpt lat="48.19998" lon="3.22358">
        <ele>161</ele>
        <time>2024-05-23T14:26:08.573Z</time>
      </trkpt>
      <trkpt lat="48.20001" lon="3.22351">
        <ele>161</ele>
        <time>2024-05-23T14:26:12.754Z</time>
      </trkpt>
      <trkpt lat="48.20002" lon="3.22344">
        <ele>161</ele>
        <time>2024-05-23T14:26:17.318Z</time>
      </trkpt>
      <trkpt lat="48.20005" lon="3.22336">
        <ele>161</ele>
        <time>2024-05-23T14:26:22.095Z</time>
      </trkpt>
      <trkpt lat="48.20009" lon="3.22329">
        <ele>161</ele>
        <time>2024-05-23T14:26:26.933Z</time>
      </trkpt>
      <trkpt lat="48.20012" lon="3.22321">
        <ele>161</ele>
        <time>2024-05-23T14:26:31.091Z</time>
      </trkpt>
      <trkpt lat="48.20015" lon="3.22313">
        <ele>161</ele>
        <time>2024-05-23T14:26:35.697Z</time>
      </trkpt>
      <trkpt lat="48.20018" lon="3.22305">
        <ele>161</ele>
        <time>2024-05-23T14:26:40.091Z</time>
      </trkpt>
      <trkpt lat="48.2002" lon="3.223">
        <ele>161</ele>
        <time>2024-05-23T14:26:44.381Z</time>
      </trkpt>
      <trkpt lat="48.20022" lon="3.22293">
        <ele>161</ele>
        <time>2024-05-23T14:26:49.091Z</time>
      </trkpt>
      <trkpt lat="48.20024" lon="3.22286">
        <ele>161</ele>
        <time>2024-05-23T14:26:54.092Z</time>
      </trkpt>
      <trkpt lat="48.20026" lon="3.22279">
        <ele>161</ele>
        <time>2024-05-23T14:26:58.434Z</time>
      </trkpt>
      <trkpt lat="48.20028" lon="3.22273">
        <ele>161</ele>
        <time>2024-05-23T14:27:02.578Z</time>
      </trkpt>
      <trkpt lat="48.20031" lon="3.22265">
        <ele>161</ele>
        <time>2024-05-23T14:27:06.879Z</time>
      </trkpt>
      <trkpt lat="48.20034" lon="3.22258">
        <ele>163</ele>
        <time>2024-05-23T14:27:11.092Z</time>
      </trkpt>
      <trkpt lat="48.20036" lon="3.22251">
        <ele>163</ele>
        <time>2024-05-23T14:27:15.880Z</time>
      </trkpt>
      <trkpt lat="48.20038" lon="3.22243">
        <ele>163</ele>
        <time>2024-05-23T14:27:20.441Z</time>
      </trkpt>
      <trkpt lat="48.20041" lon="3.22235">
        <ele>164</ele>
        <time>2024-05-23T14:27:25.092Z</time>
      </trkpt>
      <trkpt lat="48.20044" lon="3.22227">
        <ele>165</ele>
        <time>2024-05-23T14:27:29.837Z</time>
      </trkpt>
      <trkpt lat="48.20046" lon="3.22219">
        <ele>165</ele>
        <time>2024-05-23T14:27:34.598Z</time>
      </trkpt>
      <trkpt lat="48.20048" lon="3.22212">
        <ele>165</ele>
        <time>2024-05-23T14:27:39.092Z</time>
      </trkpt>
      <trkpt lat="48.2005" lon="3.22204">
        <ele>166</ele>
        <time>2024-05-23T14:27:44.091Z</time>
      </trkpt>
      <trkpt lat="48.20052" lon="3.22198">
        <ele>166</ele>
        <time>2024-05-23T14:27:48.274Z</time>
      </trkpt>
      <trkpt lat="48.20054" lon="3.2219">
        <ele>166</ele>
        <time>2024-05-23T14:27:53.091Z</time>
      </trkpt>
      <trkpt lat="48.20056" lon="3.22183">
        <ele>166</ele>
        <time>2024-05-23T14:27:57.778Z</time>
      </trkpt>
      <trkpt lat="48.20058" lon="3.22175">
        <ele>167</ele>
        <time>2024-05-23T14:28:02.033Z</time>
      </trkpt>
      <trkpt lat="48.20059" lon="3.22168">
        <ele>167</ele>
        <time>2024-05-23T14:28:06.092Z</time>
      </trkpt>
      <trkpt lat="48.2006" lon="3.2216">
        <ele>167</ele>
        <time>2024-05-23T14:28:10.618Z</time>
      </trkpt>
      <trkpt lat="48.20062" lon="3.22153">
        <ele>168</ele>
        <time>2024-05-23T14:28:14.953Z</time>
      </trkpt>
      <trkpt lat="48.20064" lon="3.22145">
        <ele>168</ele>
        <time>2024-05-23T14:28:19.055Z</time>
      </trkpt>
      <trkpt lat="48.20066" lon="3.22139">
        <ele>168</ele>
        <time>2024-05-23T14:28:23.092Z</time>
      </trkpt>
      <trkpt lat="48.20068" lon="3.2213">
        <ele>168</ele>
        <time>2024-05-23T14:28:28.092Z</time>
      </trkpt>
      <trkpt lat="48.20071" lon="3.22122">
        <ele>170</ele>
        <time>2024-05-23T14:28:32.971Z</time>
      </trkpt>
      <trkpt lat="48.20073" lon="3.22114">
        <ele>170</ele>
        <time>2024-05-23T14:28:37.477Z</time>
      </trkpt>
      <trkpt lat="48.20076" lon="3.22106">
        <ele>170</ele>
        <time>2024-05-23T14:28:42.091Z</time>
      </trkpt>
      <trkpt lat="48.20078" lon="3.22097">
        <ele>171</ele>
        <time>2024-05-23T14:28:46.835Z</time>
      </trkpt>
      <trkpt lat="48.2008" lon="3.2209">
        <ele>171</ele>
        <time>2024-05-23T14:28:51.476Z</time>
      </trkpt>
      <trkpt lat="48.2008" lon="3.22082">
        <ele>171</ele>
        <time>2024-05-23T14:28:56.091Z</time>
      </trkpt>
      <trkpt lat="48.2008" lon="3.22077">
        <ele>171</ele>
        <time>2024-05-23T14:29:01.092Z</time>
      </trkpt>
      <trkpt lat="48.20082" lon="3.22068">
        <ele>171</ele>
        <time>2024-05-23T14:29:05.852Z</time>
      </trkpt>
      <trkpt lat="48.20083" lon="3.22059">
        <ele>171</ele>
        <time>2024-05-23T14:29:10.399Z</time>
      </trkpt>
      <trkpt lat="48.20084" lon="3.22051">
        <ele>171</ele>
        <time>2024-05-23T14:29:14.972Z</time>
      </trkpt>
      <trkpt lat="48.20087" lon="3.22043">
        <ele>171</ele>
        <time>2024-05-23T14:29:19.418Z</time>
      </trkpt>
      <trkpt lat="48.2009" lon="3.22037">
        <ele>170</ele>
        <time>2024-05-23T14:29:23.632Z</time>
      </trkpt>
      <trkpt lat="48.20092" lon="3.22031">
        <ele>170</ele>
        <time>2024-05-23T14:29:27.958Z</time>
      </trkpt>
      <trkpt lat="48.20093" lon="3.22023">
        <ele>170</ele>
        <time>2024-05-23T14:29:32.090Z</time>
      </trkpt>
      <trkpt lat="48.20095" lon="3.22016">
        <ele>170</ele>
        <time>2024-05-23T14:29:36.686Z</time>
      </trkpt>
      <trkpt lat="48.20096" lon="3.22008">
        <ele>169</ele>
        <time>2024-05-23T14:29:40.832Z</time>
      </trkpt>
      <trkpt lat="48.20097" lon="3.22001">
        <ele>169</ele>
        <time>2024-05-23T14:29:45.091Z</time>
      </trkpt>
      <trkpt lat="48.201" lon="3.21993">
        <ele>169</ele>
        <time>2024-05-23T14:29:50.096Z</time>
      </trkpt>
      <trkpt lat="48.201" lon="3.21986">
        <ele>169</ele>
        <time>2024-05-23T14:29:54.418Z</time>
      </trkpt>
      <trkpt lat="48.20102" lon="3.2198">
        <ele>168</ele>
        <time>2024-05-23T14:29:58.572Z</time>
      </trkpt>
      <trkpt lat="48.20101" lon="3.21972">
        <ele>168</ele>
        <time>2024-05-23T14:30:02.974Z</time>
      </trkpt>
      <trkpt lat="48.20098" lon="3.21966">
        <ele>168</ele>
        <time>2024-05-23T14:30:07.053Z</time>
      </trkpt>
      <trkpt lat="48.20093" lon="3.21963">
        <ele>169</ele>
        <time>2024-05-23T14:30:11.532Z</time>
      </trkpt>
      <trkpt lat="48.20082" lon="3.21963">
        <ele>169</ele>
        <time>2024-05-23T14:30:16.090Z</time>
      </trkpt>
      <trkpt lat="48.20077" lon="3.21963">
        <ele>169</ele>
        <time>2024-05-23T14:30:20.858Z</time>
      </trkpt>
      <trkpt lat="48.20071" lon="3.21961">
        <ele>169</ele>
        <time>2024-05-23T14:30:25.798Z</time>
      </trkpt>
      <trkpt lat="48.20065" lon="3.2196">
        <ele>167</ele>
        <time>2024-05-23T14:30:30.091Z</time>
      </trkpt>
      <trkpt lat="48.2006" lon="3.21957">
        <ele>168</ele>
        <time>2024-05-23T14:30:34.773Z</time>
      </trkpt>
      <trkpt lat="48.20055" lon="3.21957">
        <ele>168</ele>
        <time>2024-05-23T14:30:39.039Z</time>
      </trkpt>
      <trkpt lat="48.20051" lon="3.21955">
        <ele>168</ele>
        <time>2024-05-23T14:30:43.091Z</time>
      </trkpt>
      <trkpt lat="48.20046" lon="3.21954">
        <ele>168</ele>
        <time>2024-05-23T14:30:47.554Z</time>
      </trkpt>
      <trkpt lat="48.20041" lon="3.21953">
        <ele>167</ele>
        <time>2024-05-23T14:30:51.913Z</time>
      </trkpt>
      <trkpt lat="48.20037" lon="3.21952">
        <ele>167</ele>
        <time>2024-05-23T14:30:56.090Z</time>
      </trkpt>
      <trkpt lat="48.20038" lon="3.21951">
        <ele>167</ele>
        <time>2024-05-23T14:31:01.090Z</time>
      </trkpt>
      <trkpt lat="48.20034" lon="3.21951">
        <ele>167</ele>
        <time>2024-05-23T14:31:05.546Z</time>
      </trkpt>
      <trkpt lat="48.20028" lon="3.21951">
        <ele>167</ele>
        <time>2024-05-23T14:31:10.034Z</time>
      </trkpt>
      <trkpt lat="48.20025" lon="3.21951">
        <ele>167</ele>
        <time>2024-05-23T14:31:14.090Z</time>
      </trkpt>
      <trkpt lat="48.2002" lon="3.21948">
        <ele>167</ele>
        <time>2024-05-23T14:31:19.091Z</time>
      </trkpt>
      <trkpt lat="48.20015" lon="3.21947">
        <ele>167</ele>
        <time>2024-05-23T14:31:23.787Z</time>
      </trkpt>
      <trkpt lat="48.2001" lon="3.21945">
        <ele>166</ele>
        <time>2024-05-23T14:31:28.090Z</time>
      </trkpt>
      <trkpt lat="48.20004" lon="3.21942">
        <ele>166</ele>
        <time>2024-05-23T14:31:32.910Z</time>
      </trkpt>
      <trkpt lat="48.19999" lon="3.21941">
        <ele>166</ele>
        <time>2024-05-23T14:31:37.429Z</time>
      </trkpt>
      <trkpt lat="48.19994" lon="3.2194">
        <ele>166</ele>
        <time>2024-05-23T14:31:41.934Z</time>
      </trkpt>
      <trkpt lat="48.19989" lon="3.21939">
        <ele>166</ele>
        <time>2024-05-23T14:31:46.090Z</time>
      </trkpt>
      <trkpt lat="48.19983" lon="3.21938">
        <ele>163</ele>
        <time>2024-05-23T14:31:51.091Z</time>
      </trkpt>
      <trkpt lat="48.19977" lon="3.21937">
        <ele>163</ele>
        <time>2024-05-23T14:31:55.892Z</time>
      </trkpt>
      <trkpt lat="48.19972" lon="3.21935">
        <ele>163</ele>
        <time>2024-05-23T14:31:59.919Z</time>
      </trkpt>
      <trkpt lat="48.19967" lon="3.21933">
        <ele>163</ele>
        <time>2024-05-23T14:32:04.091Z</time>
      </trkpt>
      <trkpt lat="48.19961" lon="3.2193">
        <ele>164</ele>
        <time>2024-05-23T14:32:08.792Z</time>
      </trkpt>
      <trkpt lat="48.19956" lon="3.21928">
        <ele>161</ele>
        <time>2024-05-23T14:32:13.090Z</time>
      </trkpt>
      <trkpt lat="48.19951" lon="3.21928">
        <ele>161</ele>
        <time>2024-05-23T14:32:18.019Z</time>
      </trkpt>
      <trkpt lat="48.19946" lon="3.21928">
        <ele>161</ele>
        <time>2024-05-23T14:32:22.851Z</time>
      </trkpt>
      <trkpt lat="48.19941" lon="3.21927">
        <ele>161</ele>
        <time>2024-05-23T14:32:27.493Z</time>
      </trkpt>
      <trkpt lat="48.19936" lon="3.21925">
        <ele>161</ele>
        <time>2024-05-23T14:32:32.090Z</time>
      </trkpt>
      <trkpt lat="48.19931" lon="3.21923">
        <ele>161</ele>
        <time>2024-05-23T14:32:36.835Z</time>
      </trkpt>
      <trkpt lat="48.19926" lon="3.21921">
        <ele>158</ele>
        <time>2024-05-23T14:32:41.527Z</time>
      </trkpt>
      <trkpt lat="48.19921" lon="3.2192">
        <ele>158</ele>
        <time>2024-05-23T14:32:46.115Z</time>
      </trkpt>
      <trkpt lat="48.19917" lon="3.21921">
        <ele>158</ele>
        <time>2024-05-23T14:32:50.373Z</time>
      </trkpt>
      <trkpt lat="48.19914" lon="3.21918">
        <ele>158</ele>
        <time>2024-05-23T14:32:54.692Z</time>
      </trkpt>
      <trkpt lat="48.19908" lon="3.21915">
        <ele>158</ele>
        <time>2024-05-23T14:32:59.090Z</time>
      </trkpt>
      <trkpt lat="48.19903" lon="3.21913">
        <ele>156</ele>
        <time>2024-05-23T14:33:03.309Z</time>
      </trkpt>
      <trkpt lat="48.19897" lon="3.21913">
        <ele>156</ele>
        <time>2024-05-23T14:33:07.817Z</time>
      </trkpt>
      <trkpt lat="48.19892" lon="3.21912">
        <ele>156</ele>
        <time>2024-05-23T14:33:11.848Z</time>
      </trkpt>
      <trkpt lat="48.19886" lon="3.2191">
        <ele>156</ele>
        <time>2024-05-23T14:33:16.908Z</time>
      </trkpt>
      <trkpt lat="48.1988" lon="3.21908">
        <ele>156</ele>
        <time>2024-05-23T14:33:21.267Z</time>
      </trkpt>
      <trkpt lat="48.19875" lon="3.21907">
        <ele>155</ele>
        <time>2024-05-23T14:33:25.810Z</time>
      </trkpt>
      <trkpt lat="48.19869" lon="3.21906">
        <ele>155</ele>
        <time>2024-05-23T14:33:30.827Z</time>
      </trkpt>
      <trkpt lat="48.19865" lon="3.21905">
        <ele>155</ele>
        <time>2024-05-23T14:33:34.914Z</time>
      </trkpt>
      <trkpt lat="48.19864" lon="3.21905">
        <ele>155</ele>
        <time>2024-05-23T14:33:39.090Z</time>
      </trkpt>
      <trkpt lat="48.19864" lon="3.21904">
        <ele>155</ele>
        <time>2024-05-23T14:33:43.635Z</time>
      </trkpt>
      <trkpt lat="48.19861" lon="3.21895">
        <ele>156</ele>
        <time>2024-05-23T14:33:48.091Z</time>
      </trkpt>
      <trkpt lat="48.19861" lon="3.21884">
        <ele>156</ele>
        <time>2024-05-23T14:33:52.634Z</time>
      </trkpt>
      <trkpt lat="48.19862" lon="3.21874">
        <ele>158</ele>
        <time>2024-05-23T14:33:56.994Z</time>
      </trkpt>
      <trkpt lat="48.19863" lon="3.21868">
        <ele>158</ele>
        <time>2024-05-23T14:34:01.327Z</time>
      </trkpt>
      <trkpt lat="48.19863" lon="3.21859">
        <ele>158</ele>
        <time>2024-05-23T14:34:05.849Z</time>
      </trkpt>
      <trkpt lat="48.19864" lon="3.21852">
        <ele>158</ele>
        <time>2024-05-23T14:34:10.327Z</time>
      </trkpt>
      <trkpt lat="48.19864" lon="3.21842">
        <ele>159</ele>
        <time>2024-05-23T14:34:15.090Z</time>
      </trkpt>
      <trkpt lat="48.19865" lon="3.21833">
        <ele>159</ele>
        <time>2024-05-23T14:34:20.053Z</time>
      </trkpt>
      <trkpt lat="48.19865" lon="3.21825">
        <ele>159</ele>
        <time>2024-05-23T14:34:24.194Z</time>
      </trkpt>
      <trkpt lat="48.19864" lon="3.21818">
        <ele>159</ele>
        <time>2024-05-23T14:34:28.372Z</time>
      </trkpt>
      <trkpt lat="48.19863" lon="3.21811">
        <ele>159</ele>
        <time>2024-05-23T14:34:32.672Z</time>
      </trkpt>
      <trkpt lat="48.19863" lon="3.21803">
        <ele>159</ele>
        <time>2024-05-23T14:34:36.956Z</time>
      </trkpt>
      <trkpt lat="48.19862" lon="3.21796">
        <ele>159</ele>
        <time>2024-05-23T14:34:41.090Z</time>
      </trkpt>
      <trkpt lat="48.19862" lon="3.21788">
        <ele>160</ele>
        <time>2024-05-23T14:34:45.274Z</time>
      </trkpt>
      <trkpt lat="48.19862" lon="3.21779">
        <ele>160</ele>
        <time>2024-05-23T14:34:49.931Z</time>
      </trkpt>
      <trkpt lat="48.19861" lon="3.2177">
        <ele>160</ele>
        <time>2024-05-23T14:34:54.090Z</time>
      </trkpt>
      <trkpt lat="48.19859" lon="3.21764">
        <ele>165</ele>
        <time>2024-05-23T14:34:58.574Z</time>
      </trkpt>
      <trkpt lat="48.19858" lon="3.21756">
        <ele>165</ele>
        <time>2024-05-23T14:35:02.711Z</time>
      </trkpt>
      <trkpt lat="48.19855" lon="3.21749">
        <ele>165</ele>
        <time>2024-05-23T14:35:06.994Z</time>
      </trkpt>
      <trkpt lat="48.19853" lon="3.21741">
        <ele>165</ele>
        <time>2024-05-23T14:35:11.652Z</time>
      </trkpt>
      <trkpt lat="48.19851" lon="3.21733">
        <ele>168</ele>
        <time>2024-05-23T14:35:16.091Z</time>
      </trkpt>
      <trkpt lat="48.19849" lon="3.21724">
        <ele>168</ele>
        <time>2024-05-23T14:35:20.848Z</time>
      </trkpt>
      <trkpt lat="48.1985" lon="3.21715">
        <ele>168</ele>
        <time>2024-05-23T14:35:25.788Z</time>
      </trkpt>
      <trkpt lat="48.19846" lon="3.217">
        <ele>167</ele>
        <time>2024-05-23T14:35:50.091Z</time>
      </trkpt>
      <trkpt lat="48.19846" lon="3.217">
        <ele>167</ele>
        <time>2024-05-23T14:35:55.091Z</time>
      </trkpt>
      <trkpt lat="48.19845" lon="3.217">
        <ele>167</ele>
        <time>2024-05-23T14:36:00.090Z</time>
      </trkpt>
      <trkpt lat="48.19847" lon="3.21697">
        <ele>167</ele>
        <time>2024-05-23T14:36:05.091Z</time>
      </trkpt>
      <trkpt lat="48.19848" lon="3.21691">
        <ele>170</ele>
        <time>2024-05-23T14:36:09.091Z</time>
      </trkpt>
      <trkpt lat="48.19848" lon="3.21678">
        <ele>171</ele>
        <time>2024-05-23T14:36:13.691Z</time>
      </trkpt>
      <trkpt lat="48.19848" lon="3.21672">
        <ele>171</ele>
        <time>2024-05-23T14:36:17.915Z</time>
      </trkpt>
      <trkpt lat="48.19845" lon="3.21664">
        <ele>168</ele>
        <time>2024-05-23T14:36:22.090Z</time>
      </trkpt>
      <trkpt lat="48.19844" lon="3.21655">
        <ele>168</ele>
        <time>2024-05-23T14:36:27.090Z</time>
      </trkpt>
      <trkpt lat="48.19843" lon="3.21646">
        <ele>167</ele>
        <time>2024-05-23T14:36:32.090Z</time>
      </trkpt>
      <trkpt lat="48.19842" lon="3.21638">
        <ele>167</ele>
        <time>2024-05-23T14:36:36.914Z</time>
      </trkpt>
      <trkpt lat="48.19842" lon="3.21631">
        <ele>167</ele>
        <time>2024-05-23T14:36:41.290Z</time>
      </trkpt>
      <trkpt lat="48.19843" lon="3.21625">
        <ele>167</ele>
        <time>2024-05-23T14:36:46.091Z</time>
      </trkpt>
      <trkpt lat="48.19845" lon="3.21622">
        <ele>166</ele>
        <time>2024-05-23T14:38:08.090Z</time>
      </trkpt>
      <trkpt lat="48.19846" lon="3.21618">
        <ele>166</ele>
        <time>2024-05-23T14:38:13.090Z</time>
      </trkpt>
      <trkpt lat="48.19846" lon="3.21616">
        <ele>166</ele>
        <time>2024-05-23T14:38:17.714Z</time>
      </trkpt>
      <trkpt lat="48.19846" lon="3.2161">
        <ele>166</ele>
        <time>2024-05-23T14:38:21.893Z</time>
      </trkpt>
      <trkpt lat="48.19844" lon="3.21602">
        <ele>166</ele>
        <time>2024-05-23T14:38:25.911Z</time>
      </trkpt>
      <trkpt lat="48.19845" lon="3.21594">
        <ele>167</ele>
        <time>2024-05-23T14:38:30.090Z</time>
      </trkpt>
      <trkpt lat="48.19846" lon="3.21585">
        <ele>167</ele>
        <time>2024-05-23T14:38:34.690Z</time>
      </trkpt>
      <trkpt lat="48.19846" lon="3.21577">
        <ele>167</ele>
        <time>2024-05-23T14:38:38.929Z</time>
      </trkpt>
      <trkpt lat="48.19846" lon="3.2157">
        <ele>167</ele>
        <time>2024-05-23T14:38:43.051Z</time>
      </trkpt>
      <trkpt lat="48.19847" lon="3.21563">
        <ele>169</ele>
        <time>2024-05-23T14:38:47.090Z</time>
      </trkpt>
      <trkpt lat="48.19847" lon="3.21555">
        <ele>169</ele>
        <time>2024-05-23T14:38:51.471Z</time>
      </trkpt>
      <trkpt lat="48.19848" lon="3.21546">
        <ele>171</ele>
        <time>2024-05-23T14:38:56.052Z</time>
      </trkpt>
      <trkpt lat="48.19848" lon="3.21538">
        <ele>172</ele>
        <time>2024-05-23T14:39:00.668Z</time>
      </trkpt>
      <trkpt lat="48.19848" lon="3.21531">
        <ele>172</ele>
        <time>2024-05-23T14:39:04.746Z</time>
      </trkpt>
      <trkpt lat="48.19848" lon="3.21523">
        <ele>172</ele>
        <time>2024-05-23T14:39:09.090Z</time>
      </trkpt>
      <trkpt lat="48.19849" lon="3.21515">
        <ele>172</ele>
        <time>2024-05-23T14:39:13.833Z</time>
      </trkpt>
      <trkpt lat="48.19849" lon="3.21505">
        <ele>172</ele>
        <time>2024-05-23T14:39:19.090Z</time>
      </trkpt>
      <trkpt lat="48.19849" lon="3.21497">
        <ele>172</ele>
        <time>2024-05-23T14:39:23.593Z</time>
      </trkpt>
      <trkpt lat="48.19849" lon="3.21489">
        <ele>172</ele>
        <time>2024-05-23T14:39:28.090Z</time>
      </trkpt>
      <trkpt lat="48.19849" lon="3.21481">
        <ele>172</ele>
        <time>2024-05-23T14:39:32.474Z</time>
      </trkpt>
      <trkpt lat="48.19851" lon="3.21473">
        <ele>172</ele>
        <time>2024-05-23T14:39:37.090Z</time>
      </trkpt>
      <trkpt lat="48.19852" lon="3.21464">
        <ele>172</ele>
        <time>2024-05-23T14:39:41.790Z</time>
      </trkpt>
      <trkpt lat="48.19852" lon="3.21456">
        <ele>173</ele>
        <time>2024-05-23T14:39:46.091Z</time>
      </trkpt>
      <trkpt lat="48.19853" lon="3.21447">
        <ele>173</ele>
        <time>2024-05-23T14:39:50.850Z</time>
      </trkpt>
      <trkpt lat="48.19853" lon="3.21439">
        <ele>173</ele>
        <time>2024-05-23T14:39:55.492Z</time>
      </trkpt>
      <trkpt lat="48.19854" lon="3.21431">
        <ele>173</ele>
        <time>2024-05-23T14:40:00.091Z</time>
      </trkpt>
      <trkpt lat="48.19855" lon="3.21424">
        <ele>174</ele>
        <time>2024-05-23T14:40:04.090Z</time>
      </trkpt>
      <trkpt lat="48.19857" lon="3.21416">
        <ele>174</ele>
        <time>2024-05-23T14:40:08.613Z</time>
      </trkpt>
      <trkpt lat="48.19858" lon="3.21409">
        <ele>174</ele>
        <time>2024-05-23T14:40:13.027Z</time>
      </trkpt>
      <trkpt lat="48.19858" lon="3.21401">
        <ele>175</ele>
        <time>2024-05-23T14:40:17.091Z</time>
      </trkpt>
      <trkpt lat="48.19859" lon="3.21393">
        <ele>175</ele>
        <time>2024-05-23T14:40:21.854Z</time>
      </trkpt>
      <trkpt lat="48.1986" lon="3.21386">
        <ele>175</ele>
        <time>2024-05-23T14:40:26.091Z</time>
      </trkpt>
      <trkpt lat="48.19861" lon="3.21378">
        <ele>175</ele>
        <time>2024-05-23T14:40:30.293Z</time>
      </trkpt>
      <trkpt lat="48.19862" lon="3.21371">
        <ele>175</ele>
        <time>2024-05-23T14:40:34.608Z</time>
      </trkpt>
      <trkpt lat="48.19863" lon="3.21364">
        <ele>175</ele>
        <time>2024-05-23T14:40:38.729Z</time>
      </trkpt>
      <trkpt lat="48.19864" lon="3.21357">
        <ele>175</ele>
        <time>2024-05-23T14:40:43.090Z</time>
      </trkpt>
      <trkpt lat="48.19865" lon="3.21348">
        <ele>175</ele>
        <time>2024-05-23T14:40:48.054Z</time>
      </trkpt>
      <trkpt lat="48.19866" lon="3.2134">
        <ele>176</ele>
        <time>2024-05-23T14:40:52.806Z</time>
      </trkpt>
      <trkpt lat="48.19868" lon="3.21333">
        <ele>176</ele>
        <time>2024-05-23T14:40:57.091Z</time>
      </trkpt>
      <trkpt lat="48.19869" lon="3.21326">
        <ele>176</ele>
        <time>2024-05-23T14:41:01.672Z</time>
      </trkpt>
      <trkpt lat="48.19872" lon="3.21319">
        <ele>178</ele>
        <time>2024-05-23T14:41:06.091Z</time>
      </trkpt>
      <trkpt lat="48.19874" lon="3.21314">
        <ele>178</ele>
        <time>2024-05-23T14:41:10.408Z</time>
      </trkpt>
      <trkpt lat="48.19875" lon="3.21307">
        <ele>179</ele>
        <time>2024-05-23T14:41:14.674Z</time>
      </trkpt>
      <trkpt lat="48.19877" lon="3.213">
        <ele>179</ele>
        <time>2024-05-23T14:41:19.091Z</time>
      </trkpt>
      <trkpt lat="48.19878" lon="3.21292">
        <ele>180</ele>
        <time>2024-05-23T14:41:24.090Z</time>
      </trkpt>
      <trkpt lat="48.1988" lon="3.21284">
        <ele>180</ele>
        <time>2024-05-23T14:41:28.989Z</time>
      </trkpt>
      <trkpt lat="48.19879" lon="3.21276">
        <ele>180</ele>
        <time>2024-05-23T14:41:33.090Z</time>
      </trkpt>
      <trkpt lat="48.19881" lon="3.21268">
        <ele>180</ele>
        <time>2024-05-23T14:41:37.871Z</time>
      </trkpt>
      <trkpt lat="48.19883" lon="3.21261">
        <ele>180</ele>
        <time>2024-05-23T14:41:42.090Z</time>
      </trkpt>
      <trkpt lat="48.19885" lon="3.21254">
        <ele>180</ele>
        <time>2024-05-23T14:41:46.090Z</time>
      </trkpt>
      <trkpt lat="48.19886" lon="3.21247">
        <ele>180</ele>
        <time>2024-05-23T14:41:50.541Z</time>
      </trkpt>
      <trkpt lat="48.19888" lon="3.21238">
        <ele>180</ele>
        <time>2024-05-23T14:41:54.747Z</time>
      </trkpt>
      <trkpt lat="48.19891" lon="3.21231">
        <ele>180</ele>
        <time>2024-05-23T14:41:59.090Z</time>
      </trkpt>
      <trkpt lat="48.19892" lon="3.21223">
        <ele>180</ele>
        <time>2024-05-23T14:42:03.927Z</time>
      </trkpt>
      <trkpt lat="48.19894" lon="3.21215">
        <ele>180</ele>
        <time>2024-05-23T14:42:08.612Z</time>
      </trkpt>
      <trkpt lat="48.19896" lon="3.21208">
        <ele>179</ele>
        <time>2024-05-23T14:42:13.091Z</time>
      </trkpt>
      <trkpt lat="48.19897" lon="3.212">
        <ele>179</ele>
        <time>2024-05-23T14:42:18.074Z</time>
      </trkpt>
      <trkpt lat="48.19899" lon="3.21192">
        <ele>179</ele>
        <time>2024-05-23T14:42:22.869Z</time>
      </trkpt>
      <trkpt lat="48.19901" lon="3.21186">
        <ele>179</ele>
        <time>2024-05-23T14:42:27.089Z</time>
      </trkpt>
      <trkpt lat="48.19902" lon="3.21178">
        <ele>179</ele>
        <time>2024-05-23T14:42:31.793Z</time>
      </trkpt>
      <trkpt lat="48.19903" lon="3.2117">
        <ele>176</ele>
        <time>2024-05-23T14:42:36.451Z</time>
      </trkpt>
      <trkpt lat="48.19904" lon="3.21162">
        <ele>176</ele>
        <time>2024-05-23T14:42:41.035Z</time>
      </trkpt>
      <trkpt lat="48.19905" lon="3.21154">
        <ele>176</ele>
        <time>2024-05-23T14:42:45.089Z</time>
      </trkpt>
      <trkpt lat="48.19906" lon="3.21147">
        <ele>177</ele>
        <time>2024-05-23T14:42:49.617Z</time>
      </trkpt>
      <trkpt lat="48.19907" lon="3.21138">
        <ele>177</ele>
        <time>2024-05-23T14:42:54.089Z</time>
      </trkpt>
      <trkpt lat="48.19908" lon="3.21129">
        <ele>177</ele>
        <time>2024-05-23T14:42:59.090Z</time>
      </trkpt>
      <trkpt lat="48.1991" lon="3.2112">
        <ele>176</ele>
        <time>2024-05-23T14:43:03.770Z</time>
      </trkpt>
      <trkpt lat="48.19912" lon="3.21113">
        <ele>176</ele>
        <time>2024-05-23T14:43:08.089Z</time>
      </trkpt>
      <trkpt lat="48.19914" lon="3.21104">
        <ele>176</ele>
        <time>2024-05-23T14:43:12.968Z</time>
      </trkpt>
      <trkpt lat="48.19915" lon="3.21096">
        <ele>175</ele>
        <time>2024-05-23T14:43:17.567Z</time>
      </trkpt>
      <trkpt lat="48.19917" lon="3.21089">
        <ele>175</ele>
        <time>2024-05-23T14:43:22.042Z</time>
      </trkpt>
      <trkpt lat="48.19918" lon="3.2108">
        <ele>175</ele>
        <time>2024-05-23T14:43:26.432Z</time>
      </trkpt>
      <trkpt lat="48.19919" lon="3.21071">
        <ele>175</ele>
        <time>2024-05-23T14:43:30.868Z</time>
      </trkpt>
      <trkpt lat="48.19921" lon="3.21063">
        <ele>174</ele>
        <time>2024-05-23T14:43:35.089Z</time>
      </trkpt>
      <trkpt lat="48.19923" lon="3.21054">
        <ele>174</ele>
        <time>2024-05-23T14:43:39.852Z</time>
      </trkpt>
      <trkpt lat="48.19922" lon="3.21046">
        <ele>174</ele>
        <time>2024-05-23T14:43:44.090Z</time>
      </trkpt>
      <trkpt lat="48.19924" lon="3.21037">
        <ele>175</ele>
        <time>2024-05-23T14:43:48.870Z</time>
      </trkpt>
      <trkpt lat="48.19924" lon="3.21028">
        <ele>175</ele>
        <time>2024-05-23T14:43:53.392Z</time>
      </trkpt>
      <trkpt lat="48.19925" lon="3.21019">
        <ele>175</ele>
        <time>2024-05-23T14:43:57.914Z</time>
      </trkpt>
      <trkpt lat="48.19925" lon="3.21011">
        <ele>175</ele>
        <time>2024-05-23T14:44:02.089Z</time>
      </trkpt>
      <trkpt lat="48.19926" lon="3.21003">
        <ele>175</ele>
        <time>2024-05-23T14:44:06.147Z</time>
      </trkpt>
      <trkpt lat="48.19927" lon="3.20994">
        <ele>175</ele>
        <time>2024-05-23T14:44:11.090Z</time>
      </trkpt>
      <trkpt lat="48.19927" lon="3.20986">
        <ele>175</ele>
        <time>2024-05-23T14:44:15.089Z</time>
      </trkpt>
      <trkpt lat="48.19927" lon="3.20978">
        <ele>175</ele>
        <time>2024-05-23T14:44:19.508Z</time>
      </trkpt>
      <trkpt lat="48.19928" lon="3.20969">
        <ele>175</ele>
        <time>2024-05-23T14:44:24.089Z</time>
      </trkpt>
      <trkpt lat="48.19927" lon="3.2096">
        <ele>175</ele>
        <time>2024-05-23T14:44:29.090Z</time>
      </trkpt>
      <trkpt lat="48.19928" lon="3.20952">
        <ele>175</ele>
        <time>2024-05-23T14:44:33.688Z</time>
      </trkpt>
      <trkpt lat="48.19929" lon="3.20943">
        <ele>175</ele>
        <time>2024-05-23T14:44:38.013Z</time>
      </trkpt>
      <trkpt lat="48.1993" lon="3.20935">
        <ele>175</ele>
        <time>2024-05-23T14:44:42.510Z</time>
      </trkpt>
      <trkpt lat="48.19929" lon="3.20927">
        <ele>175</ele>
        <time>2024-05-23T14:44:47.031Z</time>
      </trkpt>
      <trkpt lat="48.1993" lon="3.20918">
        <ele>175</ele>
        <time>2024-05-23T14:44:51.572Z</time>
      </trkpt>
      <trkpt lat="48.19931" lon="3.2091">
        <ele>175</ele>
        <time>2024-05-23T14:44:55.571Z</time>
      </trkpt>
      <trkpt lat="48.19931" lon="3.20901">
        <ele>176</ele>
        <time>2024-05-23T14:45:00.089Z</time>
      </trkpt>
      <trkpt lat="48.19932" lon="3.20895">
        <ele>176</ele>
        <time>2024-05-23T14:45:04.089Z</time>
      </trkpt>
      <trkpt lat="48.19933" lon="3.20886">
        <ele>176</ele>
        <time>2024-05-23T14:45:08.753Z</time>
      </trkpt>
      <trkpt lat="48.19935" lon="3.20878">
        <ele>176</ele>
        <time>2024-05-23T14:45:13.089Z</time>
      </trkpt>
      <trkpt lat="48.19938" lon="3.2087">
        <ele>177</ele>
        <time>2024-05-23T14:45:17.148Z</time>
      </trkpt>
      <trkpt lat="48.1994" lon="3.20862">
        <ele>177</ele>
        <time>2024-05-23T14:45:21.552Z</time>
      </trkpt>
      <trkpt lat="48.1994" lon="3.20854">
        <ele>177</ele>
        <time>2024-05-23T14:45:25.868Z</time>
      </trkpt>
      <trkpt lat="48.19942" lon="3.20848">
        <ele>177</ele>
        <time>2024-05-23T14:45:30.254Z</time>
      </trkpt>
      <trkpt lat="48.1994" lon="3.20841">
        <ele>177</ele>
        <time>2024-05-23T14:45:34.647Z</time>
      </trkpt>
      <trkpt lat="48.1994" lon="3.20833">
        <ele>177</ele>
        <time>2024-05-23T14:45:39.090Z</time>
      </trkpt>
      <trkpt lat="48.1994" lon="3.20828">
        <ele>177</ele>
        <time>2024-05-23T14:45:43.213Z</time>
      </trkpt>
      <trkpt lat="48.19941" lon="3.20821">
        <ele>177</ele>
        <time>2024-05-23T14:45:47.753Z</time>
      </trkpt>
      <trkpt lat="48.1994" lon="3.20813">
        <ele>177</ele>
        <time>2024-05-23T14:45:51.933Z</time>
      </trkpt>
      <trkpt lat="48.1994" lon="3.20806">
        <ele>177</ele>
        <time>2024-05-23T14:45:56.148Z</time>
      </trkpt>
      <trkpt lat="48.19941" lon="3.20798">
        <ele>177</ele>
        <time>2024-05-23T14:46:00.730Z</time>
      </trkpt>
      <trkpt lat="48.19943" lon="3.20792">
        <ele>177</ele>
        <time>2024-05-23T14:46:04.967Z</time>
      </trkpt>
      <trkpt lat="48.19945" lon="3.20784">
        <ele>178</ele>
        <time>2024-05-23T14:46:09.090Z</time>
      </trkpt>
      <trkpt lat="48.19946" lon="3.20776">
        <ele>178</ele>
        <time>2024-05-23T14:46:13.648Z</time>
      </trkpt>
      <trkpt lat="48.19945" lon="3.20769">
        <ele>178</ele>
        <time>2024-05-23T14:46:18.090Z</time>
      </trkpt>
      <trkpt lat="48.19945" lon="3.20762">
        <ele>179</ele>
        <time>2024-05-23T14:46:22.605Z</time>
      </trkpt>
      <trkpt lat="48.19945" lon="3.20754">
        <ele>179</ele>
        <time>2024-05-23T14:46:27.090Z</time>
      </trkpt>
      <trkpt lat="48.19947" lon="3.20746">
        <ele>179</ele>
        <time>2024-05-23T14:46:31.607Z</time>
      </trkpt>
      <trkpt lat="48.19947" lon="3.20737">
        <ele>179</ele>
        <time>2024-05-23T14:46:35.992Z</time>
      </trkpt>
      <trkpt lat="48.19947" lon="3.20729">
        <ele>179</ele>
        <time>2024-05-23T14:46:40.089Z</time>
      </trkpt>
      <trkpt lat="48.19948" lon="3.2072">
        <ele>179</ele>
        <time>2024-05-23T14:46:44.652Z</time>
      </trkpt>
      <trkpt lat="48.19949" lon="3.20711">
        <ele>179</ele>
        <time>2024-05-23T14:46:49.047Z</time>
      </trkpt>
      <trkpt lat="48.19949" lon="3.20702">
        <ele>178</ele>
        <time>2024-05-23T14:46:53.089Z</time>
      </trkpt>
      <trkpt lat="48.19949" lon="3.20695">
        <ele>178</ele>
        <time>2024-05-23T14:46:57.307Z</time>
      </trkpt>
      <trkpt lat="48.19949" lon="3.20686">
        <ele>178</ele>
        <time>2024-05-23T14:47:01.631Z</time>
      </trkpt>
      <trkpt lat="48.19949" lon="3.20678">
        <ele>178</ele>
        <time>2024-05-23T14:47:05.768Z</time>
      </trkpt>
      <trkpt lat="48.19948" lon="3.2067">
        <ele>178</ele>
        <time>2024-05-23T14:47:10.089Z</time>
      </trkpt>
      <trkpt lat="48.19947" lon="3.20662">
        <ele>178</ele>
        <time>2024-05-23T14:47:14.412Z</time>
      </trkpt>
      <trkpt lat="48.19947" lon="3.20653">
        <ele>178</ele>
        <time>2024-05-23T14:47:18.832Z</time>
      </trkpt>
      <trkpt lat="48.19947" lon="3.20645">
        <ele>178</ele>
        <time>2024-05-23T14:47:23.089Z</time>
      </trkpt>
      <trkpt lat="48.19946" lon="3.20635">
        <ele>178</ele>
        <time>2024-05-23T14:47:27.687Z</time>
      </trkpt>
      <trkpt lat="48.19946" lon="3.20627">
        <ele>178</ele>
        <time>2024-05-23T14:47:32.031Z</time>
      </trkpt>
      <trkpt lat="48.19946" lon="3.20618">
        <ele>178</ele>
        <time>2024-05-23T14:47:36.390Z</time>
      </trkpt>
      <trkpt lat="48.19945" lon="3.20611">
        <ele>178</ele>
        <time>2024-05-23T14:47:40.388Z</time>
      </trkpt>
      <trkpt lat="48.19944" lon="3.20602">
        <ele>178</ele>
        <time>2024-05-23T14:47:44.648Z</time>
      </trkpt>
      <trkpt lat="48.19944" lon="3.20595">
        <ele>177</ele>
        <time>2024-05-23T14:47:48.829Z</time>
      </trkpt>
      <trkpt lat="48.19944" lon="3.20587">
        <ele>177</ele>
        <time>2024-05-23T14:47:53.368Z</time>
      </trkpt>
      <trkpt lat="48.19944" lon="3.20578">
        <ele>177</ele>
        <time>2024-05-23T14:47:57.873Z</time>
      </trkpt>
      <trkpt lat="48.19941" lon="3.20572">
        <ele>177</ele>
        <time>2024-05-23T14:48:02.093Z</time>
      </trkpt>
      <trkpt lat="48.19941" lon="3.20565">
        <ele>178</ele>
        <time>2024-05-23T14:48:06.686Z</time>
      </trkpt>
      <trkpt lat="48.1994" lon="3.20557">
        <ele>178</ele>
        <time>2024-05-23T14:48:11.090Z</time>
      </trkpt>
      <trkpt lat="48.1994" lon="3.20549">
        <ele>178</ele>
        <time>2024-05-23T14:48:15.607Z</time>
      </trkpt>
      <trkpt lat="48.1994" lon="3.20541">
        <ele>177</ele>
        <time>2024-05-23T14:48:19.748Z</time>
      </trkpt>
      <trkpt lat="48.19939" lon="3.20534">
        <ele>177</ele>
        <time>2024-05-23T14:48:23.852Z</time>
      </trkpt>
      <trkpt lat="48.19939" lon="3.20526">
        <ele>177</ele>
        <time>2024-05-23T14:48:28.089Z</time>
      </trkpt>
      <trkpt lat="48.19939" lon="3.20517">
        <ele>177</ele>
        <time>2024-05-23T14:48:32.751Z</time>
      </trkpt>
      <trkpt lat="48.19939" lon="3.20508">
        <ele>176</ele>
        <time>2024-05-23T14:48:37.093Z</time>
      </trkpt>
      <trkpt lat="48.19939" lon="3.20499">
        <ele>176</ele>
        <time>2024-05-23T14:48:41.453Z</time>
      </trkpt>
      <trkpt lat="48.19939" lon="3.20493">
        <ele>176</ele>
        <time>2024-05-23T14:48:45.912Z</time>
      </trkpt>
      <trkpt lat="48.19938" lon="3.20485">
        <ele>175</ele>
        <time>2024-05-23T14:48:50.089Z</time>
      </trkpt>
      <trkpt lat="48.19938" lon="3.20475">
        <ele>175</ele>
        <time>2024-05-23T14:48:55.090Z</time>
      </trkpt>
      <trkpt lat="48.19938" lon="3.20466">
        <ele>175</ele>
        <time>2024-05-23T14:48:59.873Z</time>
      </trkpt>
      <trkpt lat="48.19937" lon="3.20459">
        <ele>175</ele>
        <time>2024-05-23T14:49:03.933Z</time>
      </trkpt>
      <trkpt lat="48.19937" lon="3.20451">
        <ele>175</ele>
        <time>2024-05-23T14:49:08.089Z</time>
      </trkpt>
      <trkpt lat="48.19936" lon="3.20441">
        <ele>175</ele>
        <time>2024-05-23T14:49:12.611Z</time>
      </trkpt>
      <trkpt lat="48.19936" lon="3.20432">
        <ele>175</ele>
        <time>2024-05-23T14:49:17.089Z</time>
      </trkpt>
      <trkpt lat="48.19936" lon="3.20424">
        <ele>177</ele>
        <time>2024-05-23T14:49:21.438Z</time>
      </trkpt>
      <trkpt lat="48.19935" lon="3.20415">
        <ele>177</ele>
        <time>2024-05-23T14:49:26.090Z</time>
      </trkpt>
      <trkpt lat="48.19933" lon="3.20407">
        <ele>177</ele>
        <time>2024-05-23T14:49:31.090Z</time>
      </trkpt>
      <trkpt lat="48.19933" lon="3.20398">
        <ele>177</ele>
        <time>2024-05-23T14:49:35.851Z</time>
      </trkpt>
      <trkpt lat="48.19933" lon="3.2039">
        <ele>177</ele>
        <time>2024-05-23T14:49:40.089Z</time>
      </trkpt>
      <trkpt lat="48.19933" lon="3.20381">
        <ele>177</ele>
        <time>2024-05-23T14:49:45.089Z</time>
      </trkpt>
      <trkpt lat="48.19934" lon="3.20374">
        <ele>177</ele>
        <time>2024-05-23T14:49:49.332Z</time>
      </trkpt>
      <trkpt lat="48.19936" lon="3.20368">
        <ele>177</ele>
        <time>2024-05-23T14:49:53.947Z</time>
      </trkpt>
      <trkpt lat="48.19936" lon="3.20361">
        <ele>177</ele>
        <time>2024-05-23T14:49:58.852Z</time>
      </trkpt>
      <trkpt lat="48.19935" lon="3.20354">
        <ele>177</ele>
        <time>2024-05-23T14:50:03.089Z</time>
      </trkpt>
      <trkpt lat="48.19933" lon="3.20346">
        <ele>177</ele>
        <time>2024-05-23T14:50:08.089Z</time>
      </trkpt>
      <trkpt lat="48.19933" lon="3.20337">
        <ele>177</ele>
        <time>2024-05-23T14:50:13.089Z</time>
      </trkpt>
      <trkpt lat="48.19934" lon="3.20329">
        <ele>177</ele>
        <time>2024-05-23T14:50:17.332Z</time>
      </trkpt>
      <trkpt lat="48.19936" lon="3.20322">
        <ele>177</ele>
        <time>2024-05-23T14:50:21.637Z</time>
      </trkpt>
      <trkpt lat="48.19939" lon="3.20314">
        <ele>177</ele>
        <time>2024-05-23T14:50:26.090Z</time>
      </trkpt>
      <trkpt lat="48.19943" lon="3.20306">
        <ele>177</ele>
        <time>2024-05-23T14:50:30.608Z</time>
      </trkpt>
      <trkpt lat="48.19946" lon="3.20299">
        <ele>177</ele>
        <time>2024-05-23T14:50:34.771Z</time>
      </trkpt>
      <trkpt lat="48.19949" lon="3.20293">
        <ele>177</ele>
        <time>2024-05-23T14:50:39.090Z</time>
      </trkpt>
      <trkpt lat="48.19953" lon="3.20285">
        <ele>176</ele>
        <time>2024-05-23T14:50:44.090Z</time>
      </trkpt>
      <trkpt lat="48.19958" lon="3.2028">
        <ele>176</ele>
        <time>2024-05-23T14:50:48.848Z</time>
      </trkpt>
      <trkpt lat="48.19963" lon="3.20275">
        <ele>175</ele>
        <time>2024-05-23T14:50:53.591Z</time>
      </trkpt>
      <trkpt lat="48.19966" lon="3.20271">
        <ele>175</ele>
        <time>2024-05-23T14:50:58.090Z</time>
      </trkpt>
      <trkpt lat="48.1997" lon="3.20266">
        <ele>175</ele>
        <time>2024-05-23T14:51:02.507Z</time>
      </trkpt>
      <trkpt lat="48.19973" lon="3.20261">
        <ele>176</ele>
        <time>2024-05-23T14:51:06.611Z</time>
      </trkpt>
      <trkpt lat="48.19978" lon="3.20256">
        <ele>176</ele>
        <time>2024-05-23T14:51:10.911Z</time>
      </trkpt>
      <trkpt lat="48.19984" lon="3.20251">
        <ele>176</ele>
        <time>2024-05-23T14:51:15.089Z</time>
      </trkpt>
      <trkpt lat="48.19989" lon="3.20244">
        <ele>174</ele>
        <time>2024-05-23T14:51:20.096Z</time>
      </trkpt>
      <trkpt lat="48.19994" lon="3.20238">
        <ele>174</ele>
        <time>2024-05-23T14:51:25.090Z</time>
      </trkpt>
      <trkpt lat="48.19999" lon="3.20232">
        <ele>174</ele>
        <time>2024-05-23T14:51:30.090Z</time>
      </trkpt>
      <trkpt lat="48.20002" lon="3.20225">
        <ele>174</ele>
        <time>2024-05-23T14:51:34.090Z</time>
      </trkpt>
      <trkpt lat="48.20003" lon="3.20219">
        <ele>174</ele>
        <time>2024-05-23T14:51:38.093Z</time>
      </trkpt>
      <trkpt lat="48.20004" lon="3.20213">
        <ele>174</ele>
        <time>2024-05-23T14:51:42.632Z</time>
      </trkpt>
      <trkpt lat="48.20006" lon="3.20205">
        <ele>174</ele>
        <time>2024-05-23T14:51:47.247Z</time>
      </trkpt>
      <trkpt lat="48.20005" lon="3.20196">
        <ele>174</ele>
        <time>2024-05-23T14:51:51.709Z</time>
      </trkpt>
      <trkpt lat="48.20003" lon="3.20188">
        <ele>174</ele>
        <time>2024-05-23T14:51:56.441Z</time>
      </trkpt>
      <trkpt lat="48.2" lon="3.2018">
        <ele>174</ele>
        <time>2024-05-23T14:52:01.013Z</time>
      </trkpt>
      <trkpt lat="48.19997" lon="3.20173">
        <ele>174</ele>
        <time>2024-05-23T14:52:05.528Z</time>
      </trkpt>
      <trkpt lat="48.19994" lon="3.20166">
        <ele>174</ele>
        <time>2024-05-23T14:52:09.990Z</time>
      </trkpt>
      <trkpt lat="48.1999" lon="3.2016">
        <ele>174</ele>
        <time>2024-05-23T14:52:14.090Z</time>
      </trkpt>
      <trkpt lat="48.19986" lon="3.20154">
        <ele>174</ele>
        <time>2024-05-23T14:52:19.089Z</time>
      </trkpt>
      <trkpt lat="48.19983" lon="3.20146">
        <ele>174</ele>
        <time>2024-05-23T14:52:23.732Z</time>
      </trkpt>
      <trkpt lat="48.19976" lon="3.20141">
        <ele>174</ele>
        <time>2024-05-23T14:52:46.089Z</time>
      </trkpt>
      <trkpt lat="48.19976" lon="3.20141">
        <ele>174</ele>
        <time>2024-05-23T14:52:51.089Z</time>
      </trkpt>
      <trkpt lat="48.19975" lon="3.20137">
        <ele>174</ele>
        <time>2024-05-23T14:52:55.547Z</time>
      </trkpt>
      <trkpt lat="48.19974" lon="3.20129">
        <ele>174</ele>
        <time>2024-05-23T14:53:00.086Z</time>
      </trkpt>
      <trkpt lat="48.19974" lon="3.20126">
        <ele>174</ele>
        <time>2024-05-23T14:53:04.949Z</time>
      </trkpt>
      <trkpt lat="48.19974" lon="3.20125">
        <ele>173</ele>
        <time>2024-05-23T14:53:09.089Z</time>
      </trkpt>
      <trkpt lat="48.19969" lon="3.20118">
        <ele>173</ele>
        <time>2024-05-23T14:53:13.787Z</time>
      </trkpt>
      <trkpt lat="48.19968" lon="3.20113">
        <ele>173</ele>
        <time>2024-05-23T14:53:17.892Z</time>
      </trkpt>
      <trkpt lat="48.19965" lon="3.20108">
        <ele>173</ele>
        <time>2024-05-23T14:53:21.932Z</time>
      </trkpt>
      <trkpt lat="48.19962" lon="3.20103">
        <ele>173</ele>
        <time>2024-05-23T14:53:26.119Z</time>
      </trkpt>
      <trkpt lat="48.19958" lon="3.20097">
        <ele>173</ele>
        <time>2024-05-23T14:53:31.089Z</time>
      </trkpt>
      <trkpt lat="48.19954" lon="3.20091">
        <ele>175</ele>
        <time>2024-05-23T14:53:35.748Z</time>
      </trkpt>
      <trkpt lat="48.19951" lon="3.20085">
        <ele>175</ele>
        <time>2024-05-23T14:53:39.848Z</time>
      </trkpt>
      <trkpt lat="48.19949" lon="3.20079">
        <ele>175</ele>
        <time>2024-05-23T14:53:44.089Z</time>
      </trkpt>
      <trkpt lat="48.19945" lon="3.20071">
        <ele>175</ele>
        <time>2024-05-23T14:53:49.089Z</time>
      </trkpt>
      <trkpt lat="48.19942" lon="3.20064">
        <ele>174</ele>
        <time>2024-05-23T14:53:53.676Z</time>
      </trkpt>
      <trkpt lat="48.19938" lon="3.20058">
        <ele>174</ele>
        <time>2024-05-23T14:53:58.089Z</time>
      </trkpt>
      <trkpt lat="48.19935" lon="3.20051">
        <ele>174</ele>
        <time>2024-05-23T14:54:02.588Z</time>
      </trkpt>
      <trkpt lat="48.19932" lon="3.20045">
        <ele>174</ele>
        <time>2024-05-23T14:54:07.093Z</time>
      </trkpt>
      <trkpt lat="48.19929" lon="3.20037">
        <ele>173</ele>
        <time>2024-05-23T14:54:11.691Z</time>
      </trkpt>
      <trkpt lat="48.19926" lon="3.20031">
        <ele>173</ele>
        <time>2024-05-23T14:54:16.089Z</time>
      </trkpt>
      <trkpt lat="48.19922" lon="3.20024">
        <ele>173</ele>
        <time>2024-05-23T14:54:20.931Z</time>
      </trkpt>
      <trkpt lat="48.19919" lon="3.20016">
        <ele>173</ele>
        <time>2024-05-23T14:54:25.453Z</time>
      </trkpt>
      <trkpt lat="48.19918" lon="3.20008">
        <ele>173</ele>
        <time>2024-05-23T14:54:29.950Z</time>
      </trkpt>
      <trkpt lat="48.19917" lon="3.19999">
        <ele>173</ele>
        <time>2024-05-23T14:54:34.429Z</time>
      </trkpt>
      <trkpt lat="48.19917" lon="3.19991">
        <ele>173</ele>
        <time>2024-05-23T14:54:39.052Z</time>
      </trkpt>
      <trkpt lat="48.19917" lon="3.19982">
        <ele>173</ele>
        <time>2024-05-23T14:54:43.711Z</time>
      </trkpt>
      <trkpt lat="48.19916" lon="3.19974">
        <ele>173</ele>
        <time>2024-05-23T14:54:48.292Z</time>
      </trkpt>
      <trkpt lat="48.19916" lon="3.19968">
        <ele>173</ele>
        <time>2024-05-23T14:54:52.388Z</time>
      </trkpt>
      <trkpt lat="48.19916" lon="3.1996">
        <ele>173</ele>
        <time>2024-05-23T14:54:56.610Z</time>
      </trkpt>
      <trkpt lat="48.19916" lon="3.19952">
        <ele>174</ele>
        <time>2024-05-23T14:55:01.088Z</time>
      </trkpt>
      <trkpt lat="48.19915" lon="3.19943">
        <ele>174</ele>
        <time>2024-05-23T14:55:05.748Z</time>
      </trkpt>
      <trkpt lat="48.19915" lon="3.19935">
        <ele>174</ele>
        <time>2024-05-23T14:55:10.089Z</time>
      </trkpt>
      <trkpt lat="48.19915" lon="3.19926">
        <ele>175</ele>
        <time>2024-05-23T14:55:14.970Z</time>
      </trkpt>
      <trkpt lat="48.19915" lon="3.19919">
        <ele>175</ele>
        <time>2024-05-23T14:55:19.089Z</time>
      </trkpt>
      <trkpt lat="48.19915" lon="3.19909">
        <ele>175</ele>
        <time>2024-05-23T14:55:24.088Z</time>
      </trkpt>
      <trkpt lat="48.19915" lon="3.199">
        <ele>176</ele>
        <time>2024-05-23T14:55:28.792Z</time>
      </trkpt>
      <trkpt lat="48.19915" lon="3.19892">
        <ele>176</ele>
        <time>2024-05-23T14:55:33.088Z</time>
      </trkpt>
      <trkpt lat="48.19915" lon="3.19885">
        <ele>176</ele>
        <time>2024-05-23T14:55:37.585Z</time>
      </trkpt>
      <trkpt lat="48.19915" lon="3.19875">
        <ele>176</ele>
        <time>2024-05-23T14:55:42.090Z</time>
      </trkpt>
      <trkpt lat="48.19915" lon="3.19867">
        <ele>177</ele>
        <time>2024-05-23T14:55:46.529Z</time>
      </trkpt>
      <trkpt lat="48.19917" lon="3.1986">
        <ele>177</ele>
        <time>2024-05-23T14:55:50.872Z</time>
      </trkpt>
      <trkpt lat="48.19917" lon="3.19851">
        <ele>177</ele>
        <time>2024-05-23T14:55:55.088Z</time>
      </trkpt>
      <trkpt lat="48.19917" lon="3.19843">
        <ele>177</ele>
        <time>2024-05-23T14:56:00.089Z</time>
      </trkpt>
      <trkpt lat="48.19919" lon="3.19835">
        <ele>177</ele>
        <time>2024-05-23T14:56:04.670Z</time>
      </trkpt>
      <trkpt lat="48.19919" lon="3.19828">
        <ele>177</ele>
        <time>2024-05-23T14:56:09.088Z</time>
      </trkpt>
      <trkpt lat="48.1992" lon="3.19818">
        <ele>179</ele>
        <time>2024-05-23T14:56:14.086Z</time>
      </trkpt>
      <trkpt lat="48.19919" lon="3.1981">
        <ele>179</ele>
        <time>2024-05-23T14:56:18.089Z</time>
      </trkpt>
      <trkpt lat="48.19918" lon="3.19802">
        <ele>179</ele>
        <time>2024-05-23T14:56:23.089Z</time>
      </trkpt>
      <trkpt lat="48.19918" lon="3.19795">
        <ele>179</ele>
        <time>2024-05-23T14:56:27.447Z</time>
      </trkpt>
      <trkpt lat="48.19917" lon="3.19788">
        <ele>180</ele>
        <time>2024-05-23T14:56:31.730Z</time>
      </trkpt>
      <trkpt lat="48.19918" lon="3.19781">
        <ele>180</ele>
        <time>2024-05-23T14:56:35.834Z</time>
      </trkpt>
      <trkpt lat="48.19918" lon="3.19775">
        <ele>180</ele>
        <time>2024-05-23T14:56:40.013Z</time>
      </trkpt>
      <trkpt lat="48.19919" lon="3.19767">
        <ele>180</ele>
        <time>2024-05-23T14:56:44.570Z</time>
      </trkpt>
      <trkpt lat="48.19921" lon="3.19759">
        <ele>180</ele>
        <time>2024-05-23T14:56:49.088Z</time>
      </trkpt>
      <trkpt lat="48.19921" lon="3.19752">
        <ele>180</ele>
        <time>2024-05-23T14:56:53.170Z</time>
      </trkpt>
      <trkpt lat="48.1992" lon="3.19743">
        <ele>180</ele>
        <time>2024-05-23T14:56:57.752Z</time>
      </trkpt>
      <trkpt lat="48.19921" lon="3.19735">
        <ele>180</ele>
        <time>2024-05-23T14:57:02.008Z</time>
      </trkpt>
      <trkpt lat="48.19921" lon="3.19728">
        <ele>180</ele>
        <time>2024-05-23T14:57:06.086Z</time>
      </trkpt>
      <trkpt lat="48.19921" lon="3.1972">
        <ele>180</ele>
        <time>2024-05-23T14:57:10.489Z</time>
      </trkpt>
      <trkpt lat="48.19921" lon="3.19712">
        <ele>180</ele>
        <time>2024-05-23T14:57:15.088Z</time>
      </trkpt>
      <trkpt lat="48.19919" lon="3.19705">
        <ele>180</ele>
        <time>2024-05-23T14:57:19.789Z</time>
      </trkpt>
      <trkpt lat="48.19921" lon="3.197">
        <ele>180</ele>
        <time>2024-05-23T14:57:24.207Z</time>
      </trkpt>
      <trkpt lat="48.19926" lon="3.197">
        <ele>180</ele>
        <time>2024-05-23T14:57:29.089Z</time>
      </trkpt>
      <trkpt lat="48.19932" lon="3.19698">
        <ele>183</ele>
        <time>2024-05-23T14:57:33.610Z</time>
      </trkpt>
      <trkpt lat="48.19937" lon="3.19694">
        <ele>183</ele>
        <time>2024-05-23T14:57:37.773Z</time>
      </trkpt>
      <trkpt lat="48.19941" lon="3.19691">
        <ele>183</ele>
        <time>2024-05-23T14:57:42.032Z</time>
      </trkpt>
      <trkpt lat="48.19946" lon="3.19688">
        <ele>183</ele>
        <time>2024-05-23T14:57:46.089Z</time>
      </trkpt>
      <trkpt lat="48.19951" lon="3.19686">
        <ele>183</ele>
        <time>2024-05-23T14:57:50.588Z</time>
      </trkpt>
      <trkpt lat="48.19956" lon="3.19684">
        <ele>183</ele>
        <time>2024-05-23T14:57:55.089Z</time>
      </trkpt>
      <trkpt lat="48.1996" lon="3.19682">
        <ele>185</ele>
        <time>2024-05-23T14:57:59.295Z</time>
      </trkpt>
      <trkpt lat="48.19965" lon="3.19678">
        <ele>184</ele>
        <time>2024-05-23T14:58:03.770Z</time>
      </trkpt>
      <trkpt lat="48.19969" lon="3.19675">
        <ele>184</ele>
        <time>2024-05-23T14:58:08.487Z</time>
      </trkpt>
      <trkpt lat="48.19973" lon="3.1967">
        <ele>184</ele>
        <time>2024-05-23T14:58:13.088Z</time>
      </trkpt>
      <trkpt lat="48.19978" lon="3.19667">
        <ele>184</ele>
        <time>2024-05-23T14:58:17.206Z</time>
      </trkpt>
      <trkpt lat="48.19982" lon="3.19665">
        <ele>184</ele>
        <time>2024-05-23T14:58:21.310Z</time>
      </trkpt>
      <trkpt lat="48.19987" lon="3.19662">
        <ele>184</ele>
        <time>2024-05-23T14:58:25.567Z</time>
      </trkpt>
      <trkpt lat="48.19991" lon="3.1966">
        <ele>184</ele>
        <time>2024-05-23T14:58:30.088Z</time>
      </trkpt>
      <trkpt lat="48.19994" lon="3.19657">
        <ele>184</ele>
        <time>2024-05-23T14:58:34.193Z</time>
      </trkpt>
      <trkpt lat="48.19999" lon="3.19654">
        <ele>184</ele>
        <time>2024-05-23T14:58:39.012Z</time>
      </trkpt>
      <trkpt lat="48.20003" lon="3.19651">
        <ele>184</ele>
        <time>2024-05-23T14:58:43.466Z</time>
      </trkpt>
      <trkpt lat="48.20007" lon="3.19649">
        <ele>184</ele>
        <time>2024-05-23T14:58:47.766Z</time>
      </trkpt>
      <trkpt lat="48.20011" lon="3.19646">
        <ele>184</ele>
        <time>2024-05-23T14:58:52.088Z</time>
      </trkpt>
      <trkpt lat="48.20016" lon="3.19643">
        <ele>182</ele>
        <time>2024-05-23T14:58:56.570Z</time>
      </trkpt>
      <trkpt lat="48.20019" lon="3.1964">
        <ele>182</ele>
        <time>2024-05-23T14:59:01.088Z</time>
      </trkpt>
      <trkpt lat="48.20024" lon="3.19634">
        <ele>182</ele>
        <time>2024-05-23T14:59:20.089Z</time>
      </trkpt>
      <trkpt lat="48.20026" lon="3.19632">
        <ele>182</ele>
        <time>2024-05-23T14:59:24.810Z</time>
      </trkpt>
      <trkpt lat="48.2003" lon="3.19627">
        <ele>182</ele>
        <time>2024-05-23T14:59:28.888Z</time>
      </trkpt>
      <trkpt lat="48.20034" lon="3.19626">
        <ele>182</ele>
        <time>2024-05-23T14:59:33.069Z</time>
      </trkpt>
      <trkpt lat="48.20038" lon="3.19624">
        <ele>182</ele>
        <time>2024-05-23T14:59:37.650Z</time>
      </trkpt>
      <trkpt lat="48.20043" lon="3.19623">
        <ele>181</ele>
        <time>2024-05-23T14:59:41.875Z</time>
      </trkpt>
      <trkpt lat="48.20047" lon="3.19621">
        <ele>181</ele>
        <time>2024-05-23T14:59:46.011Z</time>
      </trkpt>
      <trkpt lat="48.20051" lon="3.19618">
        <ele>181</ele>
        <time>2024-05-23T14:59:50.593Z</time>
      </trkpt>
      <trkpt lat="48.20055" lon="3.19616">
        <ele>181</ele>
        <time>2024-05-23T14:59:55.089Z</time>
      </trkpt>
      <trkpt lat="48.20058" lon="3.19615">
        <ele>181</ele>
        <time>2024-05-23T14:59:59.676Z</time>
      </trkpt>
      <trkpt lat="48.20062" lon="3.19612">
        <ele>181</ele>
        <time>2024-05-23T15:00:04.088Z</time>
      </trkpt>
      <trkpt lat="48.20066" lon="3.1961">
        <ele>181</ele>
        <time>2024-05-23T15:00:08.314Z</time>
      </trkpt>
      <trkpt lat="48.20071" lon="3.19608">
        <ele>181</ele>
        <time>2024-05-23T15:00:12.673Z</time>
      </trkpt>
      <trkpt lat="48.20076" lon="3.19604">
        <ele>181</ele>
        <time>2024-05-23T15:00:18.108Z</time>
      </trkpt>
      <trkpt lat="48.20081" lon="3.196">
        <ele>181</ele>
        <time>2024-05-23T15:00:22.808Z</time>
      </trkpt>
      <trkpt lat="48.20085" lon="3.19597">
        <ele>181</ele>
        <time>2024-05-23T15:00:27.088Z</time>
      </trkpt>
      <trkpt lat="48.2009" lon="3.19595">
        <ele>181</ele>
        <time>2024-05-23T15:00:31.570Z</time>
      </trkpt>
      <trkpt lat="48.20096" lon="3.19593">
        <ele>181</ele>
        <time>2024-05-23T15:00:35.870Z</time>
      </trkpt>
      <trkpt lat="48.201" lon="3.19591">
        <ele>181</ele>
        <time>2024-05-23T15:00:40.089Z</time>
      </trkpt>
      <trkpt lat="48.20105" lon="3.19587">
        <ele>181</ele>
        <time>2024-05-23T15:00:44.691Z</time>
      </trkpt>
      <trkpt lat="48.20111" lon="3.19584">
        <ele>181</ele>
        <time>2024-05-23T15:00:49.089Z</time>
      </trkpt>
      <trkpt lat="48.20115" lon="3.19581">
        <ele>181</ele>
        <time>2024-05-23T15:00:54.008Z</time>
      </trkpt>
      <trkpt lat="48.20119" lon="3.19578">
        <ele>181</ele>
        <time>2024-05-23T15:00:58.572Z</time>
      </trkpt>
      <trkpt lat="48.20123" lon="3.19575">
        <ele>181</ele>
        <time>2024-05-23T15:01:02.693Z</time>
      </trkpt>
      <trkpt lat="48.20127" lon="3.19573">
        <ele>181</ele>
        <time>2024-05-23T15:01:07.089Z</time>
      </trkpt>
      <trkpt lat="48.20133" lon="3.19571">
        <ele>181</ele>
        <time>2024-05-23T15:01:11.712Z</time>
      </trkpt>
      <trkpt lat="48.20138" lon="3.19568">
        <ele>181</ele>
        <time>2024-05-23T15:01:16.651Z</time>
      </trkpt>
      <trkpt lat="48.20142" lon="3.19564">
        <ele>181</ele>
        <time>2024-05-23T15:01:20.952Z</time>
      </trkpt>
      <trkpt lat="48.20146" lon="3.19562">
        <ele>181</ele>
        <time>2024-05-23T15:01:25.088Z</time>
      </trkpt>
      <trkpt lat="48.20151" lon="3.19561">
        <ele>181</ele>
        <time>2024-05-23T15:01:29.653Z</time>
      </trkpt>
      <trkpt lat="48.20155" lon="3.19558">
        <ele>182</ele>
        <time>2024-05-23T15:01:33.868Z</time>
      </trkpt>
      <trkpt lat="48.2016" lon="3.19556">
        <ele>182</ele>
        <time>2024-05-23T15:01:37.946Z</time>
      </trkpt>
      <trkpt lat="48.20164" lon="3.19553">
        <ele>182</ele>
        <time>2024-05-23T15:01:42.088Z</time>
      </trkpt>
      <trkpt lat="48.20169" lon="3.19549">
        <ele>182</ele>
        <time>2024-05-23T15:01:46.571Z</time>
      </trkpt>
      <trkpt lat="48.20175" lon="3.19547">
        <ele>182</ele>
        <time>2024-05-23T15:01:51.089Z</time>
      </trkpt>
      <trkpt lat="48.20179" lon="3.19545">
        <ele>182</ele>
        <time>2024-05-23T15:01:55.633Z</time>
      </trkpt>
      <trkpt lat="48.20183" lon="3.19541">
        <ele>181</ele>
        <time>2024-05-23T15:02:00.088Z</time>
      </trkpt>
      <trkpt lat="48.20187" lon="3.19537">
        <ele>181</ele>
        <time>2024-05-23T15:02:04.932Z</time>
      </trkpt>
      <trkpt lat="48.20191" lon="3.19541">
        <ele>181</ele>
        <time>2024-05-23T15:02:08.993Z</time>
      </trkpt>
      <trkpt lat="48.20196" lon="3.19537">
        <ele>181</ele>
        <time>2024-05-23T15:02:13.327Z</time>
      </trkpt>
      <trkpt lat="48.202" lon="3.19535">
        <ele>181</ele>
        <time>2024-05-23T15:02:17.729Z</time>
      </trkpt>
      <trkpt lat="48.20204" lon="3.19532">
        <ele>181</ele>
        <time>2024-05-23T15:02:21.807Z</time>
      </trkpt>
      <trkpt lat="48.20209" lon="3.19528">
        <ele>182</ele>
        <time>2024-05-23T15:02:26.088Z</time>
      </trkpt>
      <trkpt lat="48.20213" lon="3.19526">
        <ele>182</ele>
        <time>2024-05-23T15:02:30.686Z</time>
      </trkpt>
      <trkpt lat="48.20218" lon="3.19522">
        <ele>182</ele>
        <time>2024-05-23T15:02:35.088Z</time>
      </trkpt>
      <trkpt lat="48.20222" lon="3.19518">
        <ele>182</ele>
        <time>2024-05-23T15:02:39.613Z</time>
      </trkpt>
      <trkpt lat="48.20227" lon="3.19516">
        <ele>182</ele>
        <time>2024-05-23T15:02:43.768Z</time>
      </trkpt>
      <trkpt lat="48.20231" lon="3.19513">
        <ele>182</ele>
        <time>2024-05-23T15:02:48.427Z</time>
      </trkpt>
      <trkpt lat="48.20235" lon="3.19511">
        <ele>182</ele>
        <time>2024-05-23T15:02:52.633Z</time>
      </trkpt>
      <trkpt lat="48.2024" lon="3.19508">
        <ele>183</ele>
        <time>2024-05-23T15:02:57.086Z</time>
      </trkpt>
      <trkpt lat="48.20245" lon="3.19505">
        <ele>183</ele>
        <time>2024-05-23T15:03:02.089Z</time>
      </trkpt>
      <trkpt lat="48.2025" lon="3.19503">
        <ele>183</ele>
        <time>2024-05-23T15:03:06.573Z</time>
      </trkpt>
      <trkpt lat="48.20254" lon="3.195">
        <ele>183</ele>
        <time>2024-05-23T15:03:11.088Z</time>
      </trkpt>
      <trkpt lat="48.20259" lon="3.19497">
        <ele>183</ele>
        <time>2024-05-23T15:03:15.848Z</time>
      </trkpt>
      <trkpt lat="48.20263" lon="3.19495">
        <ele>183</ele>
        <time>2024-05-23T15:03:20.088Z</time>
      </trkpt>
      <trkpt lat="48.20267" lon="3.19492">
        <ele>182</ele>
        <time>2024-05-23T15:03:24.566Z</time>
      </trkpt>
      <trkpt lat="48.20271" lon="3.19489">
        <ele>182</ele>
        <time>2024-05-23T15:03:29.088Z</time>
      </trkpt>
      <trkpt lat="48.20276" lon="3.19486">
        <ele>182</ele>
        <time>2024-05-23T15:03:34.012Z</time>
      </trkpt>
      <trkpt lat="48.2028" lon="3.19483">
        <ele>182</ele>
        <time>2024-05-23T15:03:38.090Z</time>
      </trkpt>
      <trkpt lat="48.20284" lon="3.19481">
        <ele>182</ele>
        <time>2024-05-23T15:03:42.089Z</time>
      </trkpt>
      <trkpt lat="48.20288" lon="3.19477">
        <ele>182</ele>
        <time>2024-05-23T15:03:46.887Z</time>
      </trkpt>
      <trkpt lat="48.20293" lon="3.19475">
        <ele>179</ele>
        <time>2024-05-23T15:03:51.088Z</time>
      </trkpt>
      <trkpt lat="48.20298" lon="3.19473">
        <ele>179</ele>
        <time>2024-05-23T15:03:55.794Z</time>
      </trkpt>
      <trkpt lat="48.20303" lon="3.1947">
        <ele>179</ele>
        <time>2024-05-23T15:04:00.088Z</time>
      </trkpt>
      <trkpt lat="48.20307" lon="3.19467">
        <ele>179</ele>
        <time>2024-05-23T15:04:04.727Z</time>
      </trkpt>
      <trkpt lat="48.20311" lon="3.19464">
        <ele>179</ele>
        <time>2024-05-23T15:04:09.088Z</time>
      </trkpt>
      <trkpt lat="48.20316" lon="3.19461">
        <ele>179</ele>
        <time>2024-05-23T15:04:14.052Z</time>
      </trkpt>
      <trkpt lat="48.20321" lon="3.19456">
        <ele>179</ele>
        <time>2024-05-23T15:04:18.993Z</time>
      </trkpt>
      <trkpt lat="48.20326" lon="3.19452">
        <ele>179</ele>
        <time>2024-05-23T15:04:23.326Z</time>
      </trkpt>
      <trkpt lat="48.20332" lon="3.1945">
        <ele>179</ele>
        <time>2024-05-23T15:04:27.890Z</time>
      </trkpt>
      <trkpt lat="48.20336" lon="3.19447">
        <ele>179</ele>
        <time>2024-05-23T15:04:32.089Z</time>
      </trkpt>
      <trkpt lat="48.20341" lon="3.19444">
        <ele>179</ele>
        <time>2024-05-23T15:04:36.551Z</time>
      </trkpt>
      <trkpt lat="48.20345" lon="3.19443">
        <ele>179</ele>
        <time>2024-05-23T15:04:40.629Z</time>
      </trkpt>
      <trkpt lat="48.2035" lon="3.19439">
        <ele>180</ele>
        <time>2024-05-23T15:04:45.088Z</time>
      </trkpt>
      <trkpt lat="48.20355" lon="3.19438">
        <ele>180</ele>
        <time>2024-05-23T15:04:49.494Z</time>
      </trkpt>
      <trkpt lat="48.2036" lon="3.19435">
        <ele>180</ele>
        <time>2024-05-23T15:04:53.973Z</time>
      </trkpt>
      <trkpt lat="48.20365" lon="3.19432">
        <ele>180</ele>
        <time>2024-05-23T15:04:58.887Z</time>
      </trkpt>
      <trkpt lat="48.20369" lon="3.19429">
        <ele>182</ele>
        <time>2024-05-23T15:05:03.008Z</time>
      </trkpt>
      <trkpt lat="48.20373" lon="3.19426">
        <ele>182</ele>
        <time>2024-05-23T15:05:07.088Z</time>
      </trkpt>
      <trkpt lat="48.20378" lon="3.19421">
        <ele>182</ele>
        <time>2024-05-23T15:05:12.088Z</time>
      </trkpt>
      <trkpt lat="48.20382" lon="3.19415">
        <ele>182</ele>
        <time>2024-05-23T15:05:16.873Z</time>
      </trkpt>
      <trkpt lat="48.20385" lon="3.19408">
        <ele>182</ele>
        <time>2024-05-23T15:05:20.890Z</time>
      </trkpt>
      <trkpt lat="48.20389" lon="3.19402">
        <ele>183</ele>
        <time>2024-05-23T15:05:25.089Z</time>
      </trkpt>
      <trkpt lat="48.20393" lon="3.19396">
        <ele>183</ele>
        <time>2024-05-23T15:05:29.432Z</time>
      </trkpt>
      <trkpt lat="48.20395" lon="3.1939">
        <ele>183</ele>
        <time>2024-05-23T15:05:33.791Z</time>
      </trkpt>
      <trkpt lat="48.204" lon="3.19386">
        <ele>183</ele>
        <time>2024-05-23T15:05:38.527Z</time>
      </trkpt>
      <trkpt lat="48.20405" lon="3.19382">
        <ele>182</ele>
        <time>2024-05-23T15:05:43.088Z</time>
      </trkpt>
      <trkpt lat="48.2041" lon="3.19379">
        <ele>182</ele>
        <time>2024-05-23T15:05:48.089Z</time>
      </trkpt>
      <trkpt lat="48.20414" lon="3.19376">
        <ele>182</ele>
        <time>2024-05-23T15:05:52.911Z</time>
      </trkpt>
      <trkpt lat="48.20418" lon="3.19373">
        <ele>182</ele>
        <time>2024-05-23T15:05:57.088Z</time>
      </trkpt>
      <trkpt lat="48.20423" lon="3.19371">
        <ele>182</ele>
        <time>2024-05-23T15:06:01.512Z</time>
      </trkpt>
      <trkpt lat="48.20428" lon="3.19369">
        <ele>182</ele>
        <time>2024-05-23T15:06:05.572Z</time>
      </trkpt>
      <trkpt lat="48.20432" lon="3.19365">
        <ele>180</ele>
        <time>2024-05-23T15:06:10.026Z</time>
      </trkpt>
      <trkpt lat="48.20436" lon="3.19362">
        <ele>180</ele>
        <time>2024-05-23T15:06:14.190Z</time>
      </trkpt>
      <trkpt lat="48.2044" lon="3.1936">
        <ele>180</ele>
        <time>2024-05-23T15:06:18.592Z</time>
      </trkpt>
      <trkpt lat="48.20443" lon="3.19355">
        <ele>180</ele>
        <time>2024-05-23T15:06:22.991Z</time>
      </trkpt>
      <trkpt lat="48.20441" lon="3.19344">
        <ele>179</ele>
        <time>2024-05-23T15:06:27.087Z</time>
      </trkpt>
      <trkpt lat="48.20439" lon="3.19339">
        <ele>179</ele>
        <time>2024-05-23T15:06:31.331Z</time>
      </trkpt>
      <trkpt lat="48.20436" lon="3.19334">
        <ele>179</ele>
        <time>2024-05-23T15:06:36.088Z</time>
      </trkpt>
      <trkpt lat="48.20436" lon="3.19333">
        <ele>179</ele>
        <time>2024-05-23T15:06:45.093Z</time>
      </trkpt>
      <trkpt lat="48.20436" lon="3.19333">
        <ele>179</ele>
        <time>2024-05-23T15:06:50.087Z</time>
      </trkpt>
      <trkpt lat="48.20433" lon="3.1933">
        <ele>179</ele>
        <time>2024-05-23T15:06:54.225Z</time>
      </trkpt>
      <trkpt lat="48.20426" lon="3.19307">
        <ele>180</ele>
        <time>2024-05-23T15:07:27.087Z</time>
      </trkpt>
      <trkpt lat="48.20425" lon="3.19306">
        <ele>180</ele>
        <time>2024-05-23T15:07:32.092Z</time>
      </trkpt>
      <trkpt lat="48.20423" lon="3.19306">
        <ele>180</ele>
        <time>2024-05-23T15:07:37.088Z</time>
      </trkpt>
      <trkpt lat="48.20421" lon="3.19307">
        <ele>180</ele>
        <time>2024-05-23T15:07:41.087Z</time>
      </trkpt>
      <trkpt lat="48.2042" lon="3.19306">
        <ele>180</ele>
        <time>2024-05-23T15:07:45.087Z</time>
      </trkpt>
      <trkpt lat="48.20418" lon="3.19305">
        <ele>180</ele>
        <time>2024-05-23T15:08:15.087Z</time>
      </trkpt>
      <trkpt lat="48.20419" lon="3.19303">
        <ele>180</ele>
        <time>2024-05-23T15:08:20.087Z</time>
      </trkpt>
      <trkpt lat="48.20419" lon="3.19301">
        <ele>180</ele>
        <time>2024-05-23T15:08:25.087Z</time>
      </trkpt>
      <trkpt lat="48.20422" lon="3.19298">
        <ele>180</ele>
        <time>2024-05-23T15:08:29.422Z</time>
      </trkpt>
      <trkpt lat="48.20426" lon="3.19292">
        <ele>180</ele>
        <time>2024-05-23T15:08:33.612Z</time>
      </trkpt>
      <trkpt lat="48.2043" lon="3.19286">
        <ele>180</ele>
        <time>2024-05-23T15:08:37.785Z</time>
      </trkpt>
      <trkpt lat="48.20434" lon="3.1928">
        <ele>178</ele>
        <time>2024-05-23T15:08:42.051Z</time>
      </trkpt>
      <trkpt lat="48.20437" lon="3.19275">
        <ele>178</ele>
        <time>2024-05-23T15:08:46.070Z</time>
      </trkpt>
      <trkpt lat="48.20441" lon="3.19272">
        <ele>178</ele>
        <time>2024-05-23T15:08:50.548Z</time>
      </trkpt>
      <trkpt lat="48.20445" lon="3.19265">
        <ele>178</ele>
        <time>2024-05-23T15:08:54.746Z</time>
      </trkpt>
      <trkpt lat="48.20448" lon="3.19258">
        <ele>178</ele>
        <time>2024-05-23T15:08:59.166Z</time>
      </trkpt>
      <trkpt lat="48.20452" lon="3.19252">
        <ele>178</ele>
        <time>2024-05-23T15:09:03.733Z</time>
      </trkpt>
      <trkpt lat="48.20457" lon="3.19247">
        <ele>178</ele>
        <time>2024-05-23T15:09:08.347Z</time>
      </trkpt>
      <trkpt lat="48.2046" lon="3.19241">
        <ele>176</ele>
        <time>2024-05-23T15:09:12.606Z</time>
      </trkpt>
      <trkpt lat="48.20464" lon="3.19234">
        <ele>176</ele>
        <time>2024-05-23T15:09:17.049Z</time>
      </trkpt>
      <trkpt lat="48.20466" lon="3.19228">
        <ele>176</ele>
        <time>2024-05-23T15:09:21.017Z</time>
      </trkpt>
      <trkpt lat="48.20471" lon="3.19222">
        <ele>176</ele>
        <time>2024-05-23T15:09:26.068Z</time>
      </trkpt>
      <trkpt lat="48.20475" lon="3.19217">
        <ele>176</ele>
        <time>2024-05-23T15:09:30.087Z</time>
      </trkpt>
      <trkpt lat="48.20479" lon="3.19211">
        <ele>176</ele>
        <time>2024-05-23T15:09:34.370Z</time>
      </trkpt>
      <trkpt lat="48.20482" lon="3.19206">
        <ele>176</ele>
        <time>2024-05-23T15:09:38.669Z</time>
      </trkpt>
      <trkpt lat="48.20486" lon="3.192">
        <ele>175</ele>
        <time>2024-05-23T15:09:42.791Z</time>
      </trkpt>
      <trkpt lat="48.20491" lon="3.19195">
        <ele>175</ele>
        <time>2024-05-23T15:09:47.064Z</time>
      </trkpt>
      <trkpt lat="48.20494" lon="3.19189">
        <ele>175</ele>
        <time>2024-05-23T15:09:51.088Z</time>
      </trkpt>
      <trkpt lat="48.20498" lon="3.19183">
        <ele>175</ele>
        <time>2024-05-23T15:09:56.088Z</time>
      </trkpt>
      <trkpt lat="48.20503" lon="3.19178">
        <ele>176</ele>
        <time>2024-05-23T15:10:00.886Z</time>
      </trkpt>
      <trkpt lat="48.20507" lon="3.19172">
        <ele>176</ele>
        <time>2024-05-23T15:10:05.392Z</time>
      </trkpt>
      <trkpt lat="48.20511" lon="3.19166">
        <ele>176</ele>
        <time>2024-05-23T15:10:09.965Z</time>
      </trkpt>
      <trkpt lat="48.20515" lon="3.19161">
        <ele>175</ele>
        <time>2024-05-23T15:10:14.088Z</time>
      </trkpt>
      <trkpt lat="48.20519" lon="3.19156">
        <ele>175</ele>
        <time>2024-05-23T15:10:18.505Z</time>
      </trkpt>
      <trkpt lat="48.20523" lon="3.1915">
        <ele>176</ele>
        <time>2024-05-23T15:10:23.088Z</time>
      </trkpt>
      <trkpt lat="48.20527" lon="3.19144">
        <ele>176</ele>
        <time>2024-05-23T15:10:27.727Z</time>
      </trkpt>
      <trkpt lat="48.2053" lon="3.19137">
        <ele>176</ele>
        <time>2024-05-23T15:10:32.488Z</time>
      </trkpt>
      <trkpt lat="48.20534" lon="3.19132">
        <ele>176</ele>
        <time>2024-05-23T15:10:36.848Z</time>
      </trkpt>
      <trkpt lat="48.20538" lon="3.19126">
        <ele>176</ele>
        <time>2024-05-23T15:10:40.866Z</time>
      </trkpt>
      <trkpt lat="48.20542" lon="3.19121">
        <ele>176</ele>
        <time>2024-05-23T15:10:45.006Z</time>
      </trkpt>
      <trkpt lat="48.20547" lon="3.19114">
        <ele>176</ele>
        <time>2024-05-23T15:10:49.987Z</time>
      </trkpt>
      <trkpt lat="48.20551" lon="3.19107">
        <ele>176</ele>
        <time>2024-05-23T15:10:54.646Z</time>
      </trkpt>
      <trkpt lat="48.20554" lon="3.19101">
        <ele>176</ele>
        <time>2024-05-23T15:10:59.107Z</time>
      </trkpt>
      <trkpt lat="48.20558" lon="3.19095">
        <ele>176</ele>
        <time>2024-05-23T15:11:03.628Z</time>
      </trkpt>
      <trkpt lat="48.20562" lon="3.19089">
        <ele>176</ele>
        <time>2024-05-23T15:11:08.091Z</time>
      </trkpt>
      <trkpt lat="48.20566" lon="3.19082">
        <ele>176</ele>
        <time>2024-05-23T15:11:12.546Z</time>
      </trkpt>
      <trkpt lat="48.2057" lon="3.19077">
        <ele>176</ele>
        <time>2024-05-23T15:11:16.631Z</time>
      </trkpt>
      <trkpt lat="48.20574" lon="3.19072">
        <ele>176</ele>
        <time>2024-05-23T15:11:21.087Z</time>
      </trkpt>
      <trkpt lat="48.20578" lon="3.19067">
        <ele>177</ele>
        <time>2024-05-23T15:11:25.607Z</time>
      </trkpt>
      <trkpt lat="48.20582" lon="3.19062">
        <ele>177</ele>
        <time>2024-05-23T15:11:30.087Z</time>
      </trkpt>
      <trkpt lat="48.20586" lon="3.19057">
        <ele>177</ele>
        <time>2024-05-23T15:11:34.522Z</time>
      </trkpt>
      <trkpt lat="48.2059" lon="3.19052">
        <ele>177</ele>
        <time>2024-05-23T15:11:38.651Z</time>
      </trkpt>
      <trkpt lat="48.20595" lon="3.19047">
        <ele>177</ele>
        <time>2024-05-23T15:11:43.046Z</time>
      </trkpt>
      <trkpt lat="48.20598" lon="3.19042">
        <ele>177</ele>
        <time>2024-05-23T15:11:47.088Z</time>
      </trkpt>
      <trkpt lat="48.20603" lon="3.19037">
        <ele>177</ele>
        <time>2024-05-23T15:11:51.304Z</time>
      </trkpt>
      <trkpt lat="48.20607" lon="3.19032">
        <ele>177</ele>
        <time>2024-05-23T15:11:55.825Z</time>
      </trkpt>
      <trkpt lat="48.20611" lon="3.19027">
        <ele>177</ele>
        <time>2024-05-23T15:12:00.407Z</time>
      </trkpt>
      <trkpt lat="48.20615" lon="3.19026">
        <ele>177</ele>
        <time>2024-05-23T15:12:04.724Z</time>
      </trkpt>
      <trkpt lat="48.20615" lon="3.1902">
        <ele>177</ele>
        <time>2024-05-23T15:12:09.087Z</time>
      </trkpt>
      <trkpt lat="48.20618" lon="3.19013">
        <ele>177</ele>
        <time>2024-05-23T15:12:13.666Z</time>
      </trkpt>
      <trkpt lat="48.20622" lon="3.1901">
        <ele>177</ele>
        <time>2024-05-23T15:12:17.750Z</time>
      </trkpt>
      <trkpt lat="48.20627" lon="3.19006">
        <ele>177</ele>
        <time>2024-05-23T15:12:22.087Z</time>
      </trkpt>
      <trkpt lat="48.20631" lon="3.19001">
        <ele>177</ele>
        <time>2024-05-23T15:12:26.470Z</time>
      </trkpt>
      <trkpt lat="48.20636" lon="3.18998">
        <ele>177</ele>
        <time>2024-05-23T15:12:30.787Z</time>
      </trkpt>
      <trkpt lat="48.20642" lon="3.18993">
        <ele>177</ele>
        <time>2024-05-23T15:12:35.769Z</time>
      </trkpt>
      <trkpt lat="48.20647" lon="3.18989">
        <ele>177</ele>
        <time>2024-05-23T15:12:40.106Z</time>
      </trkpt>
      <trkpt lat="48.20654" lon="3.18985">
        <ele>177</ele>
        <time>2024-05-23T15:12:45.087Z</time>
      </trkpt>
      <trkpt lat="48.2066" lon="3.18982">
        <ele>177</ele>
        <time>2024-05-23T15:12:50.088Z</time>
      </trkpt>
      <trkpt lat="48.20665" lon="3.1898">
        <ele>177</ele>
        <time>2024-05-23T15:12:54.479Z</time>
      </trkpt>
      <trkpt lat="48.2067" lon="3.18978">
        <ele>177</ele>
        <time>2024-05-23T15:12:58.592Z</time>
      </trkpt>
      <trkpt lat="48.20675" lon="3.18977">
        <ele>177</ele>
        <time>2024-05-23T15:13:02.643Z</time>
      </trkpt>
      <trkpt lat="48.2068" lon="3.18976">
        <ele>177</ele>
        <time>2024-05-23T15:13:07.088Z</time>
      </trkpt>
      <trkpt lat="48.20686" lon="3.18976">
        <ele>175</ele>
        <time>2024-05-23T15:13:11.686Z</time>
      </trkpt>
      <trkpt lat="48.20691" lon="3.18974">
        <ele>175</ele>
        <time>2024-05-23T15:13:16.251Z</time>
      </trkpt>
      <trkpt lat="48.20697" lon="3.18974">
        <ele>175</ele>
        <time>2024-05-23T15:13:21.087Z</time>
      </trkpt>
      <trkpt lat="48.20703" lon="3.18974">
        <ele>175</ele>
        <time>2024-05-23T15:13:25.490Z</time>
      </trkpt>
      <trkpt lat="48.20708" lon="3.18974">
        <ele>175</ele>
        <time>2024-05-23T15:13:29.526Z</time>
      </trkpt>
      <trkpt lat="48.20714" lon="3.18972">
        <ele>174</ele>
        <time>2024-05-23T15:13:34.006Z</time>
      </trkpt>
      <trkpt lat="48.20719" lon="3.18971">
        <ele>174</ele>
        <time>2024-05-23T15:13:38.245Z</time>
      </trkpt>
      <trkpt lat="48.20723" lon="3.18972">
        <ele>174</ele>
        <time>2024-05-23T15:13:42.493Z</time>
      </trkpt>
      <trkpt lat="48.20725" lon="3.18971">
        <ele>174</ele>
        <time>2024-05-23T15:13:47.087Z</time>
      </trkpt>
      <trkpt lat="48.20727" lon="3.18974">
        <ele>174</ele>
        <time>2024-05-23T15:13:51.784Z</time>
      </trkpt>
      <trkpt lat="48.2073" lon="3.18983">
        <ele>174</ele>
        <time>2024-05-23T15:13:56.088Z</time>
      </trkpt>
      <trkpt lat="48.20732" lon="3.18989">
        <ele>173</ele>
        <time>2024-05-23T15:14:00.648Z</time>
      </trkpt>
      <trkpt lat="48.20734" lon="3.18993">
        <ele>173</ele>
        <time>2024-05-23T15:14:04.905Z</time>
      </trkpt>
      <trkpt lat="48.20737" lon="3.18997">
        <ele>173</ele>
        <time>2024-05-23T15:14:09.085Z</time>
      </trkpt>
      <trkpt lat="48.2074" lon="3.19002">
        <ele>173</ele>
        <time>2024-05-23T15:14:13.230Z</time>
      </trkpt>
      <trkpt lat="48.20743" lon="3.19007">
        <ele>173</ele>
        <time>2024-05-23T15:14:17.769Z</time>
      </trkpt>
      <trkpt lat="48.20745" lon="3.19013">
        <ele>173</ele>
        <time>2024-05-23T15:14:22.232Z</time>
      </trkpt>
      <trkpt lat="48.20748" lon="3.19019">
        <ele>173</ele>
        <time>2024-05-23T15:14:26.607Z</time>
      </trkpt>
      <trkpt lat="48.2075" lon="3.19025">
        <ele>173</ele>
        <time>2024-05-23T15:14:30.951Z</time>
      </trkpt>
      <trkpt lat="48.20752" lon="3.19031">
        <ele>173</ele>
        <time>2024-05-23T15:14:35.087Z</time>
      </trkpt>
      <trkpt lat="48.20755" lon="3.19037">
        <ele>173</ele>
        <time>2024-05-23T15:14:39.490Z</time>
      </trkpt>
      <trkpt lat="48.20758" lon="3.19044">
        <ele>173</ele>
        <time>2024-05-23T15:14:43.850Z</time>
      </trkpt>
      <trkpt lat="48.2076" lon="3.19051">
        <ele>173</ele>
        <time>2024-05-23T15:14:48.125Z</time>
      </trkpt>
      <trkpt lat="48.20763" lon="3.19056">
        <ele>173</ele>
        <time>2024-05-23T15:14:52.332Z</time>
      </trkpt>
      <trkpt lat="48.20766" lon="3.19062">
        <ele>173</ele>
        <time>2024-05-23T15:14:56.530Z</time>
      </trkpt>
      <trkpt lat="48.20769" lon="3.19068">
        <ele>173</ele>
        <time>2024-05-23T15:15:00.929Z</time>
      </trkpt>
      <trkpt lat="48.20772" lon="3.19075">
        <ele>175</ele>
        <time>2024-05-23T15:15:05.212Z</time>
      </trkpt>
      <trkpt lat="48.20775" lon="3.19081">
        <ele>175</ele>
        <time>2024-05-23T15:15:09.605Z</time>
      </trkpt>
      <trkpt lat="48.20778" lon="3.19086">
        <ele>175</ele>
        <time>2024-05-23T15:15:13.887Z</time>
      </trkpt>
      <trkpt lat="48.20782" lon="3.1909">
        <ele>175</ele>
        <time>2024-05-23T15:15:18.088Z</time>
      </trkpt>
      <trkpt lat="48.20785" lon="3.19096">
        <ele>175</ele>
        <time>2024-05-23T15:15:22.709Z</time>
      </trkpt>
      <trkpt lat="48.20788" lon="3.19103">
        <ele>176</ele>
        <time>2024-05-23T15:15:26.983Z</time>
      </trkpt>
      <trkpt lat="48.20791" lon="3.19107">
        <ele>176</ele>
        <time>2024-05-23T15:15:31.087Z</time>
      </trkpt>
      <trkpt lat="48.20795" lon="3.19113">
        <ele>174</ele>
        <time>2024-05-23T15:15:35.966Z</time>
      </trkpt>
      <trkpt lat="48.20798" lon="3.19118">
        <ele>174</ele>
        <time>2024-05-23T15:15:40.088Z</time>
      </trkpt>
      <trkpt lat="48.20801" lon="3.19125">
        <ele>174</ele>
        <time>2024-05-23T15:15:44.386Z</time>
      </trkpt>
      <trkpt lat="48.20804" lon="3.19131">
        <ele>175</ele>
        <time>2024-05-23T15:15:48.626Z</time>
      </trkpt>
      <trkpt lat="48.20807" lon="3.19137">
        <ele>175</ele>
        <time>2024-05-23T15:15:52.850Z</time>
      </trkpt>
      <trkpt lat="48.2081" lon="3.19143">
        <ele>175</ele>
        <time>2024-05-23T15:15:57.088Z</time>
      </trkpt>
      <trkpt lat="48.20812" lon="3.19149">
        <ele>175</ele>
        <time>2024-05-23T15:16:01.331Z</time>
      </trkpt>
      <trkpt lat="48.20815" lon="3.19154">
        <ele>176</ele>
        <time>2024-05-23T15:16:05.569Z</time>
      </trkpt>
      <trkpt lat="48.20818" lon="3.19159">
        <ele>176</ele>
        <time>2024-05-23T15:16:09.690Z</time>
      </trkpt>
      <trkpt lat="48.20821" lon="3.19165">
        <ele>174</ele>
        <time>2024-05-23T15:16:13.845Z</time>
      </trkpt>
      <trkpt lat="48.20824" lon="3.19171">
        <ele>174</ele>
        <time>2024-05-23T15:16:18.086Z</time>
      </trkpt>
      <trkpt lat="48.20828" lon="3.19177">
        <ele>174</ele>
        <time>2024-05-23T15:16:22.087Z</time>
      </trkpt>
      <trkpt lat="48.20831" lon="3.19182">
        <ele>175</ele>
        <time>2024-05-23T15:16:26.368Z</time>
      </trkpt>
      <trkpt lat="48.20833" lon="3.19187">
        <ele>175</ele>
        <time>2024-05-23T15:16:30.770Z</time>
      </trkpt>
      <trkpt lat="48.20835" lon="3.19194">
        <ele>175</ele>
        <time>2024-05-23T15:16:34.831Z</time>
      </trkpt>
      <trkpt lat="48.20838" lon="3.19201">
        <ele>175</ele>
        <time>2024-05-23T15:16:39.506Z</time>
      </trkpt>
      <trkpt lat="48.2084" lon="3.19207">
        <ele>175</ele>
        <time>2024-05-23T15:16:43.746Z</time>
      </trkpt>
      <trkpt lat="48.20843" lon="3.19213">
        <ele>175</ele>
        <time>2024-05-23T15:16:47.986Z</time>
      </trkpt>
      <trkpt lat="48.20845" lon="3.19219">
        <ele>175</ele>
        <time>2024-05-23T15:16:52.089Z</time>
      </trkpt>
      <trkpt lat="48.20848" lon="3.19225">
        <ele>174</ele>
        <time>2024-05-23T15:16:56.365Z</time>
      </trkpt>
      <trkpt lat="48.20851" lon="3.1923">
        <ele>174</ele>
        <time>2024-05-23T15:17:00.732Z</time>
      </trkpt>
      <trkpt lat="48.20854" lon="3.19235">
        <ele>174</ele>
        <time>2024-05-23T15:17:04.749Z</time>
      </trkpt>
      <trkpt lat="48.20857" lon="3.19241">
        <ele>175</ele>
        <time>2024-05-23T15:17:09.024Z</time>
      </trkpt>
      <trkpt lat="48.20861" lon="3.19247">
        <ele>175</ele>
        <time>2024-05-23T15:17:13.295Z</time>
      </trkpt>
      <trkpt lat="48.20863" lon="3.19253">
        <ele>175</ele>
        <time>2024-05-23T15:17:17.325Z</time>
      </trkpt>
      <trkpt lat="48.20866" lon="3.1926">
        <ele>175</ele>
        <time>2024-05-23T15:17:22.087Z</time>
      </trkpt>
      <trkpt lat="48.20869" lon="3.19265">
        <ele>175</ele>
        <time>2024-05-23T15:17:26.325Z</time>
      </trkpt>
      <trkpt lat="48.20872" lon="3.19271">
        <ele>175</ele>
        <time>2024-05-23T15:17:30.509Z</time>
      </trkpt>
      <trkpt lat="48.20875" lon="3.19277">
        <ele>174</ele>
        <time>2024-05-23T15:17:35.030Z</time>
      </trkpt>
      <trkpt lat="48.20878" lon="3.19283">
        <ele>174</ele>
        <time>2024-05-23T15:17:39.356Z</time>
      </trkpt>
      <trkpt lat="48.20881" lon="3.19289">
        <ele>174</ele>
        <time>2024-05-23T15:17:43.433Z</time>
      </trkpt>
      <trkpt lat="48.20885" lon="3.19295">
        <ele>174</ele>
        <time>2024-05-23T15:17:48.087Z</time>
      </trkpt>
      <trkpt lat="48.20888" lon="3.19302">
        <ele>174</ele>
        <time>2024-05-23T15:17:52.387Z</time>
      </trkpt>
      <trkpt lat="48.20891" lon="3.19307">
        <ele>174</ele>
        <time>2024-05-23T15:17:56.550Z</time>
      </trkpt>
      <trkpt lat="48.20895" lon="3.19312">
        <ele>174</ele>
        <time>2024-05-23T15:18:01.088Z</time>
      </trkpt>
      <trkpt lat="48.20899" lon="3.19316">
        <ele>174</ele>
        <time>2024-05-23T15:18:05.632Z</time>
      </trkpt>
      <trkpt lat="48.20901" lon="3.19321">
        <ele>173</ele>
        <time>2024-05-23T15:18:09.734Z</time>
      </trkpt>
      <trkpt lat="48.20905" lon="3.19324">
        <ele>172</ele>
        <time>2024-05-23T15:18:14.170Z</time>
      </trkpt>
      <trkpt lat="48.20909" lon="3.1933">
        <ele>172</ele>
        <time>2024-05-23T15:18:18.854Z</time>
      </trkpt>
      <trkpt lat="48.20912" lon="3.19336">
        <ele>172</ele>
        <time>2024-05-23T15:18:23.531Z</time>
      </trkpt>
      <trkpt lat="48.20915" lon="3.19341">
        <ele>172</ele>
        <time>2024-05-23T15:18:27.632Z</time>
      </trkpt>
      <trkpt lat="48.20918" lon="3.19346">
        <ele>172</ele>
        <time>2024-05-23T15:18:31.812Z</time>
      </trkpt>
      <trkpt lat="48.20921" lon="3.19351">
        <ele>172</ele>
        <time>2024-05-23T15:18:35.950Z</time>
      </trkpt>
      <trkpt lat="48.20924" lon="3.19356">
        <ele>172</ele>
        <time>2024-05-23T15:18:40.468Z</time>
      </trkpt>
      <trkpt lat="48.20928" lon="3.19362">
        <ele>172</ele>
        <time>2024-05-23T15:18:45.091Z</time>
      </trkpt>
      <trkpt lat="48.20931" lon="3.19368">
        <ele>172</ele>
        <time>2024-05-23T15:18:49.586Z</time>
      </trkpt>
      <trkpt lat="48.20934" lon="3.19374">
        <ele>172</ele>
        <time>2024-05-23T15:18:54.087Z</time>
      </trkpt>
      <trkpt lat="48.20937" lon="3.19381">
        <ele>172</ele>
        <time>2024-05-23T15:18:58.472Z</time>
      </trkpt>
      <trkpt lat="48.2094" lon="3.19386">
        <ele>172</ele>
        <time>2024-05-23T15:19:02.515Z</time>
      </trkpt>
      <trkpt lat="48.20944" lon="3.19392">
        <ele>172</ele>
        <time>2024-05-23T15:19:06.908Z</time>
      </trkpt>
      <trkpt lat="48.20946" lon="3.19398">
        <ele>172</ele>
        <time>2024-05-23T15:19:11.054Z</time>
      </trkpt>
      <trkpt lat="48.20949" lon="3.19404">
        <ele>173</ele>
        <time>2024-05-23T15:19:15.755Z</time>
      </trkpt>
      <trkpt lat="48.20952" lon="3.19409">
        <ele>173</ele>
        <time>2024-05-23T15:19:19.937Z</time>
      </trkpt>
      <trkpt lat="48.20955" lon="3.19415">
        <ele>173</ele>
        <time>2024-05-23T15:19:23.970Z</time>
      </trkpt>
      <trkpt lat="48.20958" lon="3.19421">
        <ele>173</ele>
        <time>2024-05-23T15:19:28.086Z</time>
      </trkpt>
      <trkpt lat="48.20961" lon="3.19426">
        <ele>174</ele>
        <time>2024-05-23T15:19:32.390Z</time>
      </trkpt>
      <trkpt lat="48.20965" lon="3.19433">
        <ele>173</ele>
        <time>2024-05-23T15:19:37.087Z</time>
      </trkpt>
      <trkpt lat="48.20969" lon="3.1944">
        <ele>173</ele>
        <time>2024-05-23T15:19:41.906Z</time>
      </trkpt>
      <trkpt lat="48.20972" lon="3.19446">
        <ele>173</ele>
        <time>2024-05-23T15:19:46.087Z</time>
      </trkpt>
      <trkpt lat="48.20976" lon="3.19453">
        <ele>173</ele>
        <time>2024-05-23T15:19:50.830Z</time>
      </trkpt>
      <trkpt lat="48.20981" lon="3.19455">
        <ele>173</ele>
        <time>2024-05-23T15:19:55.086Z</time>
      </trkpt>
      <trkpt lat="48.20981" lon="3.19452">
        <ele>173</ele>
        <time>2024-05-23T15:20:00.086Z</time>
      </trkpt>
      <trkpt lat="48.20981" lon="3.19452">
        <ele>173</ele>
        <time>2024-05-23T15:20:05.087Z</time>
      </trkpt>
      <trkpt lat="48.20981" lon="3.19452">
        <ele>173</ele>
        <time>2024-05-23T15:20:09.972Z</time>
      </trkpt>
      <trkpt lat="48.20985" lon="3.19449">
        <ele>173</ele>
        <time>2024-05-23T15:20:15.086Z</time>
      </trkpt>
      <trkpt lat="48.20988" lon="3.19444">
        <ele>172</ele>
        <time>2024-05-23T15:20:20.086Z</time>
      </trkpt>
      <trkpt lat="48.20992" lon="3.19431">
        <ele>172</ele>
        <time>2024-05-23T15:22:53.086Z</time>
      </trkpt>
      <trkpt lat="48.20994" lon="3.1943">
        <ele>173</ele>
        <time>2024-05-23T15:22:58.087Z</time>
      </trkpt>
      <trkpt lat="48.20997" lon="3.19426">
        <ele>173</ele>
        <time>2024-05-23T15:23:03.005Z</time>
      </trkpt>
      <trkpt lat="48.21001" lon="3.1942">
        <ele>173</ele>
        <time>2024-05-23T15:23:07.725Z</time>
      </trkpt>
      <trkpt lat="48.21002" lon="3.19413">
        <ele>173</ele>
        <time>2024-05-23T15:23:11.896Z</time>
      </trkpt>
      <trkpt lat="48.21003" lon="3.19407">
        <ele>173</ele>
        <time>2024-05-23T15:23:16.086Z</time>
      </trkpt>
      <trkpt lat="48.21006" lon="3.19403">
        <ele>173</ele>
        <time>2024-05-23T15:23:21.086Z</time>
      </trkpt>
      <trkpt lat="48.2101" lon="3.19399">
        <ele>174</ele>
        <time>2024-05-23T15:23:25.319Z</time>
      </trkpt>
      <trkpt lat="48.21015" lon="3.19394">
        <ele>171</ele>
        <time>2024-05-23T15:23:29.883Z</time>
      </trkpt>
      <trkpt lat="48.2102" lon="3.1939">
        <ele>171</ele>
        <time>2024-05-23T15:23:34.525Z</time>
      </trkpt>
      <trkpt lat="48.21024" lon="3.19387">
        <ele>171</ele>
        <time>2024-05-23T15:23:38.619Z</time>
      </trkpt>
      <trkpt lat="48.21027" lon="3.19381">
        <ele>171</ele>
        <time>2024-05-23T15:23:43.087Z</time>
      </trkpt>
      <trkpt lat="48.21029" lon="3.19375">
        <ele>171</ele>
        <time>2024-05-23T15:23:47.559Z</time>
      </trkpt>
      <trkpt lat="48.21032" lon="3.19372">
        <ele>172</ele>
        <time>2024-05-23T15:23:52.086Z</time>
      </trkpt>
      <trkpt lat="48.21035" lon="3.19372">
        <ele>172</ele>
        <time>2024-05-23T15:23:56.717Z</time>
      </trkpt>
      <trkpt lat="48.21037" lon="3.19372">
        <ele>172</ele>
        <time>2024-05-23T15:24:00.710Z</time>
      </trkpt>
      <trkpt lat="48.21042" lon="3.1937">
        <ele>172</ele>
        <time>2024-05-23T15:24:05.087Z</time>
      </trkpt>
      <trkpt lat="48.21045" lon="3.19358">
        <ele>169</ele>
        <time>2024-05-23T15:24:18.557Z</time>
      </trkpt>
      <trkpt lat="48.21045" lon="3.19355">
        <ele>169</ele>
        <time>2024-05-23T15:24:23.086Z</time>
      </trkpt>
      <trkpt lat="48.21048" lon="3.19345">
        <ele>171</ele>
        <time>2024-05-23T15:24:27.964Z</time>
      </trkpt>
      <trkpt lat="48.21052" lon="3.1934">
        <ele>171</ele>
        <time>2024-05-23T15:24:32.086Z</time>
      </trkpt>
      <trkpt lat="48.21056" lon="3.19336">
        <ele>171</ele>
        <time>2024-05-23T15:24:37.086Z</time>
      </trkpt>
      <trkpt lat="48.21055" lon="3.19336">
        <ele>171</ele>
        <time>2024-05-23T15:24:41.086Z</time>
      </trkpt>
      <trkpt lat="48.21056" lon="3.19334">
        <ele>171</ele>
        <time>2024-05-23T15:24:45.200Z</time>
      </trkpt>
      <trkpt lat="48.21061" lon="3.19327">
        <ele>171</ele>
        <time>2024-05-23T15:24:49.825Z</time>
      </trkpt>
      <trkpt lat="48.21064" lon="3.19321">
        <ele>171</ele>
        <time>2024-05-23T15:24:54.481Z</time>
      </trkpt>
      <trkpt lat="48.21068" lon="3.19315">
        <ele>174</ele>
        <time>2024-05-23T15:24:58.722Z</time>
      </trkpt>
      <trkpt lat="48.21072" lon="3.1931">
        <ele>169</ele>
        <time>2024-05-23T15:25:03.086Z</time>
      </trkpt>
      <trkpt lat="48.21076" lon="3.19305">
        <ele>169</ele>
        <time>2024-05-23T15:25:07.604Z</time>
      </trkpt>
      <trkpt lat="48.21079" lon="3.19299">
        <ele>169</ele>
        <time>2024-05-23T15:25:11.760Z</time>
      </trkpt>
      <trkpt lat="48.21082" lon="3.19294">
        <ele>169</ele>
        <time>2024-05-23T15:25:16.086Z</time>
      </trkpt>
      <trkpt lat="48.21087" lon="3.19288">
        <ele>173</ele>
        <time>2024-05-23T15:25:21.101Z</time>
      </trkpt>
      <trkpt lat="48.2109" lon="3.19282">
        <ele>173</ele>
        <time>2024-05-23T15:25:26.086Z</time>
      </trkpt>
      <trkpt lat="48.21094" lon="3.19276">
        <ele>173</ele>
        <time>2024-05-23T15:25:30.980Z</time>
      </trkpt>
      <trkpt lat="48.21098" lon="3.19271">
        <ele>169</ele>
        <time>2024-05-23T15:25:35.087Z</time>
      </trkpt>
      <trkpt lat="48.21101" lon="3.19264">
        <ele>169</ele>
        <time>2024-05-23T15:25:39.579Z</time>
      </trkpt>
      <trkpt lat="48.21104" lon="3.19258">
        <ele>172</ele>
        <time>2024-05-23T15:25:43.759Z</time>
      </trkpt>
      <trkpt lat="48.21107" lon="3.19251">
        <ele>172</ele>
        <time>2024-05-23T15:25:48.504Z</time>
      </trkpt>
      <trkpt lat="48.2111" lon="3.19245">
        <ele>172</ele>
        <time>2024-05-23T15:25:53.086Z</time>
      </trkpt>
      <trkpt lat="48.21114" lon="3.19239">
        <ele>172</ele>
        <time>2024-05-23T15:25:57.682Z</time>
      </trkpt>
      <trkpt lat="48.21117" lon="3.19232">
        <ele>172</ele>
        <time>2024-05-23T15:26:02.087Z</time>
      </trkpt>
      <trkpt lat="48.21121" lon="3.19226">
        <ele>172</ele>
        <time>2024-05-23T15:26:06.896Z</time>
      </trkpt>
      <trkpt lat="48.21124" lon="3.1922">
        <ele>172</ele>
        <time>2024-05-23T15:26:11.087Z</time>
      </trkpt>
      <trkpt lat="48.21128" lon="3.19214">
        <ele>167</ele>
        <time>2024-05-23T15:26:15.778Z</time>
      </trkpt>
      <trkpt lat="48.21132" lon="3.19208">
        <ele>166</ele>
        <time>2024-05-23T15:26:20.581Z</time>
      </trkpt>
      <trkpt lat="48.21136" lon="3.19202">
        <ele>166</ele>
        <time>2024-05-23T15:26:25.086Z</time>
      </trkpt>
      <trkpt lat="48.2114" lon="3.19196">
        <ele>166</ele>
        <time>2024-05-23T15:26:30.077Z</time>
      </trkpt>
      <trkpt lat="48.21143" lon="3.19191">
        <ele>166</ele>
        <time>2024-05-23T15:26:34.879Z</time>
      </trkpt>
      <trkpt lat="48.21147" lon="3.19187">
        <ele>166</ele>
        <time>2024-05-23T15:26:39.087Z</time>
      </trkpt>
      <trkpt lat="48.21151" lon="3.1918">
        <ele>165</ele>
        <time>2024-05-23T15:26:43.778Z</time>
      </trkpt>
      <trkpt lat="48.21154" lon="3.19175">
        <ele>165</ele>
        <time>2024-05-23T15:26:48.303Z</time>
      </trkpt>
      <trkpt lat="48.21159" lon="3.19173">
        <ele>165</ele>
        <time>2024-05-23T15:26:52.497Z</time>
      </trkpt>
      <trkpt lat="48.21163" lon="3.19171">
        <ele>165</ele>
        <time>2024-05-23T15:26:57.105Z</time>
      </trkpt>
      <trkpt lat="48.21168" lon="3.19168">
        <ele>165</ele>
        <time>2024-05-23T15:27:01.677Z</time>
      </trkpt>
      <trkpt lat="48.21171" lon="3.19164">
        <ele>165</ele>
        <time>2024-05-23T15:27:05.781Z</time>
      </trkpt>
      <trkpt lat="48.21175" lon="3.19161">
        <ele>165</ele>
        <time>2024-05-23T15:27:10.087Z</time>
      </trkpt>
      <trkpt lat="48.21181" lon="3.19158">
        <ele>165</ele>
        <time>2024-05-23T15:27:15.079Z</time>
      </trkpt>
      <trkpt lat="48.21186" lon="3.19154">
        <ele>167</ele>
        <time>2024-05-23T15:27:19.619Z</time>
      </trkpt>
      <trkpt lat="48.21191" lon="3.19152">
        <ele>166</ele>
        <time>2024-05-23T15:27:24.086Z</time>
      </trkpt>
      <trkpt lat="48.21197" lon="3.19152">
        <ele>166</ele>
        <time>2024-05-23T15:27:28.305Z</time>
      </trkpt>
      <trkpt lat="48.21203" lon="3.19152">
        <ele>166</ele>
        <time>2024-05-23T15:27:32.979Z</time>
      </trkpt>
      <trkpt lat="48.21207" lon="3.19153">
        <ele>166</ele>
        <time>2024-05-23T15:27:37.398Z</time>
      </trkpt>
      <trkpt lat="48.2121" lon="3.19157">
        <ele>170</ele>
        <time>2024-05-23T15:27:41.946Z</time>
      </trkpt>
      <trkpt lat="48.21212" lon="3.19165">
        <ele>170</ele>
        <time>2024-05-23T15:27:46.962Z</time>
      </trkpt>
      <trkpt lat="48.21213" lon="3.19173">
        <ele>170</ele>
        <time>2024-05-23T15:27:51.087Z</time>
      </trkpt>
      <trkpt lat="48.21215" lon="3.19181">
        <ele>170</ele>
        <time>2024-05-23T15:27:55.621Z</time>
      </trkpt>
      <trkpt lat="48.21216" lon="3.19189">
        <ele>170</ele>
        <time>2024-05-23T15:28:00.041Z</time>
      </trkpt>
      <trkpt lat="48.21217" lon="3.19197">
        <ele>170</ele>
        <time>2024-05-23T15:28:04.860Z</time>
      </trkpt>
      <trkpt lat="48.21219" lon="3.19205">
        <ele>170</ele>
        <time>2024-05-23T15:28:09.639Z</time>
      </trkpt>
      <trkpt lat="48.21221" lon="3.19212">
        <ele>170</ele>
        <time>2024-05-23T15:28:14.087Z</time>
      </trkpt>
      <trkpt lat="48.21225" lon="3.19219">
        <ele>170</ele>
        <time>2024-05-23T15:28:18.921Z</time>
      </trkpt>
      <trkpt lat="48.21228" lon="3.19226">
        <ele>170</ele>
        <time>2024-05-23T15:28:23.579Z</time>
      </trkpt>
      <trkpt lat="48.21231" lon="3.19233">
        <ele>170</ele>
        <time>2024-05-23T15:28:28.086Z</time>
      </trkpt>
      <trkpt lat="48.21233" lon="3.19239">
        <ele>167</ele>
        <time>2024-05-23T15:28:32.237Z</time>
      </trkpt>
      <trkpt lat="48.21236" lon="3.19246">
        <ele>167</ele>
        <time>2024-05-23T15:28:36.624Z</time>
      </trkpt>
      <trkpt lat="48.21239" lon="3.19251">
        <ele>167</ele>
        <time>2024-05-23T15:28:40.676Z</time>
      </trkpt>
      <trkpt lat="48.21242" lon="3.19257">
        <ele>167</ele>
        <time>2024-05-23T15:28:45.046Z</time>
      </trkpt>
      <trkpt lat="48.21245" lon="3.19263">
        <ele>167</ele>
        <time>2024-05-23T15:28:49.087Z</time>
      </trkpt>
      <trkpt lat="48.21248" lon="3.1927">
        <ele>164</ele>
        <time>2024-05-23T15:28:53.558Z</time>
      </trkpt>
      <trkpt lat="48.2125" lon="3.19278">
        <ele>164</ele>
        <time>2024-05-23T15:28:57.798Z</time>
      </trkpt>
      <trkpt lat="48.21253" lon="3.19283">
        <ele>164</ele>
        <time>2024-05-23T15:29:02.087Z</time>
      </trkpt>
      <trkpt lat="48.21256" lon="3.19291">
        <ele>164</ele>
        <time>2024-05-23T15:29:07.021Z</time>
      </trkpt>
      <trkpt lat="48.21259" lon="3.19297">
        <ele>163</ele>
        <time>2024-05-23T15:29:11.087Z</time>
      </trkpt>
      <trkpt lat="48.21262" lon="3.19306">
        <ele>163</ele>
        <time>2024-05-23T15:29:16.081Z</time>
      </trkpt>
      <trkpt lat="48.21264" lon="3.19312">
        <ele>164</ele>
        <time>2024-05-23T15:29:20.086Z</time>
      </trkpt>
      <trkpt lat="48.21268" lon="3.19319">
        <ele>164</ele>
        <time>2024-05-23T15:29:24.562Z</time>
      </trkpt>
      <trkpt lat="48.21269" lon="3.19325">
        <ele>165</ele>
        <time>2024-05-23T15:29:28.656Z</time>
      </trkpt>
      <trkpt lat="48.21274" lon="3.19329">
        <ele>165</ele>
        <time>2024-05-23T15:29:32.744Z</time>
      </trkpt>
      <trkpt lat="48.21277" lon="3.19335">
        <ele>165</ele>
        <time>2024-05-23T15:29:37.281Z</time>
      </trkpt>
      <trkpt lat="48.2128" lon="3.19341">
        <ele>165</ele>
        <time>2024-05-23T15:29:41.838Z</time>
      </trkpt>
      <trkpt lat="48.21283" lon="3.19349">
        <ele>166</ele>
        <time>2024-05-23T15:29:46.925Z</time>
      </trkpt>
      <trkpt lat="48.21286" lon="3.19356">
        <ele>166</ele>
        <time>2024-05-23T15:29:51.018Z</time>
      </trkpt>
      <trkpt lat="48.21289" lon="3.19363">
        <ele>166</ele>
        <time>2024-05-23T15:29:55.086Z</time>
      </trkpt>
      <trkpt lat="48.21293" lon="3.19371">
        <ele>166</ele>
        <time>2024-05-23T15:29:59.797Z</time>
      </trkpt>
      <trkpt lat="48.21304" lon="3.19384">
        <ele>166</ele>
        <time>2024-05-23T15:30:18.087Z</time>
      </trkpt>
      <trkpt lat="48.21305" lon="3.19388">
        <ele>166</ele>
        <time>2024-05-23T15:30:22.087Z</time>
      </trkpt>
      <trkpt lat="48.21309" lon="3.19394">
        <ele>166</ele>
        <time>2024-05-23T15:30:26.981Z</time>
      </trkpt>
      <trkpt lat="48.21313" lon="3.194">
        <ele>166</ele>
        <time>2024-05-23T15:30:31.460Z</time>
      </trkpt>
      <trkpt lat="48.21315" lon="3.19404">
        <ele>167</ele>
        <time>2024-05-23T15:30:36.086Z</time>
      </trkpt>
      <trkpt lat="48.21316" lon="3.19411">
        <ele>167</ele>
        <time>2024-05-23T15:30:40.401Z</time>
      </trkpt>
      <trkpt lat="48.21317" lon="3.19417">
        <ele>167</ele>
        <time>2024-05-23T15:30:44.581Z</time>
      </trkpt>
      <trkpt lat="48.2132" lon="3.19424">
        <ele>167</ele>
        <time>2024-05-23T15:30:48.822Z</time>
      </trkpt>
      <trkpt lat="48.21323" lon="3.1943">
        <ele>167</ele>
        <time>2024-05-23T15:30:53.088Z</time>
      </trkpt>
      <trkpt lat="48.21326" lon="3.19436">
        <ele>167</ele>
        <time>2024-05-23T15:30:58.062Z</time>
      </trkpt>
      <trkpt lat="48.21329" lon="3.19443">
        <ele>167</ele>
        <time>2024-05-23T15:31:02.087Z</time>
      </trkpt>
      <trkpt lat="48.21332" lon="3.1945">
        <ele>167</ele>
        <time>2024-05-23T15:31:06.568Z</time>
      </trkpt>
      <trkpt lat="48.21335" lon="3.19456">
        <ele>167</ele>
        <time>2024-05-23T15:31:11.068Z</time>
      </trkpt>
      <trkpt lat="48.21336" lon="3.19462">
        <ele>167</ele>
        <time>2024-05-23T15:31:15.086Z</time>
      </trkpt>
      <trkpt lat="48.21339" lon="3.19468">
        <ele>167</ele>
        <time>2024-05-23T15:31:19.410Z</time>
      </trkpt>
      <trkpt lat="48.21341" lon="3.19474">
        <ele>167</ele>
        <time>2024-05-23T15:31:23.625Z</time>
      </trkpt>
      <trkpt lat="48.21344" lon="3.19479">
        <ele>167</ele>
        <time>2024-05-23T15:31:27.592Z</time>
      </trkpt>
      <trkpt lat="48.21346" lon="3.19485">
        <ele>167</ele>
        <time>2024-05-23T15:31:31.912Z</time>
      </trkpt>
      <trkpt lat="48.21349" lon="3.19491">
        <ele>163</ele>
        <time>2024-05-23T15:31:36.086Z</time>
      </trkpt>
      <trkpt lat="48.21351" lon="3.19498">
        <ele>163</ele>
        <time>2024-05-23T15:31:40.749Z</time>
      </trkpt>
      <trkpt lat="48.21354" lon="3.19503">
        <ele>163</ele>
        <time>2024-05-23T15:31:45.086Z</time>
      </trkpt>
      <trkpt lat="48.21356" lon="3.19509">
        <ele>163</ele>
        <time>2024-05-23T15:31:49.630Z</time>
      </trkpt>
      <trkpt lat="48.21359" lon="3.19515">
        <ele>162</ele>
        <time>2024-05-23T15:31:54.086Z</time>
      </trkpt>
      <trkpt lat="48.21362" lon="3.19522">
        <ele>162</ele>
        <time>2024-05-23T15:31:59.086Z</time>
      </trkpt>
      <trkpt lat="48.21364" lon="3.19529">
        <ele>162</ele>
        <time>2024-05-23T15:32:03.871Z</time>
      </trkpt>
      <trkpt lat="48.21368" lon="3.19536">
        <ele>162</ele>
        <time>2024-05-23T15:32:08.469Z</time>
      </trkpt>
      <trkpt lat="48.21371" lon="3.19543">
        <ele>161</ele>
        <time>2024-05-23T15:32:13.086Z</time>
      </trkpt>
      <trkpt lat="48.21374" lon="3.1955">
        <ele>161</ele>
        <time>2024-05-23T15:32:17.889Z</time>
      </trkpt>
      <trkpt lat="48.21378" lon="3.19556">
        <ele>161</ele>
        <time>2024-05-23T15:32:22.625Z</time>
      </trkpt>
      <trkpt lat="48.21381" lon="3.19563">
        <ele>161</ele>
        <time>2024-05-23T15:32:27.087Z</time>
      </trkpt>
      <trkpt lat="48.21384" lon="3.19569">
        <ele>161</ele>
        <time>2024-05-23T15:32:31.481Z</time>
      </trkpt>
      <trkpt lat="48.21387" lon="3.19576">
        <ele>160</ele>
        <time>2024-05-23T15:32:35.550Z</time>
      </trkpt>
      <trkpt lat="48.2139" lon="3.19582">
        <ele>160</ele>
        <time>2024-05-23T15:32:39.671Z</time>
      </trkpt>
      <trkpt lat="48.21393" lon="3.19588">
        <ele>160</ele>
        <time>2024-05-23T15:32:44.086Z</time>
      </trkpt>
      <trkpt lat="48.21396" lon="3.19595">
        <ele>160</ele>
        <time>2024-05-23T15:32:48.725Z</time>
      </trkpt>
      <trkpt lat="48.21399" lon="3.19601">
        <ele>159</ele>
        <time>2024-05-23T15:32:52.766Z</time>
      </trkpt>
      <trkpt lat="48.21402" lon="3.19608">
        <ele>159</ele>
        <time>2024-05-23T15:32:57.086Z</time>
      </trkpt>
      <trkpt lat="48.21405" lon="3.19613">
        <ele>161</ele>
        <time>2024-05-23T15:33:01.247Z</time>
      </trkpt>
      <trkpt lat="48.21408" lon="3.19621">
        <ele>161</ele>
        <time>2024-05-23T15:33:05.882Z</time>
      </trkpt>
      <trkpt lat="48.2141" lon="3.19628">
        <ele>159</ele>
        <time>2024-05-23T15:33:10.540Z</time>
      </trkpt>
      <trkpt lat="48.21413" lon="3.19635">
        <ele>159</ele>
        <time>2024-05-23T15:33:15.086Z</time>
      </trkpt>
      <trkpt lat="48.21416" lon="3.19641">
        <ele>159</ele>
        <time>2024-05-23T15:33:19.198Z</time>
      </trkpt>
      <trkpt lat="48.21419" lon="3.19649">
        <ele>159</ele>
        <time>2024-05-23T15:33:24.087Z</time>
      </trkpt>
      <trkpt lat="48.2142" lon="3.19656">
        <ele>158</ele>
        <time>2024-05-23T15:33:28.298Z</time>
      </trkpt>
      <trkpt lat="48.21423" lon="3.19663">
        <ele>158</ele>
        <time>2024-05-23T15:33:32.880Z</time>
      </trkpt>
      <trkpt lat="48.21426" lon="3.1967">
        <ele>158</ele>
        <time>2024-05-23T15:33:36.902Z</time>
      </trkpt>
      <trkpt lat="48.2143" lon="3.19675">
        <ele>158</ele>
        <time>2024-05-23T15:33:41.020Z</time>
      </trkpt>
      <trkpt lat="48.21434" lon="3.19682">
        <ele>159</ele>
        <time>2024-05-23T15:33:46.099Z</time>
      </trkpt>
      <trkpt lat="48.21438" lon="3.19688">
        <ele>159</ele>
        <time>2024-05-23T15:33:50.715Z</time>
      </trkpt>
      <trkpt lat="48.21441" lon="3.19695">
        <ele>159</ele>
        <time>2024-05-23T15:33:55.313Z</time>
      </trkpt>
      <trkpt lat="48.21444" lon="3.19701">
        <ele>159</ele>
        <time>2024-05-23T15:33:59.375Z</time>
      </trkpt>
      <trkpt lat="48.21447" lon="3.19708">
        <ele>159</ele>
        <time>2024-05-23T15:34:03.879Z</time>
      </trkpt>
      <trkpt lat="48.2145" lon="3.19714">
        <ele>156</ele>
        <time>2024-05-23T15:34:08.086Z</time>
      </trkpt>
      <trkpt lat="48.21454" lon="3.1972">
        <ele>156</ele>
        <time>2024-05-23T15:34:12.976Z</time>
      </trkpt>
      <trkpt lat="48.21457" lon="3.19728">
        <ele>156</ele>
        <time>2024-05-23T15:34:17.055Z</time>
      </trkpt>
      <trkpt lat="48.21459" lon="3.19732">
        <ele>157</ele>
        <time>2024-05-23T15:34:22.030Z</time>
      </trkpt>
      <trkpt lat="48.21465" lon="3.19738">
        <ele>154</ele>
        <time>2024-05-23T15:34:26.320Z</time>
      </trkpt>
      <trkpt lat="48.21467" lon="3.19745">
        <ele>154</ele>
        <time>2024-05-23T15:34:31.100Z</time>
      </trkpt>
      <trkpt lat="48.21468" lon="3.19752">
        <ele>154</ele>
        <time>2024-05-23T15:34:35.220Z</time>
      </trkpt>
      <trkpt lat="48.2147" lon="3.19757">
        <ele>154</ele>
        <time>2024-05-23T15:34:39.436Z</time>
      </trkpt>
      <trkpt lat="48.21472" lon="3.19765">
        <ele>151</ele>
        <time>2024-05-23T15:34:43.599Z</time>
      </trkpt>
      <trkpt lat="48.21474" lon="3.19772">
        <ele>151</ele>
        <time>2024-05-23T15:34:47.840Z</time>
      </trkpt>
      <trkpt lat="48.21476" lon="3.19776">
        <ele>151</ele>
        <time>2024-05-23T15:34:52.056Z</time>
      </trkpt>
      <trkpt lat="48.21478" lon="3.19784">
        <ele>151</ele>
        <time>2024-05-23T15:34:56.292Z</time>
      </trkpt>
      <trkpt lat="48.21481" lon="3.1979">
        <ele>151</ele>
        <time>2024-05-23T15:35:00.477Z</time>
      </trkpt>
      <trkpt lat="48.21484" lon="3.19796">
        <ele>149</ele>
        <time>2024-05-23T15:35:04.581Z</time>
      </trkpt>
      <trkpt lat="48.21486" lon="3.19804">
        <ele>149</ele>
        <time>2024-05-23T15:35:09.085Z</time>
      </trkpt>
      <trkpt lat="48.21487" lon="3.19806">
        <ele>151</ele>
        <time>2024-05-23T15:35:10.864Z</time>
      </trkpt>
      <trkpt lat="48.21487" lon="3.1981">
        <ele>151</ele>
        <time>2024-05-23T15:35:19.640Z</time>
      </trkpt>
      <trkpt lat="48.21492" lon="3.19819">
        <ele>151</ele>
        <time>2024-05-23T15:35:24.086Z</time>
      </trkpt>
      <trkpt lat="48.21496" lon="3.19829">
        <ele>149</ele>
        <time>2024-05-23T15:35:28.544Z</time>
      </trkpt>
      <trkpt lat="48.215" lon="3.19836">
        <ele>149</ele>
        <time>2024-05-23T15:35:32.618Z</time>
      </trkpt>
      <trkpt lat="48.21502" lon="3.19844">
        <ele>149</ele>
        <time>2024-05-23T15:35:36.996Z</time>
      </trkpt>
      <trkpt lat="48.21504" lon="3.1985">
        <ele>147</ele>
        <time>2024-05-23T15:35:41.278Z</time>
      </trkpt>
      <trkpt lat="48.21508" lon="3.19858">
        <ele>147</ele>
        <time>2024-05-23T15:35:45.715Z</time>
      </trkpt>
      <trkpt lat="48.21511" lon="3.19866">
        <ele>147</ele>
        <time>2024-05-23T15:35:50.086Z</time>
      </trkpt>
      <trkpt lat="48.21515" lon="3.19873">
        <ele>150</ele>
        <time>2024-05-23T15:35:54.838Z</time>
      </trkpt>
      <trkpt lat="48.21519" lon="3.19881">
        <ele>148</ele>
        <time>2024-05-23T15:35:59.083Z</time>
      </trkpt>
      <trkpt lat="48.21524" lon="3.19887">
        <ele>148</ele>
        <time>2024-05-23T15:36:03.421Z</time>
      </trkpt>
      <trkpt lat="48.21527" lon="3.19894">
        <ele>148</ele>
        <time>2024-05-23T15:36:07.679Z</time>
      </trkpt>
      <trkpt lat="48.21531" lon="3.199">
        <ele>148</ele>
        <time>2024-05-23T15:36:11.778Z</time>
      </trkpt>
      <trkpt lat="48.21535" lon="3.19907">
        <ele>147</ele>
        <time>2024-05-23T15:36:16.758Z</time>
      </trkpt>
      <trkpt lat="48.21539" lon="3.19914">
        <ele>147</ele>
        <time>2024-05-23T15:36:21.086Z</time>
      </trkpt>
      <trkpt lat="48.21542" lon="3.19919">
        <ele>148</ele>
        <time>2024-05-23T15:36:25.085Z</time>
      </trkpt>
      <trkpt lat="48.21546" lon="3.19924">
        <ele>148</ele>
        <time>2024-05-23T15:36:29.182Z</time>
      </trkpt>
      <trkpt lat="48.2155" lon="3.1993">
        <ele>148</ele>
        <time>2024-05-23T15:36:33.601Z</time>
      </trkpt>
      <trkpt lat="48.21555" lon="3.19939">
        <ele>147</ele>
        <time>2024-05-23T15:36:38.086Z</time>
      </trkpt>
      <trkpt lat="48.21558" lon="3.19944">
        <ele>147</ele>
        <time>2024-05-23T15:36:42.086Z</time>
      </trkpt>
      <trkpt lat="48.21563" lon="3.19949">
        <ele>147</ele>
        <time>2024-05-23T15:36:46.736Z</time>
      </trkpt>
      <trkpt lat="48.21566" lon="3.19955">
        <ele>147</ele>
        <time>2024-05-23T15:36:51.085Z</time>
      </trkpt>
      <trkpt lat="48.2157" lon="3.19961">
        <ele>146</ele>
        <time>2024-05-23T15:36:55.700Z</time>
      </trkpt>
      <trkpt lat="48.21574" lon="3.19965">
        <ele>146</ele>
        <time>2024-05-23T15:36:59.719Z</time>
      </trkpt>
      <trkpt lat="48.21577" lon="3.19972">
        <ele>146</ele>
        <time>2024-05-23T15:37:04.079Z</time>
      </trkpt>
      <trkpt lat="48.21581" lon="3.19976">
        <ele>146</ele>
        <time>2024-05-23T15:37:08.603Z</time>
      </trkpt>
      <trkpt lat="48.21585" lon="3.19983">
        <ele>146</ele>
        <time>2024-05-23T15:37:13.085Z</time>
      </trkpt>
      <trkpt lat="48.21589" lon="3.19989">
        <ele>142</ele>
        <time>2024-05-23T15:37:17.714Z</time>
      </trkpt>
      <trkpt lat="48.21593" lon="3.19995">
        <ele>142</ele>
        <time>2024-05-23T15:37:21.817Z</time>
      </trkpt>
      <trkpt lat="48.21596" lon="3.2">
        <ele>142</ele>
        <time>2024-05-23T15:37:25.956Z</time>
      </trkpt>
      <trkpt lat="48.21599" lon="3.20006">
        <ele>141</ele>
        <time>2024-05-23T15:37:30.214Z</time>
      </trkpt>
      <trkpt lat="48.21602" lon="3.2001">
        <ele>141</ele>
        <time>2024-05-23T15:37:34.539Z</time>
      </trkpt>
      <trkpt lat="48.21606" lon="3.20015">
        <ele>140</ele>
        <time>2024-05-23T15:37:38.634Z</time>
      </trkpt>
      <trkpt lat="48.21612" lon="3.20026">
        <ele>140</ele>
        <time>2024-05-23T15:37:48.102Z</time>
      </trkpt>
      <trkpt lat="48.21617" lon="3.2003">
        <ele>140</ele>
        <time>2024-05-23T15:37:52.096Z</time>
      </trkpt>
      <trkpt lat="48.21621" lon="3.20035">
        <ele>140</ele>
        <time>2024-05-23T15:37:56.397Z</time>
      </trkpt>
      <trkpt lat="48.21624" lon="3.2004">
        <ele>140</ele>
        <time>2024-05-23T15:38:00.782Z</time>
      </trkpt>
      <trkpt lat="48.21628" lon="3.20045">
        <ele>137</ele>
        <time>2024-05-23T15:48:05.084Z</time>
      </trkpt>
      <trkpt lat="48.21628" lon="3.20045">
        <ele>137</ele>
        <time>2024-05-23T15:48:09.084Z</time>
      </trkpt>
      <trkpt lat="48.21629" lon="3.20052">
        <ele>137</ele>
        <time>2024-05-23T15:48:14.084Z</time>
      </trkpt>
      <trkpt lat="48.21634" lon="3.20059">
        <ele>137</ele>
        <time>2024-05-23T15:48:19.084Z</time>
      </trkpt>
      <trkpt lat="48.21638" lon="3.20059">
        <ele>137</ele>
        <time>2024-05-23T15:48:24.084Z</time>
      </trkpt>
      <trkpt lat="48.2164" lon="3.20069">
        <ele>137</ele>
        <time>2024-05-23T15:48:28.994Z</time>
      </trkpt>
      <trkpt lat="48.21643" lon="3.20074">
        <ele>137</ele>
        <time>2024-05-23T15:48:33.841Z</time>
      </trkpt>
      <trkpt lat="48.21646" lon="3.20078">
        <ele>137</ele>
        <time>2024-05-23T15:48:38.083Z</time>
      </trkpt>
      <trkpt lat="48.21649" lon="3.20084">
        <ele>137</ele>
        <time>2024-05-23T15:48:42.980Z</time>
      </trkpt>
      <trkpt lat="48.21652" lon="3.20091">
        <ele>137</ele>
        <time>2024-05-23T15:48:48.058Z</time>
      </trkpt>
      <trkpt lat="48.21654" lon="3.20096">
        <ele>134</ele>
        <time>2024-05-23T15:48:52.589Z</time>
      </trkpt>
      <trkpt lat="48.21657" lon="3.20102">
        <ele>133</ele>
        <time>2024-05-23T15:48:57.084Z</time>
      </trkpt>
      <trkpt lat="48.2166" lon="3.20107">
        <ele>133</ele>
        <time>2024-05-23T15:49:01.087Z</time>
      </trkpt>
      <trkpt lat="48.21663" lon="3.20113">
        <ele>133</ele>
        <time>2024-05-23T15:49:05.919Z</time>
      </trkpt>
      <trkpt lat="48.21667" lon="3.20117">
        <ele>133</ele>
        <time>2024-05-23T15:49:10.083Z</time>
      </trkpt>
      <trkpt lat="48.21671" lon="3.20121">
        <ele>133</ele>
        <time>2024-05-23T15:49:15.084Z</time>
      </trkpt>
      <trkpt lat="48.21674" lon="3.20124">
        <ele>133</ele>
        <time>2024-05-23T15:49:19.313Z</time>
      </trkpt>
      <trkpt lat="48.21679" lon="3.20126">
        <ele>129</ele>
        <time>2024-05-23T15:49:23.862Z</time>
      </trkpt>
      <trkpt lat="48.21684" lon="3.20127">
        <ele>128</ele>
        <time>2024-05-23T15:49:28.093Z</time>
      </trkpt>
      <trkpt lat="48.21689" lon="3.20129">
        <ele>128</ele>
        <time>2024-05-23T15:49:32.541Z</time>
      </trkpt>
      <trkpt lat="48.21694" lon="3.20131">
        <ele>128</ele>
        <time>2024-05-23T15:49:37.083Z</time>
      </trkpt>
      <trkpt lat="48.21699" lon="3.20132">
        <ele>128</ele>
        <time>2024-05-23T15:49:41.721Z</time>
      </trkpt>
      <trkpt lat="48.21704" lon="3.20134">
        <ele>128</ele>
        <time>2024-05-23T15:49:46.083Z</time>
      </trkpt>
      <trkpt lat="48.2171" lon="3.20135">
        <ele>127</ele>
        <time>2024-05-23T15:49:50.876Z</time>
      </trkpt>
      <trkpt lat="48.21715" lon="3.20137">
        <ele>127</ele>
        <time>2024-05-23T15:49:55.398Z</time>
      </trkpt>
      <trkpt lat="48.21721" lon="3.20139">
        <ele>127</ele>
        <time>2024-05-23T15:49:59.938Z</time>
      </trkpt>
      <trkpt lat="48.21726" lon="3.20141">
        <ele>127</ele>
        <time>2024-05-23T15:50:04.520Z</time>
      </trkpt>
      <trkpt lat="48.21731" lon="3.20142">
        <ele>127</ele>
        <time>2024-05-23T15:50:09Z</time>
      </trkpt>
      <trkpt lat="48.21736" lon="3.20143">
        <ele>125</ele>
        <time>2024-05-23T15:50:12.968Z</time>
      </trkpt>
      <trkpt lat="48.21741" lon="3.20145">
        <ele>125</ele>
        <time>2024-05-23T15:50:17.100Z</time>
      </trkpt>
      <trkpt lat="48.21746" lon="3.20147">
        <ele>125</ele>
        <time>2024-05-23T15:50:21.679Z</time>
      </trkpt>
      <trkpt lat="48.21751" lon="3.20149">
        <ele>125</ele>
        <time>2024-05-23T15:50:26.358Z</time>
      </trkpt>
      <trkpt lat="48.21757" lon="3.2015">
        <ele>125</ele>
        <time>2024-05-23T15:50:31.084Z</time>
      </trkpt>
      <trkpt lat="48.21762" lon="3.20151">
        <ele>125</ele>
        <time>2024-05-23T15:50:35.836Z</time>
      </trkpt>
      <trkpt lat="48.21768" lon="3.20153">
        <ele>122</ele>
        <time>2024-05-23T15:50:40.554Z</time>
      </trkpt>
      <trkpt lat="48.21773" lon="3.20154">
        <ele>122</ele>
        <time>2024-05-23T15:50:45.083Z</time>
      </trkpt>
      <trkpt lat="48.21779" lon="3.20156">
        <ele>122</ele>
        <time>2024-05-23T15:50:49.796Z</time>
      </trkpt>
      <trkpt lat="48.21784" lon="3.20157">
        <ele>122</ele>
        <time>2024-05-23T15:50:54.497Z</time>
      </trkpt>
      <trkpt lat="48.2179" lon="3.20159">
        <ele>122</ele>
        <time>2024-05-23T15:50:59.084Z</time>
      </trkpt>
      <trkpt lat="48.21795" lon="3.2016">
        <ele>120</ele>
        <time>2024-05-23T15:51:03.346Z</time>
      </trkpt>
      <trkpt lat="48.218" lon="3.20162">
        <ele>120</ele>
        <time>2024-05-23T15:51:07.775Z</time>
      </trkpt>
      <trkpt lat="48.21805" lon="3.20164">
        <ele>120</ele>
        <time>2024-05-23T15:51:12.040Z</time>
      </trkpt>
      <trkpt lat="48.2181" lon="3.20165">
        <ele>120</ele>
        <time>2024-05-23T15:51:16.083Z</time>
      </trkpt>
      <trkpt lat="48.21816" lon="3.20167">
        <ele>120</ele>
        <time>2024-05-23T15:51:20.701Z</time>
      </trkpt>
      <trkpt lat="48.21821" lon="3.20168">
        <ele>117</ele>
        <time>2024-05-23T15:51:24.874Z</time>
      </trkpt>
      <trkpt lat="48.21827" lon="3.2017">
        <ele>117</ele>
        <time>2024-05-23T15:51:29.083Z</time>
      </trkpt>
      <trkpt lat="48.21833" lon="3.20171">
        <ele>117</ele>
        <time>2024-05-23T15:51:34.083Z</time>
      </trkpt>
      <trkpt lat="48.21837" lon="3.20171">
        <ele>117</ele>
        <time>2024-05-23T15:51:38.467Z</time>
      </trkpt>
      <trkpt lat="48.21843" lon="3.20172">
        <ele>117</ele>
        <time>2024-05-23T15:51:43.083Z</time>
      </trkpt>
      <trkpt lat="48.2185" lon="3.20173">
        <ele>114</ele>
        <time>2024-05-23T15:51:48.084Z</time>
      </trkpt>
      <trkpt lat="48.21855" lon="3.20176">
        <ele>114</ele>
        <time>2024-05-23T15:51:52.734Z</time>
      </trkpt>
      <trkpt lat="48.2186" lon="3.20178">
        <ele>114</ele>
        <time>2024-05-23T15:51:57.084Z</time>
      </trkpt>
      <trkpt lat="48.21865" lon="3.20182">
        <ele>115</ele>
        <time>2024-05-23T15:52:02.084Z</time>
      </trkpt>
      <trkpt lat="48.21868" lon="3.20178">
        <ele>114</ele>
        <time>2024-05-23T15:52:06.693Z</time>
      </trkpt>
      <trkpt lat="48.21867" lon="3.20168">
        <ele>114</ele>
        <time>2024-05-23T15:52:11.084Z</time>
      </trkpt>
      <trkpt lat="48.21865" lon="3.20161">
        <ele>114</ele>
        <time>2024-05-23T15:52:15.234Z</time>
      </trkpt>
      <trkpt lat="48.21865" lon="3.20153">
        <ele>114</ele>
        <time>2024-05-23T15:52:19.433Z</time>
      </trkpt>
      <trkpt lat="48.21866" lon="3.20146">
        <ele>115</ele>
        <time>2024-05-23T15:52:23.521Z</time>
      </trkpt>
      <trkpt lat="48.21866" lon="3.20138">
        <ele>115</ele>
        <time>2024-05-23T15:52:27.760Z</time>
      </trkpt>
      <trkpt lat="48.21866" lon="3.2013">
        <ele>115</ele>
        <time>2024-05-23T15:52:32.437Z</time>
      </trkpt>
      <trkpt lat="48.21867" lon="3.20122">
        <ele>116</ele>
        <time>2024-05-23T15:52:36.474Z</time>
      </trkpt>
      <trkpt lat="48.21868" lon="3.20114">
        <ele>116</ele>
        <time>2024-05-23T15:52:40.637Z</time>
      </trkpt>
      <trkpt lat="48.21867" lon="3.20105">
        <ele>116</ele>
        <time>2024-05-23T15:52:45.083Z</time>
      </trkpt>
      <trkpt lat="48.21867" lon="3.20096">
        <ele>116</ele>
        <time>2024-05-23T15:52:50.041Z</time>
      </trkpt>
      <trkpt lat="48.21867" lon="3.20087">
        <ele>116</ele>
        <time>2024-05-23T15:52:54.657Z</time>
      </trkpt>
      <trkpt lat="48.21866" lon="3.2008">
        <ele>116</ele>
        <time>2024-05-23T15:52:58.642Z</time>
      </trkpt>
      <trkpt lat="48.21867" lon="3.20072">
        <ele>116</ele>
        <time>2024-05-23T15:53:02.839Z</time>
      </trkpt>
      <trkpt lat="48.21866" lon="3.20063">
        <ele>116</ele>
        <time>2024-05-23T15:53:07.501Z</time>
      </trkpt>
      <trkpt lat="48.21866" lon="3.20054">
        <ele>116</ele>
        <time>2024-05-23T15:53:12.083Z</time>
      </trkpt>
      <trkpt lat="48.21867" lon="3.20045">
        <ele>116</ele>
        <time>2024-05-23T15:53:16.774Z</time>
      </trkpt>
      <trkpt lat="48.21867" lon="3.20036">
        <ele>118</ele>
        <time>2024-05-23T15:53:21.398Z</time>
      </trkpt>
      <trkpt lat="48.21867" lon="3.20027">
        <ele>118</ele>
        <time>2024-05-23T15:53:25.981Z</time>
      </trkpt>
      <trkpt lat="48.21867" lon="3.20019">
        <ele>118</ele>
        <time>2024-05-23T15:53:30.083Z</time>
      </trkpt>
      <trkpt lat="48.21867" lon="3.20011">
        <ele>120</ele>
        <time>2024-05-23T15:53:34.539Z</time>
      </trkpt>
      <trkpt lat="48.21867" lon="3.20003">
        <ele>120</ele>
        <time>2024-05-23T15:53:38.780Z</time>
      </trkpt>
      <trkpt lat="48.21867" lon="3.19994">
        <ele>120</ele>
        <time>2024-05-23T15:53:43.083Z</time>
      </trkpt>
      <trkpt lat="48.21866" lon="3.19985">
        <ele>120</ele>
        <time>2024-05-23T15:53:47.799Z</time>
      </trkpt>
      <trkpt lat="48.21865" lon="3.19976">
        <ele>120</ele>
        <time>2024-05-23T15:53:52.458Z</time>
      </trkpt>
      <trkpt lat="48.21865" lon="3.19967">
        <ele>120</ele>
        <time>2024-05-23T15:53:57.083Z</time>
      </trkpt>
      <trkpt lat="48.21865" lon="3.19958">
        <ele>118</ele>
        <time>2024-05-23T15:54:02.024Z</time>
      </trkpt>
      <trkpt lat="48.21865" lon="3.19949">
        <ele>118</ele>
        <time>2024-05-23T15:54:06.776Z</time>
      </trkpt>
      <trkpt lat="48.21865" lon="3.19942">
        <ele>118</ele>
        <time>2024-05-23T15:54:11.083Z</time>
      </trkpt>
      <trkpt lat="48.21864" lon="3.19934">
        <ele>118</ele>
        <time>2024-05-23T15:54:15.736Z</time>
      </trkpt>
      <trkpt lat="48.21864" lon="3.19927">
        <ele>118</ele>
        <time>2024-05-23T15:54:20.079Z</time>
      </trkpt>
      <trkpt lat="48.21863" lon="3.1992">
        <ele>118</ele>
        <time>2024-05-23T15:54:24.300Z</time>
      </trkpt>
      <trkpt lat="48.21863" lon="3.19913">
        <ele>118</ele>
        <time>2024-05-23T15:54:28.893Z</time>
      </trkpt>
      <trkpt lat="48.21862" lon="3.19906">
        <ele>118</ele>
        <time>2024-05-23T15:54:33.084Z</time>
      </trkpt>
      <trkpt lat="48.21863" lon="3.19897">
        <ele>119</ele>
        <time>2024-05-23T15:54:37.818Z</time>
      </trkpt>
      <trkpt lat="48.21862" lon="3.19889">
        <ele>119</ele>
        <time>2024-05-23T15:54:42.478Z</time>
      </trkpt>
      <trkpt lat="48.21862" lon="3.19881">
        <ele>119</ele>
        <time>2024-05-23T15:54:47.084Z</time>
      </trkpt>
      <trkpt lat="48.21861" lon="3.19872">
        <ele>119</ele>
        <time>2024-05-23T15:54:52Z</time>
      </trkpt>
      <trkpt lat="48.2186" lon="3.19864">
        <ele>119</ele>
        <time>2024-05-23T15:54:56.574Z</time>
      </trkpt>
      <trkpt lat="48.2186" lon="3.19856">
        <ele>119</ele>
        <time>2024-05-23T15:55:01.083Z</time>
      </trkpt>
      <trkpt lat="48.2186" lon="3.19847">
        <ele>119</ele>
        <time>2024-05-23T15:55:05.755Z</time>
      </trkpt>
      <trkpt lat="48.2186" lon="3.19839">
        <ele>118</ele>
        <time>2024-05-23T15:55:10.414Z</time>
      </trkpt>
      <trkpt lat="48.2186" lon="3.19832">
        <ele>118</ele>
        <time>2024-05-23T15:55:14.416Z</time>
      </trkpt>
      <trkpt lat="48.2186" lon="3.19823">
        <ele>118</ele>
        <time>2024-05-23T15:55:18.640Z</time>
      </trkpt>
      <trkpt lat="48.2186" lon="3.19815">
        <ele>117</ele>
        <time>2024-05-23T15:55:23.084Z</time>
      </trkpt>
      <trkpt lat="48.2186" lon="3.19806">
        <ele>117</ele>
        <time>2024-05-23T15:55:28.034Z</time>
      </trkpt>
      <trkpt lat="48.21861" lon="3.19799">
        <ele>117</ele>
        <time>2024-05-23T15:55:32.083Z</time>
      </trkpt>
      <trkpt lat="48.21862" lon="3.19789">
        <ele>118</ele>
        <time>2024-05-23T15:55:37.084Z</time>
      </trkpt>
      <trkpt lat="48.21863" lon="3.19779">
        <ele>118</ele>
        <time>2024-05-23T15:55:41.636Z</time>
      </trkpt>
      <trkpt lat="48.21863" lon="3.19771">
        <ele>118</ele>
        <time>2024-05-23T15:55:46.083Z</time>
      </trkpt>
      <trkpt lat="48.21864" lon="3.19763">
        <ele>120</ele>
        <time>2024-05-23T15:55:50.459Z</time>
      </trkpt>
      <trkpt lat="48.21865" lon="3.19755">
        <ele>120</ele>
        <time>2024-05-23T15:55:54.676Z</time>
      </trkpt>
      <trkpt lat="48.21865" lon="3.19747">
        <ele>120</ele>
        <time>2024-05-23T15:55:58.796Z</time>
      </trkpt>
      <trkpt lat="48.21866" lon="3.19738">
        <ele>120</ele>
        <time>2024-05-23T15:56:03.380Z</time>
      </trkpt>
      <trkpt lat="48.21866" lon="3.19729">
        <ele>120</ele>
        <time>2024-05-23T15:56:07.959Z</time>
      </trkpt>
      <trkpt lat="48.21867" lon="3.1972">
        <ele>120</ele>
        <time>2024-05-23T15:56:12.559Z</time>
      </trkpt>
      <trkpt lat="48.21867" lon="3.19712">
        <ele>120</ele>
        <time>2024-05-23T15:56:17.038Z</time>
      </trkpt>
      <trkpt lat="48.21866" lon="3.19703">
        <ele>121</ele>
        <time>2024-05-23T15:56:21.434Z</time>
      </trkpt>
      <trkpt lat="48.21867" lon="3.19695">
        <ele>121</ele>
        <time>2024-05-23T15:56:25.878Z</time>
      </trkpt>
      <trkpt lat="48.21867" lon="3.19687">
        <ele>121</ele>
        <time>2024-05-23T15:56:30.082Z</time>
      </trkpt>
      <trkpt lat="48.21868" lon="3.19679">
        <ele>122</ele>
        <time>2024-05-23T15:56:34.438Z</time>
      </trkpt>
      <trkpt lat="48.21868" lon="3.19672">
        <ele>122</ele>
        <time>2024-05-23T15:56:38.607Z</time>
      </trkpt>
      <trkpt lat="48.21868" lon="3.19663">
        <ele>122</ele>
        <time>2024-05-23T15:56:43.083Z</time>
      </trkpt>
      <trkpt lat="48.21868" lon="3.19654">
        <ele>122</ele>
        <time>2024-05-23T15:56:48.098Z</time>
      </trkpt>
      <trkpt lat="48.21869" lon="3.19647">
        <ele>123</ele>
        <time>2024-05-23T15:56:52.656Z</time>
      </trkpt>
      <trkpt lat="48.21873" lon="3.19642">
        <ele>123</ele>
        <time>2024-05-23T15:56:56.965Z</time>
      </trkpt>
      <trkpt lat="48.21872" lon="3.19634">
        <ele>123</ele>
        <time>2024-05-23T15:57:01.083Z</time>
      </trkpt>
      <trkpt lat="48.21872" lon="3.19632">
        <ele>123</ele>
        <time>2024-05-23T15:57:03.083Z</time>
      </trkpt>
      <trkpt lat="48.21871" lon="3.19622">
        <ele>124</ele>
        <time>2024-05-23T15:57:11.082Z</time>
      </trkpt>
      <trkpt lat="48.2187" lon="3.19617">
        <ele>124</ele>
        <time>2024-05-23T15:57:13.970Z</time>
      </trkpt>
      <trkpt lat="48.2187" lon="3.19608">
        <ele>124</ele>
        <time>2024-05-23T15:57:19.043Z</time>
      </trkpt>
      <trkpt lat="48.21875" lon="3.19591">
        <ele>123</ele>
        <time>2024-05-23T15:57:28.480Z</time>
      </trkpt>
      <trkpt lat="48.21878" lon="3.19579">
        <ele>121</ele>
        <time>2024-05-23T15:57:48.083Z</time>
      </trkpt>
      <trkpt lat="48.2188" lon="3.1957">
        <ele>121</ele>
        <time>2024-05-23T15:57:53.083Z</time>
      </trkpt>
      <trkpt lat="48.21882" lon="3.19562">
        <ele>121</ele>
        <time>2024-05-23T15:57:57.581Z</time>
      </trkpt>
      <trkpt lat="48.21884" lon="3.19555">
        <ele>121</ele>
        <time>2024-05-23T15:58:02.083Z</time>
      </trkpt>
      <trkpt lat="48.21885" lon="3.19547">
        <ele>121</ele>
        <time>2024-05-23T15:58:06.237Z</time>
      </trkpt>
      <trkpt lat="48.21888" lon="3.19539">
        <ele>120</ele>
        <time>2024-05-23T15:58:11.028Z</time>
      </trkpt>
      <trkpt lat="48.21889" lon="3.19528">
        <ele>120</ele>
        <time>2024-05-23T15:58:16.067Z</time>
      </trkpt>
      <trkpt lat="48.21891" lon="3.19521">
        <ele>120</ele>
        <time>2024-05-23T15:58:20.505Z</time>
      </trkpt>
      <trkpt lat="48.21891" lon="3.19511">
        <ele>121</ele>
        <time>2024-05-23T15:58:25.082Z</time>
      </trkpt>
      <trkpt lat="48.21891" lon="3.19503">
        <ele>121</ele>
        <time>2024-05-23T15:58:29.687Z</time>
      </trkpt>
      <trkpt lat="48.21891" lon="3.19494">
        <ele>121</ele>
        <time>2024-05-23T15:58:34.082Z</time>
      </trkpt>
      <trkpt lat="48.21892" lon="3.19485">
        <ele>122</ele>
        <time>2024-05-23T15:58:38.799Z</time>
      </trkpt>
      <trkpt lat="48.21893" lon="3.19478">
        <ele>122</ele>
        <time>2024-05-23T15:58:42.845Z</time>
      </trkpt>
      <trkpt lat="48.21894" lon="3.19471">
        <ele>122</ele>
        <time>2024-05-23T15:58:46.985Z</time>
      </trkpt>
      <trkpt lat="48.21894" lon="3.19462">
        <ele>122</ele>
        <time>2024-05-23T15:58:51.540Z</time>
      </trkpt>
      <trkpt lat="48.21894" lon="3.19455">
        <ele>124</ele>
        <time>2024-05-23T15:58:55.720Z</time>
      </trkpt>
      <trkpt lat="48.21895" lon="3.19447">
        <ele>124</ele>
        <time>2024-05-23T15:59:00.083Z</time>
      </trkpt>
      <trkpt lat="48.21897" lon="3.1944">
        <ele>124</ele>
        <time>2024-05-23T15:59:04.723Z</time>
      </trkpt>
      <trkpt lat="48.21898" lon="3.19432">
        <ele>124</ele>
        <time>2024-05-23T15:59:08.886Z</time>
      </trkpt>
      <trkpt lat="48.21898" lon="3.19423">
        <ele>126</ele>
        <time>2024-05-23T15:59:13.082Z</time>
      </trkpt>
      <trkpt lat="48.21901" lon="3.19413">
        <ele>126</ele>
        <time>2024-05-23T15:59:17.726Z</time>
      </trkpt>
      <trkpt lat="48.21901" lon="3.19407">
        <ele>126</ele>
        <time>2024-05-23T15:59:21.781Z</time>
      </trkpt>
      <trkpt lat="48.21901" lon="3.19399">
        <ele>127</ele>
        <time>2024-05-23T15:59:25.885Z</time>
      </trkpt>
      <trkpt lat="48.21903" lon="3.19393">
        <ele>123</ele>
        <time>2024-05-23T15:59:30.040Z</time>
      </trkpt>
      <trkpt lat="48.21905" lon="3.19387">
        <ele>123</ele>
        <time>2024-05-23T15:59:34.082Z</time>
      </trkpt>
      <trkpt lat="48.21905" lon="3.19378">
        <ele>123</ele>
        <time>2024-05-23T15:59:38.420Z</time>
      </trkpt>
      <trkpt lat="48.21906" lon="3.19371">
        <ele>123</ele>
        <time>2024-05-23T15:59:43.082Z</time>
      </trkpt>
      <trkpt lat="48.21907" lon="3.19363">
        <ele>123</ele>
        <time>2024-05-23T15:59:47.083Z</time>
      </trkpt>
      <trkpt lat="48.21908" lon="3.19354">
        <ele>123</ele>
        <time>2024-05-23T15:59:51.425Z</time>
      </trkpt>
      <trkpt lat="48.21908" lon="3.19347">
        <ele>124</ele>
        <time>2024-05-23T15:59:56.026Z</time>
      </trkpt>
      <trkpt lat="48.21908" lon="3.1934">
        <ele>124</ele>
        <time>2024-05-23T16:00:00.082Z</time>
      </trkpt>
      <trkpt lat="48.21909" lon="3.19333">
        <ele>124</ele>
        <time>2024-05-23T16:00:04.565Z</time>
      </trkpt>
      <trkpt lat="48.21912" lon="3.19327">
        <ele>124</ele>
        <time>2024-05-23T16:00:08.944Z</time>
      </trkpt>
      <trkpt lat="48.21915" lon="3.19323">
        <ele>124</ele>
        <time>2024-05-23T16:00:13.066Z</time>
      </trkpt>
      <trkpt lat="48.21919" lon="3.19322">
        <ele>124</ele>
        <time>2024-05-23T16:00:17.083Z</time>
      </trkpt>
      <trkpt lat="48.21923" lon="3.19321">
        <ele>124</ele>
        <time>2024-05-23T16:00:21.205Z</time>
      </trkpt>
      <trkpt lat="48.21928" lon="3.19321">
        <ele>124</ele>
        <time>2024-05-23T16:00:25.702Z</time>
      </trkpt>
      <trkpt lat="48.21933" lon="3.19321">
        <ele>121</ele>
        <time>2024-05-23T16:00:30.082Z</time>
      </trkpt>
      <trkpt lat="48.21939" lon="3.19321">
        <ele>121</ele>
        <time>2024-05-23T16:00:34.525Z</time>
      </trkpt>
      <trkpt lat="48.21944" lon="3.1932">
        <ele>121</ele>
        <time>2024-05-23T16:00:38.886Z</time>
      </trkpt>
      <trkpt lat="48.21949" lon="3.19319">
        <ele>121</ele>
        <time>2024-05-23T16:00:43.025Z</time>
      </trkpt>
      <trkpt lat="48.21954" lon="3.19316">
        <ele>121</ele>
        <time>2024-05-23T16:00:47.426Z</time>
      </trkpt>
      <trkpt lat="48.21959" lon="3.19313">
        <ele>116</ele>
        <time>2024-05-23T16:00:51.787Z</time>
      </trkpt>
      <trkpt lat="48.21963" lon="3.1931">
        <ele>116</ele>
        <time>2024-05-23T16:00:56.062Z</time>
      </trkpt>
      <trkpt lat="48.21968" lon="3.19308">
        <ele>116</ele>
        <time>2024-05-23T16:01:00.439Z</time>
      </trkpt>
      <trkpt lat="48.21974" lon="3.19305">
        <ele>116</ele>
        <time>2024-05-23T16:01:04.724Z</time>
      </trkpt>
      <trkpt lat="48.21979" lon="3.19303">
        <ele>116</ele>
        <time>2024-05-23T16:01:09.082Z</time>
      </trkpt>
      <trkpt lat="48.21984" lon="3.193">
        <ele>116</ele>
        <time>2024-05-23T16:01:13.741Z</time>
      </trkpt>
      <trkpt lat="48.21989" lon="3.19298">
        <ele>114</ele>
        <time>2024-05-23T16:01:18.468Z</time>
      </trkpt>
      <trkpt lat="48.21994" lon="3.19296">
        <ele>114</ele>
        <time>2024-05-23T16:01:22.924Z</time>
      </trkpt>
      <trkpt lat="48.22" lon="3.19293">
        <ele>114</ele>
        <time>2024-05-23T16:01:27.880Z</time>
      </trkpt>
      <trkpt lat="48.22005" lon="3.19291">
        <ele>115</ele>
        <time>2024-05-23T16:01:32.062Z</time>
      </trkpt>
      <trkpt lat="48.22009" lon="3.19288">
        <ele>115</ele>
        <time>2024-05-23T16:01:36.082Z</time>
      </trkpt>
      <trkpt lat="48.22014" lon="3.19285">
        <ele>114</ele>
        <time>2024-05-23T16:01:40.499Z</time>
      </trkpt>
      <trkpt lat="48.22019" lon="3.19283">
        <ele>114</ele>
        <time>2024-05-23T16:01:45.022Z</time>
      </trkpt>
      <trkpt lat="48.22024" lon="3.19283">
        <ele>114</ele>
        <time>2024-05-23T16:01:49.084Z</time>
      </trkpt>
      <trkpt lat="48.22031" lon="3.19283">
        <ele>114</ele>
        <time>2024-05-23T16:01:53.162Z</time>
      </trkpt>
      <trkpt lat="48.22035" lon="3.19282">
        <ele>114</ele>
        <time>2024-05-23T16:01:57.405Z</time>
      </trkpt>
      <trkpt lat="48.2204" lon="3.19279">
        <ele>114</ele>
        <time>2024-05-23T16:02:02.082Z</time>
      </trkpt>
      <trkpt lat="48.22044" lon="3.19277">
        <ele>114</ele>
        <time>2024-05-23T16:02:06.746Z</time>
      </trkpt>
      <trkpt lat="48.22049" lon="3.19274">
        <ele>114</ele>
        <time>2024-05-23T16:02:11.422Z</time>
      </trkpt>
      <trkpt lat="48.22054" lon="3.1927">
        <ele>114</ele>
        <time>2024-05-23T16:02:15.988Z</time>
      </trkpt>
      <trkpt lat="48.22055" lon="3.19263">
        <ele>114</ele>
        <time>2024-05-23T16:02:20.024Z</time>
      </trkpt>
      <trkpt lat="48.22061" lon="3.19262">
        <ele>114</ele>
        <time>2024-05-23T16:02:24.083Z</time>
      </trkpt>
      <trkpt lat="48.22068" lon="3.19256">
        <ele>114</ele>
        <time>2024-05-23T16:02:29.026Z</time>
      </trkpt>
      <trkpt lat="48.22073" lon="3.19256">
        <ele>116</ele>
        <time>2024-05-23T16:02:33.083Z</time>
      </trkpt>
      <trkpt lat="48.22071" lon="3.1925">
        <ele>116</ele>
        <time>2024-05-23T16:02:38.083Z</time>
      </trkpt>
      <trkpt lat="48.22073" lon="3.19248">
        <ele>116</ele>
        <time>2024-05-23T16:02:42.804Z</time>
      </trkpt>
      <trkpt lat="48.22077" lon="3.19248">
        <ele>116</ele>
        <time>2024-05-23T16:02:46.960Z</time>
      </trkpt>
      <trkpt lat="48.22081" lon="3.19242">
        <ele>116</ele>
        <time>2024-05-23T16:02:51.082Z</time>
      </trkpt>
      <trkpt lat="48.22087" lon="3.19239">
        <ele>116</ele>
        <time>2024-05-23T16:02:56.082Z</time>
      </trkpt>
      <trkpt lat="48.22092" lon="3.19238">
        <ele>116</ele>
        <time>2024-05-23T16:03:01.091Z</time>
      </trkpt>
      <trkpt lat="48.22097" lon="3.19232">
        <ele>116</ele>
        <time>2024-05-23T16:03:05.740Z</time>
      </trkpt>
      <trkpt lat="48.22102" lon="3.19229">
        <ele>117</ele>
        <time>2024-05-23T16:03:09.804Z</time>
      </trkpt>
      <trkpt lat="48.22108" lon="3.19227">
        <ele>117</ele>
        <time>2024-05-23T16:03:14.082Z</time>
      </trkpt>
      <trkpt lat="48.22112" lon="3.19222">
        <ele>117</ele>
        <time>2024-05-23T16:03:19.082Z</time>
      </trkpt>
      <trkpt lat="48.22114" lon="3.19214">
        <ele>117</ele>
        <time>2024-05-23T16:03:23.401Z</time>
      </trkpt>
      <trkpt lat="48.22113" lon="3.19208">
        <ele>117</ele>
        <time>2024-05-23T16:03:27.422Z</time>
      </trkpt>
      <trkpt lat="48.22112" lon="3.19198">
        <ele>117</ele>
        <time>2024-05-23T16:03:31.841Z</time>
      </trkpt>
      <trkpt lat="48.2211" lon="3.19192">
        <ele>117</ele>
        <time>2024-05-23T16:03:35.885Z</time>
      </trkpt>
      <trkpt lat="48.22109" lon="3.19185">
        <ele>117</ele>
        <time>2024-05-23T16:03:39.946Z</time>
      </trkpt>
      <trkpt lat="48.22106" lon="3.19178">
        <ele>119</ele>
        <time>2024-05-23T16:03:44.060Z</time>
      </trkpt>
      <trkpt lat="48.22104" lon="3.19171">
        <ele>119</ele>
        <time>2024-05-23T16:03:48.081Z</time>
      </trkpt>
      <trkpt lat="48.221" lon="3.19164">
        <ele>119</ele>
        <time>2024-05-23T16:03:52.763Z</time>
      </trkpt>
      <trkpt lat="48.22098" lon="3.19156">
        <ele>119</ele>
        <time>2024-05-23T16:03:57.081Z</time>
      </trkpt>
      <trkpt lat="48.22096" lon="3.19149">
        <ele>120</ele>
        <time>2024-05-23T16:04:01.482Z</time>
      </trkpt>
      <trkpt lat="48.22096" lon="3.19141">
        <ele>120</ele>
        <time>2024-05-23T16:04:05.765Z</time>
      </trkpt>
      <trkpt lat="48.22094" lon="3.19135">
        <ele>120</ele>
        <time>2024-05-23T16:04:10.081Z</time>
      </trkpt>
      <trkpt lat="48.22092" lon="3.19133">
        <ele>120</ele>
        <time>2024-05-23T16:04:14.964Z</time>
      </trkpt>
      <trkpt lat="48.2209" lon="3.19126">
        <ele>120</ele>
        <time>2024-05-23T16:04:19.082Z</time>
      </trkpt>
      <trkpt lat="48.22088" lon="3.1912">
        <ele>121</ele>
        <time>2024-05-23T16:04:23.625Z</time>
      </trkpt>
      <trkpt lat="48.22088" lon="3.19113">
        <ele>121</ele>
        <time>2024-05-23T16:04:27.685Z</time>
      </trkpt>
      <trkpt lat="48.22093" lon="3.19109">
        <ele>121</ele>
        <time>2024-05-23T16:04:32.361Z</time>
      </trkpt>
      <trkpt lat="48.22096" lon="3.19105">
        <ele>121</ele>
        <time>2024-05-23T16:04:36.746Z</time>
      </trkpt>
      <trkpt lat="48.22099" lon="3.19101">
        <ele>122</ele>
        <time>2024-05-23T16:04:40.826Z</time>
      </trkpt>
      <trkpt lat="48.221" lon="3.19095">
        <ele>123</ele>
        <time>2024-05-23T16:04:45.081Z</time>
      </trkpt>
      <trkpt lat="48.22099" lon="3.19088">
        <ele>123</ele>
        <time>2024-05-23T16:04:49.845Z</time>
      </trkpt>
      <trkpt lat="48.22101" lon="3.19083">
        <ele>123</ele>
        <time>2024-05-23T16:04:54.082Z</time>
      </trkpt>
    </trkseg>
  </trk>
</gpx>